<?xml version="1.0" encoding="UTF-8" standalone="no" ?>
<gpx xmlns="http://www.topografix.com/GPX/1/1" xmlns:xsi="http://www.w3.org/2001/XMLSchema-instance" xsi:schemaLocation="http://www.topografix.com/GPX/1/1 http://www.topografix.com/GPX/1/1/gpx.xsd" version="1.1" creator="VisuGPX - https://www.visugpx.com">
  <metadata>
    <name>2017 Rocmarathon</name>
    <desc><![CDATA[File with points/tracks from Locus Map/3.25.5]]></desc>
  </metadata>
  <trk>
    <name><![CDATA[roc d'azur]]></name>
    <trkseg>
      <trkpt lat="43.42484" lon="6.7362">
        <ele>2.07</ele>
        <time>2017-10-07T05:24:10.000Z</time>
      </trkpt>
      <trkpt lat="43.42481" lon="6.73631">
        <ele>1.83</ele>
        <time>2017-10-07T05:25:47.000Z</time>
      </trkpt>
      <trkpt lat="43.42472" lon="6.7364">
        <ele>1.44</ele>
        <time>2017-10-07T05:25:52.000Z</time>
      </trkpt>
      <trkpt lat="43.42462" lon="6.73654">
        <ele>1.06</ele>
        <time>2017-10-07T05:25:57.000Z</time>
      </trkpt>
      <trkpt lat="43.42465" lon="6.73669">
        <ele>1.15</ele>
        <time>2017-10-07T05:26:02.000Z</time>
      </trkpt>
      <trkpt lat="43.42466" lon="6.7369">
        <ele>1.33</ele>
        <time>2017-10-07T05:26:07.000Z</time>
      </trkpt>
      <trkpt lat="43.42461" lon="6.73708">
        <ele>1.43</ele>
        <time>2017-10-07T05:26:12.000Z</time>
      </trkpt>
      <trkpt lat="43.42444" lon="6.7372">
        <ele>1.09</ele>
        <time>2017-10-07T05:26:17.000Z</time>
      </trkpt>
      <trkpt lat="43.42425" lon="6.73726">
        <ele>0.69</ele>
        <time>2017-10-07T05:26:22.000Z</time>
      </trkpt>
      <trkpt lat="43.42407" lon="6.73731">
        <ele>0.6</ele>
        <time>2017-10-07T05:26:27.000Z</time>
      </trkpt>
      <trkpt lat="43.4239" lon="6.73738">
        <ele>0.7</ele>
        <time>2017-10-07T05:26:32.000Z</time>
      </trkpt>
      <trkpt lat="43.42373" lon="6.73742">
        <ele>0.85</ele>
        <time>2017-10-07T05:26:37.000Z</time>
      </trkpt>
      <trkpt lat="43.42354" lon="6.73748">
        <ele>1</ele>
        <time>2017-10-07T05:26:42.000Z</time>
      </trkpt>
      <trkpt lat="43.42335" lon="6.73754">
        <ele>1.04</ele>
        <time>2017-10-07T05:26:47.000Z</time>
      </trkpt>
      <trkpt lat="43.42318" lon="6.73758">
        <ele>0.93</ele>
        <time>2017-10-07T05:26:52.000Z</time>
      </trkpt>
      <trkpt lat="43.42297" lon="6.73766">
        <ele>0.78</ele>
        <time>2017-10-07T05:26:57.000Z</time>
      </trkpt>
      <trkpt lat="43.42276" lon="6.73772">
        <ele>0.61</ele>
        <time>2017-10-07T05:27:02.000Z</time>
      </trkpt>
      <trkpt lat="43.42264" lon="6.73765">
        <ele>0.32</ele>
        <time>2017-10-07T05:27:07.000Z</time>
      </trkpt>
      <trkpt lat="43.42265" lon="6.73747">
        <ele>0.2</ele>
        <time>2017-10-07T05:27:12.000Z</time>
      </trkpt>
      <trkpt lat="43.42263" lon="6.73719">
        <ele>0.48</ele>
        <time>2017-10-07T05:27:17.000Z</time>
      </trkpt>
      <trkpt lat="43.42245" lon="6.73699">
        <ele>0.85</ele>
        <time>2017-10-07T05:27:22.000Z</time>
      </trkpt>
      <trkpt lat="43.4222" lon="6.73697">
        <ele>0.64</ele>
        <time>2017-10-07T05:27:27.000Z</time>
      </trkpt>
      <trkpt lat="43.42198" lon="6.73691">
        <ele>0.56</ele>
        <time>2017-10-07T05:27:32.000Z</time>
      </trkpt>
      <trkpt lat="43.42176" lon="6.73684">
        <ele>0.54</ele>
        <time>2017-10-07T05:27:37.000Z</time>
      </trkpt>
      <trkpt lat="43.42153" lon="6.73679">
        <ele>0.66</ele>
        <time>2017-10-07T05:27:42.000Z</time>
      </trkpt>
      <trkpt lat="43.42131" lon="6.73673">
        <ele>0.92</ele>
        <time>2017-10-07T05:27:47.000Z</time>
      </trkpt>
      <trkpt lat="43.4211" lon="6.73667">
        <ele>1.12</ele>
        <time>2017-10-07T05:27:52.000Z</time>
      </trkpt>
      <trkpt lat="43.42083" lon="6.7366">
        <ele>1.02</ele>
        <time>2017-10-07T05:27:57.000Z</time>
      </trkpt>
      <trkpt lat="43.42058" lon="6.73655">
        <ele>0.39</ele>
        <time>2017-10-07T05:28:02.000Z</time>
      </trkpt>
      <trkpt lat="43.42032" lon="6.73649">
        <ele>-0.46</ele>
        <time>2017-10-07T05:28:07.000Z</time>
      </trkpt>
      <trkpt lat="43.42008" lon="6.73644">
        <ele>-0.95</ele>
        <time>2017-10-07T05:28:12.000Z</time>
      </trkpt>
      <trkpt lat="43.41984" lon="6.73636">
        <ele>-0.85</ele>
        <time>2017-10-07T05:28:17.000Z</time>
      </trkpt>
      <trkpt lat="43.41959" lon="6.73629">
        <ele>-0.55</ele>
        <time>2017-10-07T05:28:22.000Z</time>
      </trkpt>
      <trkpt lat="43.41934" lon="6.73624">
        <ele>-0.4</ele>
        <time>2017-10-07T05:28:27.000Z</time>
      </trkpt>
      <trkpt lat="43.41908" lon="6.73618">
        <ele>-0.36</ele>
        <time>2017-10-07T05:28:32.000Z</time>
      </trkpt>
      <trkpt lat="43.41883" lon="6.73612">
        <ele>0.09</ele>
        <time>2017-10-07T05:28:37.000Z</time>
      </trkpt>
      <trkpt lat="43.41859" lon="6.73606">
        <ele>0.75</ele>
        <time>2017-10-07T05:28:42.000Z</time>
      </trkpt>
      <trkpt lat="43.41834" lon="6.73601">
        <ele>1.25</ele>
        <time>2017-10-07T05:28:47.000Z</time>
      </trkpt>
      <trkpt lat="43.41808" lon="6.73593">
        <ele>1.04</ele>
        <time>2017-10-07T05:28:52.000Z</time>
      </trkpt>
      <trkpt lat="43.41783" lon="6.73587">
        <ele>0.52</ele>
        <time>2017-10-07T05:28:57.000Z</time>
      </trkpt>
      <trkpt lat="43.41757" lon="6.73582">
        <ele>0.06</ele>
        <time>2017-10-07T05:29:02.000Z</time>
      </trkpt>
      <trkpt lat="43.41732" lon="6.73576">
        <ele>-0.02</ele>
        <time>2017-10-07T05:29:07.000Z</time>
      </trkpt>
      <trkpt lat="43.41707" lon="6.73571">
        <ele>0.04</ele>
        <time>2017-10-07T05:29:12.000Z</time>
      </trkpt>
      <trkpt lat="43.4168" lon="6.73564">
        <ele>-0.13</ele>
        <time>2017-10-07T05:29:17.000Z</time>
      </trkpt>
      <trkpt lat="43.41656" lon="6.73557">
        <ele>-0.63</ele>
        <time>2017-10-07T05:29:22.000Z</time>
      </trkpt>
      <trkpt lat="43.4163" lon="6.73551">
        <ele>-1.31</ele>
        <time>2017-10-07T05:29:27.000Z</time>
      </trkpt>
      <trkpt lat="43.41616" lon="6.73533">
        <ele>-1.21</ele>
        <time>2017-10-07T05:29:32.000Z</time>
      </trkpt>
      <trkpt lat="43.41629" lon="6.73505">
        <ele>-0.74</ele>
        <time>2017-10-07T05:29:37.000Z</time>
      </trkpt>
      <trkpt lat="43.41645" lon="6.73488">
        <ele>-0.73</ele>
        <time>2017-10-07T05:29:42.000Z</time>
      </trkpt>
      <trkpt lat="43.41662" lon="6.73471">
        <ele>-0.46</ele>
        <time>2017-10-07T05:29:47.000Z</time>
      </trkpt>
      <trkpt lat="43.41678" lon="6.73454">
        <ele>-0.13</ele>
        <time>2017-10-07T05:29:52.000Z</time>
      </trkpt>
      <trkpt lat="43.41694" lon="6.73436">
        <ele>-0.18</ele>
        <time>2017-10-07T05:29:57.000Z</time>
      </trkpt>
      <trkpt lat="43.41711" lon="6.73416">
        <ele>-0.78</ele>
        <time>2017-10-07T05:30:02.000Z</time>
      </trkpt>
      <trkpt lat="43.41729" lon="6.73396">
        <ele>-1.27</ele>
        <time>2017-10-07T05:30:07.000Z</time>
      </trkpt>
      <trkpt lat="43.41742" lon="6.73374">
        <ele>-1.04</ele>
        <time>2017-10-07T05:30:12.000Z</time>
      </trkpt>
      <trkpt lat="43.41751" lon="6.73349">
        <ele>-0.37</ele>
        <time>2017-10-07T05:30:17.000Z</time>
      </trkpt>
      <trkpt lat="43.41754" lon="6.73321">
        <ele>0.19</ele>
        <time>2017-10-07T05:30:22.000Z</time>
      </trkpt>
      <trkpt lat="43.41751" lon="6.73293">
        <ele>0.65</ele>
        <time>2017-10-07T05:30:27.000Z</time>
      </trkpt>
      <trkpt lat="43.41748" lon="6.73266">
        <ele>0.97</ele>
        <time>2017-10-07T05:30:32.000Z</time>
      </trkpt>
      <trkpt lat="43.41745" lon="6.73238">
        <ele>0.98</ele>
        <time>2017-10-07T05:30:37.000Z</time>
      </trkpt>
      <trkpt lat="43.4174" lon="6.73211">
        <ele>0.7</ele>
        <time>2017-10-07T05:30:42.000Z</time>
      </trkpt>
      <trkpt lat="43.41734" lon="6.73184">
        <ele>0.32</ele>
        <time>2017-10-07T05:30:47.000Z</time>
      </trkpt>
      <trkpt lat="43.41728" lon="6.73158">
        <ele>0.04</ele>
        <time>2017-10-07T05:30:52.000Z</time>
      </trkpt>
      <trkpt lat="43.41722" lon="6.73133">
        <ele>-0.28</ele>
        <time>2017-10-07T05:30:57.000Z</time>
      </trkpt>
      <trkpt lat="43.41715" lon="6.73108">
        <ele>-0.39</ele>
        <time>2017-10-07T05:31:02.000Z</time>
      </trkpt>
      <trkpt lat="43.41708" lon="6.73083">
        <ele>-0.17</ele>
        <time>2017-10-07T05:31:07.000Z</time>
      </trkpt>
      <trkpt lat="43.41701" lon="6.73058">
        <ele>0.21</ele>
        <time>2017-10-07T05:31:12.000Z</time>
      </trkpt>
      <trkpt lat="43.41695" lon="6.7303">
        <ele>0.41</ele>
        <time>2017-10-07T05:31:17.000Z</time>
      </trkpt>
      <trkpt lat="43.41689" lon="6.73002">
        <ele>0.41</ele>
        <time>2017-10-07T05:31:22.000Z</time>
      </trkpt>
      <trkpt lat="43.41681" lon="6.72974">
        <ele>0.6</ele>
        <time>2017-10-07T05:31:27.000Z</time>
      </trkpt>
      <trkpt lat="43.41673" lon="6.72947">
        <ele>1.14</ele>
        <time>2017-10-07T05:31:32.000Z</time>
      </trkpt>
      <trkpt lat="43.41667" lon="6.7292">
        <ele>1.9</ele>
        <time>2017-10-07T05:31:37.000Z</time>
      </trkpt>
      <trkpt lat="43.41662" lon="6.72895">
        <ele>2.65</ele>
        <time>2017-10-07T05:31:42.000Z</time>
      </trkpt>
      <trkpt lat="43.41659" lon="6.72871">
        <ele>3.34</ele>
        <time>2017-10-07T05:31:47.000Z</time>
      </trkpt>
      <trkpt lat="43.41652" lon="6.72843">
        <ele>4.09</ele>
        <time>2017-10-07T05:31:52.000Z</time>
      </trkpt>
      <trkpt lat="43.41642" lon="6.72824">
        <ele>4.49</ele>
        <time>2017-10-07T05:31:57.000Z</time>
      </trkpt>
      <trkpt lat="43.41627" lon="6.72812">
        <ele>4.82</ele>
        <time>2017-10-07T05:32:02.000Z</time>
      </trkpt>
      <trkpt lat="43.41607" lon="6.72806">
        <ele>5.17</ele>
        <time>2017-10-07T05:32:07.000Z</time>
      </trkpt>
      <trkpt lat="43.41588" lon="6.72807">
        <ele>5.47</ele>
        <time>2017-10-07T05:32:12.000Z</time>
      </trkpt>
      <trkpt lat="43.41564" lon="6.72818">
        <ele>5.91</ele>
        <time>2017-10-07T05:32:17.000Z</time>
      </trkpt>
      <trkpt lat="43.41539" lon="6.72835">
        <ele>6.27</ele>
        <time>2017-10-07T05:32:22.000Z</time>
      </trkpt>
      <trkpt lat="43.41513" lon="6.72851">
        <ele>6.58</ele>
        <time>2017-10-07T05:32:27.000Z</time>
      </trkpt>
      <trkpt lat="43.41492" lon="6.72879">
        <ele>7.27</ele>
        <time>2017-10-07T05:32:32.000Z</time>
      </trkpt>
      <trkpt lat="43.41474" lon="6.72908">
        <ele>7.4</ele>
        <time>2017-10-07T05:32:37.000Z</time>
      </trkpt>
      <trkpt lat="43.41457" lon="6.72933">
        <ele>6.69</ele>
        <time>2017-10-07T05:32:42.000Z</time>
      </trkpt>
      <trkpt lat="43.4144" lon="6.72953">
        <ele>5.88</ele>
        <time>2017-10-07T05:32:47.000Z</time>
      </trkpt>
      <trkpt lat="43.41421" lon="6.72981">
        <ele>5.19</ele>
        <time>2017-10-07T05:32:52.000Z</time>
      </trkpt>
      <trkpt lat="43.41403" lon="6.73011">
        <ele>4.59</ele>
        <time>2017-10-07T05:32:57.000Z</time>
      </trkpt>
      <trkpt lat="43.41386" lon="6.73037">
        <ele>4.04</ele>
        <time>2017-10-07T05:33:02.000Z</time>
      </trkpt>
      <trkpt lat="43.41367" lon="6.73062">
        <ele>3.97</ele>
        <time>2017-10-07T05:33:07.000Z</time>
      </trkpt>
      <trkpt lat="43.41347" lon="6.73084">
        <ele>4.13</ele>
        <time>2017-10-07T05:33:12.000Z</time>
      </trkpt>
      <trkpt lat="43.41331" lon="6.7311">
        <ele>3.77</ele>
        <time>2017-10-07T05:33:17.000Z</time>
      </trkpt>
      <trkpt lat="43.41324" lon="6.73143">
        <ele>3.04</ele>
        <time>2017-10-07T05:33:22.000Z</time>
      </trkpt>
      <trkpt lat="43.41314" lon="6.7317">
        <ele>2.89</ele>
        <time>2017-10-07T05:33:27.000Z</time>
      </trkpt>
      <trkpt lat="43.41292" lon="6.73176">
        <ele>3.03</ele>
        <time>2017-10-07T05:33:32.000Z</time>
      </trkpt>
      <trkpt lat="43.41271" lon="6.73192">
        <ele>3.55</ele>
        <time>2017-10-07T05:33:37.000Z</time>
      </trkpt>
      <trkpt lat="43.4125" lon="6.73181">
        <ele>3.31</ele>
        <time>2017-10-07T05:33:42.000Z</time>
      </trkpt>
      <trkpt lat="43.4123" lon="6.73182">
        <ele>3.35</ele>
        <time>2017-10-07T05:33:47.000Z</time>
      </trkpt>
      <trkpt lat="43.4122" lon="6.73174">
        <ele>3.15</ele>
        <time>2017-10-07T05:33:52.000Z</time>
      </trkpt>
      <trkpt lat="43.41202" lon="6.73151">
        <ele>2.74</ele>
        <time>2017-10-07T05:33:57.000Z</time>
      </trkpt>
      <trkpt lat="43.41185" lon="6.73133">
        <ele>2.46</ele>
        <time>2017-10-07T05:34:02.000Z</time>
      </trkpt>
      <trkpt lat="43.4118" lon="6.7312">
        <ele>2.27</ele>
        <time>2017-10-07T05:34:07.000Z</time>
      </trkpt>
      <trkpt lat="43.41193" lon="6.73108">
        <ele>2.08</ele>
        <time>2017-10-07T05:34:12.000Z</time>
      </trkpt>
      <trkpt lat="43.41206" lon="6.73093">
        <ele>1.9</ele>
        <time>2017-10-07T05:34:17.000Z</time>
      </trkpt>
      <trkpt lat="43.41218" lon="6.73071">
        <ele>1.91</ele>
        <time>2017-10-07T05:34:22.000Z</time>
      </trkpt>
      <trkpt lat="43.41234" lon="6.7305">
        <ele>2.18</ele>
        <time>2017-10-07T05:34:27.000Z</time>
      </trkpt>
      <trkpt lat="43.41251" lon="6.73029">
        <ele>2.57</ele>
        <time>2017-10-07T05:34:32.000Z</time>
      </trkpt>
      <trkpt lat="43.41268" lon="6.73007">
        <ele>2.72</ele>
        <time>2017-10-07T05:34:37.000Z</time>
      </trkpt>
      <trkpt lat="43.41285" lon="6.72987">
        <ele>2.49</ele>
        <time>2017-10-07T05:34:42.000Z</time>
      </trkpt>
      <trkpt lat="43.41302" lon="6.72966">
        <ele>2.11</ele>
        <time>2017-10-07T05:34:47.000Z</time>
      </trkpt>
      <trkpt lat="43.41319" lon="6.72942">
        <ele>1.9</ele>
        <time>2017-10-07T05:34:52.000Z</time>
      </trkpt>
      <trkpt lat="43.41337" lon="6.72919">
        <ele>2.02</ele>
        <time>2017-10-07T05:34:57.000Z</time>
      </trkpt>
      <trkpt lat="43.41354" lon="6.72893">
        <ele>2.49</ele>
        <time>2017-10-07T05:35:02.000Z</time>
      </trkpt>
      <trkpt lat="43.41372" lon="6.72872">
        <ele>3.02</ele>
        <time>2017-10-07T05:35:07.000Z</time>
      </trkpt>
      <trkpt lat="43.4139" lon="6.72849">
        <ele>3.47</ele>
        <time>2017-10-07T05:35:12.000Z</time>
      </trkpt>
      <trkpt lat="43.41408" lon="6.72824">
        <ele>3.88</ele>
        <time>2017-10-07T05:35:17.000Z</time>
      </trkpt>
      <trkpt lat="43.41425" lon="6.728">
        <ele>4.4</ele>
        <time>2017-10-07T05:35:22.000Z</time>
      </trkpt>
      <trkpt lat="43.41443" lon="6.72777">
        <ele>4.87</ele>
        <time>2017-10-07T05:35:27.000Z</time>
      </trkpt>
      <trkpt lat="43.41462" lon="6.72755">
        <ele>5.06</ele>
        <time>2017-10-07T05:35:32.000Z</time>
      </trkpt>
      <trkpt lat="43.41477" lon="6.72734">
        <ele>5.09</ele>
        <time>2017-10-07T05:35:37.000Z</time>
      </trkpt>
      <trkpt lat="43.41483" lon="6.72704">
        <ele>5.24</ele>
        <time>2017-10-07T05:35:42.000Z</time>
      </trkpt>
      <trkpt lat="43.41501" lon="6.72687">
        <ele>5.1</ele>
        <time>2017-10-07T05:35:47.000Z</time>
      </trkpt>
      <trkpt lat="43.41518" lon="6.72676">
        <ele>4.58</ele>
        <time>2017-10-07T05:35:52.000Z</time>
      </trkpt>
      <trkpt lat="43.41501" lon="6.72654">
        <ele>4.78</ele>
        <time>2017-10-07T05:35:57.000Z</time>
      </trkpt>
      <trkpt lat="43.4148" lon="6.72637">
        <ele>4.58</ele>
        <time>2017-10-07T05:36:02.000Z</time>
      </trkpt>
      <trkpt lat="43.4146" lon="6.72619">
        <ele>3.97</ele>
        <time>2017-10-07T05:36:07.000Z</time>
      </trkpt>
      <trkpt lat="43.41445" lon="6.72596">
        <ele>3.2</ele>
        <time>2017-10-07T05:36:12.000Z</time>
      </trkpt>
      <trkpt lat="43.41434" lon="6.72562">
        <ele>2.54</ele>
        <time>2017-10-07T05:36:17.000Z</time>
      </trkpt>
      <trkpt lat="43.41421" lon="6.72528">
        <ele>2.32</ele>
        <time>2017-10-07T05:36:22.000Z</time>
      </trkpt>
      <trkpt lat="43.41404" lon="6.72497">
        <ele>2.07</ele>
        <time>2017-10-07T05:36:27.000Z</time>
      </trkpt>
      <trkpt lat="43.41383" lon="6.7247">
        <ele>1.55</ele>
        <time>2017-10-07T05:36:32.000Z</time>
      </trkpt>
      <trkpt lat="43.41354" lon="6.7245">
        <ele>1.34</ele>
        <time>2017-10-07T05:36:37.000Z</time>
      </trkpt>
      <trkpt lat="43.41322" lon="6.72445">
        <ele>1.7</ele>
        <time>2017-10-07T05:36:42.000Z</time>
      </trkpt>
      <trkpt lat="43.41289" lon="6.72461">
        <ele>2.84</ele>
        <time>2017-10-07T05:36:47.000Z</time>
      </trkpt>
      <trkpt lat="43.41259" lon="6.72468">
        <ele>3.69</ele>
        <time>2017-10-07T05:36:52.000Z</time>
      </trkpt>
      <trkpt lat="43.41232" lon="6.72465">
        <ele>3.62</ele>
        <time>2017-10-07T05:36:57.000Z</time>
      </trkpt>
      <trkpt lat="43.41203" lon="6.72455">
        <ele>2.89</ele>
        <time>2017-10-07T05:37:02.000Z</time>
      </trkpt>
      <trkpt lat="43.41184" lon="6.72439">
        <ele>2.23</ele>
        <time>2017-10-07T05:37:07.000Z</time>
      </trkpt>
      <trkpt lat="43.4116" lon="6.72459">
        <ele>2.71</ele>
        <time>2017-10-07T05:37:12.000Z</time>
      </trkpt>
      <trkpt lat="43.41137" lon="6.72455">
        <ele>2.73</ele>
        <time>2017-10-07T05:37:17.000Z</time>
      </trkpt>
      <trkpt lat="43.41112" lon="6.72445">
        <ele>2.89</ele>
        <time>2017-10-07T05:37:22.000Z</time>
      </trkpt>
      <trkpt lat="43.41093" lon="6.72435">
        <ele>3.06</ele>
        <time>2017-10-07T05:37:27.000Z</time>
      </trkpt>
      <trkpt lat="43.41078" lon="6.72428">
        <ele>3.13</ele>
        <time>2017-10-07T05:37:32.000Z</time>
      </trkpt>
      <trkpt lat="43.41059" lon="6.72425">
        <ele>3.18</ele>
        <time>2017-10-07T05:37:37.000Z</time>
      </trkpt>
      <trkpt lat="43.41034" lon="6.72409">
        <ele>2.87</ele>
        <time>2017-10-07T05:37:42.000Z</time>
      </trkpt>
      <trkpt lat="43.41008" lon="6.72406">
        <ele>2.73</ele>
        <time>2017-10-07T05:37:47.000Z</time>
      </trkpt>
      <trkpt lat="43.40981" lon="6.72403">
        <ele>2.76</ele>
        <time>2017-10-07T05:37:52.000Z</time>
      </trkpt>
      <trkpt lat="43.40954" lon="6.72407">
        <ele>3.04</ele>
        <time>2017-10-07T05:37:57.000Z</time>
      </trkpt>
      <trkpt lat="43.40929" lon="6.72412">
        <ele>3.1</ele>
        <time>2017-10-07T05:38:02.000Z</time>
      </trkpt>
      <trkpt lat="43.40909" lon="6.72408">
        <ele>2.92</ele>
        <time>2017-10-07T05:38:07.000Z</time>
      </trkpt>
      <trkpt lat="43.40905" lon="6.72372">
        <ele>3.22</ele>
        <time>2017-10-07T05:38:12.000Z</time>
      </trkpt>
      <trkpt lat="43.40895" lon="6.72345">
        <ele>3.19</ele>
        <time>2017-10-07T05:38:17.000Z</time>
      </trkpt>
      <trkpt lat="43.40873" lon="6.72325">
        <ele>2.5</ele>
        <time>2017-10-07T05:38:22.000Z</time>
      </trkpt>
      <trkpt lat="43.40843" lon="6.72323">
        <ele>1.9</ele>
        <time>2017-10-07T05:38:27.000Z</time>
      </trkpt>
      <trkpt lat="43.40815" lon="6.7232">
        <ele>1.52</ele>
        <time>2017-10-07T05:38:32.000Z</time>
      </trkpt>
      <trkpt lat="43.40788" lon="6.72309">
        <ele>0.93</ele>
        <time>2017-10-07T05:38:37.000Z</time>
      </trkpt>
      <trkpt lat="43.4076" lon="6.723">
        <ele>0.58</ele>
        <time>2017-10-07T05:38:42.000Z</time>
      </trkpt>
      <trkpt lat="43.40737" lon="6.72285">
        <ele>0.46</ele>
        <time>2017-10-07T05:38:47.000Z</time>
      </trkpt>
      <trkpt lat="43.40731" lon="6.72253">
        <ele>0.41</ele>
        <time>2017-10-07T05:38:52.000Z</time>
      </trkpt>
      <trkpt lat="43.40749" lon="6.72222">
        <ele>0.56</ele>
        <time>2017-10-07T05:38:57.000Z</time>
      </trkpt>
      <trkpt lat="43.40765" lon="6.72194">
        <ele>0.98</ele>
        <time>2017-10-07T05:39:02.000Z</time>
      </trkpt>
      <trkpt lat="43.40779" lon="6.72161">
        <ele>1.09</ele>
        <time>2017-10-07T05:39:07.000Z</time>
      </trkpt>
      <trkpt lat="43.40791" lon="6.72124">
        <ele>1.07</ele>
        <time>2017-10-07T05:39:12.000Z</time>
      </trkpt>
      <trkpt lat="43.40791" lon="6.72085">
        <ele>1.5</ele>
        <time>2017-10-07T05:39:17.000Z</time>
      </trkpt>
      <trkpt lat="43.40793" lon="6.72047">
        <ele>1.55</ele>
        <time>2017-10-07T05:39:22.000Z</time>
      </trkpt>
      <trkpt lat="43.40801" lon="6.72013">
        <ele>1.38</ele>
        <time>2017-10-07T05:39:27.000Z</time>
      </trkpt>
      <trkpt lat="43.40809" lon="6.71977">
        <ele>1.25</ele>
        <time>2017-10-07T05:39:32.000Z</time>
      </trkpt>
      <trkpt lat="43.40822" lon="6.71941">
        <ele>1.1</ele>
        <time>2017-10-07T05:39:37.000Z</time>
      </trkpt>
      <trkpt lat="43.40835" lon="6.71907">
        <ele>0.98</ele>
        <time>2017-10-07T05:39:42.000Z</time>
      </trkpt>
      <trkpt lat="43.40848" lon="6.71871">
        <ele>0.86</ele>
        <time>2017-10-07T05:39:47.000Z</time>
      </trkpt>
      <trkpt lat="43.40865" lon="6.71838">
        <ele>0.9</ele>
        <time>2017-10-07T05:39:52.000Z</time>
      </trkpt>
      <trkpt lat="43.40884" lon="6.71809">
        <ele>1.26</ele>
        <time>2017-10-07T05:39:57.000Z</time>
      </trkpt>
      <trkpt lat="43.40897" lon="6.71775">
        <ele>1.8</ele>
        <time>2017-10-07T05:40:02.000Z</time>
      </trkpt>
      <trkpt lat="43.40902" lon="6.71737">
        <ele>2.06</ele>
        <time>2017-10-07T05:40:07.000Z</time>
      </trkpt>
      <trkpt lat="43.40911" lon="6.71702">
        <ele>2.07</ele>
        <time>2017-10-07T05:40:12.000Z</time>
      </trkpt>
      <trkpt lat="43.40919" lon="6.7166">
        <ele>1.97</ele>
        <time>2017-10-07T05:40:17.000Z</time>
      </trkpt>
      <trkpt lat="43.40927" lon="6.71622">
        <ele>1.49</ele>
        <time>2017-10-07T05:40:22.000Z</time>
      </trkpt>
      <trkpt lat="43.40936" lon="6.71586">
        <ele>1.32</ele>
        <time>2017-10-07T05:40:27.000Z</time>
      </trkpt>
      <trkpt lat="43.40945" lon="6.71549">
        <ele>1.81</ele>
        <time>2017-10-07T05:40:32.000Z</time>
      </trkpt>
      <trkpt lat="43.40947" lon="6.71512">
        <ele>2.27</ele>
        <time>2017-10-07T05:40:37.000Z</time>
      </trkpt>
      <trkpt lat="43.40936" lon="6.71484">
        <ele>2.36</ele>
        <time>2017-10-07T05:40:42.000Z</time>
      </trkpt>
      <trkpt lat="43.40943" lon="6.71466">
        <ele>2.56</ele>
        <time>2017-10-07T05:40:47.000Z</time>
      </trkpt>
      <trkpt lat="43.40951" lon="6.71445">
        <ele>2.64</ele>
        <time>2017-10-07T05:40:52.000Z</time>
      </trkpt>
      <trkpt lat="43.40961" lon="6.71439">
        <ele>2.56</ele>
        <time>2017-10-07T05:40:57.000Z</time>
      </trkpt>
      <trkpt lat="43.40968" lon="6.71417">
        <ele>2.4</ele>
        <time>2017-10-07T05:41:02.000Z</time>
      </trkpt>
      <trkpt lat="43.40986" lon="6.71399">
        <ele>2.06</ele>
        <time>2017-10-07T05:41:07.000Z</time>
      </trkpt>
      <trkpt lat="43.41013" lon="6.71386">
        <ele>1.82</ele>
        <time>2017-10-07T05:41:12.000Z</time>
      </trkpt>
      <trkpt lat="43.41034" lon="6.7136">
        <ele>1.81</ele>
        <time>2017-10-07T05:41:17.000Z</time>
      </trkpt>
      <trkpt lat="43.41051" lon="6.71331">
        <ele>1.89</ele>
        <time>2017-10-07T05:41:22.000Z</time>
      </trkpt>
      <trkpt lat="43.41068" lon="6.71303">
        <ele>1.91</ele>
        <time>2017-10-07T05:41:27.000Z</time>
      </trkpt>
      <trkpt lat="43.41087" lon="6.7128">
        <ele>1.95</ele>
        <time>2017-10-07T05:41:32.000Z</time>
      </trkpt>
      <trkpt lat="43.41102" lon="6.71253">
        <ele>2.3</ele>
        <time>2017-10-07T05:41:37.000Z</time>
      </trkpt>
      <trkpt lat="43.41091" lon="6.7122">
        <ele>2.39</ele>
        <time>2017-10-07T05:41:42.000Z</time>
      </trkpt>
      <trkpt lat="43.4108" lon="6.71187">
        <ele>2.8</ele>
        <time>2017-10-07T05:41:47.000Z</time>
      </trkpt>
      <trkpt lat="43.41074" lon="6.71152">
        <ele>3.06</ele>
        <time>2017-10-07T05:41:52.000Z</time>
      </trkpt>
      <trkpt lat="43.41065" lon="6.71119">
        <ele>2.89</ele>
        <time>2017-10-07T05:41:57.000Z</time>
      </trkpt>
      <trkpt lat="43.41053" lon="6.71092">
        <ele>2.65</ele>
        <time>2017-10-07T05:42:02.000Z</time>
      </trkpt>
      <trkpt lat="43.41043" lon="6.71061">
        <ele>2.68</ele>
        <time>2017-10-07T05:42:07.000Z</time>
      </trkpt>
      <trkpt lat="43.41035" lon="6.71025">
        <ele>2.91</ele>
        <time>2017-10-07T05:42:12.000Z</time>
      </trkpt>
      <trkpt lat="43.41028" lon="6.70992">
        <ele>3.06</ele>
        <time>2017-10-07T05:42:17.000Z</time>
      </trkpt>
      <trkpt lat="43.41024" lon="6.70955">
        <ele>3.6</ele>
        <time>2017-10-07T05:42:22.000Z</time>
      </trkpt>
      <trkpt lat="43.41016" lon="6.70922">
        <ele>4.13</ele>
        <time>2017-10-07T05:42:27.000Z</time>
      </trkpt>
      <trkpt lat="43.41008" lon="6.70895">
        <ele>4.29</ele>
        <time>2017-10-07T05:42:32.000Z</time>
      </trkpt>
      <trkpt lat="43.40994" lon="6.70874">
        <ele>4.21</ele>
        <time>2017-10-07T05:42:37.000Z</time>
      </trkpt>
      <trkpt lat="43.40973" lon="6.70858">
        <ele>4.12</ele>
        <time>2017-10-07T05:42:42.000Z</time>
      </trkpt>
      <trkpt lat="43.40971" lon="6.70829">
        <ele>4.92</ele>
        <time>2017-10-07T05:42:47.000Z</time>
      </trkpt>
      <trkpt lat="43.40981" lon="6.70817">
        <ele>5.59</ele>
        <time>2017-10-07T05:42:52.000Z</time>
      </trkpt>
      <trkpt lat="43.40989" lon="6.70805">
        <ele>6.3</ele>
        <time>2017-10-07T05:43:01.000Z</time>
      </trkpt>
      <trkpt lat="43.41006" lon="6.70796">
        <ele>7.09</ele>
        <time>2017-10-07T05:43:06.000Z</time>
      </trkpt>
      <trkpt lat="43.41027" lon="6.70782">
        <ele>8.21</ele>
        <time>2017-10-07T05:43:11.000Z</time>
      </trkpt>
      <trkpt lat="43.41046" lon="6.70774">
        <ele>8.85</ele>
        <time>2017-10-07T05:43:16.000Z</time>
      </trkpt>
      <trkpt lat="43.41065" lon="6.70783">
        <ele>7.88</ele>
        <time>2017-10-07T05:43:21.000Z</time>
      </trkpt>
      <trkpt lat="43.41095" lon="6.7079">
        <ele>6.88</ele>
        <time>2017-10-07T05:43:26.000Z</time>
      </trkpt>
      <trkpt lat="43.41122" lon="6.70791">
        <ele>6.04</ele>
        <time>2017-10-07T05:43:31.000Z</time>
      </trkpt>
      <trkpt lat="43.41143" lon="6.70788">
        <ele>5.44</ele>
        <time>2017-10-07T05:43:36.000Z</time>
      </trkpt>
      <trkpt lat="43.41162" lon="6.70765">
        <ele>5.39</ele>
        <time>2017-10-07T05:43:41.000Z</time>
      </trkpt>
      <trkpt lat="43.41178" lon="6.70737">
        <ele>6.15</ele>
        <time>2017-10-07T05:43:46.000Z</time>
      </trkpt>
      <trkpt lat="43.41192" lon="6.70708">
        <ele>7.3</ele>
        <time>2017-10-07T05:43:51.000Z</time>
      </trkpt>
      <trkpt lat="43.41207" lon="6.70677">
        <ele>8.11</ele>
        <time>2017-10-07T05:43:56.000Z</time>
      </trkpt>
      <trkpt lat="43.41219" lon="6.70649">
        <ele>8.37</ele>
        <time>2017-10-07T05:44:01.000Z</time>
      </trkpt>
      <trkpt lat="43.41232" lon="6.70619">
        <ele>8.02</ele>
        <time>2017-10-07T05:44:06.000Z</time>
      </trkpt>
      <trkpt lat="43.41244" lon="6.70587">
        <ele>6.89</ele>
        <time>2017-10-07T05:44:11.000Z</time>
      </trkpt>
      <trkpt lat="43.41258" lon="6.70557">
        <ele>5.01</ele>
        <time>2017-10-07T05:44:16.000Z</time>
      </trkpt>
      <trkpt lat="43.41271" lon="6.70526">
        <ele>3.5</ele>
        <time>2017-10-07T05:44:21.000Z</time>
      </trkpt>
      <trkpt lat="43.41283" lon="6.70498">
        <ele>3.61</ele>
        <time>2017-10-07T05:44:26.000Z</time>
      </trkpt>
      <trkpt lat="43.41292" lon="6.70477">
        <ele>4.72</ele>
        <time>2017-10-07T05:44:31.000Z</time>
      </trkpt>
      <trkpt lat="43.41295" lon="6.70446">
        <ele>7.55</ele>
        <time>2017-10-07T05:44:36.000Z</time>
      </trkpt>
      <trkpt lat="43.4131" lon="6.70413">
        <ele>8.83</ele>
        <time>2017-10-07T05:44:41.000Z</time>
      </trkpt>
      <trkpt lat="43.41324" lon="6.70381">
        <ele>9.49</ele>
        <time>2017-10-07T05:44:46.000Z</time>
      </trkpt>
      <trkpt lat="43.41335" lon="6.70347">
        <ele>10.06</ele>
        <time>2017-10-07T05:44:51.000Z</time>
      </trkpt>
      <trkpt lat="43.41337" lon="6.70311">
        <ele>11</ele>
        <time>2017-10-07T05:44:56.000Z</time>
      </trkpt>
      <trkpt lat="43.41336" lon="6.70274">
        <ele>11.82</ele>
        <time>2017-10-07T05:45:01.000Z</time>
      </trkpt>
      <trkpt lat="43.41332" lon="6.70242">
        <ele>11.99</ele>
        <time>2017-10-07T05:45:06.000Z</time>
      </trkpt>
      <trkpt lat="43.41328" lon="6.70208">
        <ele>10.88</ele>
        <time>2017-10-07T05:45:11.000Z</time>
      </trkpt>
      <trkpt lat="43.41321" lon="6.70176">
        <ele>10.03</ele>
        <time>2017-10-07T05:45:16.000Z</time>
      </trkpt>
      <trkpt lat="43.41311" lon="6.70148">
        <ele>10.54</ele>
        <time>2017-10-07T05:45:21.000Z</time>
      </trkpt>
      <trkpt lat="43.41298" lon="6.70126">
        <ele>13.15</ele>
        <time>2017-10-07T05:45:26.000Z</time>
      </trkpt>
      <trkpt lat="43.4129" lon="6.70098">
        <ele>14.71</ele>
        <time>2017-10-07T05:45:31.000Z</time>
      </trkpt>
      <trkpt lat="43.41284" lon="6.70074">
        <ele>16.17</ele>
        <time>2017-10-07T05:45:36.000Z</time>
      </trkpt>
      <trkpt lat="43.41286" lon="6.70053">
        <ele>15.51</ele>
        <time>2017-10-07T05:45:41.000Z</time>
      </trkpt>
      <trkpt lat="43.41283" lon="6.70009">
        <ele>16.6</ele>
        <time>2017-10-07T05:45:46.000Z</time>
      </trkpt>
      <trkpt lat="43.41274" lon="6.69976">
        <ele>18.27</ele>
        <time>2017-10-07T05:45:51.000Z</time>
      </trkpt>
      <trkpt lat="43.41269" lon="6.69949">
        <ele>18.12</ele>
        <time>2017-10-07T05:45:56.000Z</time>
      </trkpt>
      <trkpt lat="43.41262" lon="6.69919">
        <ele>17.58</ele>
        <time>2017-10-07T05:46:01.000Z</time>
      </trkpt>
      <trkpt lat="43.41257" lon="6.69888">
        <ele>15.26</ele>
        <time>2017-10-07T05:46:06.000Z</time>
      </trkpt>
      <trkpt lat="43.41248" lon="6.69858">
        <ele>12.9</ele>
        <time>2017-10-07T05:46:11.000Z</time>
      </trkpt>
      <trkpt lat="43.41236" lon="6.69832">
        <ele>12.33</ele>
        <time>2017-10-07T05:46:16.000Z</time>
      </trkpt>
      <trkpt lat="43.41224" lon="6.69808">
        <ele>13.23</ele>
        <time>2017-10-07T05:46:21.000Z</time>
      </trkpt>
      <trkpt lat="43.41222" lon="6.69777">
        <ele>11.05</ele>
        <time>2017-10-07T05:46:26.000Z</time>
      </trkpt>
      <trkpt lat="43.41214" lon="6.69749">
        <ele>9.99</ele>
        <time>2017-10-07T05:46:31.000Z</time>
      </trkpt>
      <trkpt lat="43.41199" lon="6.69719">
        <ele>9.36</ele>
        <time>2017-10-07T05:46:36.000Z</time>
      </trkpt>
      <trkpt lat="43.41184" lon="6.69687">
        <ele>8.01</ele>
        <time>2017-10-07T05:46:41.000Z</time>
      </trkpt>
      <trkpt lat="43.41158" lon="6.6968">
        <ele>8.05</ele>
        <time>2017-10-07T05:46:46.000Z</time>
      </trkpt>
      <trkpt lat="43.41135" lon="6.69701">
        <ele>9.99</ele>
        <time>2017-10-07T05:46:51.000Z</time>
      </trkpt>
      <trkpt lat="43.41129" lon="6.69724">
        <ele>12</ele>
        <time>2017-10-07T05:46:56.000Z</time>
      </trkpt>
      <trkpt lat="43.41122" lon="6.69736">
        <ele>13.06</ele>
        <time>2017-10-07T05:47:01.000Z</time>
      </trkpt>
      <trkpt lat="43.41116" lon="6.69749">
        <ele>14.09</ele>
        <time>2017-10-07T05:47:06.000Z</time>
      </trkpt>
      <trkpt lat="43.41108" lon="6.69758">
        <ele>14.77</ele>
        <time>2017-10-07T05:47:11.000Z</time>
      </trkpt>
      <trkpt lat="43.41101" lon="6.69773">
        <ele>15.95</ele>
        <time>2017-10-07T05:47:16.000Z</time>
      </trkpt>
      <trkpt lat="43.4109" lon="6.6979">
        <ele>17.11</ele>
        <time>2017-10-07T05:47:21.000Z</time>
      </trkpt>
      <trkpt lat="43.4108" lon="6.69807">
        <ele>18.02</ele>
        <time>2017-10-07T05:47:26.000Z</time>
      </trkpt>
      <trkpt lat="43.41071" lon="6.69824">
        <ele>18.84</ele>
        <time>2017-10-07T05:47:31.000Z</time>
      </trkpt>
      <trkpt lat="43.41065" lon="6.69844">
        <ele>19.97</ele>
        <time>2017-10-07T05:47:36.000Z</time>
      </trkpt>
      <trkpt lat="43.41059" lon="6.69862">
        <ele>21.19</ele>
        <time>2017-10-07T05:47:41.000Z</time>
      </trkpt>
      <trkpt lat="43.41049" lon="6.69875">
        <ele>21.76</ele>
        <time>2017-10-07T05:47:46.000Z</time>
      </trkpt>
      <trkpt lat="43.41042" lon="6.69888">
        <ele>22.96</ele>
        <time>2017-10-07T05:47:51.000Z</time>
      </trkpt>
      <trkpt lat="43.41048" lon="6.69904">
        <ele>25.67</ele>
        <time>2017-10-07T05:47:56.000Z</time>
      </trkpt>
      <trkpt lat="43.41045" lon="6.69919">
        <ele>27.53</ele>
        <time>2017-10-07T05:48:01.000Z</time>
      </trkpt>
      <trkpt lat="43.4104" lon="6.69931">
        <ele>29.06</ele>
        <time>2017-10-07T05:48:06.000Z</time>
      </trkpt>
      <trkpt lat="43.41035" lon="6.69943">
        <ele>30.6</ele>
        <time>2017-10-07T05:48:12.000Z</time>
      </trkpt>
      <trkpt lat="43.41031" lon="6.69955">
        <ele>32.27</ele>
        <time>2017-10-07T05:48:17.000Z</time>
      </trkpt>
      <trkpt lat="43.41032" lon="6.69968">
        <ele>34.32</ele>
        <time>2017-10-07T05:48:22.000Z</time>
      </trkpt>
      <trkpt lat="43.4103" lon="6.69981">
        <ele>36.08</ele>
        <time>2017-10-07T05:48:27.000Z</time>
      </trkpt>
      <trkpt lat="43.41031" lon="6.69995">
        <ele>38.03</ele>
        <time>2017-10-07T05:48:32.000Z</time>
      </trkpt>
      <trkpt lat="43.41029" lon="6.7001">
        <ele>39.7</ele>
        <time>2017-10-07T05:48:38.000Z</time>
      </trkpt>
      <trkpt lat="43.41025" lon="6.70022">
        <ele>40.97</ele>
        <time>2017-10-07T05:48:43.000Z</time>
      </trkpt>
      <trkpt lat="43.41027" lon="6.70035">
        <ele>42.49</ele>
        <time>2017-10-07T05:48:48.000Z</time>
      </trkpt>
      <trkpt lat="43.4103" lon="6.70049">
        <ele>44.07</ele>
        <time>2017-10-07T05:48:53.000Z</time>
      </trkpt>
      <trkpt lat="43.41034" lon="6.70062">
        <ele>45.6</ele>
        <time>2017-10-07T05:48:58.000Z</time>
      </trkpt>
      <trkpt lat="43.41039" lon="6.70076">
        <ele>47.07</ele>
        <time>2017-10-07T05:49:03.000Z</time>
      </trkpt>
      <trkpt lat="43.4104" lon="6.70089">
        <ele>48.26</ele>
        <time>2017-10-07T05:49:08.000Z</time>
      </trkpt>
      <trkpt lat="43.4104" lon="6.70103">
        <ele>49.29</ele>
        <time>2017-10-07T05:49:16.000Z</time>
      </trkpt>
      <trkpt lat="43.41038" lon="6.70115">
        <ele>50.05</ele>
        <time>2017-10-07T05:49:25.000Z</time>
      </trkpt>
      <trkpt lat="43.41028" lon="6.70116">
        <ele>49.82</ele>
        <time>2017-10-07T05:49:36.000Z</time>
      </trkpt>
      <trkpt lat="43.41019" lon="6.70124">
        <ele>50.16</ele>
        <time>2017-10-07T05:49:41.000Z</time>
      </trkpt>
      <trkpt lat="43.41012" lon="6.70137">
        <ele>50.98</ele>
        <time>2017-10-07T05:49:46.000Z</time>
      </trkpt>
      <trkpt lat="43.41" lon="6.7014">
        <ele>51.35</ele>
        <time>2017-10-07T05:49:51.000Z</time>
      </trkpt>
      <trkpt lat="43.40976" lon="6.70127">
        <ele>51.88</ele>
        <time>2017-10-07T05:49:56.000Z</time>
      </trkpt>
      <trkpt lat="43.40963" lon="6.70131">
        <ele>53.34</ele>
        <time>2017-10-07T05:50:01.000Z</time>
      </trkpt>
      <trkpt lat="43.40953" lon="6.70138">
        <ele>54.78</ele>
        <time>2017-10-07T05:50:06.000Z</time>
      </trkpt>
      <trkpt lat="43.40945" lon="6.70147">
        <ele>55.87</ele>
        <time>2017-10-07T05:50:11.000Z</time>
      </trkpt>
      <trkpt lat="43.40936" lon="6.70154">
        <ele>56.89</ele>
        <time>2017-10-07T05:50:16.000Z</time>
      </trkpt>
      <trkpt lat="43.40923" lon="6.70155">
        <ele>57.49</ele>
        <time>2017-10-07T05:50:21.000Z</time>
      </trkpt>
      <trkpt lat="43.40906" lon="6.70151">
        <ele>57.29</ele>
        <time>2017-10-07T05:50:26.000Z</time>
      </trkpt>
      <trkpt lat="43.40888" lon="6.70172">
        <ele>57.21</ele>
        <time>2017-10-07T05:50:31.000Z</time>
      </trkpt>
      <trkpt lat="43.4088" lon="6.70192">
        <ele>57.19</ele>
        <time>2017-10-07T05:50:36.000Z</time>
      </trkpt>
      <trkpt lat="43.40871" lon="6.70207">
        <ele>56.79</ele>
        <time>2017-10-07T05:50:41.000Z</time>
      </trkpt>
      <trkpt lat="43.40869" lon="6.70222">
        <ele>56.67</ele>
        <time>2017-10-07T05:50:46.000Z</time>
      </trkpt>
      <trkpt lat="43.40861" lon="6.70228">
        <ele>56.23</ele>
        <time>2017-10-07T05:52:44.000Z</time>
      </trkpt>
      <trkpt lat="43.40839" lon="6.70234">
        <ele>55.38</ele>
        <time>2017-10-07T05:52:49.000Z</time>
      </trkpt>
      <trkpt lat="43.40812" lon="6.70239">
        <ele>55.21</ele>
        <time>2017-10-07T05:52:54.000Z</time>
      </trkpt>
      <trkpt lat="43.40793" lon="6.7023">
        <ele>55.63</ele>
        <time>2017-10-07T05:52:59.000Z</time>
      </trkpt>
      <trkpt lat="43.40781" lon="6.70225">
        <ele>55.99</ele>
        <time>2017-10-07T05:53:04.000Z</time>
      </trkpt>
      <trkpt lat="43.40767" lon="6.70209">
        <ele>56.54</ele>
        <time>2017-10-07T05:53:09.000Z</time>
      </trkpt>
      <trkpt lat="43.40751" lon="6.70192">
        <ele>57.19</ele>
        <time>2017-10-07T05:53:14.000Z</time>
      </trkpt>
      <trkpt lat="43.40738" lon="6.70184">
        <ele>58.03</ele>
        <time>2017-10-07T05:53:19.000Z</time>
      </trkpt>
      <trkpt lat="43.40726" lon="6.70179">
        <ele>59.16</ele>
        <time>2017-10-07T05:53:24.000Z</time>
      </trkpt>
      <trkpt lat="43.40713" lon="6.70171">
        <ele>60.65</ele>
        <time>2017-10-07T05:53:29.000Z</time>
      </trkpt>
      <trkpt lat="43.40702" lon="6.70163">
        <ele>62.18</ele>
        <time>2017-10-07T05:53:34.000Z</time>
      </trkpt>
      <trkpt lat="43.40689" lon="6.70156">
        <ele>63.75</ele>
        <time>2017-10-07T05:53:39.000Z</time>
      </trkpt>
      <trkpt lat="43.40673" lon="6.70153">
        <ele>65.22</ele>
        <time>2017-10-07T05:53:44.000Z</time>
      </trkpt>
      <trkpt lat="43.40659" lon="6.7015">
        <ele>65.93</ele>
        <time>2017-10-07T05:53:49.000Z</time>
      </trkpt>
      <trkpt lat="43.40646" lon="6.70141">
        <ele>66.3</ele>
        <time>2017-10-07T05:53:54.000Z</time>
      </trkpt>
      <trkpt lat="43.40635" lon="6.70134">
        <ele>66.34</ele>
        <time>2017-10-07T05:53:59.000Z</time>
      </trkpt>
      <trkpt lat="43.40621" lon="6.70127">
        <ele>66.16</ele>
        <time>2017-10-07T05:54:04.000Z</time>
      </trkpt>
      <trkpt lat="43.40602" lon="6.70117">
        <ele>65.83</ele>
        <time>2017-10-07T05:54:09.000Z</time>
      </trkpt>
      <trkpt lat="43.40575" lon="6.70111">
        <ele>65.89</ele>
        <time>2017-10-07T05:54:14.000Z</time>
      </trkpt>
      <trkpt lat="43.40549" lon="6.70107">
        <ele>66.28</ele>
        <time>2017-10-07T05:54:19.000Z</time>
      </trkpt>
      <trkpt lat="43.4053" lon="6.70099">
        <ele>66.79</ele>
        <time>2017-10-07T05:54:24.000Z</time>
      </trkpt>
      <trkpt lat="43.40514" lon="6.70094">
        <ele>67.35</ele>
        <time>2017-10-07T05:54:29.000Z</time>
      </trkpt>
      <trkpt lat="43.405" lon="6.70093">
        <ele>68.1</ele>
        <time>2017-10-07T05:54:34.000Z</time>
      </trkpt>
      <trkpt lat="43.40488" lon="6.70093">
        <ele>69.13</ele>
        <time>2017-10-07T05:54:39.000Z</time>
      </trkpt>
      <trkpt lat="43.40474" lon="6.70095">
        <ele>70.55</ele>
        <time>2017-10-07T05:54:44.000Z</time>
      </trkpt>
      <trkpt lat="43.40462" lon="6.70096">
        <ele>71.99</ele>
        <time>2017-10-07T05:54:49.000Z</time>
      </trkpt>
      <trkpt lat="43.40452" lon="6.70096">
        <ele>73.32</ele>
        <time>2017-10-07T05:54:54.000Z</time>
      </trkpt>
      <trkpt lat="43.40443" lon="6.70093">
        <ele>74.48</ele>
        <time>2017-10-07T05:55:00.000Z</time>
      </trkpt>
      <trkpt lat="43.40435" lon="6.70086">
        <ele>75.44</ele>
        <time>2017-10-07T05:55:05.000Z</time>
      </trkpt>
      <trkpt lat="43.40425" lon="6.70079">
        <ele>76.4</ele>
        <time>2017-10-07T05:55:11.000Z</time>
      </trkpt>
      <trkpt lat="43.40415" lon="6.70072">
        <ele>77.11</ele>
        <time>2017-10-07T05:55:16.000Z</time>
      </trkpt>
      <trkpt lat="43.40403" lon="6.70066">
        <ele>77.82</ele>
        <time>2017-10-07T05:55:21.000Z</time>
      </trkpt>
      <trkpt lat="43.4039" lon="6.70064">
        <ele>78.42</ele>
        <time>2017-10-07T05:55:26.000Z</time>
      </trkpt>
      <trkpt lat="43.40377" lon="6.70057">
        <ele>78.88</ele>
        <time>2017-10-07T05:55:31.000Z</time>
      </trkpt>
      <trkpt lat="43.40362" lon="6.7005">
        <ele>79.22</ele>
        <time>2017-10-07T05:55:36.000Z</time>
      </trkpt>
      <trkpt lat="43.40346" lon="6.7004">
        <ele>79.37</ele>
        <time>2017-10-07T05:55:41.000Z</time>
      </trkpt>
      <trkpt lat="43.40332" lon="6.70031">
        <ele>79.33</ele>
        <time>2017-10-07T05:55:46.000Z</time>
      </trkpt>
      <trkpt lat="43.40319" lon="6.70021">
        <ele>79.16</ele>
        <time>2017-10-07T05:55:51.000Z</time>
      </trkpt>
      <trkpt lat="43.40302" lon="6.70009">
        <ele>78.84</ele>
        <time>2017-10-07T05:55:56.000Z</time>
      </trkpt>
      <trkpt lat="43.40285" lon="6.6999">
        <ele>78.55</ele>
        <time>2017-10-07T05:56:01.000Z</time>
      </trkpt>
      <trkpt lat="43.4027" lon="6.69971">
        <ele>78.18</ele>
        <time>2017-10-07T05:56:06.000Z</time>
      </trkpt>
      <trkpt lat="43.40252" lon="6.69953">
        <ele>77.02</ele>
        <time>2017-10-07T05:56:11.000Z</time>
      </trkpt>
      <trkpt lat="43.40216" lon="6.69938">
        <ele>70.88</ele>
        <time>2017-10-07T05:56:16.000Z</time>
      </trkpt>
      <trkpt lat="43.40172" lon="6.69977">
        <ele>63.83</ele>
        <time>2017-10-07T05:56:21.000Z</time>
      </trkpt>
      <trkpt lat="43.40134" lon="6.70025">
        <ele>62.49</ele>
        <time>2017-10-07T05:56:26.000Z</time>
      </trkpt>
      <trkpt lat="43.4011" lon="6.70059">
        <ele>64.11</ele>
        <time>2017-10-07T05:56:31.000Z</time>
      </trkpt>
      <trkpt lat="43.40094" lon="6.70084">
        <ele>67.03</ele>
        <time>2017-10-07T05:56:36.000Z</time>
      </trkpt>
      <trkpt lat="43.40088" lon="6.70099">
        <ele>69.12</ele>
        <time>2017-10-07T05:56:41.000Z</time>
      </trkpt>
      <trkpt lat="43.40082" lon="6.70108">
        <ele>70.99</ele>
        <time>2017-10-07T05:56:46.000Z</time>
      </trkpt>
      <trkpt lat="43.40076" lon="6.70118">
        <ele>73.08</ele>
        <time>2017-10-07T05:56:51.000Z</time>
      </trkpt>
      <trkpt lat="43.40067" lon="6.70125">
        <ele>75.49</ele>
        <time>2017-10-07T05:56:57.000Z</time>
      </trkpt>
      <trkpt lat="43.40057" lon="6.70123">
        <ele>77.03</ele>
        <time>2017-10-07T05:57:03.000Z</time>
      </trkpt>
      <trkpt lat="43.40047" lon="6.70116">
        <ele>77.62</ele>
        <time>2017-10-07T05:57:08.000Z</time>
      </trkpt>
      <trkpt lat="43.40038" lon="6.70109">
        <ele>77.86</ele>
        <time>2017-10-07T05:57:14.000Z</time>
      </trkpt>
      <trkpt lat="43.40029" lon="6.70103">
        <ele>78.34</ele>
        <time>2017-10-07T05:57:19.000Z</time>
      </trkpt>
      <trkpt lat="43.40021" lon="6.701">
        <ele>79.02</ele>
        <time>2017-10-07T05:57:24.000Z</time>
      </trkpt>
      <trkpt lat="43.40011" lon="6.70097">
        <ele>79.94</ele>
        <time>2017-10-07T05:57:29.000Z</time>
      </trkpt>
      <trkpt lat="43.40001" lon="6.701">
        <ele>81.82</ele>
        <time>2017-10-07T05:57:34.000Z</time>
      </trkpt>
      <trkpt lat="43.39991" lon="6.70103">
        <ele>83.59</ele>
        <time>2017-10-07T05:57:40.000Z</time>
      </trkpt>
      <trkpt lat="43.39982" lon="6.70106">
        <ele>85.43</ele>
        <time>2017-10-07T05:57:45.000Z</time>
      </trkpt>
      <trkpt lat="43.39971" lon="6.70109">
        <ele>87.66</ele>
        <time>2017-10-07T05:57:50.000Z</time>
      </trkpt>
      <trkpt lat="43.39961" lon="6.70112">
        <ele>89.47</ele>
        <time>2017-10-07T05:57:55.000Z</time>
      </trkpt>
      <trkpt lat="43.39952" lon="6.70117">
        <ele>91.59</ele>
        <time>2017-10-07T05:58:01.000Z</time>
      </trkpt>
      <trkpt lat="43.39943" lon="6.70121">
        <ele>93.56</ele>
        <time>2017-10-07T05:58:08.000Z</time>
      </trkpt>
      <trkpt lat="43.39933" lon="6.70125">
        <ele>95.15</ele>
        <time>2017-10-07T05:58:16.000Z</time>
      </trkpt>
      <trkpt lat="43.39923" lon="6.70125">
        <ele>96</ele>
        <time>2017-10-07T05:58:21.000Z</time>
      </trkpt>
      <trkpt lat="43.39913" lon="6.70127">
        <ele>96.76</ele>
        <time>2017-10-07T05:58:26.000Z</time>
      </trkpt>
      <trkpt lat="43.39904" lon="6.70132">
        <ele>97.81</ele>
        <time>2017-10-07T05:58:32.000Z</time>
      </trkpt>
      <trkpt lat="43.39894" lon="6.70136">
        <ele>98.33</ele>
        <time>2017-10-07T05:58:37.000Z</time>
      </trkpt>
      <trkpt lat="43.39886" lon="6.70143">
        <ele>99.4</ele>
        <time>2017-10-07T05:58:42.000Z</time>
      </trkpt>
      <trkpt lat="43.39878" lon="6.70154">
        <ele>100.69</ele>
        <time>2017-10-07T05:58:48.000Z</time>
      </trkpt>
      <trkpt lat="43.39868" lon="6.70167">
        <ele>101.66</ele>
        <time>2017-10-07T05:58:53.000Z</time>
      </trkpt>
      <trkpt lat="43.39854" lon="6.70182">
        <ele>101.79</ele>
        <time>2017-10-07T05:58:58.000Z</time>
      </trkpt>
      <trkpt lat="43.39837" lon="6.7018">
        <ele>101.02</ele>
        <time>2017-10-07T05:59:03.000Z</time>
      </trkpt>
      <trkpt lat="43.39821" lon="6.70178">
        <ele>100.62</ele>
        <time>2017-10-07T05:59:08.000Z</time>
      </trkpt>
      <trkpt lat="43.39805" lon="6.70175">
        <ele>100.29</ele>
        <time>2017-10-07T05:59:13.000Z</time>
      </trkpt>
      <trkpt lat="43.39785" lon="6.70174">
        <ele>100.15</ele>
        <time>2017-10-07T05:59:18.000Z</time>
      </trkpt>
      <trkpt lat="43.39764" lon="6.70172">
        <ele>100.16</ele>
        <time>2017-10-07T05:59:23.000Z</time>
      </trkpt>
      <trkpt lat="43.39742" lon="6.70168">
        <ele>100.17</ele>
        <time>2017-10-07T05:59:28.000Z</time>
      </trkpt>
      <trkpt lat="43.39715" lon="6.7016">
        <ele>100.29</ele>
        <time>2017-10-07T05:59:33.000Z</time>
      </trkpt>
      <trkpt lat="43.39691" lon="6.70152">
        <ele>100.87</ele>
        <time>2017-10-07T05:59:38.000Z</time>
      </trkpt>
      <trkpt lat="43.39673" lon="6.70135">
        <ele>101.55</ele>
        <time>2017-10-07T05:59:43.000Z</time>
      </trkpt>
      <trkpt lat="43.39658" lon="6.7012">
        <ele>102.48</ele>
        <time>2017-10-07T05:59:48.000Z</time>
      </trkpt>
      <trkpt lat="43.39649" lon="6.70109">
        <ele>103.24</ele>
        <time>2017-10-07T05:59:53.000Z</time>
      </trkpt>
      <trkpt lat="43.3964" lon="6.70093">
        <ele>103.7</ele>
        <time>2017-10-07T05:59:58.000Z</time>
      </trkpt>
      <trkpt lat="43.39633" lon="6.70075">
        <ele>103.36</ele>
        <time>2017-10-07T06:00:03.000Z</time>
      </trkpt>
      <trkpt lat="43.39623" lon="6.7006">
        <ele>103.18</ele>
        <time>2017-10-07T06:00:08.000Z</time>
      </trkpt>
      <trkpt lat="43.39605" lon="6.70055">
        <ele>105.01</ele>
        <time>2017-10-07T06:00:13.000Z</time>
      </trkpt>
      <trkpt lat="43.39584" lon="6.70063">
        <ele>107.75</ele>
        <time>2017-10-07T06:00:18.000Z</time>
      </trkpt>
      <trkpt lat="43.3956" lon="6.70073">
        <ele>108.47</ele>
        <time>2017-10-07T06:00:23.000Z</time>
      </trkpt>
      <trkpt lat="43.39531" lon="6.7009">
        <ele>107.24</ele>
        <time>2017-10-07T06:00:28.000Z</time>
      </trkpt>
      <trkpt lat="43.39501" lon="6.70098">
        <ele>104.96</ele>
        <time>2017-10-07T06:00:33.000Z</time>
      </trkpt>
      <trkpt lat="43.39473" lon="6.70098">
        <ele>103.57</ele>
        <time>2017-10-07T06:00:38.000Z</time>
      </trkpt>
      <trkpt lat="43.39442" lon="6.70093">
        <ele>102.13</ele>
        <time>2017-10-07T06:00:43.000Z</time>
      </trkpt>
      <trkpt lat="43.39406" lon="6.70087">
        <ele>101.26</ele>
        <time>2017-10-07T06:00:48.000Z</time>
      </trkpt>
      <trkpt lat="43.39377" lon="6.70075">
        <ele>101.84</ele>
        <time>2017-10-07T06:00:53.000Z</time>
      </trkpt>
      <trkpt lat="43.39356" lon="6.70054">
        <ele>101.5</ele>
        <time>2017-10-07T06:00:58.000Z</time>
      </trkpt>
      <trkpt lat="43.39335" lon="6.70026">
        <ele>100.5</ele>
        <time>2017-10-07T06:01:03.000Z</time>
      </trkpt>
      <trkpt lat="43.39316" lon="6.70001">
        <ele>99.59</ele>
        <time>2017-10-07T06:01:08.000Z</time>
      </trkpt>
      <trkpt lat="43.393" lon="6.69981">
        <ele>99.25</ele>
        <time>2017-10-07T06:01:13.000Z</time>
      </trkpt>
      <trkpt lat="43.39285" lon="6.69965">
        <ele>99.35</ele>
        <time>2017-10-07T06:01:18.000Z</time>
      </trkpt>
      <trkpt lat="43.39273" lon="6.69948">
        <ele>99.54</ele>
        <time>2017-10-07T06:01:23.000Z</time>
      </trkpt>
      <trkpt lat="43.39261" lon="6.69932">
        <ele>99.76</ele>
        <time>2017-10-07T06:01:28.000Z</time>
      </trkpt>
      <trkpt lat="43.39244" lon="6.69925">
        <ele>100.33</ele>
        <time>2017-10-07T06:01:33.000Z</time>
      </trkpt>
      <trkpt lat="43.39218" lon="6.69912">
        <ele>100.91</ele>
        <time>2017-10-07T06:01:38.000Z</time>
      </trkpt>
      <trkpt lat="43.39195" lon="6.69875">
        <ele>103.06</ele>
        <time>2017-10-07T06:01:43.000Z</time>
      </trkpt>
      <trkpt lat="43.39176" lon="6.69857">
        <ele>105.9</ele>
        <time>2017-10-07T06:01:48.000Z</time>
      </trkpt>
      <trkpt lat="43.39163" lon="6.69853">
        <ele>107.14</ele>
        <time>2017-10-07T06:01:53.000Z</time>
      </trkpt>
      <trkpt lat="43.39153" lon="6.69845">
        <ele>108.18</ele>
        <time>2017-10-07T06:01:58.000Z</time>
      </trkpt>
      <trkpt lat="43.39144" lon="6.69836">
        <ele>108.92</ele>
        <time>2017-10-07T06:02:03.000Z</time>
      </trkpt>
      <trkpt lat="43.39138" lon="6.69825">
        <ele>109.91</ele>
        <time>2017-10-07T06:02:08.000Z</time>
      </trkpt>
      <trkpt lat="43.39136" lon="6.69811">
        <ele>111.2</ele>
        <time>2017-10-07T06:02:14.000Z</time>
      </trkpt>
      <trkpt lat="43.39133" lon="6.69796">
        <ele>112.54</ele>
        <time>2017-10-07T06:02:19.000Z</time>
      </trkpt>
      <trkpt lat="43.39132" lon="6.69782">
        <ele>113.87</ele>
        <time>2017-10-07T06:02:24.000Z</time>
      </trkpt>
      <trkpt lat="43.39131" lon="6.6977">
        <ele>115.1</ele>
        <time>2017-10-07T06:02:29.000Z</time>
      </trkpt>
      <trkpt lat="43.39131" lon="6.69757">
        <ele>116.49</ele>
        <time>2017-10-07T06:02:34.000Z</time>
      </trkpt>
      <trkpt lat="43.39131" lon="6.69744">
        <ele>118.03</ele>
        <time>2017-10-07T06:02:39.000Z</time>
      </trkpt>
      <trkpt lat="43.39131" lon="6.6973">
        <ele>119.64</ele>
        <time>2017-10-07T06:02:44.000Z</time>
      </trkpt>
      <trkpt lat="43.3913" lon="6.69716">
        <ele>121.18</ele>
        <time>2017-10-07T06:02:50.000Z</time>
      </trkpt>
      <trkpt lat="43.39128" lon="6.69702">
        <ele>122.84</ele>
        <time>2017-10-07T06:02:55.000Z</time>
      </trkpt>
      <trkpt lat="43.39125" lon="6.69689">
        <ele>124.28</ele>
        <time>2017-10-07T06:03:00.000Z</time>
      </trkpt>
      <trkpt lat="43.39121" lon="6.69678">
        <ele>125.45</ele>
        <time>2017-10-07T06:03:05.000Z</time>
      </trkpt>
      <trkpt lat="43.39117" lon="6.69665">
        <ele>126.72</ele>
        <time>2017-10-07T06:03:10.000Z</time>
      </trkpt>
      <trkpt lat="43.39113" lon="6.69652">
        <ele>128.13</ele>
        <time>2017-10-07T06:03:15.000Z</time>
      </trkpt>
      <trkpt lat="43.39112" lon="6.69638">
        <ele>130.16</ele>
        <time>2017-10-07T06:03:21.000Z</time>
      </trkpt>
      <trkpt lat="43.39109" lon="6.69625">
        <ele>131.89</ele>
        <time>2017-10-07T06:03:26.000Z</time>
      </trkpt>
      <trkpt lat="43.39107" lon="6.69612">
        <ele>133.6</ele>
        <time>2017-10-07T06:03:32.000Z</time>
      </trkpt>
      <trkpt lat="43.39105" lon="6.69598">
        <ele>135.39</ele>
        <time>2017-10-07T06:03:38.000Z</time>
      </trkpt>
      <trkpt lat="43.39101" lon="6.69585">
        <ele>136.71</ele>
        <time>2017-10-07T06:03:44.000Z</time>
      </trkpt>
      <trkpt lat="43.39096" lon="6.69574">
        <ele>137.85</ele>
        <time>2017-10-07T06:03:50.000Z</time>
      </trkpt>
      <trkpt lat="43.39093" lon="6.6956">
        <ele>139.47</ele>
        <time>2017-10-07T06:03:57.000Z</time>
      </trkpt>
      <trkpt lat="43.39087" lon="6.6955">
        <ele>140.74</ele>
        <time>2017-10-07T06:04:04.000Z</time>
      </trkpt>
      <trkpt lat="43.39082" lon="6.69539">
        <ele>142.21</ele>
        <time>2017-10-07T06:04:09.000Z</time>
      </trkpt>
      <trkpt lat="43.39076" lon="6.69529">
        <ele>143.73</ele>
        <time>2017-10-07T06:04:15.000Z</time>
      </trkpt>
      <trkpt lat="43.39067" lon="6.6952">
        <ele>145.2</ele>
        <time>2017-10-07T06:04:21.000Z</time>
      </trkpt>
      <trkpt lat="43.39057" lon="6.69517">
        <ele>146.21</ele>
        <time>2017-10-07T06:04:27.000Z</time>
      </trkpt>
      <trkpt lat="43.39048" lon="6.6951">
        <ele>147.75</ele>
        <time>2017-10-07T06:04:33.000Z</time>
      </trkpt>
      <trkpt lat="43.39038" lon="6.69502">
        <ele>149.36</ele>
        <time>2017-10-07T06:04:39.000Z</time>
      </trkpt>
      <trkpt lat="43.3903" lon="6.69495">
        <ele>150.82</ele>
        <time>2017-10-07T06:04:45.000Z</time>
      </trkpt>
      <trkpt lat="43.39021" lon="6.69488">
        <ele>152.24</ele>
        <time>2017-10-07T06:04:52.000Z</time>
      </trkpt>
      <trkpt lat="43.39013" lon="6.6948">
        <ele>153.59</ele>
        <time>2017-10-07T06:04:57.000Z</time>
      </trkpt>
      <trkpt lat="43.39004" lon="6.69473">
        <ele>154.76</ele>
        <time>2017-10-07T06:05:03.000Z</time>
      </trkpt>
      <trkpt lat="43.38995" lon="6.69468">
        <ele>155.38</ele>
        <time>2017-10-07T06:05:09.000Z</time>
      </trkpt>
      <trkpt lat="43.38987" lon="6.6946">
        <ele>156.16</ele>
        <time>2017-10-07T06:05:15.000Z</time>
      </trkpt>
      <trkpt lat="43.3898" lon="6.69451">
        <ele>156.91</ele>
        <time>2017-10-07T06:05:22.000Z</time>
      </trkpt>
      <trkpt lat="43.38972" lon="6.69441">
        <ele>157.86</ele>
        <time>2017-10-07T06:05:28.000Z</time>
      </trkpt>
      <trkpt lat="43.38967" lon="6.6943">
        <ele>159.1</ele>
        <time>2017-10-07T06:05:34.000Z</time>
      </trkpt>
      <trkpt lat="43.38961" lon="6.69418">
        <ele>160.55</ele>
        <time>2017-10-07T06:05:40.000Z</time>
      </trkpt>
      <trkpt lat="43.38957" lon="6.69406">
        <ele>162.17</ele>
        <time>2017-10-07T06:05:46.000Z</time>
      </trkpt>
      <trkpt lat="43.38953" lon="6.69393">
        <ele>164.1</ele>
        <time>2017-10-07T06:05:52.000Z</time>
      </trkpt>
      <trkpt lat="43.3895" lon="6.69382">
        <ele>165.94</ele>
        <time>2017-10-07T06:05:58.000Z</time>
      </trkpt>
      <trkpt lat="43.38947" lon="6.6937">
        <ele>168</ele>
        <time>2017-10-07T06:06:04.000Z</time>
      </trkpt>
      <trkpt lat="43.38942" lon="6.69358">
        <ele>170.12</ele>
        <time>2017-10-07T06:06:11.000Z</time>
      </trkpt>
      <trkpt lat="43.38936" lon="6.69347">
        <ele>172.34</ele>
        <time>2017-10-07T06:06:18.000Z</time>
      </trkpt>
      <trkpt lat="43.38931" lon="6.69335">
        <ele>174.61</ele>
        <time>2017-10-07T06:06:25.000Z</time>
      </trkpt>
      <trkpt lat="43.38924" lon="6.69326">
        <ele>176.69</ele>
        <time>2017-10-07T06:06:32.000Z</time>
      </trkpt>
      <trkpt lat="43.38918" lon="6.69316">
        <ele>178.87</ele>
        <time>2017-10-07T06:06:38.000Z</time>
      </trkpt>
      <trkpt lat="43.3891" lon="6.69306">
        <ele>180.99</ele>
        <time>2017-10-07T06:06:47.000Z</time>
      </trkpt>
      <trkpt lat="43.38902" lon="6.69301">
        <ele>182.42</ele>
        <time>2017-10-07T06:06:53.000Z</time>
      </trkpt>
      <trkpt lat="43.38892" lon="6.69301">
        <ele>183.33</ele>
        <time>2017-10-07T06:06:58.000Z</time>
      </trkpt>
      <trkpt lat="43.38884" lon="6.69294">
        <ele>184.95</ele>
        <time>2017-10-07T06:07:05.000Z</time>
      </trkpt>
      <trkpt lat="43.38874" lon="6.69289">
        <ele>186.46</ele>
        <time>2017-10-07T06:07:12.000Z</time>
      </trkpt>
      <trkpt lat="43.38866" lon="6.69286">
        <ele>187.5</ele>
        <time>2017-10-07T06:07:18.000Z</time>
      </trkpt>
      <trkpt lat="43.38856" lon="6.6928">
        <ele>188.78</ele>
        <time>2017-10-07T06:07:25.000Z</time>
      </trkpt>
      <trkpt lat="43.38847" lon="6.69273">
        <ele>190.29</ele>
        <time>2017-10-07T06:07:32.000Z</time>
      </trkpt>
      <trkpt lat="43.38839" lon="6.69267">
        <ele>191.56</ele>
        <time>2017-10-07T06:07:38.000Z</time>
      </trkpt>
      <trkpt lat="43.3883" lon="6.69261">
        <ele>192.84</ele>
        <time>2017-10-07T06:07:45.000Z</time>
      </trkpt>
      <trkpt lat="43.38822" lon="6.69251">
        <ele>194.73</ele>
        <time>2017-10-07T06:07:53.000Z</time>
      </trkpt>
      <trkpt lat="43.38816" lon="6.69241">
        <ele>196.73</ele>
        <time>2017-10-07T06:07:59.000Z</time>
      </trkpt>
      <trkpt lat="43.38809" lon="6.6923">
        <ele>199.03</ele>
        <time>2017-10-07T06:08:05.000Z</time>
      </trkpt>
      <trkpt lat="43.38802" lon="6.69219">
        <ele>201.45</ele>
        <time>2017-10-07T06:08:11.000Z</time>
      </trkpt>
      <trkpt lat="43.38794" lon="6.69211">
        <ele>203.07</ele>
        <time>2017-10-07T06:08:17.000Z</time>
      </trkpt>
      <trkpt lat="43.38787" lon="6.69202">
        <ele>205.07</ele>
        <time>2017-10-07T06:08:24.000Z</time>
      </trkpt>
      <trkpt lat="43.38779" lon="6.69194">
        <ele>206.46</ele>
        <time>2017-10-07T06:08:30.000Z</time>
      </trkpt>
      <trkpt lat="43.38771" lon="6.69186">
        <ele>207.71</ele>
        <time>2017-10-07T06:08:35.000Z</time>
      </trkpt>
      <trkpt lat="43.38763" lon="6.69179">
        <ele>208.72</ele>
        <time>2017-10-07T06:08:40.000Z</time>
      </trkpt>
      <trkpt lat="43.38756" lon="6.69169">
        <ele>210.22</ele>
        <time>2017-10-07T06:08:47.000Z</time>
      </trkpt>
      <trkpt lat="43.38748" lon="6.69161">
        <ele>210.98</ele>
        <time>2017-10-07T06:08:52.000Z</time>
      </trkpt>
      <trkpt lat="43.3874" lon="6.69151">
        <ele>211.87</ele>
        <time>2017-10-07T06:08:57.000Z</time>
      </trkpt>
      <trkpt lat="43.38731" lon="6.69145">
        <ele>211.62</ele>
        <time>2017-10-07T06:09:02.000Z</time>
      </trkpt>
      <trkpt lat="43.38722" lon="6.69138">
        <ele>211.37</ele>
        <time>2017-10-07T06:09:07.000Z</time>
      </trkpt>
      <trkpt lat="43.38716" lon="6.69127">
        <ele>212.28</ele>
        <time>2017-10-07T06:09:12.000Z</time>
      </trkpt>
      <trkpt lat="43.38723" lon="6.69117">
        <ele>214.96</ele>
        <time>2017-10-07T06:09:20.000Z</time>
      </trkpt>
      <trkpt lat="43.3873" lon="6.6911">
        <ele>217.17</ele>
        <time>2017-10-07T06:09:27.000Z</time>
      </trkpt>
      <trkpt lat="43.38738" lon="6.69102">
        <ele>219.02</ele>
        <time>2017-10-07T06:09:36.000Z</time>
      </trkpt>
      <trkpt lat="43.38747" lon="6.69103">
        <ele>219.87</ele>
        <time>2017-10-07T06:09:43.000Z</time>
      </trkpt>
      <trkpt lat="43.38755" lon="6.69112">
        <ele>219.37</ele>
        <time>2017-10-07T06:09:51.000Z</time>
      </trkpt>
      <trkpt lat="43.38765" lon="6.69117">
        <ele>219.54</ele>
        <time>2017-10-07T06:09:56.000Z</time>
      </trkpt>
      <trkpt lat="43.38775" lon="6.6912">
        <ele>219.93</ele>
        <time>2017-10-07T06:10:02.000Z</time>
      </trkpt>
      <trkpt lat="43.38784" lon="6.69126">
        <ele>219.55</ele>
        <time>2017-10-07T06:10:07.000Z</time>
      </trkpt>
      <trkpt lat="43.38795" lon="6.69136">
        <ele>218.53</ele>
        <time>2017-10-07T06:10:12.000Z</time>
      </trkpt>
      <trkpt lat="43.38802" lon="6.69146">
        <ele>217.01</ele>
        <time>2017-10-07T06:10:17.000Z</time>
      </trkpt>
      <trkpt lat="43.38812" lon="6.69145">
        <ele>217.09</ele>
        <time>2017-10-07T06:10:29.000Z</time>
      </trkpt>
      <trkpt lat="43.38821" lon="6.69138">
        <ele>217.96</ele>
        <time>2017-10-07T06:10:36.000Z</time>
      </trkpt>
      <trkpt lat="43.38842" lon="6.6912">
        <ele>218.58</ele>
        <time>2017-10-07T06:10:41.000Z</time>
      </trkpt>
      <trkpt lat="43.38883" lon="6.69093">
        <ele>213.87</ele>
        <time>2017-10-07T06:10:46.000Z</time>
      </trkpt>
      <trkpt lat="43.38921" lon="6.69061">
        <ele>209.89</ele>
        <time>2017-10-07T06:10:51.000Z</time>
      </trkpt>
      <trkpt lat="43.38968" lon="6.69049">
        <ele>202.03</ele>
        <time>2017-10-07T06:10:56.000Z</time>
      </trkpt>
      <trkpt lat="43.39011" lon="6.69037">
        <ele>193.83</ele>
        <time>2017-10-07T06:11:01.000Z</time>
      </trkpt>
      <trkpt lat="43.39049" lon="6.69019">
        <ele>185.87</ele>
        <time>2017-10-07T06:11:06.000Z</time>
      </trkpt>
      <trkpt lat="43.39077" lon="6.69">
        <ele>179.86</ele>
        <time>2017-10-07T06:11:11.000Z</time>
      </trkpt>
      <trkpt lat="43.39102" lon="6.68981">
        <ele>174.29</ele>
        <time>2017-10-07T06:11:16.000Z</time>
      </trkpt>
      <trkpt lat="43.39117" lon="6.68945">
        <ele>171.39</ele>
        <time>2017-10-07T06:11:21.000Z</time>
      </trkpt>
      <trkpt lat="43.39144" lon="6.68954">
        <ele>164.84</ele>
        <time>2017-10-07T06:11:26.000Z</time>
      </trkpt>
      <trkpt lat="43.3917" lon="6.68932">
        <ele>159.83</ele>
        <time>2017-10-07T06:11:31.000Z</time>
      </trkpt>
      <trkpt lat="43.39213" lon="6.68923">
        <ele>153.69</ele>
        <time>2017-10-07T06:11:36.000Z</time>
      </trkpt>
      <trkpt lat="43.39258" lon="6.68922">
        <ele>147.25</ele>
        <time>2017-10-07T06:11:41.000Z</time>
      </trkpt>
      <trkpt lat="43.39286" lon="6.68919">
        <ele>142.28</ele>
        <time>2017-10-07T06:11:46.000Z</time>
      </trkpt>
      <trkpt lat="43.39324" lon="6.6889">
        <ele>139.34</ele>
        <time>2017-10-07T06:11:51.000Z</time>
      </trkpt>
      <trkpt lat="43.39356" lon="6.68888">
        <ele>135.61</ele>
        <time>2017-10-07T06:11:56.000Z</time>
      </trkpt>
      <trkpt lat="43.39398" lon="6.6891">
        <ele>126.81</ele>
        <time>2017-10-07T06:12:01.000Z</time>
      </trkpt>
      <trkpt lat="43.39437" lon="6.68931">
        <ele>117.26</ele>
        <time>2017-10-07T06:12:06.000Z</time>
      </trkpt>
      <trkpt lat="43.39471" lon="6.68901">
        <ele>115.95</ele>
        <time>2017-10-07T06:12:11.000Z</time>
      </trkpt>
      <trkpt lat="43.39508" lon="6.68872">
        <ele>110.06</ele>
        <time>2017-10-07T06:12:16.000Z</time>
      </trkpt>
      <trkpt lat="43.39536" lon="6.68824">
        <ele>104.15</ele>
        <time>2017-10-07T06:12:21.000Z</time>
      </trkpt>
      <trkpt lat="43.39525" lon="6.6879">
        <ele>102.85</ele>
        <time>2017-10-07T06:12:26.000Z</time>
      </trkpt>
      <trkpt lat="43.3951" lon="6.68767">
        <ele>101.77</ele>
        <time>2017-10-07T06:12:31.000Z</time>
      </trkpt>
      <trkpt lat="43.39493" lon="6.68748">
        <ele>101.73</ele>
        <time>2017-10-07T06:12:36.000Z</time>
      </trkpt>
      <trkpt lat="43.39472" lon="6.6872">
        <ele>100.95</ele>
        <time>2017-10-07T06:12:41.000Z</time>
      </trkpt>
      <trkpt lat="43.39464" lon="6.68684">
        <ele>96.77</ele>
        <time>2017-10-07T06:12:46.000Z</time>
      </trkpt>
      <trkpt lat="43.39467" lon="6.68662">
        <ele>93.82</ele>
        <time>2017-10-07T06:12:51.000Z</time>
      </trkpt>
      <trkpt lat="43.39471" lon="6.68615">
        <ele>90.27</ele>
        <time>2017-10-07T06:12:56.000Z</time>
      </trkpt>
      <trkpt lat="43.3948" lon="6.68563">
        <ele>88.51</ele>
        <time>2017-10-07T06:13:01.000Z</time>
      </trkpt>
      <trkpt lat="43.39478" lon="6.68522">
        <ele>88.22</ele>
        <time>2017-10-07T06:13:06.000Z</time>
      </trkpt>
      <trkpt lat="43.39445" lon="6.68512">
        <ele>85.95</ele>
        <time>2017-10-07T06:13:11.000Z</time>
      </trkpt>
      <trkpt lat="43.39416" lon="6.68477">
        <ele>83.55</ele>
        <time>2017-10-07T06:13:16.000Z</time>
      </trkpt>
      <trkpt lat="43.3939" lon="6.68427">
        <ele>80.63</ele>
        <time>2017-10-07T06:13:21.000Z</time>
      </trkpt>
      <trkpt lat="43.39366" lon="6.68397">
        <ele>75.66</ele>
        <time>2017-10-07T06:13:26.000Z</time>
      </trkpt>
      <trkpt lat="43.39359" lon="6.68352">
        <ele>71.21</ele>
        <time>2017-10-07T06:13:31.000Z</time>
      </trkpt>
      <trkpt lat="43.39339" lon="6.68325">
        <ele>68.63</ele>
        <time>2017-10-07T06:13:36.000Z</time>
      </trkpt>
      <trkpt lat="43.39321" lon="6.68331">
        <ele>69.48</ele>
        <time>2017-10-07T06:13:41.000Z</time>
      </trkpt>
      <trkpt lat="43.39307" lon="6.68315">
        <ele>70.65</ele>
        <time>2017-10-07T06:13:46.000Z</time>
      </trkpt>
      <trkpt lat="43.39313" lon="6.68295">
        <ele>69.78</ele>
        <time>2017-10-07T06:13:51.000Z</time>
      </trkpt>
      <trkpt lat="43.39315" lon="6.68276">
        <ele>69.64</ele>
        <time>2017-10-07T06:13:56.000Z</time>
      </trkpt>
      <trkpt lat="43.39307" lon="6.68265">
        <ele>70.89</ele>
        <time>2017-10-07T06:14:01.000Z</time>
      </trkpt>
      <trkpt lat="43.39301" lon="6.68255">
        <ele>72.15</ele>
        <time>2017-10-07T06:14:07.000Z</time>
      </trkpt>
      <trkpt lat="43.39292" lon="6.68249">
        <ele>73.65</ele>
        <time>2017-10-07T06:14:12.000Z</time>
      </trkpt>
      <trkpt lat="43.39285" lon="6.68241">
        <ele>74.96</ele>
        <time>2017-10-07T06:14:17.000Z</time>
      </trkpt>
      <trkpt lat="43.39276" lon="6.68235">
        <ele>76.61</ele>
        <time>2017-10-07T06:14:22.000Z</time>
      </trkpt>
      <trkpt lat="43.39274" lon="6.6822">
        <ele>76.66</ele>
        <time>2017-10-07T06:14:28.000Z</time>
      </trkpt>
      <trkpt lat="43.39273" lon="6.68203">
        <ele>76.61</ele>
        <time>2017-10-07T06:14:33.000Z</time>
      </trkpt>
      <trkpt lat="43.39278" lon="6.68182">
        <ele>75.51</ele>
        <time>2017-10-07T06:14:38.000Z</time>
      </trkpt>
      <trkpt lat="43.39284" lon="6.68165">
        <ele>74.82</ele>
        <time>2017-10-07T06:14:43.000Z</time>
      </trkpt>
      <trkpt lat="43.3929" lon="6.68152">
        <ele>74.46</ele>
        <time>2017-10-07T06:14:48.000Z</time>
      </trkpt>
      <trkpt lat="43.39298" lon="6.68136">
        <ele>74.5</ele>
        <time>2017-10-07T06:14:53.000Z</time>
      </trkpt>
      <trkpt lat="43.39307" lon="6.68123">
        <ele>75.02</ele>
        <time>2017-10-07T06:14:58.000Z</time>
      </trkpt>
      <trkpt lat="43.39317" lon="6.68113">
        <ele>75.7</ele>
        <time>2017-10-07T06:15:03.000Z</time>
      </trkpt>
      <trkpt lat="43.39324" lon="6.68101">
        <ele>76.41</ele>
        <time>2017-10-07T06:15:08.000Z</time>
      </trkpt>
      <trkpt lat="43.39327" lon="6.68085">
        <ele>77.11</ele>
        <time>2017-10-07T06:15:13.000Z</time>
      </trkpt>
      <trkpt lat="43.39325" lon="6.68067">
        <ele>77.45</ele>
        <time>2017-10-07T06:15:18.000Z</time>
      </trkpt>
      <trkpt lat="43.39326" lon="6.6805">
        <ele>77.51</ele>
        <time>2017-10-07T06:15:23.000Z</time>
      </trkpt>
      <trkpt lat="43.39326" lon="6.68036">
        <ele>77.34</ele>
        <time>2017-10-07T06:15:31.000Z</time>
      </trkpt>
      <trkpt lat="43.39329" lon="6.68019">
        <ele>76.92</ele>
        <time>2017-10-07T06:15:38.000Z</time>
      </trkpt>
      <trkpt lat="43.39333" lon="6.67984">
        <ele>74.89</ele>
        <time>2017-10-07T06:15:43.000Z</time>
      </trkpt>
      <trkpt lat="43.39325" lon="6.67959">
        <ele>72.25</ele>
        <time>2017-10-07T06:15:48.000Z</time>
      </trkpt>
      <trkpt lat="43.39318" lon="6.67942">
        <ele>69.49</ele>
        <time>2017-10-07T06:15:53.000Z</time>
      </trkpt>
      <trkpt lat="43.39317" lon="6.67924">
        <ele>67.02</ele>
        <time>2017-10-07T06:15:58.000Z</time>
      </trkpt>
      <trkpt lat="43.39312" lon="6.67901">
        <ele>63.19</ele>
        <time>2017-10-07T06:16:03.000Z</time>
      </trkpt>
      <trkpt lat="43.39306" lon="6.67885">
        <ele>59.74</ele>
        <time>2017-10-07T06:16:08.000Z</time>
      </trkpt>
      <trkpt lat="43.39304" lon="6.67865">
        <ele>56.19</ele>
        <time>2017-10-07T06:16:13.000Z</time>
      </trkpt>
      <trkpt lat="43.39312" lon="6.67852">
        <ele>54.51</ele>
        <time>2017-10-07T06:16:18.000Z</time>
      </trkpt>
      <trkpt lat="43.39319" lon="6.67834">
        <ele>51.45</ele>
        <time>2017-10-07T06:16:23.000Z</time>
      </trkpt>
      <trkpt lat="43.39315" lon="6.67808">
        <ele>47.21</ele>
        <time>2017-10-07T06:16:28.000Z</time>
      </trkpt>
      <trkpt lat="43.39314" lon="6.67785">
        <ele>43.39</ele>
        <time>2017-10-07T06:16:33.000Z</time>
      </trkpt>
      <trkpt lat="43.39329" lon="6.67772">
        <ele>41.51</ele>
        <time>2017-10-07T06:16:38.000Z</time>
      </trkpt>
      <trkpt lat="43.39334" lon="6.67743">
        <ele>36.87</ele>
        <time>2017-10-07T06:16:43.000Z</time>
      </trkpt>
      <trkpt lat="43.39329" lon="6.67732">
        <ele>34.91</ele>
        <time>2017-10-07T06:16:55.000Z</time>
      </trkpt>
      <trkpt lat="43.39319" lon="6.67711">
        <ele>30.78</ele>
        <time>2017-10-07T06:17:00.000Z</time>
      </trkpt>
      <trkpt lat="43.39301" lon="6.67699">
        <ele>27.71</ele>
        <time>2017-10-07T06:17:05.000Z</time>
      </trkpt>
      <trkpt lat="43.39289" lon="6.67682">
        <ele>24.41</ele>
        <time>2017-10-07T06:17:10.000Z</time>
      </trkpt>
      <trkpt lat="43.39275" lon="6.67665">
        <ele>22.12</ele>
        <time>2017-10-07T06:17:15.000Z</time>
      </trkpt>
      <trkpt lat="43.3926" lon="6.67654">
        <ele>21.22</ele>
        <time>2017-10-07T06:17:20.000Z</time>
      </trkpt>
      <trkpt lat="43.39248" lon="6.67658">
        <ele>20.83</ele>
        <time>2017-10-07T06:17:25.000Z</time>
      </trkpt>
      <trkpt lat="43.39235" lon="6.67659">
        <ele>20.55</ele>
        <time>2017-10-07T06:17:30.000Z</time>
      </trkpt>
      <trkpt lat="43.3922" lon="6.67652">
        <ele>20.6</ele>
        <time>2017-10-07T06:17:35.000Z</time>
      </trkpt>
      <trkpt lat="43.39224" lon="6.67638">
        <ele>21.73</ele>
        <time>2017-10-07T06:18:26.000Z</time>
      </trkpt>
      <trkpt lat="43.39216" lon="6.67627">
        <ele>23.22</ele>
        <time>2017-10-07T06:18:31.000Z</time>
      </trkpt>
      <trkpt lat="43.39226" lon="6.67623">
        <ele>23.4</ele>
        <time>2017-10-07T06:18:36.000Z</time>
      </trkpt>
      <trkpt lat="43.39239" lon="6.67622">
        <ele>23.2</ele>
        <time>2017-10-07T06:18:41.000Z</time>
      </trkpt>
      <trkpt lat="43.39254" lon="6.67629">
        <ele>22.36</ele>
        <time>2017-10-07T06:18:46.000Z</time>
      </trkpt>
      <trkpt lat="43.39271" lon="6.67621">
        <ele>23.18</ele>
        <time>2017-10-07T06:18:51.000Z</time>
      </trkpt>
      <trkpt lat="43.39288" lon="6.6762">
        <ele>23.62</ele>
        <time>2017-10-07T06:18:56.000Z</time>
      </trkpt>
      <trkpt lat="43.39311" lon="6.67617">
        <ele>24.25</ele>
        <time>2017-10-07T06:19:01.000Z</time>
      </trkpt>
      <trkpt lat="43.39332" lon="6.67615">
        <ele>24.3</ele>
        <time>2017-10-07T06:19:06.000Z</time>
      </trkpt>
      <trkpt lat="43.39357" lon="6.67597">
        <ele>23.74</ele>
        <time>2017-10-07T06:19:11.000Z</time>
      </trkpt>
      <trkpt lat="43.39381" lon="6.67586">
        <ele>22.33</ele>
        <time>2017-10-07T06:19:16.000Z</time>
      </trkpt>
      <trkpt lat="43.39397" lon="6.67569">
        <ele>22.07</ele>
        <time>2017-10-07T06:19:21.000Z</time>
      </trkpt>
      <trkpt lat="43.39414" lon="6.67571">
        <ele>20.86</ele>
        <time>2017-10-07T06:19:26.000Z</time>
      </trkpt>
      <trkpt lat="43.39433" lon="6.67579">
        <ele>19.68</ele>
        <time>2017-10-07T06:19:31.000Z</time>
      </trkpt>
      <trkpt lat="43.39451" lon="6.67581">
        <ele>19.35</ele>
        <time>2017-10-07T06:19:36.000Z</time>
      </trkpt>
      <trkpt lat="43.39475" lon="6.67563">
        <ele>19.99</ele>
        <time>2017-10-07T06:19:41.000Z</time>
      </trkpt>
      <trkpt lat="43.39497" lon="6.67552">
        <ele>20.22</ele>
        <time>2017-10-07T06:19:46.000Z</time>
      </trkpt>
      <trkpt lat="43.39512" lon="6.67547">
        <ele>19.87</ele>
        <time>2017-10-07T06:19:51.000Z</time>
      </trkpt>
      <trkpt lat="43.3953" lon="6.67521">
        <ele>20.18</ele>
        <time>2017-10-07T06:19:56.000Z</time>
      </trkpt>
      <trkpt lat="43.39555" lon="6.67511">
        <ele>18.74</ele>
        <time>2017-10-07T06:20:01.000Z</time>
      </trkpt>
      <trkpt lat="43.39581" lon="6.67498">
        <ele>17.11</ele>
        <time>2017-10-07T06:20:06.000Z</time>
      </trkpt>
      <trkpt lat="43.39605" lon="6.6749">
        <ele>15.76</ele>
        <time>2017-10-07T06:20:11.000Z</time>
      </trkpt>
      <trkpt lat="43.39629" lon="6.67483">
        <ele>14.66</ele>
        <time>2017-10-07T06:20:16.000Z</time>
      </trkpt>
      <trkpt lat="43.39653" lon="6.67476">
        <ele>13.93</ele>
        <time>2017-10-07T06:20:21.000Z</time>
      </trkpt>
      <trkpt lat="43.39672" lon="6.6747">
        <ele>13.72</ele>
        <time>2017-10-07T06:20:26.000Z</time>
      </trkpt>
      <trkpt lat="43.39693" lon="6.67473">
        <ele>14.07</ele>
        <time>2017-10-07T06:20:31.000Z</time>
      </trkpt>
      <trkpt lat="43.39715" lon="6.67495">
        <ele>15</ele>
        <time>2017-10-07T06:20:36.000Z</time>
      </trkpt>
      <trkpt lat="43.39725" lon="6.67489">
        <ele>15.3</ele>
        <time>2017-10-07T06:20:41.000Z</time>
      </trkpt>
      <trkpt lat="43.39735" lon="6.67466">
        <ele>15.31</ele>
        <time>2017-10-07T06:20:46.000Z</time>
      </trkpt>
      <trkpt lat="43.39736" lon="6.67434">
        <ele>14.84</ele>
        <time>2017-10-07T06:20:51.000Z</time>
      </trkpt>
      <trkpt lat="43.3974" lon="6.67408">
        <ele>14.73</ele>
        <time>2017-10-07T06:20:56.000Z</time>
      </trkpt>
      <trkpt lat="43.39749" lon="6.67377">
        <ele>14.73</ele>
        <time>2017-10-07T06:21:01.000Z</time>
      </trkpt>
      <trkpt lat="43.3975" lon="6.67339">
        <ele>14.92</ele>
        <time>2017-10-07T06:21:06.000Z</time>
      </trkpt>
      <trkpt lat="43.39747" lon="6.67301">
        <ele>16.03</ele>
        <time>2017-10-07T06:21:11.000Z</time>
      </trkpt>
      <trkpt lat="43.39736" lon="6.67267">
        <ele>17.43</ele>
        <time>2017-10-07T06:21:16.000Z</time>
      </trkpt>
      <trkpt lat="43.39721" lon="6.67241">
        <ele>17.92</ele>
        <time>2017-10-07T06:21:21.000Z</time>
      </trkpt>
      <trkpt lat="43.39704" lon="6.67224">
        <ele>17.67</ele>
        <time>2017-10-07T06:21:26.000Z</time>
      </trkpt>
      <trkpt lat="43.39688" lon="6.67205">
        <ele>16.82</ele>
        <time>2017-10-07T06:21:31.000Z</time>
      </trkpt>
      <trkpt lat="43.39663" lon="6.67193">
        <ele>16.05</ele>
        <time>2017-10-07T06:21:36.000Z</time>
      </trkpt>
      <trkpt lat="43.39635" lon="6.67195">
        <ele>16.06</ele>
        <time>2017-10-07T06:21:41.000Z</time>
      </trkpt>
      <trkpt lat="43.39614" lon="6.67204">
        <ele>16.56</ele>
        <time>2017-10-07T06:21:46.000Z</time>
      </trkpt>
      <trkpt lat="43.39594" lon="6.67208">
        <ele>17.1</ele>
        <time>2017-10-07T06:21:51.000Z</time>
      </trkpt>
      <trkpt lat="43.39572" lon="6.6721">
        <ele>18.34</ele>
        <time>2017-10-07T06:21:56.000Z</time>
      </trkpt>
      <trkpt lat="43.39555" lon="6.67184">
        <ele>17.98</ele>
        <time>2017-10-07T06:22:01.000Z</time>
      </trkpt>
      <trkpt lat="43.39543" lon="6.6716">
        <ele>17.31</ele>
        <time>2017-10-07T06:22:06.000Z</time>
      </trkpt>
      <trkpt lat="43.39527" lon="6.6714">
        <ele>16.75</ele>
        <time>2017-10-07T06:22:11.000Z</time>
      </trkpt>
      <trkpt lat="43.39507" lon="6.67132">
        <ele>16.74</ele>
        <time>2017-10-07T06:22:16.000Z</time>
      </trkpt>
      <trkpt lat="43.39494" lon="6.67108">
        <ele>15.6</ele>
        <time>2017-10-07T06:22:21.000Z</time>
      </trkpt>
      <trkpt lat="43.39478" lon="6.67094">
        <ele>15.35</ele>
        <time>2017-10-07T06:22:26.000Z</time>
      </trkpt>
      <trkpt lat="43.3946" lon="6.67081">
        <ele>15.57</ele>
        <time>2017-10-07T06:22:31.000Z</time>
      </trkpt>
      <trkpt lat="43.39445" lon="6.67054">
        <ele>16.63</ele>
        <time>2017-10-07T06:22:36.000Z</time>
      </trkpt>
      <trkpt lat="43.39431" lon="6.67027">
        <ele>18.45</ele>
        <time>2017-10-07T06:22:41.000Z</time>
      </trkpt>
      <trkpt lat="43.39415" lon="6.67">
        <ele>20.01</ele>
        <time>2017-10-07T06:22:46.000Z</time>
      </trkpt>
      <trkpt lat="43.39401" lon="6.66971">
        <ele>20.87</ele>
        <time>2017-10-07T06:22:51.000Z</time>
      </trkpt>
      <trkpt lat="43.39383" lon="6.66949">
        <ele>20.75</ele>
        <time>2017-10-07T06:22:56.000Z</time>
      </trkpt>
      <trkpt lat="43.3936" lon="6.66932">
        <ele>19.89</ele>
        <time>2017-10-07T06:23:01.000Z</time>
      </trkpt>
      <trkpt lat="43.39338" lon="6.66916">
        <ele>19.13</ele>
        <time>2017-10-07T06:23:06.000Z</time>
      </trkpt>
      <trkpt lat="43.39317" lon="6.669">
        <ele>18.82</ele>
        <time>2017-10-07T06:23:11.000Z</time>
      </trkpt>
      <trkpt lat="43.39296" lon="6.66881">
        <ele>18.89</ele>
        <time>2017-10-07T06:23:16.000Z</time>
      </trkpt>
      <trkpt lat="43.39279" lon="6.6686">
        <ele>19.46</ele>
        <time>2017-10-07T06:23:21.000Z</time>
      </trkpt>
      <trkpt lat="43.39273" lon="6.66829">
        <ele>20.42</ele>
        <time>2017-10-07T06:23:26.000Z</time>
      </trkpt>
      <trkpt lat="43.39275" lon="6.66795">
        <ele>21.64</ele>
        <time>2017-10-07T06:23:31.000Z</time>
      </trkpt>
      <trkpt lat="43.39287" lon="6.66773">
        <ele>23.34</ele>
        <time>2017-10-07T06:23:36.000Z</time>
      </trkpt>
      <trkpt lat="43.39293" lon="6.66751">
        <ele>24.8</ele>
        <time>2017-10-07T06:23:41.000Z</time>
      </trkpt>
      <trkpt lat="43.393" lon="6.66735">
        <ele>26.09</ele>
        <time>2017-10-07T06:23:46.000Z</time>
      </trkpt>
      <trkpt lat="43.39304" lon="6.66716">
        <ele>27.29</ele>
        <time>2017-10-07T06:23:51.000Z</time>
      </trkpt>
      <trkpt lat="43.39307" lon="6.667">
        <ele>28.29</ele>
        <time>2017-10-07T06:23:56.000Z</time>
      </trkpt>
      <trkpt lat="43.3931" lon="6.66685">
        <ele>29.16</ele>
        <time>2017-10-07T06:24:01.000Z</time>
      </trkpt>
      <trkpt lat="43.39314" lon="6.66671">
        <ele>30.01</ele>
        <time>2017-10-07T06:24:06.000Z</time>
      </trkpt>
      <trkpt lat="43.39317" lon="6.66656">
        <ele>30.65</ele>
        <time>2017-10-07T06:24:11.000Z</time>
      </trkpt>
      <trkpt lat="43.3932" lon="6.6664">
        <ele>31.06</ele>
        <time>2017-10-07T06:24:16.000Z</time>
      </trkpt>
      <trkpt lat="43.39323" lon="6.66626">
        <ele>31.36</ele>
        <time>2017-10-07T06:24:21.000Z</time>
      </trkpt>
      <trkpt lat="43.39327" lon="6.6661">
        <ele>31.57</ele>
        <time>2017-10-07T06:24:26.000Z</time>
      </trkpt>
      <trkpt lat="43.39331" lon="6.66595">
        <ele>31.83</ele>
        <time>2017-10-07T06:24:31.000Z</time>
      </trkpt>
      <trkpt lat="43.39337" lon="6.66578">
        <ele>32.32</ele>
        <time>2017-10-07T06:24:36.000Z</time>
      </trkpt>
      <trkpt lat="43.39341" lon="6.66559">
        <ele>32.7</ele>
        <time>2017-10-07T06:24:41.000Z</time>
      </trkpt>
      <trkpt lat="43.39342" lon="6.66541">
        <ele>32.69</ele>
        <time>2017-10-07T06:24:46.000Z</time>
      </trkpt>
      <trkpt lat="43.39345" lon="6.66525">
        <ele>32.85</ele>
        <time>2017-10-07T06:24:51.000Z</time>
      </trkpt>
      <trkpt lat="43.39349" lon="6.6651">
        <ele>33.09</ele>
        <time>2017-10-07T06:24:56.000Z</time>
      </trkpt>
      <trkpt lat="43.39358" lon="6.665">
        <ele>33.72</ele>
        <time>2017-10-07T06:25:01.000Z</time>
      </trkpt>
      <trkpt lat="43.3937" lon="6.66491">
        <ele>34.7</ele>
        <time>2017-10-07T06:25:06.000Z</time>
      </trkpt>
      <trkpt lat="43.39382" lon="6.66486">
        <ele>35.8</ele>
        <time>2017-10-07T06:25:11.000Z</time>
      </trkpt>
      <trkpt lat="43.39394" lon="6.6648">
        <ele>36.81</ele>
        <time>2017-10-07T06:25:16.000Z</time>
      </trkpt>
      <trkpt lat="43.39406" lon="6.66476">
        <ele>37.9</ele>
        <time>2017-10-07T06:25:21.000Z</time>
      </trkpt>
      <trkpt lat="43.39418" lon="6.66472">
        <ele>38.63</ele>
        <time>2017-10-07T06:25:26.000Z</time>
      </trkpt>
      <trkpt lat="43.39429" lon="6.66465">
        <ele>38.95</ele>
        <time>2017-10-07T06:25:31.000Z</time>
      </trkpt>
      <trkpt lat="43.3944" lon="6.66459">
        <ele>39.32</ele>
        <time>2017-10-07T06:25:36.000Z</time>
      </trkpt>
      <trkpt lat="43.39451" lon="6.66456">
        <ele>40.02</ele>
        <time>2017-10-07T06:25:41.000Z</time>
      </trkpt>
      <trkpt lat="43.39462" lon="6.66452">
        <ele>40.75</ele>
        <time>2017-10-07T06:25:46.000Z</time>
      </trkpt>
      <trkpt lat="43.39474" lon="6.66449">
        <ele>41.63</ele>
        <time>2017-10-07T06:25:51.000Z</time>
      </trkpt>
      <trkpt lat="43.39486" lon="6.66447">
        <ele>42.44</ele>
        <time>2017-10-07T06:25:56.000Z</time>
      </trkpt>
      <trkpt lat="43.39498" lon="6.66444">
        <ele>43.2</ele>
        <time>2017-10-07T06:26:01.000Z</time>
      </trkpt>
      <trkpt lat="43.39511" lon="6.66439">
        <ele>43.71</ele>
        <time>2017-10-07T06:26:06.000Z</time>
      </trkpt>
      <trkpt lat="43.39523" lon="6.66435">
        <ele>44.42</ele>
        <time>2017-10-07T06:26:11.000Z</time>
      </trkpt>
      <trkpt lat="43.39534" lon="6.66431">
        <ele>45.08</ele>
        <time>2017-10-07T06:26:16.000Z</time>
      </trkpt>
      <trkpt lat="43.39544" lon="6.6643">
        <ele>45.91</ele>
        <time>2017-10-07T06:26:21.000Z</time>
      </trkpt>
      <trkpt lat="43.39555" lon="6.66432">
        <ele>47.08</ele>
        <time>2017-10-07T06:26:26.000Z</time>
      </trkpt>
      <trkpt lat="43.39566" lon="6.66434">
        <ele>48.33</ele>
        <time>2017-10-07T06:26:31.000Z</time>
      </trkpt>
      <trkpt lat="43.39577" lon="6.66439">
        <ele>49.78</ele>
        <time>2017-10-07T06:26:36.000Z</time>
      </trkpt>
      <trkpt lat="43.39592" lon="6.66443">
        <ele>51.47</ele>
        <time>2017-10-07T06:26:41.000Z</time>
      </trkpt>
      <trkpt lat="43.39606" lon="6.66441">
        <ele>52.67</ele>
        <time>2017-10-07T06:26:46.000Z</time>
      </trkpt>
      <trkpt lat="43.39617" lon="6.66436">
        <ele>53.52</ele>
        <time>2017-10-07T06:26:51.000Z</time>
      </trkpt>
      <trkpt lat="43.39629" lon="6.66432">
        <ele>54.51</ele>
        <time>2017-10-07T06:26:56.000Z</time>
      </trkpt>
      <trkpt lat="43.3964" lon="6.66429">
        <ele>55.6</ele>
        <time>2017-10-07T06:27:01.000Z</time>
      </trkpt>
      <trkpt lat="43.39651" lon="6.66421">
        <ele>56.52</ele>
        <time>2017-10-07T06:27:06.000Z</time>
      </trkpt>
      <trkpt lat="43.3966" lon="6.66416">
        <ele>57.37</ele>
        <time>2017-10-07T06:27:11.000Z</time>
      </trkpt>
      <trkpt lat="43.3967" lon="6.66416">
        <ele>58.3</ele>
        <time>2017-10-07T06:27:16.000Z</time>
      </trkpt>
      <trkpt lat="43.3968" lon="6.66421">
        <ele>59.38</ele>
        <time>2017-10-07T06:27:21.000Z</time>
      </trkpt>
      <trkpt lat="43.39686" lon="6.66433">
        <ele>59.9</ele>
        <time>2017-10-07T06:27:26.000Z</time>
      </trkpt>
      <trkpt lat="43.39692" lon="6.66444">
        <ele>60.13</ele>
        <time>2017-10-07T06:27:31.000Z</time>
      </trkpt>
      <trkpt lat="43.39701" lon="6.66437">
        <ele>60.98</ele>
        <time>2017-10-07T06:27:37.000Z</time>
      </trkpt>
      <trkpt lat="43.39698" lon="6.6642">
        <ele>61.05</ele>
        <time>2017-10-07T06:27:42.000Z</time>
      </trkpt>
      <trkpt lat="43.39697" lon="6.66403">
        <ele>60.78</ele>
        <time>2017-10-07T06:27:47.000Z</time>
      </trkpt>
      <trkpt lat="43.39703" lon="6.66391">
        <ele>61.02</ele>
        <time>2017-10-07T06:27:52.000Z</time>
      </trkpt>
      <trkpt lat="43.39711" lon="6.66385">
        <ele>61.9</ele>
        <time>2017-10-07T06:27:57.000Z</time>
      </trkpt>
      <trkpt lat="43.39722" lon="6.66386">
        <ele>63.2</ele>
        <time>2017-10-07T06:28:02.000Z</time>
      </trkpt>
      <trkpt lat="43.3973" lon="6.6639">
        <ele>64.22</ele>
        <time>2017-10-07T06:28:07.000Z</time>
      </trkpt>
      <trkpt lat="43.39739" lon="6.66395">
        <ele>64.98</ele>
        <time>2017-10-07T06:28:12.000Z</time>
      </trkpt>
      <trkpt lat="43.39749" lon="6.66398">
        <ele>65.58</ele>
        <time>2017-10-07T06:28:17.000Z</time>
      </trkpt>
      <trkpt lat="43.39759" lon="6.66404">
        <ele>65.87</ele>
        <time>2017-10-07T06:28:22.000Z</time>
      </trkpt>
      <trkpt lat="43.3977" lon="6.66407">
        <ele>65.97</ele>
        <time>2017-10-07T06:28:27.000Z</time>
      </trkpt>
      <trkpt lat="43.39781" lon="6.664">
        <ele>66.38</ele>
        <time>2017-10-07T06:28:32.000Z</time>
      </trkpt>
      <trkpt lat="43.39788" lon="6.6639">
        <ele>66.93</ele>
        <time>2017-10-07T06:28:37.000Z</time>
      </trkpt>
      <trkpt lat="43.39795" lon="6.66377">
        <ele>67.69</ele>
        <time>2017-10-07T06:28:42.000Z</time>
      </trkpt>
      <trkpt lat="43.39799" lon="6.66363">
        <ele>68.71</ele>
        <time>2017-10-07T06:28:47.000Z</time>
      </trkpt>
      <trkpt lat="43.39803" lon="6.66346">
        <ele>70.09</ele>
        <time>2017-10-07T06:28:52.000Z</time>
      </trkpt>
      <trkpt lat="43.39802" lon="6.66327">
        <ele>72.02</ele>
        <time>2017-10-07T06:28:57.000Z</time>
      </trkpt>
      <trkpt lat="43.39796" lon="6.66309">
        <ele>74.22</ele>
        <time>2017-10-07T06:29:02.000Z</time>
      </trkpt>
      <trkpt lat="43.39786" lon="6.66296">
        <ele>75.55</ele>
        <time>2017-10-07T06:29:07.000Z</time>
      </trkpt>
      <trkpt lat="43.39776" lon="6.66286">
        <ele>76.48</ele>
        <time>2017-10-07T06:29:12.000Z</time>
      </trkpt>
      <trkpt lat="43.39768" lon="6.66273">
        <ele>77.59</ele>
        <time>2017-10-07T06:29:17.000Z</time>
      </trkpt>
      <trkpt lat="43.39767" lon="6.6626">
        <ele>79.24</ele>
        <time>2017-10-07T06:29:22.000Z</time>
      </trkpt>
      <trkpt lat="43.39776" lon="6.66257">
        <ele>80.39</ele>
        <time>2017-10-07T06:29:27.000Z</time>
      </trkpt>
      <trkpt lat="43.39786" lon="6.66261">
        <ele>80.57</ele>
        <time>2017-10-07T06:29:32.000Z</time>
      </trkpt>
      <trkpt lat="43.39789" lon="6.66248">
        <ele>82.43</ele>
        <time>2017-10-07T06:29:38.000Z</time>
      </trkpt>
      <trkpt lat="43.39782" lon="6.66236">
        <ele>83.14</ele>
        <time>2017-10-07T06:29:42.999Z</time>
      </trkpt>
      <trkpt lat="43.39775" lon="6.66226">
        <ele>83.29</ele>
        <time>2017-10-07T06:29:48.000Z</time>
      </trkpt>
      <trkpt lat="43.39771" lon="6.66213">
        <ele>83.62</ele>
        <time>2017-10-07T06:29:53.000Z</time>
      </trkpt>
      <trkpt lat="43.39775" lon="6.66201">
        <ele>85.1</ele>
        <time>2017-10-07T06:29:58.000Z</time>
      </trkpt>
      <trkpt lat="43.39786" lon="6.66203">
        <ele>86.36</ele>
        <time>2017-10-07T06:30:04.000Z</time>
      </trkpt>
      <trkpt lat="43.39796" lon="6.66207">
        <ele>87.09</ele>
        <time>2017-10-07T06:30:10.000Z</time>
      </trkpt>
      <trkpt lat="43.39805" lon="6.66203">
        <ele>88.39</ele>
        <time>2017-10-07T06:30:15.000Z</time>
      </trkpt>
      <trkpt lat="43.39813" lon="6.66196">
        <ele>89.97</ele>
        <time>2017-10-07T06:30:23.000Z</time>
      </trkpt>
      <trkpt lat="43.39814" lon="6.66183">
        <ele>91.62</ele>
        <time>2017-10-07T06:30:28.000Z</time>
      </trkpt>
      <trkpt lat="43.39819" lon="6.66172">
        <ele>93.66</ele>
        <time>2017-10-07T06:30:34.000Z</time>
      </trkpt>
      <trkpt lat="43.39827" lon="6.66164">
        <ele>95.28</ele>
        <time>2017-10-07T06:30:40.000Z</time>
      </trkpt>
      <trkpt lat="43.39834" lon="6.66154">
        <ele>97.02</ele>
        <time>2017-10-07T06:30:45.000Z</time>
      </trkpt>
      <trkpt lat="43.3984" lon="6.66145">
        <ele>98.57</ele>
        <time>2017-10-07T06:30:50.000Z</time>
      </trkpt>
      <trkpt lat="43.39847" lon="6.66135">
        <ele>99.8</ele>
        <time>2017-10-07T06:30:55.000Z</time>
      </trkpt>
      <trkpt lat="43.39853" lon="6.66125">
        <ele>101.1</ele>
        <time>2017-10-07T06:31:00.000Z</time>
      </trkpt>
      <trkpt lat="43.39861" lon="6.66117">
        <ele>101.49</ele>
        <time>2017-10-07T06:31:05.000Z</time>
      </trkpt>
      <trkpt lat="43.39868" lon="6.66109">
        <ele>101.93</ele>
        <time>2017-10-07T06:31:10.000Z</time>
      </trkpt>
      <trkpt lat="43.39875" lon="6.66099">
        <ele>102.46</ele>
        <time>2017-10-07T06:31:16.000Z</time>
      </trkpt>
      <trkpt lat="43.3988" lon="6.66089">
        <ele>103.32</ele>
        <time>2017-10-07T06:31:21.000Z</time>
      </trkpt>
      <trkpt lat="43.39885" lon="6.66078">
        <ele>104.01</ele>
        <time>2017-10-07T06:31:26.000Z</time>
      </trkpt>
      <trkpt lat="43.39891" lon="6.66066">
        <ele>104.78</ele>
        <time>2017-10-07T06:31:32.000Z</time>
      </trkpt>
      <trkpt lat="43.39896" lon="6.66054">
        <ele>105.67</ele>
        <time>2017-10-07T06:31:37.000Z</time>
      </trkpt>
      <trkpt lat="43.399" lon="6.66043">
        <ele>106.49</ele>
        <time>2017-10-07T06:31:42.000Z</time>
      </trkpt>
      <trkpt lat="43.39904" lon="6.66031">
        <ele>107.47</ele>
        <time>2017-10-07T06:31:47.000Z</time>
      </trkpt>
      <trkpt lat="43.39909" lon="6.66019">
        <ele>108.1</ele>
        <time>2017-10-07T06:31:53.000Z</time>
      </trkpt>
      <trkpt lat="43.39911" lon="6.66006">
        <ele>109.24</ele>
        <time>2017-10-07T06:31:58.000Z</time>
      </trkpt>
      <trkpt lat="43.39915" lon="6.65992">
        <ele>110.01</ele>
        <time>2017-10-07T06:32:03.000Z</time>
      </trkpt>
      <trkpt lat="43.39918" lon="6.65976">
        <ele>110.85</ele>
        <time>2017-10-07T06:32:08.000Z</time>
      </trkpt>
      <trkpt lat="43.39921" lon="6.6596">
        <ele>111.5</ele>
        <time>2017-10-07T06:32:13.000Z</time>
      </trkpt>
      <trkpt lat="43.39921" lon="6.65945">
        <ele>112.45</ele>
        <time>2017-10-07T06:32:18.000Z</time>
      </trkpt>
      <trkpt lat="43.39922" lon="6.6593">
        <ele>113.47</ele>
        <time>2017-10-07T06:32:23.000Z</time>
      </trkpt>
      <trkpt lat="43.39921" lon="6.65914">
        <ele>114.78</ele>
        <time>2017-10-07T06:32:28.000Z</time>
      </trkpt>
      <trkpt lat="43.39918" lon="6.65898">
        <ele>116.32</ele>
        <time>2017-10-07T06:32:33.000Z</time>
      </trkpt>
      <trkpt lat="43.39916" lon="6.65883">
        <ele>117.7</ele>
        <time>2017-10-07T06:32:38.000Z</time>
      </trkpt>
      <trkpt lat="43.39914" lon="6.65869">
        <ele>118.94</ele>
        <time>2017-10-07T06:32:43.000Z</time>
      </trkpt>
      <trkpt lat="43.39912" lon="6.65855">
        <ele>120.15</ele>
        <time>2017-10-07T06:32:48.000Z</time>
      </trkpt>
      <trkpt lat="43.39912" lon="6.65841">
        <ele>121.28</ele>
        <time>2017-10-07T06:32:53.000Z</time>
      </trkpt>
      <trkpt lat="43.3992" lon="6.65831">
        <ele>122.29</ele>
        <time>2017-10-07T06:33:00.000Z</time>
      </trkpt>
      <trkpt lat="43.39929" lon="6.65823">
        <ele>123.02</ele>
        <time>2017-10-07T06:33:06.000Z</time>
      </trkpt>
      <trkpt lat="43.39938" lon="6.65817">
        <ele>123.65</ele>
        <time>2017-10-07T06:33:11.000Z</time>
      </trkpt>
      <trkpt lat="43.39946" lon="6.65809">
        <ele>124.54</ele>
        <time>2017-10-07T06:33:16.000Z</time>
      </trkpt>
      <trkpt lat="43.39955" lon="6.65802">
        <ele>125.16</ele>
        <time>2017-10-07T06:33:21.000Z</time>
      </trkpt>
      <trkpt lat="43.39964" lon="6.65797">
        <ele>125.67</ele>
        <time>2017-10-07T06:33:26.000Z</time>
      </trkpt>
      <trkpt lat="43.39975" lon="6.65797">
        <ele>125.12</ele>
        <time>2017-10-07T06:33:31.000Z</time>
      </trkpt>
      <trkpt lat="43.39985" lon="6.65793">
        <ele>125.05</ele>
        <time>2017-10-07T06:33:36.000Z</time>
      </trkpt>
      <trkpt lat="43.39994" lon="6.65786">
        <ele>125.74</ele>
        <time>2017-10-07T06:33:41.000Z</time>
      </trkpt>
      <trkpt lat="43.40002" lon="6.65776">
        <ele>127.14</ele>
        <time>2017-10-07T06:33:46.000Z</time>
      </trkpt>
      <trkpt lat="43.40009" lon="6.65763">
        <ele>128.57</ele>
        <time>2017-10-07T06:33:51.000Z</time>
      </trkpt>
      <trkpt lat="43.40014" lon="6.6575">
        <ele>129.84</ele>
        <time>2017-10-07T06:33:56.000Z</time>
      </trkpt>
      <trkpt lat="43.4002" lon="6.65735">
        <ele>130.47</ele>
        <time>2017-10-07T06:34:01.000Z</time>
      </trkpt>
      <trkpt lat="43.40025" lon="6.65721">
        <ele>130.72</ele>
        <time>2017-10-07T06:34:06.000Z</time>
      </trkpt>
      <trkpt lat="43.4003" lon="6.65708">
        <ele>130.88</ele>
        <time>2017-10-07T06:34:11.000Z</time>
      </trkpt>
      <trkpt lat="43.40033" lon="6.65696">
        <ele>131.11</ele>
        <time>2017-10-07T06:34:16.000Z</time>
      </trkpt>
      <trkpt lat="43.40035" lon="6.6568">
        <ele>132.11</ele>
        <time>2017-10-07T06:34:21.000Z</time>
      </trkpt>
      <trkpt lat="43.40038" lon="6.65664">
        <ele>132.84</ele>
        <time>2017-10-07T06:34:26.000Z</time>
      </trkpt>
      <trkpt lat="43.40038" lon="6.65649">
        <ele>133.85</ele>
        <time>2017-10-07T06:34:31.000Z</time>
      </trkpt>
      <trkpt lat="43.40039" lon="6.65637">
        <ele>134.65</ele>
        <time>2017-10-07T06:34:36.000Z</time>
      </trkpt>
      <trkpt lat="43.40036" lon="6.65623">
        <ele>136.17</ele>
        <time>2017-10-07T06:34:41.000Z</time>
      </trkpt>
      <trkpt lat="43.40035" lon="6.6561">
        <ele>137.1</ele>
        <time>2017-10-07T06:34:46.000Z</time>
      </trkpt>
      <trkpt lat="43.40033" lon="6.65597">
        <ele>138.36</ele>
        <time>2017-10-07T06:34:51.000Z</time>
      </trkpt>
      <trkpt lat="43.4003" lon="6.65584">
        <ele>139.8</ele>
        <time>2017-10-07T06:34:56.000Z</time>
      </trkpt>
      <trkpt lat="43.40028" lon="6.6557">
        <ele>141.23</ele>
        <time>2017-10-07T06:35:01.000Z</time>
      </trkpt>
      <trkpt lat="43.40025" lon="6.65557">
        <ele>142.92</ele>
        <time>2017-10-07T06:35:06.000Z</time>
      </trkpt>
      <trkpt lat="43.40019" lon="6.65544">
        <ele>145</ele>
        <time>2017-10-07T06:35:11.000Z</time>
      </trkpt>
      <trkpt lat="43.40014" lon="6.65531">
        <ele>147.13</ele>
        <time>2017-10-07T06:35:16.000Z</time>
      </trkpt>
      <trkpt lat="43.40009" lon="6.65518">
        <ele>149.43</ele>
        <time>2017-10-07T06:35:21.000Z</time>
      </trkpt>
      <trkpt lat="43.4" lon="6.65508">
        <ele>151.75</ele>
        <time>2017-10-07T06:35:26.000Z</time>
      </trkpt>
      <trkpt lat="43.3999" lon="6.655">
        <ele>153.61</ele>
        <time>2017-10-07T06:35:31.000Z</time>
      </trkpt>
      <trkpt lat="43.3998" lon="6.65491">
        <ele>155.08</ele>
        <time>2017-10-07T06:35:36.000Z</time>
      </trkpt>
      <trkpt lat="43.39969" lon="6.65484">
        <ele>156.08</ele>
        <time>2017-10-07T06:35:41.000Z</time>
      </trkpt>
      <trkpt lat="43.39958" lon="6.65479">
        <ele>156.37</ele>
        <time>2017-10-07T06:35:46.000Z</time>
      </trkpt>
      <trkpt lat="43.39949" lon="6.65473">
        <ele>156.71</ele>
        <time>2017-10-07T06:35:51.000Z</time>
      </trkpt>
      <trkpt lat="43.39939" lon="6.65468">
        <ele>156.69</ele>
        <time>2017-10-07T06:35:57.000Z</time>
      </trkpt>
      <trkpt lat="43.39926" lon="6.65462">
        <ele>156.57</ele>
        <time>2017-10-07T06:36:02.000Z</time>
      </trkpt>
      <trkpt lat="43.39916" lon="6.65454">
        <ele>157.18</ele>
        <time>2017-10-07T06:36:07.000Z</time>
      </trkpt>
      <trkpt lat="43.39906" lon="6.65444">
        <ele>157.86</ele>
        <time>2017-10-07T06:36:12.000Z</time>
      </trkpt>
      <trkpt lat="43.39898" lon="6.65432">
        <ele>158.67</ele>
        <time>2017-10-07T06:36:17.000Z</time>
      </trkpt>
      <trkpt lat="43.39894" lon="6.65419">
        <ele>160.1</ele>
        <time>2017-10-07T06:36:22.000Z</time>
      </trkpt>
      <trkpt lat="43.39893" lon="6.65405">
        <ele>162.44</ele>
        <time>2017-10-07T06:36:27.000Z</time>
      </trkpt>
      <trkpt lat="43.39891" lon="6.65388">
        <ele>164.9</ele>
        <time>2017-10-07T06:36:32.000Z</time>
      </trkpt>
      <trkpt lat="43.39887" lon="6.65373">
        <ele>166.88</ele>
        <time>2017-10-07T06:36:37.000Z</time>
      </trkpt>
      <trkpt lat="43.39884" lon="6.65358">
        <ele>168.98</ele>
        <time>2017-10-07T06:36:42.000Z</time>
      </trkpt>
      <trkpt lat="43.39875" lon="6.65345">
        <ele>169.68</ele>
        <time>2017-10-07T06:36:47.000Z</time>
      </trkpt>
      <trkpt lat="43.39864" lon="6.6534">
        <ele>168.57</ele>
        <time>2017-10-07T06:36:52.000Z</time>
      </trkpt>
      <trkpt lat="43.39853" lon="6.65334">
        <ele>168.25</ele>
        <time>2017-10-07T06:36:57.000Z</time>
      </trkpt>
      <trkpt lat="43.39842" lon="6.65327">
        <ele>168.81</ele>
        <time>2017-10-07T06:37:02.000Z</time>
      </trkpt>
      <trkpt lat="43.39833" lon="6.65315">
        <ele>171.03</ele>
        <time>2017-10-07T06:37:07.000Z</time>
      </trkpt>
      <trkpt lat="43.39829" lon="6.65299">
        <ele>174.97</ele>
        <time>2017-10-07T06:37:12.000Z</time>
      </trkpt>
      <trkpt lat="43.39821" lon="6.65286">
        <ele>178.33</ele>
        <time>2017-10-07T06:37:17.000Z</time>
      </trkpt>
      <trkpt lat="43.3981" lon="6.65279">
        <ele>180.41</ele>
        <time>2017-10-07T06:37:22.000Z</time>
      </trkpt>
      <trkpt lat="43.39797" lon="6.65283">
        <ele>180.56</ele>
        <time>2017-10-07T06:37:27.000Z</time>
      </trkpt>
      <trkpt lat="43.39788" lon="6.653">
        <ele>177.88</ele>
        <time>2017-10-07T06:37:32.000Z</time>
      </trkpt>
      <trkpt lat="43.39779" lon="6.65313">
        <ele>176.32</ele>
        <time>2017-10-07T06:37:37.000Z</time>
      </trkpt>
      <trkpt lat="43.39766" lon="6.65319">
        <ele>177.16</ele>
        <time>2017-10-07T06:37:42.000Z</time>
      </trkpt>
      <trkpt lat="43.39753" lon="6.65324">
        <ele>178.24</ele>
        <time>2017-10-07T06:37:47.000Z</time>
      </trkpt>
      <trkpt lat="43.3974" lon="6.65333">
        <ele>178.67</ele>
        <time>2017-10-07T06:37:52.000Z</time>
      </trkpt>
      <trkpt lat="43.39729" lon="6.65343">
        <ele>179.29</ele>
        <time>2017-10-07T06:37:57.000Z</time>
      </trkpt>
      <trkpt lat="43.3972" lon="6.65359">
        <ele>178.36</ele>
        <time>2017-10-07T06:38:02.000Z</time>
      </trkpt>
      <trkpt lat="43.39713" lon="6.65374">
        <ele>177.43</ele>
        <time>2017-10-07T06:38:07.000Z</time>
      </trkpt>
      <trkpt lat="43.39701" lon="6.65385">
        <ele>177.5</ele>
        <time>2017-10-07T06:38:12.000Z</time>
      </trkpt>
      <trkpt lat="43.3969" lon="6.65394">
        <ele>177.43</ele>
        <time>2017-10-07T06:38:17.000Z</time>
      </trkpt>
      <trkpt lat="43.39679" lon="6.65399">
        <ele>177.4</ele>
        <time>2017-10-07T06:38:22.000Z</time>
      </trkpt>
      <trkpt lat="43.39664" lon="6.65398">
        <ele>177.8</ele>
        <time>2017-10-07T06:38:27.000Z</time>
      </trkpt>
      <trkpt lat="43.39651" lon="6.6539">
        <ele>178.46</ele>
        <time>2017-10-07T06:38:32.000Z</time>
      </trkpt>
      <trkpt lat="43.39641" lon="6.65379">
        <ele>179.35</ele>
        <time>2017-10-07T06:38:37.000Z</time>
      </trkpt>
      <trkpt lat="43.39629" lon="6.65367">
        <ele>180.18</ele>
        <time>2017-10-07T06:38:42.000Z</time>
      </trkpt>
      <trkpt lat="43.39617" lon="6.65352">
        <ele>181.25</ele>
        <time>2017-10-07T06:38:47.000Z</time>
      </trkpt>
      <trkpt lat="43.39602" lon="6.65335">
        <ele>182.68</ele>
        <time>2017-10-07T06:38:52.000Z</time>
      </trkpt>
      <trkpt lat="43.39584" lon="6.65314">
        <ele>185.02</ele>
        <time>2017-10-07T06:38:57.000Z</time>
      </trkpt>
      <trkpt lat="43.39566" lon="6.65298">
        <ele>186.76</ele>
        <time>2017-10-07T06:39:02.000Z</time>
      </trkpt>
      <trkpt lat="43.39547" lon="6.65289">
        <ele>186.24</ele>
        <time>2017-10-07T06:39:07.000Z</time>
      </trkpt>
      <trkpt lat="43.3953" lon="6.6528">
        <ele>186.01</ele>
        <time>2017-10-07T06:39:12.000Z</time>
      </trkpt>
      <trkpt lat="43.39516" lon="6.6527">
        <ele>186.3</ele>
        <time>2017-10-07T06:39:17.000Z</time>
      </trkpt>
      <trkpt lat="43.39505" lon="6.65262">
        <ele>186.81</ele>
        <time>2017-10-07T06:39:22.000Z</time>
      </trkpt>
      <trkpt lat="43.39495" lon="6.65253">
        <ele>187.86</ele>
        <time>2017-10-07T06:39:27.000Z</time>
      </trkpt>
      <trkpt lat="43.39484" lon="6.65243">
        <ele>188.79</ele>
        <time>2017-10-07T06:39:32.000Z</time>
      </trkpt>
      <trkpt lat="43.39474" lon="6.65235">
        <ele>189.65</ele>
        <time>2017-10-07T06:39:37.000Z</time>
      </trkpt>
      <trkpt lat="43.39464" lon="6.65229">
        <ele>190.15</ele>
        <time>2017-10-07T06:39:42.000Z</time>
      </trkpt>
      <trkpt lat="43.39458" lon="6.65219">
        <ele>191.43</ele>
        <time>2017-10-07T06:39:47.000Z</time>
      </trkpt>
      <trkpt lat="43.39466" lon="6.65212">
        <ele>193.74</ele>
        <time>2017-10-07T06:39:56.000Z</time>
      </trkpt>
      <trkpt lat="43.39475" lon="6.65216">
        <ele>194.12</ele>
        <time>2017-10-07T06:40:04.000Z</time>
      </trkpt>
      <trkpt lat="43.39486" lon="6.65217">
        <ele>195.1</ele>
        <time>2017-10-07T06:40:11.000Z</time>
      </trkpt>
      <trkpt lat="43.39495" lon="6.65218">
        <ele>196.06</ele>
        <time>2017-10-07T06:40:16.000Z</time>
      </trkpt>
      <trkpt lat="43.39505" lon="6.65219">
        <ele>197.14</ele>
        <time>2017-10-07T06:40:23.000Z</time>
      </trkpt>
      <trkpt lat="43.39515" lon="6.65218">
        <ele>198.85</ele>
        <time>2017-10-07T06:40:29.000Z</time>
      </trkpt>
      <trkpt lat="43.39524" lon="6.65215">
        <ele>200.95</ele>
        <time>2017-10-07T06:40:34.000Z</time>
      </trkpt>
      <trkpt lat="43.39533" lon="6.65214">
        <ele>202.73</ele>
        <time>2017-10-07T06:40:39.000Z</time>
      </trkpt>
      <trkpt lat="43.39544" lon="6.65214">
        <ele>204.31</ele>
        <time>2017-10-07T06:40:45.000Z</time>
      </trkpt>
      <trkpt lat="43.39554" lon="6.65216">
        <ele>205.55</ele>
        <time>2017-10-07T06:40:51.000Z</time>
      </trkpt>
      <trkpt lat="43.39564" lon="6.65217">
        <ele>206.89</ele>
        <time>2017-10-07T06:40:58.000Z</time>
      </trkpt>
      <trkpt lat="43.39573" lon="6.65217">
        <ele>208.09</ele>
        <time>2017-10-07T06:41:04.000Z</time>
      </trkpt>
      <trkpt lat="43.39583" lon="6.65218">
        <ele>209.09</ele>
        <time>2017-10-07T06:41:12.000Z</time>
      </trkpt>
      <trkpt lat="43.39593" lon="6.65218">
        <ele>210.14</ele>
        <time>2017-10-07T06:41:18.000Z</time>
      </trkpt>
      <trkpt lat="43.39603" lon="6.65216">
        <ele>211.83</ele>
        <time>2017-10-07T06:41:24.000Z</time>
      </trkpt>
      <trkpt lat="43.39612" lon="6.65215">
        <ele>213.06</ele>
        <time>2017-10-07T06:41:30.000Z</time>
      </trkpt>
      <trkpt lat="43.39622" lon="6.65212">
        <ele>214.78</ele>
        <time>2017-10-07T06:41:37.000Z</time>
      </trkpt>
      <trkpt lat="43.39632" lon="6.65207">
        <ele>216.66</ele>
        <time>2017-10-07T06:41:44.000Z</time>
      </trkpt>
      <trkpt lat="43.39641" lon="6.65201">
        <ele>218.61</ele>
        <time>2017-10-07T06:41:51.000Z</time>
      </trkpt>
      <trkpt lat="43.39649" lon="6.65194">
        <ele>220.36</ele>
        <time>2017-10-07T06:41:57.000Z</time>
      </trkpt>
      <trkpt lat="43.39656" lon="6.65185">
        <ele>222.14</ele>
        <time>2017-10-07T06:42:04.000Z</time>
      </trkpt>
      <trkpt lat="43.3966" lon="6.65174">
        <ele>224.09</ele>
        <time>2017-10-07T06:42:11.000Z</time>
      </trkpt>
      <trkpt lat="43.39667" lon="6.65165">
        <ele>225.33</ele>
        <time>2017-10-07T06:42:17.000Z</time>
      </trkpt>
      <trkpt lat="43.39672" lon="6.65152">
        <ele>227.05</ele>
        <time>2017-10-07T06:42:23.000Z</time>
      </trkpt>
      <trkpt lat="43.39677" lon="6.65139">
        <ele>228.43</ele>
        <time>2017-10-07T06:42:28.000Z</time>
      </trkpt>
      <trkpt lat="43.39682" lon="6.65127">
        <ele>229.66</ele>
        <time>2017-10-07T06:42:34.000Z</time>
      </trkpt>
      <trkpt lat="43.39687" lon="6.65115">
        <ele>230.81</ele>
        <time>2017-10-07T06:42:40.000Z</time>
      </trkpt>
      <trkpt lat="43.39691" lon="6.65103">
        <ele>232</ele>
        <time>2017-10-07T06:42:45.000Z</time>
      </trkpt>
      <trkpt lat="43.39696" lon="6.65091">
        <ele>233.21</ele>
        <time>2017-10-07T06:42:50.000Z</time>
      </trkpt>
      <trkpt lat="43.39699" lon="6.65079">
        <ele>234.46</ele>
        <time>2017-10-07T06:42:55.000Z</time>
      </trkpt>
      <trkpt lat="43.39705" lon="6.65067">
        <ele>235.56</ele>
        <time>2017-10-07T06:43:00.000Z</time>
      </trkpt>
      <trkpt lat="43.3971" lon="6.65056">
        <ele>236.94</ele>
        <time>2017-10-07T06:43:05.000Z</time>
      </trkpt>
      <trkpt lat="43.39719" lon="6.65046">
        <ele>237.99</ele>
        <time>2017-10-07T06:43:10.000Z</time>
      </trkpt>
      <trkpt lat="43.39728" lon="6.6504">
        <ele>238.54</ele>
        <time>2017-10-07T06:43:15.000Z</time>
      </trkpt>
      <trkpt lat="43.39737" lon="6.65037">
        <ele>238.69</ele>
        <time>2017-10-07T06:43:20.000Z</time>
      </trkpt>
      <trkpt lat="43.39746" lon="6.65034">
        <ele>239.23</ele>
        <time>2017-10-07T06:43:25.000Z</time>
      </trkpt>
      <trkpt lat="43.39755" lon="6.65028">
        <ele>240.51</ele>
        <time>2017-10-07T06:43:30.000Z</time>
      </trkpt>
      <trkpt lat="43.39762" lon="6.6502">
        <ele>242.51</ele>
        <time>2017-10-07T06:43:35.000Z</time>
      </trkpt>
      <trkpt lat="43.3977" lon="6.65013">
        <ele>244.37</ele>
        <time>2017-10-07T06:43:40.000Z</time>
      </trkpt>
      <trkpt lat="43.3978" lon="6.65009">
        <ele>245.89</ele>
        <time>2017-10-07T06:43:46.000Z</time>
      </trkpt>
      <trkpt lat="43.39789" lon="6.65007">
        <ele>247.12</ele>
        <time>2017-10-07T06:43:52.000Z</time>
      </trkpt>
      <trkpt lat="43.39799" lon="6.65006">
        <ele>248.22</ele>
        <time>2017-10-07T06:43:58.000Z</time>
      </trkpt>
      <trkpt lat="43.3981" lon="6.65004">
        <ele>249.43</ele>
        <time>2017-10-07T06:44:05.000Z</time>
      </trkpt>
      <trkpt lat="43.39819" lon="6.65002">
        <ele>250.66</ele>
        <time>2017-10-07T06:44:11.000Z</time>
      </trkpt>
      <trkpt lat="43.39828" lon="6.65">
        <ele>251.8</ele>
        <time>2017-10-07T06:44:17.000Z</time>
      </trkpt>
      <trkpt lat="43.39838" lon="6.64995">
        <ele>253.57</ele>
        <time>2017-10-07T06:44:23.000Z</time>
      </trkpt>
      <trkpt lat="43.39847" lon="6.64987">
        <ele>255.74</ele>
        <time>2017-10-07T06:44:29.000Z</time>
      </trkpt>
      <trkpt lat="43.39856" lon="6.6498">
        <ele>257.95</ele>
        <time>2017-10-07T06:44:35.000Z</time>
      </trkpt>
      <trkpt lat="43.39865" lon="6.64974">
        <ele>259.64</ele>
        <time>2017-10-07T06:44:41.000Z</time>
      </trkpt>
      <trkpt lat="43.39874" lon="6.64969">
        <ele>261.04</ele>
        <time>2017-10-07T06:44:47.000Z</time>
      </trkpt>
      <trkpt lat="43.39884" lon="6.64967">
        <ele>261.81</ele>
        <time>2017-10-07T06:44:54.000Z</time>
      </trkpt>
      <trkpt lat="43.39894" lon="6.64965">
        <ele>262.8</ele>
        <time>2017-10-07T06:45:01.000Z</time>
      </trkpt>
      <trkpt lat="43.39904" lon="6.64961">
        <ele>264.23</ele>
        <time>2017-10-07T06:45:07.000Z</time>
      </trkpt>
      <trkpt lat="43.39914" lon="6.64958">
        <ele>266.01</ele>
        <time>2017-10-07T06:45:13.000Z</time>
      </trkpt>
      <trkpt lat="43.39922" lon="6.64952">
        <ele>268.69</ele>
        <time>2017-10-07T06:45:19.000Z</time>
      </trkpt>
      <trkpt lat="43.3993" lon="6.64945">
        <ele>272.12</ele>
        <time>2017-10-07T06:45:25.000Z</time>
      </trkpt>
      <trkpt lat="43.39937" lon="6.64937">
        <ele>275.5</ele>
        <time>2017-10-07T06:45:31.000Z</time>
      </trkpt>
      <trkpt lat="43.39946" lon="6.64933">
        <ele>278.23</ele>
        <time>2017-10-07T06:45:39.000Z</time>
      </trkpt>
      <trkpt lat="43.39956" lon="6.64934">
        <ele>280.14</ele>
        <time>2017-10-07T06:45:48.000Z</time>
      </trkpt>
      <trkpt lat="43.39966" lon="6.64934">
        <ele>282.21</ele>
        <time>2017-10-07T06:45:55.000Z</time>
      </trkpt>
      <trkpt lat="43.39976" lon="6.64939">
        <ele>282.53</ele>
        <time>2017-10-07T06:46:03.000Z</time>
      </trkpt>
      <trkpt lat="43.39985" lon="6.64941">
        <ele>283.33</ele>
        <time>2017-10-07T06:46:12.000Z</time>
      </trkpt>
      <trkpt lat="43.39995" lon="6.64944">
        <ele>284.06</ele>
        <time>2017-10-07T06:46:19.000Z</time>
      </trkpt>
      <trkpt lat="43.40004" lon="6.64942">
        <ele>285.64</ele>
        <time>2017-10-07T06:46:25.000Z</time>
      </trkpt>
      <trkpt lat="43.40013" lon="6.6494">
        <ele>286.99</ele>
        <time>2017-10-07T06:46:32.000Z</time>
      </trkpt>
      <trkpt lat="43.40022" lon="6.64936">
        <ele>288.88</ele>
        <time>2017-10-07T06:46:40.000Z</time>
      </trkpt>
      <trkpt lat="43.40031" lon="6.64931">
        <ele>291.11</ele>
        <time>2017-10-07T06:46:48.000Z</time>
      </trkpt>
      <trkpt lat="43.40039" lon="6.64924">
        <ele>293.54</ele>
        <time>2017-10-07T06:46:55.000Z</time>
      </trkpt>
      <trkpt lat="43.40046" lon="6.64915">
        <ele>296.23</ele>
        <time>2017-10-07T06:47:02.000Z</time>
      </trkpt>
      <trkpt lat="43.40053" lon="6.64907">
        <ele>298.56</ele>
        <time>2017-10-07T06:47:09.000Z</time>
      </trkpt>
      <trkpt lat="43.4006" lon="6.64898">
        <ele>300.83</ele>
        <time>2017-10-07T06:47:16.000Z</time>
      </trkpt>
      <trkpt lat="43.40068" lon="6.64889">
        <ele>303.09</ele>
        <time>2017-10-07T06:47:22.000Z</time>
      </trkpt>
      <trkpt lat="43.40076" lon="6.64881">
        <ele>304.81</ele>
        <time>2017-10-07T06:47:29.000Z</time>
      </trkpt>
      <trkpt lat="43.40085" lon="6.64876">
        <ele>305.12</ele>
        <time>2017-10-07T06:47:35.000Z</time>
      </trkpt>
      <trkpt lat="43.40094" lon="6.64871">
        <ele>305.08</ele>
        <time>2017-10-07T06:47:40.000Z</time>
      </trkpt>
      <trkpt lat="43.40105" lon="6.64864">
        <ele>304.43</ele>
        <time>2017-10-07T06:47:45.000Z</time>
      </trkpt>
      <trkpt lat="43.40115" lon="6.64853">
        <ele>304.09</ele>
        <time>2017-10-07T06:47:50.000Z</time>
      </trkpt>
      <trkpt lat="43.40119" lon="6.64842">
        <ele>305.08</ele>
        <time>2017-10-07T06:49:08.000Z</time>
      </trkpt>
      <trkpt lat="43.40123" lon="6.64829">
        <ele>306.01</ele>
        <time>2017-10-07T06:53:58.000Z</time>
      </trkpt>
      <trkpt lat="43.40129" lon="6.64816">
        <ele>306.94</ele>
        <time>2017-10-07T06:54:03.000Z</time>
      </trkpt>
      <trkpt lat="43.40139" lon="6.64798">
        <ele>307.79</ele>
        <time>2017-10-07T06:54:08.000Z</time>
      </trkpt>
      <trkpt lat="43.40157" lon="6.64778">
        <ele>307.43</ele>
        <time>2017-10-07T06:54:13.000Z</time>
      </trkpt>
      <trkpt lat="43.40186" lon="6.64766">
        <ele>304.9</ele>
        <time>2017-10-07T06:54:18.000Z</time>
      </trkpt>
      <trkpt lat="43.40224" lon="6.64768">
        <ele>297.64</ele>
        <time>2017-10-07T06:54:23.000Z</time>
      </trkpt>
      <trkpt lat="43.40259" lon="6.6476">
        <ele>295.91</ele>
        <time>2017-10-07T06:54:28.000Z</time>
      </trkpt>
      <trkpt lat="43.40287" lon="6.6475">
        <ele>298.23</ele>
        <time>2017-10-07T06:54:33.000Z</time>
      </trkpt>
      <trkpt lat="43.40303" lon="6.64742">
        <ele>300.42</ele>
        <time>2017-10-07T06:54:38.000Z</time>
      </trkpt>
      <trkpt lat="43.4032" lon="6.64743">
        <ele>300.45</ele>
        <time>2017-10-07T06:54:43.000Z</time>
      </trkpt>
      <trkpt lat="43.4035" lon="6.64756">
        <ele>298.07</ele>
        <time>2017-10-07T06:54:48.000Z</time>
      </trkpt>
      <trkpt lat="43.40384" lon="6.6477">
        <ele>296.04</ele>
        <time>2017-10-07T06:54:53.000Z</time>
      </trkpt>
      <trkpt lat="43.40414" lon="6.64776">
        <ele>295.53</ele>
        <time>2017-10-07T06:54:58.000Z</time>
      </trkpt>
      <trkpt lat="43.40439" lon="6.6478">
        <ele>294.3</ele>
        <time>2017-10-07T06:55:03.000Z</time>
      </trkpt>
      <trkpt lat="43.40467" lon="6.64789">
        <ele>291.45</ele>
        <time>2017-10-07T06:55:08.000Z</time>
      </trkpt>
      <trkpt lat="43.40499" lon="6.64793">
        <ele>289.78</ele>
        <time>2017-10-07T06:55:13.000Z</time>
      </trkpt>
      <trkpt lat="43.4053" lon="6.64798">
        <ele>288.64</ele>
        <time>2017-10-07T06:55:18.000Z</time>
      </trkpt>
      <trkpt lat="43.40559" lon="6.64802">
        <ele>288.11</ele>
        <time>2017-10-07T06:55:23.000Z</time>
      </trkpt>
      <trkpt lat="43.40569" lon="6.648">
        <ele>288.79</ele>
        <time>2017-10-07T06:55:28.000Z</time>
      </trkpt>
      <trkpt lat="43.40579" lon="6.64803">
        <ele>288.58</ele>
        <time>2017-10-07T06:55:42.000Z</time>
      </trkpt>
      <trkpt lat="43.4059" lon="6.64803">
        <ele>288.86</ele>
        <time>2017-10-07T06:55:47.000Z</time>
      </trkpt>
      <trkpt lat="43.40601" lon="6.64808">
        <ele>288.52</ele>
        <time>2017-10-07T06:55:52.000Z</time>
      </trkpt>
      <trkpt lat="43.40612" lon="6.64807">
        <ele>288.92</ele>
        <time>2017-10-07T06:55:58.000Z</time>
      </trkpt>
      <trkpt lat="43.40624" lon="6.64811">
        <ele>288.75</ele>
        <time>2017-10-07T06:56:03.000Z</time>
      </trkpt>
      <trkpt lat="43.40637" lon="6.64815">
        <ele>288.54</ele>
        <time>2017-10-07T06:56:08.000Z</time>
      </trkpt>
      <trkpt lat="43.40651" lon="6.64818">
        <ele>288.8</ele>
        <time>2017-10-07T06:56:13.000Z</time>
      </trkpt>
      <trkpt lat="43.40664" lon="6.64821">
        <ele>289.15</ele>
        <time>2017-10-07T06:56:18.000Z</time>
      </trkpt>
      <trkpt lat="43.40677" lon="6.64825">
        <ele>289.86</ele>
        <time>2017-10-07T06:56:23.000Z</time>
      </trkpt>
      <trkpt lat="43.40688" lon="6.64831">
        <ele>290.47</ele>
        <time>2017-10-07T06:56:28.000Z</time>
      </trkpt>
      <trkpt lat="43.407" lon="6.64833">
        <ele>292.13</ele>
        <time>2017-10-07T06:56:33.000Z</time>
      </trkpt>
      <trkpt lat="43.40714" lon="6.64839">
        <ele>293.77</ele>
        <time>2017-10-07T06:56:38.000Z</time>
      </trkpt>
      <trkpt lat="43.40731" lon="6.64853">
        <ele>294.44</ele>
        <time>2017-10-07T06:56:43.000Z</time>
      </trkpt>
      <trkpt lat="43.40741" lon="6.64868">
        <ele>293.71</ele>
        <time>2017-10-07T06:56:48.000Z</time>
      </trkpt>
      <trkpt lat="43.40749" lon="6.64885">
        <ele>292.67</ele>
        <time>2017-10-07T06:56:53.000Z</time>
      </trkpt>
      <trkpt lat="43.40758" lon="6.649">
        <ele>292.66</ele>
        <time>2017-10-07T06:56:58.000Z</time>
      </trkpt>
      <trkpt lat="43.40766" lon="6.64912">
        <ele>293.69</ele>
        <time>2017-10-07T06:57:03.000Z</time>
      </trkpt>
      <trkpt lat="43.40771" lon="6.64923">
        <ele>294.57</ele>
        <time>2017-10-07T06:57:09.000Z</time>
      </trkpt>
      <trkpt lat="43.40776" lon="6.64936">
        <ele>295.61</ele>
        <time>2017-10-07T06:57:15.000Z</time>
      </trkpt>
      <trkpt lat="43.40778" lon="6.6495">
        <ele>296.23</ele>
        <time>2017-10-07T06:57:21.000Z</time>
      </trkpt>
      <trkpt lat="43.40781" lon="6.64964">
        <ele>297.02</ele>
        <time>2017-10-07T06:57:27.000Z</time>
      </trkpt>
      <trkpt lat="43.40782" lon="6.64978">
        <ele>297.02</ele>
        <time>2017-10-07T06:57:32.000Z</time>
      </trkpt>
      <trkpt lat="43.40783" lon="6.64993">
        <ele>297.27</ele>
        <time>2017-10-07T06:57:37.000Z</time>
      </trkpt>
      <trkpt lat="43.40783" lon="6.6501">
        <ele>297.2</ele>
        <time>2017-10-07T06:57:42.000Z</time>
      </trkpt>
      <trkpt lat="43.40785" lon="6.65028">
        <ele>297.53</ele>
        <time>2017-10-07T06:57:47.000Z</time>
      </trkpt>
      <trkpt lat="43.40788" lon="6.65046">
        <ele>298.1</ele>
        <time>2017-10-07T06:57:52.000Z</time>
      </trkpt>
      <trkpt lat="43.4079" lon="6.6506">
        <ele>298.52</ele>
        <time>2017-10-07T06:57:57.000Z</time>
      </trkpt>
      <trkpt lat="43.40792" lon="6.65078">
        <ele>298.64</ele>
        <time>2017-10-07T06:58:02.000Z</time>
      </trkpt>
      <trkpt lat="43.40794" lon="6.65099">
        <ele>297.8</ele>
        <time>2017-10-07T06:58:07.000Z</time>
      </trkpt>
      <trkpt lat="43.40793" lon="6.65145">
        <ele>293.19</ele>
        <time>2017-10-07T06:58:12.000Z</time>
      </trkpt>
      <trkpt lat="43.40801" lon="6.6518">
        <ele>292.64</ele>
        <time>2017-10-07T06:58:17.000Z</time>
      </trkpt>
      <trkpt lat="43.40817" lon="6.65191">
        <ele>296.06</ele>
        <time>2017-10-07T06:58:22.000Z</time>
      </trkpt>
      <trkpt lat="43.40829" lon="6.6519">
        <ele>299.32</ele>
        <time>2017-10-07T06:58:27.000Z</time>
      </trkpt>
      <trkpt lat="43.40843" lon="6.65189">
        <ele>302.92</ele>
        <time>2017-10-07T06:58:32.000Z</time>
      </trkpt>
      <trkpt lat="43.40854" lon="6.65193">
        <ele>304.45</ele>
        <time>2017-10-07T06:58:37.000Z</time>
      </trkpt>
      <trkpt lat="43.40864" lon="6.65202">
        <ele>304.59</ele>
        <time>2017-10-07T06:58:42.000Z</time>
      </trkpt>
      <trkpt lat="43.40873" lon="6.65213">
        <ele>304.07</ele>
        <time>2017-10-07T06:58:47.000Z</time>
      </trkpt>
      <trkpt lat="43.40887" lon="6.65231">
        <ele>302.35</ele>
        <time>2017-10-07T06:58:52.000Z</time>
      </trkpt>
      <trkpt lat="43.40904" lon="6.65243">
        <ele>301.91</ele>
        <time>2017-10-07T06:58:57.000Z</time>
      </trkpt>
      <trkpt lat="43.40917" lon="6.65248">
        <ele>302.4</ele>
        <time>2017-10-07T06:59:02.000Z</time>
      </trkpt>
      <trkpt lat="43.40935" lon="6.65258">
        <ele>302.19</ele>
        <time>2017-10-07T06:59:07.000Z</time>
      </trkpt>
      <trkpt lat="43.40956" lon="6.65267">
        <ele>302.48</ele>
        <time>2017-10-07T06:59:12.000Z</time>
      </trkpt>
      <trkpt lat="43.40972" lon="6.65274">
        <ele>302.3</ele>
        <time>2017-10-07T06:59:17.000Z</time>
      </trkpt>
      <trkpt lat="43.40994" lon="6.65299">
        <ele>297.18</ele>
        <time>2017-10-07T06:59:22.000Z</time>
      </trkpt>
      <trkpt lat="43.41024" lon="6.65319">
        <ele>291.38</ele>
        <time>2017-10-07T06:59:27.000Z</time>
      </trkpt>
      <trkpt lat="43.41046" lon="6.65326">
        <ele>287.76</ele>
        <time>2017-10-07T06:59:32.000Z</time>
      </trkpt>
      <trkpt lat="43.41079" lon="6.65308">
        <ele>288.68</ele>
        <time>2017-10-07T06:59:37.000Z</time>
      </trkpt>
      <trkpt lat="43.41111" lon="6.65293">
        <ele>286.15</ele>
        <time>2017-10-07T06:59:42.000Z</time>
      </trkpt>
      <trkpt lat="43.41132" lon="6.65264">
        <ele>286.77</ele>
        <time>2017-10-07T06:59:47.000Z</time>
      </trkpt>
      <trkpt lat="43.41168" lon="6.65255">
        <ele>277.87</ele>
        <time>2017-10-07T06:59:52.000Z</time>
      </trkpt>
      <trkpt lat="43.41188" lon="6.65232">
        <ele>276.01</ele>
        <time>2017-10-07T06:59:57.000Z</time>
      </trkpt>
      <trkpt lat="43.41196" lon="6.65226">
        <ele>274.31</ele>
        <time>2017-10-07T07:00:03.000Z</time>
      </trkpt>
      <trkpt lat="43.41208" lon="6.65225">
        <ele>271.12</ele>
        <time>2017-10-07T07:00:08.000Z</time>
      </trkpt>
      <trkpt lat="43.41214" lon="6.65241">
        <ele>267.9</ele>
        <time>2017-10-07T07:00:13.000Z</time>
      </trkpt>
      <trkpt lat="43.41218" lon="6.65253">
        <ele>265.39</ele>
        <time>2017-10-07T07:00:18.000Z</time>
      </trkpt>
      <trkpt lat="43.41222" lon="6.65264">
        <ele>263.05</ele>
        <time>2017-10-07T07:00:23.000Z</time>
      </trkpt>
      <trkpt lat="43.41228" lon="6.65286">
        <ele>258.68</ele>
        <time>2017-10-07T07:00:28.000Z</time>
      </trkpt>
      <trkpt lat="43.41234" lon="6.65301">
        <ele>254.8</ele>
        <time>2017-10-07T07:00:33.000Z</time>
      </trkpt>
      <trkpt lat="43.41245" lon="6.65322">
        <ele>248.32</ele>
        <time>2017-10-07T07:00:38.000Z</time>
      </trkpt>
      <trkpt lat="43.41247" lon="6.65337">
        <ele>245.07</ele>
        <time>2017-10-07T07:00:43.000Z</time>
      </trkpt>
      <trkpt lat="43.41267" lon="6.65356">
        <ele>237.06</ele>
        <time>2017-10-07T07:00:48.000Z</time>
      </trkpt>
      <trkpt lat="43.41288" lon="6.65377">
        <ele>230.29</ele>
        <time>2017-10-07T07:00:53.000Z</time>
      </trkpt>
      <trkpt lat="43.41301" lon="6.65402">
        <ele>226.31</ele>
        <time>2017-10-07T07:00:58.000Z</time>
      </trkpt>
      <trkpt lat="43.41321" lon="6.65426">
        <ele>222.93</ele>
        <time>2017-10-07T07:01:03.000Z</time>
      </trkpt>
      <trkpt lat="43.41337" lon="6.65453">
        <ele>219.06</ele>
        <time>2017-10-07T07:01:08.000Z</time>
      </trkpt>
      <trkpt lat="43.41347" lon="6.65468">
        <ele>216.92</ele>
        <time>2017-10-07T07:01:13.000Z</time>
      </trkpt>
      <trkpt lat="43.41351" lon="6.65483">
        <ele>214.73</ele>
        <time>2017-10-07T07:01:56.000Z</time>
      </trkpt>
      <trkpt lat="43.41355" lon="6.65513">
        <ele>209.69</ele>
        <time>2017-10-07T07:02:01.000Z</time>
      </trkpt>
      <trkpt lat="43.41369" lon="6.65532">
        <ele>206.49</ele>
        <time>2017-10-07T07:02:06.000Z</time>
      </trkpt>
      <trkpt lat="43.4138" lon="6.65553">
        <ele>202.48</ele>
        <time>2017-10-07T07:02:11.000Z</time>
      </trkpt>
      <trkpt lat="43.41389" lon="6.65576">
        <ele>197.93</ele>
        <time>2017-10-07T07:02:16.000Z</time>
      </trkpt>
      <trkpt lat="43.41388" lon="6.65597">
        <ele>192.98</ele>
        <time>2017-10-07T07:02:21.000Z</time>
      </trkpt>
      <trkpt lat="43.41397" lon="6.65618">
        <ele>188.41</ele>
        <time>2017-10-07T07:02:26.000Z</time>
      </trkpt>
      <trkpt lat="43.41397" lon="6.65637">
        <ele>183.73</ele>
        <time>2017-10-07T07:02:31.000Z</time>
      </trkpt>
      <trkpt lat="43.41394" lon="6.65658">
        <ele>178.38</ele>
        <time>2017-10-07T07:02:36.000Z</time>
      </trkpt>
      <trkpt lat="43.41393" lon="6.65678">
        <ele>173.77</ele>
        <time>2017-10-07T07:02:41.000Z</time>
      </trkpt>
      <trkpt lat="43.41391" lon="6.65699">
        <ele>169.21</ele>
        <time>2017-10-07T07:02:46.000Z</time>
      </trkpt>
      <trkpt lat="43.41389" lon="6.65724">
        <ele>163.89</ele>
        <time>2017-10-07T07:02:51.000Z</time>
      </trkpt>
      <trkpt lat="43.41384" lon="6.65745">
        <ele>158.96</ele>
        <time>2017-10-07T07:02:56.000Z</time>
      </trkpt>
      <trkpt lat="43.41381" lon="6.65777">
        <ele>152.19</ele>
        <time>2017-10-07T07:03:01.000Z</time>
      </trkpt>
      <trkpt lat="43.41389" lon="6.65806">
        <ele>147.66</ele>
        <time>2017-10-07T07:03:06.000Z</time>
      </trkpt>
      <trkpt lat="43.41389" lon="6.65829">
        <ele>143.11</ele>
        <time>2017-10-07T07:03:11.000Z</time>
      </trkpt>
      <trkpt lat="43.41391" lon="6.65853">
        <ele>138.77</ele>
        <time>2017-10-07T07:03:16.000Z</time>
      </trkpt>
      <trkpt lat="43.41402" lon="6.65876">
        <ele>134.98</ele>
        <time>2017-10-07T07:03:21.000Z</time>
      </trkpt>
      <trkpt lat="43.41419" lon="6.65888">
        <ele>132.52</ele>
        <time>2017-10-07T07:03:26.000Z</time>
      </trkpt>
      <trkpt lat="43.41436" lon="6.65894">
        <ele>129.95</ele>
        <time>2017-10-07T07:03:31.000Z</time>
      </trkpt>
      <trkpt lat="43.4144" lon="6.65911">
        <ele>126.7</ele>
        <time>2017-10-07T07:03:36.000Z</time>
      </trkpt>
      <trkpt lat="43.41447" lon="6.65931">
        <ele>122.73</ele>
        <time>2017-10-07T07:03:41.000Z</time>
      </trkpt>
      <trkpt lat="43.41455" lon="6.65955">
        <ele>118.4</ele>
        <time>2017-10-07T07:03:46.000Z</time>
      </trkpt>
      <trkpt lat="43.41447" lon="6.65967">
        <ele>116.36</ele>
        <time>2017-10-07T07:03:51.000Z</time>
      </trkpt>
      <trkpt lat="43.4144" lon="6.65976">
        <ele>114.51</ele>
        <time>2017-10-07T07:03:57.000Z</time>
      </trkpt>
      <trkpt lat="43.41427" lon="6.65984">
        <ele>112.29</ele>
        <time>2017-10-07T07:04:02.000Z</time>
      </trkpt>
      <trkpt lat="43.41403" lon="6.66">
        <ele>108.56</ele>
        <time>2017-10-07T07:04:07.000Z</time>
      </trkpt>
      <trkpt lat="43.41374" lon="6.66024">
        <ele>103.91</ele>
        <time>2017-10-07T07:04:12.000Z</time>
      </trkpt>
      <trkpt lat="43.41357" lon="6.66043">
        <ele>100.28</ele>
        <time>2017-10-07T07:04:17.000Z</time>
      </trkpt>
      <trkpt lat="43.41345" lon="6.6606">
        <ele>97.05</ele>
        <time>2017-10-07T07:04:22.000Z</time>
      </trkpt>
      <trkpt lat="43.4135" lon="6.66094">
        <ele>92.76</ele>
        <time>2017-10-07T07:04:27.000Z</time>
      </trkpt>
      <trkpt lat="43.41336" lon="6.66118">
        <ele>89.59</ele>
        <time>2017-10-07T07:04:32.000Z</time>
      </trkpt>
      <trkpt lat="43.41311" lon="6.66132">
        <ele>86.49</ele>
        <time>2017-10-07T07:04:37.000Z</time>
      </trkpt>
      <trkpt lat="43.41289" lon="6.66153">
        <ele>82.94</ele>
        <time>2017-10-07T07:04:42.000Z</time>
      </trkpt>
      <trkpt lat="43.41281" lon="6.66174">
        <ele>80.88</ele>
        <time>2017-10-07T07:04:47.000Z</time>
      </trkpt>
      <trkpt lat="43.41272" lon="6.66185">
        <ele>79.97</ele>
        <time>2017-10-07T07:04:52.000Z</time>
      </trkpt>
      <trkpt lat="43.41258" lon="6.66197">
        <ele>79.79</ele>
        <time>2017-10-07T07:04:57.000Z</time>
      </trkpt>
      <trkpt lat="43.41249" lon="6.66203">
        <ele>80.16</ele>
        <time>2017-10-07T07:05:02.000Z</time>
      </trkpt>
      <trkpt lat="43.41252" lon="6.66215">
        <ele>79.54</ele>
        <time>2017-10-07T07:06:00.000Z</time>
      </trkpt>
      <trkpt lat="43.41256" lon="6.66226">
        <ele>79.12</ele>
        <time>2017-10-07T07:06:12.000Z</time>
      </trkpt>
      <trkpt lat="43.41261" lon="6.66237">
        <ele>78.64</ele>
        <time>2017-10-07T07:06:29.000Z</time>
      </trkpt>
      <trkpt lat="43.41267" lon="6.66247">
        <ele>78.19</ele>
        <time>2017-10-07T07:13:02.000Z</time>
      </trkpt>
      <trkpt lat="43.41289" lon="6.66255">
        <ele>75.79</ele>
        <time>2017-10-07T07:13:07.000Z</time>
      </trkpt>
      <trkpt lat="43.41312" lon="6.66258">
        <ele>73.2</ele>
        <time>2017-10-07T07:13:12.000Z</time>
      </trkpt>
      <trkpt lat="43.41331" lon="6.6628">
        <ele>71.14</ele>
        <time>2017-10-07T07:13:17.000Z</time>
      </trkpt>
      <trkpt lat="43.41337" lon="6.6632">
        <ele>69.86</ele>
        <time>2017-10-07T07:13:22.000Z</time>
      </trkpt>
      <trkpt lat="43.41336" lon="6.66367">
        <ele>69.88</ele>
        <time>2017-10-07T07:13:27.000Z</time>
      </trkpt>
      <trkpt lat="43.41352" lon="6.66402">
        <ele>67.51</ele>
        <time>2017-10-07T07:13:32.000Z</time>
      </trkpt>
      <trkpt lat="43.41375" lon="6.66418">
        <ele>62.15</ele>
        <time>2017-10-07T07:13:37.000Z</time>
      </trkpt>
      <trkpt lat="43.41406" lon="6.66436">
        <ele>55.99</ele>
        <time>2017-10-07T07:13:42.000Z</time>
      </trkpt>
      <trkpt lat="43.41429" lon="6.66461">
        <ele>53.72</ele>
        <time>2017-10-07T07:13:47.000Z</time>
      </trkpt>
      <trkpt lat="43.41445" lon="6.66486">
        <ele>54.19</ele>
        <time>2017-10-07T07:13:52.000Z</time>
      </trkpt>
      <trkpt lat="43.41469" lon="6.66491">
        <ele>54.07</ele>
        <time>2017-10-07T07:13:57.000Z</time>
      </trkpt>
      <trkpt lat="43.4149" lon="6.66493">
        <ele>53.9</ele>
        <time>2017-10-07T07:14:02.000Z</time>
      </trkpt>
      <trkpt lat="43.41507" lon="6.66499">
        <ele>53.73</ele>
        <time>2017-10-07T07:14:07.000Z</time>
      </trkpt>
      <trkpt lat="43.41523" lon="6.66506">
        <ele>53.83</ele>
        <time>2017-10-07T07:14:12.000Z</time>
      </trkpt>
      <trkpt lat="43.41537" lon="6.66501">
        <ele>53.14</ele>
        <time>2017-10-07T07:14:17.000Z</time>
      </trkpt>
      <trkpt lat="43.41552" lon="6.66503">
        <ele>52.94</ele>
        <time>2017-10-07T07:14:22.000Z</time>
      </trkpt>
      <trkpt lat="43.41564" lon="6.66515">
        <ele>53.86</ele>
        <time>2017-10-07T07:14:27.000Z</time>
      </trkpt>
      <trkpt lat="43.4158" lon="6.66504">
        <ele>52.42</ele>
        <time>2017-10-07T07:14:32.000Z</time>
      </trkpt>
      <trkpt lat="43.41598" lon="6.66488">
        <ele>50.7</ele>
        <time>2017-10-07T07:14:37.000Z</time>
      </trkpt>
      <trkpt lat="43.41622" lon="6.66481">
        <ele>49.42</ele>
        <time>2017-10-07T07:14:42.000Z</time>
      </trkpt>
      <trkpt lat="43.41637" lon="6.66509">
        <ele>51.88</ele>
        <time>2017-10-07T07:14:47.000Z</time>
      </trkpt>
      <trkpt lat="43.4165" lon="6.66521">
        <ele>53.26</ele>
        <time>2017-10-07T07:14:52.000Z</time>
      </trkpt>
      <trkpt lat="43.41671" lon="6.66503">
        <ele>50.22</ele>
        <time>2017-10-07T07:14:57.000Z</time>
      </trkpt>
      <trkpt lat="43.41688" lon="6.66491">
        <ele>48.07</ele>
        <time>2017-10-07T07:15:02.000Z</time>
      </trkpt>
      <trkpt lat="43.41711" lon="6.66486">
        <ele>46.29</ele>
        <time>2017-10-07T07:15:07.000Z</time>
      </trkpt>
      <trkpt lat="43.41736" lon="6.66477">
        <ele>43.81</ele>
        <time>2017-10-07T07:15:12.000Z</time>
      </trkpt>
      <trkpt lat="43.41746" lon="6.66496">
        <ele>45.75</ele>
        <time>2017-10-07T07:15:17.000Z</time>
      </trkpt>
      <trkpt lat="43.41738" lon="6.66527">
        <ele>50.46</ele>
        <time>2017-10-07T07:15:22.000Z</time>
      </trkpt>
      <trkpt lat="43.41753" lon="6.66547">
        <ele>53.17</ele>
        <time>2017-10-07T07:15:27.000Z</time>
      </trkpt>
      <trkpt lat="43.41767" lon="6.66565">
        <ele>55.35</ele>
        <time>2017-10-07T07:15:32.000Z</time>
      </trkpt>
      <trkpt lat="43.41786" lon="6.66543">
        <ele>50.79</ele>
        <time>2017-10-07T07:15:37.000Z</time>
      </trkpt>
      <trkpt lat="43.41801" lon="6.66528">
        <ele>47.66</ele>
        <time>2017-10-07T07:15:42.000Z</time>
      </trkpt>
      <trkpt lat="43.41821" lon="6.66517">
        <ele>44.96</ele>
        <time>2017-10-07T07:15:47.000Z</time>
      </trkpt>
      <trkpt lat="43.41851" lon="6.66512">
        <ele>42.54</ele>
        <time>2017-10-07T07:15:52.000Z</time>
      </trkpt>
      <trkpt lat="43.41882" lon="6.66522">
        <ele>41.9</ele>
        <time>2017-10-07T07:15:57.000Z</time>
      </trkpt>
      <trkpt lat="43.41911" lon="6.66512">
        <ele>38.9</ele>
        <time>2017-10-07T07:16:02.000Z</time>
      </trkpt>
      <trkpt lat="43.41946" lon="6.66486">
        <ele>34.35</ele>
        <time>2017-10-07T07:16:07.000Z</time>
      </trkpt>
      <trkpt lat="43.41982" lon="6.66472">
        <ele>32.41</ele>
        <time>2017-10-07T07:16:12.000Z</time>
      </trkpt>
      <trkpt lat="43.42" lon="6.66448">
        <ele>29.42</ele>
        <time>2017-10-07T07:16:17.000Z</time>
      </trkpt>
      <trkpt lat="43.42014" lon="6.66433">
        <ele>27.69</ele>
        <time>2017-10-07T07:16:22.000Z</time>
      </trkpt>
      <trkpt lat="43.42019" lon="6.66412">
        <ele>26.07</ele>
        <time>2017-10-07T07:16:27.000Z</time>
      </trkpt>
      <trkpt lat="43.42026" lon="6.66393">
        <ele>25.24</ele>
        <time>2017-10-07T07:16:32.000Z</time>
      </trkpt>
      <trkpt lat="43.42035" lon="6.66387">
        <ele>24.77</ele>
        <time>2017-10-07T07:16:37.000Z</time>
      </trkpt>
      <trkpt lat="43.42045" lon="6.66395">
        <ele>24.27</ele>
        <time>2017-10-07T07:16:42.000Z</time>
      </trkpt>
      <trkpt lat="43.4207" lon="6.66393">
        <ele>23</ele>
        <time>2017-10-07T07:16:47.000Z</time>
      </trkpt>
      <trkpt lat="43.42095" lon="6.66388">
        <ele>22.28</ele>
        <time>2017-10-07T07:16:52.000Z</time>
      </trkpt>
      <trkpt lat="43.42118" lon="6.66377">
        <ele>22.31</ele>
        <time>2017-10-07T07:16:57.000Z</time>
      </trkpt>
      <trkpt lat="43.42137" lon="6.66373">
        <ele>22.27</ele>
        <time>2017-10-07T07:17:02.000Z</time>
      </trkpt>
      <trkpt lat="43.42163" lon="6.66377">
        <ele>21.54</ele>
        <time>2017-10-07T07:17:07.000Z</time>
      </trkpt>
      <trkpt lat="43.42188" lon="6.66381">
        <ele>20.47</ele>
        <time>2017-10-07T07:17:12.000Z</time>
      </trkpt>
      <trkpt lat="43.42207" lon="6.66389">
        <ele>19.29</ele>
        <time>2017-10-07T07:17:17.000Z</time>
      </trkpt>
      <trkpt lat="43.42227" lon="6.66406">
        <ele>18.34</ele>
        <time>2017-10-07T07:17:22.000Z</time>
      </trkpt>
      <trkpt lat="43.42248" lon="6.66417">
        <ele>18.02</ele>
        <time>2017-10-07T07:17:27.000Z</time>
      </trkpt>
      <trkpt lat="43.42269" lon="6.66429">
        <ele>18.32</ele>
        <time>2017-10-07T07:17:32.000Z</time>
      </trkpt>
      <trkpt lat="43.42284" lon="6.66446">
        <ele>19</ele>
        <time>2017-10-07T07:17:37.000Z</time>
      </trkpt>
      <trkpt lat="43.42289" lon="6.66459">
        <ele>19.68</ele>
        <time>2017-10-07T07:17:42.000Z</time>
      </trkpt>
      <trkpt lat="43.42299" lon="6.66465">
        <ele>19.74</ele>
        <time>2017-10-07T07:17:49.000Z</time>
      </trkpt>
      <trkpt lat="43.42314" lon="6.66476">
        <ele>19.87</ele>
        <time>2017-10-07T07:17:54.000Z</time>
      </trkpt>
      <trkpt lat="43.42331" lon="6.66498">
        <ele>20.01</ele>
        <time>2017-10-07T07:17:59.000Z</time>
      </trkpt>
      <trkpt lat="43.42353" lon="6.66521">
        <ele>19.75</ele>
        <time>2017-10-07T07:18:04.000Z</time>
      </trkpt>
      <trkpt lat="43.42386" lon="6.66532">
        <ele>19.37</ele>
        <time>2017-10-07T07:18:09.000Z</time>
      </trkpt>
      <trkpt lat="43.42421" lon="6.66534">
        <ele>19.35</ele>
        <time>2017-10-07T07:18:14.000Z</time>
      </trkpt>
      <trkpt lat="43.42456" lon="6.66528">
        <ele>19.47</ele>
        <time>2017-10-07T07:18:19.000Z</time>
      </trkpt>
      <trkpt lat="43.42489" lon="6.6651">
        <ele>18.57</ele>
        <time>2017-10-07T07:18:24.000Z</time>
      </trkpt>
      <trkpt lat="43.42521" lon="6.66494">
        <ele>17.77</ele>
        <time>2017-10-07T07:18:29.000Z</time>
      </trkpt>
      <trkpt lat="43.42553" lon="6.66479">
        <ele>17.22</ele>
        <time>2017-10-07T07:18:34.000Z</time>
      </trkpt>
      <trkpt lat="43.42583" lon="6.6647">
        <ele>16.44</ele>
        <time>2017-10-07T07:18:39.000Z</time>
      </trkpt>
      <trkpt lat="43.42602" lon="6.66447">
        <ele>15.14</ele>
        <time>2017-10-07T07:18:44.000Z</time>
      </trkpt>
      <trkpt lat="43.42586" lon="6.66398">
        <ele>14.68</ele>
        <time>2017-10-07T07:18:49.000Z</time>
      </trkpt>
      <trkpt lat="43.42581" lon="6.66356">
        <ele>14.9</ele>
        <time>2017-10-07T07:18:54.000Z</time>
      </trkpt>
      <trkpt lat="43.42599" lon="6.66317">
        <ele>14.86</ele>
        <time>2017-10-07T07:18:59.000Z</time>
      </trkpt>
      <trkpt lat="43.42618" lon="6.66283">
        <ele>14.9</ele>
        <time>2017-10-07T07:19:04.000Z</time>
      </trkpt>
      <trkpt lat="43.42636" lon="6.66253">
        <ele>15.29</ele>
        <time>2017-10-07T07:19:09.000Z</time>
      </trkpt>
      <trkpt lat="43.42656" lon="6.66224">
        <ele>15.8</ele>
        <time>2017-10-07T07:19:14.000Z</time>
      </trkpt>
      <trkpt lat="43.42677" lon="6.66198">
        <ele>16.28</ele>
        <time>2017-10-07T07:19:19.000Z</time>
      </trkpt>
      <trkpt lat="43.42699" lon="6.66177">
        <ele>17.34</ele>
        <time>2017-10-07T07:19:24.000Z</time>
      </trkpt>
      <trkpt lat="43.42733" lon="6.66174">
        <ele>17.7</ele>
        <time>2017-10-07T07:19:29.000Z</time>
      </trkpt>
      <trkpt lat="43.42765" lon="6.66165">
        <ele>17.5</ele>
        <time>2017-10-07T07:19:34.000Z</time>
      </trkpt>
      <trkpt lat="43.42794" lon="6.66139">
        <ele>17.68</ele>
        <time>2017-10-07T07:19:39.000Z</time>
      </trkpt>
      <trkpt lat="43.42827" lon="6.66118">
        <ele>17.49</ele>
        <time>2017-10-07T07:19:44.000Z</time>
      </trkpt>
      <trkpt lat="43.42857" lon="6.661">
        <ele>18.18</ele>
        <time>2017-10-07T07:19:49.000Z</time>
      </trkpt>
      <trkpt lat="43.42883" lon="6.66084">
        <ele>18.79</ele>
        <time>2017-10-07T07:19:54.000Z</time>
      </trkpt>
      <trkpt lat="43.42902" lon="6.66077">
        <ele>18.87</ele>
        <time>2017-10-07T07:19:59.000Z</time>
      </trkpt>
      <trkpt lat="43.42902" lon="6.66064">
        <ele>20.03</ele>
        <time>2017-10-07T07:20:04.000Z</time>
      </trkpt>
      <trkpt lat="43.42894" lon="6.66058">
        <ele>20.9</ele>
        <time>2017-10-07T07:20:09.000Z</time>
      </trkpt>
      <trkpt lat="43.42887" lon="6.66046">
        <ele>22.36</ele>
        <time>2017-10-07T07:20:14.000Z</time>
      </trkpt>
      <trkpt lat="43.42882" lon="6.66033">
        <ele>24</ele>
        <time>2017-10-07T07:20:19.000Z</time>
      </trkpt>
      <trkpt lat="43.42877" lon="6.66022">
        <ele>25.5</ele>
        <time>2017-10-07T07:20:25.000Z</time>
      </trkpt>
      <trkpt lat="43.42871" lon="6.66011">
        <ele>27.06</ele>
        <time>2017-10-07T07:20:32.000Z</time>
      </trkpt>
      <trkpt lat="43.42867" lon="6.65999">
        <ele>28.49</ele>
        <time>2017-10-07T07:20:38.000Z</time>
      </trkpt>
      <trkpt lat="43.42862" lon="6.65989">
        <ele>29.87</ele>
        <time>2017-10-07T07:20:44.000Z</time>
      </trkpt>
      <trkpt lat="43.42856" lon="6.65978">
        <ele>31.31</ele>
        <time>2017-10-07T07:20:52.000Z</time>
      </trkpt>
      <trkpt lat="43.42848" lon="6.65968">
        <ele>32.61</ele>
        <time>2017-10-07T07:20:58.000Z</time>
      </trkpt>
      <trkpt lat="43.4284" lon="6.6596">
        <ele>33.76</ele>
        <time>2017-10-07T07:21:04.000Z</time>
      </trkpt>
      <trkpt lat="43.42833" lon="6.65949">
        <ele>34.94</ele>
        <time>2017-10-07T07:21:11.000Z</time>
      </trkpt>
      <trkpt lat="43.4283" lon="6.65938">
        <ele>35.94</ele>
        <time>2017-10-07T07:21:19.000Z</time>
      </trkpt>
      <trkpt lat="43.42825" lon="6.65927">
        <ele>37.01</ele>
        <time>2017-10-07T07:21:26.000Z</time>
      </trkpt>
      <trkpt lat="43.42818" lon="6.65919">
        <ele>38.21</ele>
        <time>2017-10-07T07:21:31.000Z</time>
      </trkpt>
      <trkpt lat="43.42809" lon="6.65915">
        <ele>39.52</ele>
        <time>2017-10-07T07:21:38.000Z</time>
      </trkpt>
      <trkpt lat="43.428" lon="6.65917">
        <ele>40.59</ele>
        <time>2017-10-07T07:21:43.000Z</time>
      </trkpt>
      <trkpt lat="43.42792" lon="6.65924">
        <ele>41.27</ele>
        <time>2017-10-07T07:21:49.000Z</time>
      </trkpt>
      <trkpt lat="43.42788" lon="6.65936">
        <ele>41.36</ele>
        <time>2017-10-07T07:21:55.000Z</time>
      </trkpt>
      <trkpt lat="43.42785" lon="6.6595">
        <ele>41.03</ele>
        <time>2017-10-07T07:22:01.000Z</time>
      </trkpt>
      <trkpt lat="43.42776" lon="6.65946">
        <ele>42.44</ele>
        <time>2017-10-07T07:22:09.000Z</time>
      </trkpt>
      <trkpt lat="43.42772" lon="6.65933">
        <ele>43.59</ele>
        <time>2017-10-07T07:22:16.000Z</time>
      </trkpt>
      <trkpt lat="43.42768" lon="6.65918">
        <ele>44.62</ele>
        <time>2017-10-07T07:22:21.000Z</time>
      </trkpt>
      <trkpt lat="43.42764" lon="6.65906">
        <ele>45.26</ele>
        <time>2017-10-07T07:22:26.000Z</time>
      </trkpt>
      <trkpt lat="43.42757" lon="6.65894">
        <ele>45.72</ele>
        <time>2017-10-07T07:22:32.000Z</time>
      </trkpt>
      <trkpt lat="43.42753" lon="6.65882">
        <ele>45.78</ele>
        <time>2017-10-07T07:22:37.000Z</time>
      </trkpt>
      <trkpt lat="43.42745" lon="6.6587">
        <ele>45.88</ele>
        <time>2017-10-07T07:22:42.000Z</time>
      </trkpt>
      <trkpt lat="43.42737" lon="6.65857">
        <ele>46.06</ele>
        <time>2017-10-07T07:22:47.000Z</time>
      </trkpt>
      <trkpt lat="43.42729" lon="6.65846">
        <ele>46.47</ele>
        <time>2017-10-07T07:22:52.000Z</time>
      </trkpt>
      <trkpt lat="43.42718" lon="6.65851">
        <ele>47.39</ele>
        <time>2017-10-07T07:22:57.000Z</time>
      </trkpt>
      <trkpt lat="43.42707" lon="6.65851">
        <ele>48.19</ele>
        <time>2017-10-07T07:23:02.000Z</time>
      </trkpt>
      <trkpt lat="43.42698" lon="6.65839">
        <ele>49.18</ele>
        <time>2017-10-07T07:23:07.000Z</time>
      </trkpt>
      <trkpt lat="43.42694" lon="6.65825">
        <ele>50.04</ele>
        <time>2017-10-07T07:23:12.000Z</time>
      </trkpt>
      <trkpt lat="43.42692" lon="6.65809">
        <ele>50.78</ele>
        <time>2017-10-07T07:23:17.000Z</time>
      </trkpt>
      <trkpt lat="43.4269" lon="6.6579">
        <ele>51.56</ele>
        <time>2017-10-07T07:23:22.000Z</time>
      </trkpt>
      <trkpt lat="43.42688" lon="6.65771">
        <ele>52.39</ele>
        <time>2017-10-07T07:23:27.000Z</time>
      </trkpt>
      <trkpt lat="43.42684" lon="6.65755">
        <ele>53.39</ele>
        <time>2017-10-07T07:23:32.000Z</time>
      </trkpt>
      <trkpt lat="43.42682" lon="6.65738">
        <ele>54.5</ele>
        <time>2017-10-07T07:23:37.000Z</time>
      </trkpt>
      <trkpt lat="43.42681" lon="6.65721">
        <ele>55.77</ele>
        <time>2017-10-07T07:23:42.000Z</time>
      </trkpt>
      <trkpt lat="43.42677" lon="6.65704">
        <ele>57.37</ele>
        <time>2017-10-07T07:23:47.000Z</time>
      </trkpt>
      <trkpt lat="43.42673" lon="6.65686">
        <ele>59.06</ele>
        <time>2017-10-07T07:23:52.000Z</time>
      </trkpt>
      <trkpt lat="43.42672" lon="6.65672">
        <ele>60.17</ele>
        <time>2017-10-07T07:23:57.000Z</time>
      </trkpt>
      <trkpt lat="43.42671" lon="6.65659">
        <ele>61.17</ele>
        <time>2017-10-07T07:24:02.000Z</time>
      </trkpt>
      <trkpt lat="43.4267" lon="6.65646">
        <ele>61.99</ele>
        <time>2017-10-07T07:24:07.000Z</time>
      </trkpt>
      <trkpt lat="43.42666" lon="6.65634">
        <ele>63.05</ele>
        <time>2017-10-07T07:24:12.000Z</time>
      </trkpt>
      <trkpt lat="43.4266" lon="6.65622">
        <ele>64.25</ele>
        <time>2017-10-07T07:24:18.000Z</time>
      </trkpt>
      <trkpt lat="43.42652" lon="6.65615">
        <ele>65.29</ele>
        <time>2017-10-07T07:24:23.000Z</time>
      </trkpt>
      <trkpt lat="43.42648" lon="6.65603">
        <ele>66.23</ele>
        <time>2017-10-07T07:24:28.000Z</time>
      </trkpt>
      <trkpt lat="43.42641" lon="6.65592">
        <ele>67.35</ele>
        <time>2017-10-07T07:24:33.000Z</time>
      </trkpt>
      <trkpt lat="43.42636" lon="6.65581">
        <ele>68.29</ele>
        <time>2017-10-07T07:24:38.000Z</time>
      </trkpt>
      <trkpt lat="43.4263" lon="6.65569">
        <ele>69.27</ele>
        <time>2017-10-07T07:24:43.000Z</time>
      </trkpt>
      <trkpt lat="43.42623" lon="6.65557">
        <ele>70.19</ele>
        <time>2017-10-07T07:24:48.000Z</time>
      </trkpt>
      <trkpt lat="43.42616" lon="6.65544">
        <ele>71.08</ele>
        <time>2017-10-07T07:24:53.000Z</time>
      </trkpt>
      <trkpt lat="43.42621" lon="6.65531">
        <ele>71.28</ele>
        <time>2017-10-07T07:24:58.000Z</time>
      </trkpt>
      <trkpt lat="43.42631" lon="6.65521">
        <ele>71.15</ele>
        <time>2017-10-07T07:25:03.000Z</time>
      </trkpt>
      <trkpt lat="43.4264" lon="6.65507">
        <ele>71.35</ele>
        <time>2017-10-07T07:25:08.000Z</time>
      </trkpt>
      <trkpt lat="43.42649" lon="6.65491">
        <ele>71.93</ele>
        <time>2017-10-07T07:25:13.000Z</time>
      </trkpt>
      <trkpt lat="43.4266" lon="6.65479">
        <ele>72.38</ele>
        <time>2017-10-07T07:25:18.000Z</time>
      </trkpt>
      <trkpt lat="43.42672" lon="6.65472">
        <ele>72.71</ele>
        <time>2017-10-07T07:25:23.000Z</time>
      </trkpt>
      <trkpt lat="43.42689" lon="6.65469">
        <ele>72.79</ele>
        <time>2017-10-07T07:25:28.000Z</time>
      </trkpt>
      <trkpt lat="43.42704" lon="6.65456">
        <ele>73.39</ele>
        <time>2017-10-07T07:25:33.000Z</time>
      </trkpt>
      <trkpt lat="43.42712" lon="6.65443">
        <ele>73.59</ele>
        <time>2017-10-07T07:25:38.000Z</time>
      </trkpt>
      <trkpt lat="43.42713" lon="6.65424">
        <ele>73.47</ele>
        <time>2017-10-07T07:25:43.000Z</time>
      </trkpt>
      <trkpt lat="43.42705" lon="6.65412">
        <ele>73.35</ele>
        <time>2017-10-07T07:25:48.000Z</time>
      </trkpt>
      <trkpt lat="43.42696" lon="6.65401">
        <ele>72.96</ele>
        <time>2017-10-07T07:25:53.000Z</time>
      </trkpt>
      <trkpt lat="43.42685" lon="6.65395">
        <ele>73.13</ele>
        <time>2017-10-07T07:25:58.000Z</time>
      </trkpt>
      <trkpt lat="43.42673" lon="6.65392">
        <ele>73.57</ele>
        <time>2017-10-07T07:26:03.000Z</time>
      </trkpt>
      <trkpt lat="43.42656" lon="6.65388">
        <ele>74.23</ele>
        <time>2017-10-07T07:26:08.000Z</time>
      </trkpt>
      <trkpt lat="43.42637" lon="6.65386">
        <ele>75.09</ele>
        <time>2017-10-07T07:26:13.000Z</time>
      </trkpt>
      <trkpt lat="43.42619" lon="6.65388">
        <ele>76.03</ele>
        <time>2017-10-07T07:26:18.000Z</time>
      </trkpt>
      <trkpt lat="43.42601" lon="6.65382">
        <ele>76.85</ele>
        <time>2017-10-07T07:26:23.000Z</time>
      </trkpt>
      <trkpt lat="43.42584" lon="6.65377">
        <ele>77.8</ele>
        <time>2017-10-07T07:26:28.000Z</time>
      </trkpt>
      <trkpt lat="43.42569" lon="6.6537">
        <ele>78.76</ele>
        <time>2017-10-07T07:26:33.000Z</time>
      </trkpt>
      <trkpt lat="43.42554" lon="6.65364">
        <ele>79.72</ele>
        <time>2017-10-07T07:26:38.000Z</time>
      </trkpt>
      <trkpt lat="43.42539" lon="6.65357">
        <ele>80.78</ele>
        <time>2017-10-07T07:26:43.000Z</time>
      </trkpt>
      <trkpt lat="43.42523" lon="6.65352">
        <ele>82</ele>
        <time>2017-10-07T07:26:48.000Z</time>
      </trkpt>
      <trkpt lat="43.42512" lon="6.65344">
        <ele>83.31</ele>
        <time>2017-10-07T07:26:53.000Z</time>
      </trkpt>
      <trkpt lat="43.42502" lon="6.65332">
        <ele>84.83</ele>
        <time>2017-10-07T07:26:58.000Z</time>
      </trkpt>
      <trkpt lat="43.42489" lon="6.65319">
        <ele>87.12</ele>
        <time>2017-10-07T07:27:03.000Z</time>
      </trkpt>
      <trkpt lat="43.42484" lon="6.65305">
        <ele>88.72</ele>
        <time>2017-10-07T07:27:08.000Z</time>
      </trkpt>
      <trkpt lat="43.42478" lon="6.65294">
        <ele>90.06</ele>
        <time>2017-10-07T07:27:13.000Z</time>
      </trkpt>
      <trkpt lat="43.42471" lon="6.65284">
        <ele>91.57</ele>
        <time>2017-10-07T07:27:19.000Z</time>
      </trkpt>
      <trkpt lat="43.42464" lon="6.65277">
        <ele>92.93</ele>
        <time>2017-10-07T07:27:24.000Z</time>
      </trkpt>
      <trkpt lat="43.42457" lon="6.65268">
        <ele>94.05</ele>
        <time>2017-10-07T07:27:29.000Z</time>
      </trkpt>
      <trkpt lat="43.42449" lon="6.6526">
        <ele>95.09</ele>
        <time>2017-10-07T07:27:34.000Z</time>
      </trkpt>
      <trkpt lat="43.42442" lon="6.65249">
        <ele>95.86</ele>
        <time>2017-10-07T07:27:39.000Z</time>
      </trkpt>
      <trkpt lat="43.42435" lon="6.65241">
        <ele>96.43</ele>
        <time>2017-10-07T07:27:44.000Z</time>
      </trkpt>
      <trkpt lat="43.42429" lon="6.6523">
        <ele>96.82</ele>
        <time>2017-10-07T07:27:50.000Z</time>
      </trkpt>
      <trkpt lat="43.42423" lon="6.65218">
        <ele>97.09</ele>
        <time>2017-10-07T07:27:56.000Z</time>
      </trkpt>
      <trkpt lat="43.4242" lon="6.65206">
        <ele>97.02</ele>
        <time>2017-10-07T07:28:01.000Z</time>
      </trkpt>
      <trkpt lat="43.42413" lon="6.65191">
        <ele>97.07</ele>
        <time>2017-10-07T07:28:06.000Z</time>
      </trkpt>
      <trkpt lat="43.424" lon="6.65176">
        <ele>97.27</ele>
        <time>2017-10-07T07:28:11.000Z</time>
      </trkpt>
      <trkpt lat="43.42382" lon="6.65157">
        <ele>97.04</ele>
        <time>2017-10-07T07:28:16.000Z</time>
      </trkpt>
      <trkpt lat="43.42371" lon="6.65133">
        <ele>96.38</ele>
        <time>2017-10-07T07:28:21.000Z</time>
      </trkpt>
      <trkpt lat="43.42363" lon="6.65113">
        <ele>96.23</ele>
        <time>2017-10-07T07:28:26.000Z</time>
      </trkpt>
      <trkpt lat="43.42353" lon="6.651">
        <ele>96.74</ele>
        <time>2017-10-07T07:28:31.000Z</time>
      </trkpt>
      <trkpt lat="43.42345" lon="6.65081">
        <ele>97.7</ele>
        <time>2017-10-07T07:28:36.000Z</time>
      </trkpt>
      <trkpt lat="43.42335" lon="6.65063">
        <ele>99.12</ele>
        <time>2017-10-07T07:28:41.000Z</time>
      </trkpt>
      <trkpt lat="43.42325" lon="6.65047">
        <ele>100.45</ele>
        <time>2017-10-07T07:28:46.000Z</time>
      </trkpt>
      <trkpt lat="43.42317" lon="6.65032">
        <ele>101.82</ele>
        <time>2017-10-07T07:28:51.000Z</time>
      </trkpt>
      <trkpt lat="43.4231" lon="6.65017">
        <ele>103.23</ele>
        <time>2017-10-07T07:28:56.000Z</time>
      </trkpt>
      <trkpt lat="43.42301" lon="6.65004">
        <ele>104.65</ele>
        <time>2017-10-07T07:29:01.000Z</time>
      </trkpt>
      <trkpt lat="43.42297" lon="6.6499">
        <ele>106.18</ele>
        <time>2017-10-07T07:29:06.000Z</time>
      </trkpt>
      <trkpt lat="43.42292" lon="6.64976">
        <ele>107.73</ele>
        <time>2017-10-07T07:29:11.000Z</time>
      </trkpt>
      <trkpt lat="43.42286" lon="6.64963">
        <ele>109.49</ele>
        <time>2017-10-07T07:29:16.000Z</time>
      </trkpt>
      <trkpt lat="43.42277" lon="6.64951">
        <ele>111.45</ele>
        <time>2017-10-07T07:29:21.000Z</time>
      </trkpt>
      <trkpt lat="43.42261" lon="6.64945">
        <ele>113.21</ele>
        <time>2017-10-07T07:29:26.000Z</time>
      </trkpt>
      <trkpt lat="43.42248" lon="6.64948">
        <ele>113.22</ele>
        <time>2017-10-07T07:29:31.000Z</time>
      </trkpt>
      <trkpt lat="43.42236" lon="6.64956">
        <ele>112.25</ele>
        <time>2017-10-07T07:29:36.000Z</time>
      </trkpt>
      <trkpt lat="43.42222" lon="6.64967">
        <ele>110.87</ele>
        <time>2017-10-07T07:29:41.000Z</time>
      </trkpt>
      <trkpt lat="43.42208" lon="6.64983">
        <ele>108.95</ele>
        <time>2017-10-07T07:29:46.000Z</time>
      </trkpt>
      <trkpt lat="43.42197" lon="6.64997">
        <ele>107.41</ele>
        <time>2017-10-07T07:29:51.000Z</time>
      </trkpt>
      <trkpt lat="43.42183" lon="6.65003">
        <ele>106.93</ele>
        <time>2017-10-07T07:29:56.000Z</time>
      </trkpt>
      <trkpt lat="43.4217" lon="6.64982">
        <ele>108.86</ele>
        <time>2017-10-07T07:30:01.000Z</time>
      </trkpt>
      <trkpt lat="43.42155" lon="6.64964">
        <ele>110.48</ele>
        <time>2017-10-07T07:30:06.000Z</time>
      </trkpt>
      <trkpt lat="43.42146" lon="6.64946">
        <ele>112.47</ele>
        <time>2017-10-07T07:30:11.000Z</time>
      </trkpt>
      <trkpt lat="43.42136" lon="6.64926">
        <ele>114.63</ele>
        <time>2017-10-07T07:30:16.000Z</time>
      </trkpt>
      <trkpt lat="43.42132" lon="6.6491">
        <ele>116.67</ele>
        <time>2017-10-07T07:30:21.000Z</time>
      </trkpt>
      <trkpt lat="43.42127" lon="6.64889">
        <ele>119.57</ele>
        <time>2017-10-07T07:30:26.000Z</time>
      </trkpt>
      <trkpt lat="43.42109" lon="6.64891">
        <ele>118.42</ele>
        <time>2017-10-07T07:30:31.000Z</time>
      </trkpt>
      <trkpt lat="43.42092" lon="6.64899">
        <ele>116.24</ele>
        <time>2017-10-07T07:30:36.000Z</time>
      </trkpt>
      <trkpt lat="43.42074" lon="6.64912">
        <ele>112.97</ele>
        <time>2017-10-07T07:30:41.000Z</time>
      </trkpt>
      <trkpt lat="43.42055" lon="6.64912">
        <ele>111.37</ele>
        <time>2017-10-07T07:30:46.000Z</time>
      </trkpt>
      <trkpt lat="43.42045" lon="6.64899">
        <ele>112.16</ele>
        <time>2017-10-07T07:30:51.000Z</time>
      </trkpt>
      <trkpt lat="43.42036" lon="6.64883">
        <ele>113.28</ele>
        <time>2017-10-07T07:30:56.000Z</time>
      </trkpt>
      <trkpt lat="43.42033" lon="6.64868">
        <ele>115.12</ele>
        <time>2017-10-07T07:31:01.000Z</time>
      </trkpt>
      <trkpt lat="43.4203" lon="6.64856">
        <ele>116.41</ele>
        <time>2017-10-07T07:31:07.000Z</time>
      </trkpt>
      <trkpt lat="43.42029" lon="6.64842">
        <ele>118.19</ele>
        <time>2017-10-07T07:31:13.000Z</time>
      </trkpt>
      <trkpt lat="43.42028" lon="6.64828">
        <ele>120.06</ele>
        <time>2017-10-07T07:31:18.000Z</time>
      </trkpt>
      <trkpt lat="43.42024" lon="6.64815">
        <ele>121.54</ele>
        <time>2017-10-07T07:31:24.000Z</time>
      </trkpt>
      <trkpt lat="43.42024" lon="6.64801">
        <ele>123.9</ele>
        <time>2017-10-07T07:31:31.000Z</time>
      </trkpt>
      <trkpt lat="43.42033" lon="6.64797">
        <ele>125.88</ele>
        <time>2017-10-07T07:31:38.000Z</time>
      </trkpt>
      <trkpt lat="43.42039" lon="6.64806">
        <ele>125.08</ele>
        <time>2017-10-07T07:31:44.000Z</time>
      </trkpt>
      <trkpt lat="43.42048" lon="6.64812">
        <ele>125.29</ele>
        <time>2017-10-07T07:31:53.000Z</time>
      </trkpt>
      <trkpt lat="43.42058" lon="6.64814">
        <ele>126.17</ele>
        <time>2017-10-07T07:32:00.000Z</time>
      </trkpt>
      <trkpt lat="43.42068" lon="6.64813">
        <ele>127.44</ele>
        <time>2017-10-07T07:32:06.000Z</time>
      </trkpt>
      <trkpt lat="43.42077" lon="6.64806">
        <ele>129.44</ele>
        <time>2017-10-07T07:32:12.000Z</time>
      </trkpt>
      <trkpt lat="43.42083" lon="6.64796">
        <ele>131.33</ele>
        <time>2017-10-07T07:32:17.000Z</time>
      </trkpt>
      <trkpt lat="43.42085" lon="6.64782">
        <ele>133.34</ele>
        <time>2017-10-07T07:32:22.000Z</time>
      </trkpt>
      <trkpt lat="43.42087" lon="6.64769">
        <ele>135.13</ele>
        <time>2017-10-07T07:32:27.000Z</time>
      </trkpt>
      <trkpt lat="43.42088" lon="6.64756">
        <ele>136.75</ele>
        <time>2017-10-07T07:32:32.000Z</time>
      </trkpt>
      <trkpt lat="43.4209" lon="6.64742">
        <ele>138.33</ele>
        <time>2017-10-07T07:32:38.000Z</time>
      </trkpt>
      <trkpt lat="43.42091" lon="6.6473">
        <ele>139.69</ele>
        <time>2017-10-07T07:32:43.000Z</time>
      </trkpt>
      <trkpt lat="43.42094" lon="6.64718">
        <ele>141.12</ele>
        <time>2017-10-07T07:32:49.000Z</time>
      </trkpt>
      <trkpt lat="43.42098" lon="6.64706">
        <ele>142.59</ele>
        <time>2017-10-07T07:32:56.000Z</time>
      </trkpt>
      <trkpt lat="43.42102" lon="6.64694">
        <ele>144.19</ele>
        <time>2017-10-07T07:33:04.000Z</time>
      </trkpt>
      <trkpt lat="43.42108" lon="6.64682">
        <ele>146.02</ele>
        <time>2017-10-07T07:33:11.000Z</time>
      </trkpt>
      <trkpt lat="43.42115" lon="6.64671">
        <ele>147.93</ele>
        <time>2017-10-07T07:33:18.000Z</time>
      </trkpt>
      <trkpt lat="43.42124" lon="6.64664">
        <ele>149.85</ele>
        <time>2017-10-07T07:33:26.000Z</time>
      </trkpt>
      <trkpt lat="43.42134" lon="6.64667">
        <ele>151.27</ele>
        <time>2017-10-07T07:33:35.000Z</time>
      </trkpt>
      <trkpt lat="43.42142" lon="6.64674">
        <ele>151.77</ele>
        <time>2017-10-07T07:33:40.000Z</time>
      </trkpt>
      <trkpt lat="43.42151" lon="6.64678">
        <ele>152.54</ele>
        <time>2017-10-07T07:33:46.000Z</time>
      </trkpt>
      <trkpt lat="43.42162" lon="6.6468">
        <ele>153.62</ele>
        <time>2017-10-07T07:33:52.000Z</time>
      </trkpt>
      <trkpt lat="43.42172" lon="6.6468">
        <ele>154.7</ele>
        <time>2017-10-07T07:33:58.000Z</time>
      </trkpt>
      <trkpt lat="43.42181" lon="6.64679">
        <ele>155.81</ele>
        <time>2017-10-07T07:34:03.000Z</time>
      </trkpt>
      <trkpt lat="43.4219" lon="6.64681">
        <ele>156.4</ele>
        <time>2017-10-07T07:34:08.000Z</time>
      </trkpt>
      <trkpt lat="43.422" lon="6.64684">
        <ele>156.87</ele>
        <time>2017-10-07T07:34:14.000Z</time>
      </trkpt>
      <trkpt lat="43.4221" lon="6.64682">
        <ele>158.15</ele>
        <time>2017-10-07T07:34:19.000Z</time>
      </trkpt>
      <trkpt lat="43.42222" lon="6.64678">
        <ele>159.79</ele>
        <time>2017-10-07T07:34:24.000Z</time>
      </trkpt>
      <trkpt lat="43.42233" lon="6.64672">
        <ele>161.71</ele>
        <time>2017-10-07T07:34:29.000Z</time>
      </trkpt>
      <trkpt lat="43.42241" lon="6.64666">
        <ele>163.5</ele>
        <time>2017-10-07T07:34:34.000Z</time>
      </trkpt>
      <trkpt lat="43.42251" lon="6.6466">
        <ele>165.55</ele>
        <time>2017-10-07T07:34:40.000Z</time>
      </trkpt>
      <trkpt lat="43.42261" lon="6.64654">
        <ele>167.36</ele>
        <time>2017-10-07T07:34:46.000Z</time>
      </trkpt>
      <trkpt lat="43.42268" lon="6.64648">
        <ele>169.4</ele>
        <time>2017-10-07T07:34:51.000Z</time>
      </trkpt>
      <trkpt lat="43.42277" lon="6.64641">
        <ele>171.66</ele>
        <time>2017-10-07T07:34:57.000Z</time>
      </trkpt>
      <trkpt lat="43.42286" lon="6.64643">
        <ele>171.81</ele>
        <time>2017-10-07T07:35:04.000Z</time>
      </trkpt>
      <trkpt lat="43.42296" lon="6.64645">
        <ele>171.99</ele>
        <time>2017-10-07T07:35:11.000Z</time>
      </trkpt>
      <trkpt lat="43.42306" lon="6.64647">
        <ele>171.97</ele>
        <time>2017-10-07T07:35:16.000Z</time>
      </trkpt>
      <trkpt lat="43.42317" lon="6.64647">
        <ele>172.52</ele>
        <time>2017-10-07T07:35:21.000Z</time>
      </trkpt>
      <trkpt lat="43.42329" lon="6.64648">
        <ele>172.69</ele>
        <time>2017-10-07T07:35:26.000Z</time>
      </trkpt>
      <trkpt lat="43.42339" lon="6.6465">
        <ele>172.69</ele>
        <time>2017-10-07T07:35:31.000Z</time>
      </trkpt>
      <trkpt lat="43.42351" lon="6.64651">
        <ele>172.94</ele>
        <time>2017-10-07T07:35:36.000Z</time>
      </trkpt>
      <trkpt lat="43.42362" lon="6.6465">
        <ele>173.76</ele>
        <time>2017-10-07T07:35:41.000Z</time>
      </trkpt>
      <trkpt lat="43.42371" lon="6.6465">
        <ele>174.21</ele>
        <time>2017-10-07T07:35:46.000Z</time>
      </trkpt>
      <trkpt lat="43.42383" lon="6.6465">
        <ele>174.71</ele>
        <time>2017-10-07T07:35:51.000Z</time>
      </trkpt>
      <trkpt lat="43.42395" lon="6.64651">
        <ele>174.94</ele>
        <time>2017-10-07T07:35:56.000Z</time>
      </trkpt>
      <trkpt lat="43.42413" lon="6.64646">
        <ele>176.62</ele>
        <time>2017-10-07T07:36:01.000Z</time>
      </trkpt>
      <trkpt lat="43.42425" lon="6.64629">
        <ele>180.78</ele>
        <time>2017-10-07T07:36:06.000Z</time>
      </trkpt>
      <trkpt lat="43.42433" lon="6.64614">
        <ele>184.14</ele>
        <time>2017-10-07T07:36:11.000Z</time>
      </trkpt>
      <trkpt lat="43.42444" lon="6.64607">
        <ele>185.75</ele>
        <time>2017-10-07T07:36:16.000Z</time>
      </trkpt>
      <trkpt lat="43.4246" lon="6.64614">
        <ele>184.34</ele>
        <time>2017-10-07T07:36:21.000Z</time>
      </trkpt>
      <trkpt lat="43.42475" lon="6.64622">
        <ele>182.67</ele>
        <time>2017-10-07T07:36:26.000Z</time>
      </trkpt>
      <trkpt lat="43.42495" lon="6.64636">
        <ele>179.49</ele>
        <time>2017-10-07T07:36:31.000Z</time>
      </trkpt>
      <trkpt lat="43.42515" lon="6.64644">
        <ele>178.96</ele>
        <time>2017-10-07T07:36:36.000Z</time>
      </trkpt>
      <trkpt lat="43.42533" lon="6.64649">
        <ele>180.38</ele>
        <time>2017-10-07T07:36:41.000Z</time>
      </trkpt>
      <trkpt lat="43.42548" lon="6.64663">
        <ele>180.1</ele>
        <time>2017-10-07T07:36:46.000Z</time>
      </trkpt>
      <trkpt lat="43.42566" lon="6.64688">
        <ele>179.23</ele>
        <time>2017-10-07T07:36:51.000Z</time>
      </trkpt>
      <trkpt lat="43.42582" lon="6.64707">
        <ele>178.57</ele>
        <time>2017-10-07T07:36:56.000Z</time>
      </trkpt>
      <trkpt lat="43.42594" lon="6.64722">
        <ele>177.63</ele>
        <time>2017-10-07T07:37:01.000Z</time>
      </trkpt>
      <trkpt lat="43.42611" lon="6.6473">
        <ele>178.45</ele>
        <time>2017-10-07T07:37:06.000Z</time>
      </trkpt>
      <trkpt lat="43.42626" lon="6.64712">
        <ele>182.81</ele>
        <time>2017-10-07T07:37:11.000Z</time>
      </trkpt>
      <trkpt lat="43.42628" lon="6.64698">
        <ele>184.75</ele>
        <time>2017-10-07T07:37:16.000Z</time>
      </trkpt>
      <trkpt lat="43.42625" lon="6.64684">
        <ele>186.12</ele>
        <time>2017-10-07T07:37:23.000Z</time>
      </trkpt>
      <trkpt lat="43.42622" lon="6.6467">
        <ele>187.37</ele>
        <time>2017-10-07T07:37:29.000Z</time>
      </trkpt>
      <trkpt lat="43.42618" lon="6.64657">
        <ele>188.51</ele>
        <time>2017-10-07T07:37:35.000Z</time>
      </trkpt>
      <trkpt lat="43.42614" lon="6.64645">
        <ele>189.68</ele>
        <time>2017-10-07T07:37:40.000Z</time>
      </trkpt>
      <trkpt lat="43.4261" lon="6.64633">
        <ele>190.78</ele>
        <time>2017-10-07T07:37:45.000Z</time>
      </trkpt>
      <trkpt lat="43.42603" lon="6.64623">
        <ele>191.66</ele>
        <time>2017-10-07T07:37:51.000Z</time>
      </trkpt>
      <trkpt lat="43.42596" lon="6.6461">
        <ele>192.71</ele>
        <time>2017-10-07T07:37:56.000Z</time>
      </trkpt>
      <trkpt lat="43.42585" lon="6.64594">
        <ele>193.73</ele>
        <time>2017-10-07T07:38:01.000Z</time>
      </trkpt>
      <trkpt lat="43.42573" lon="6.64588">
        <ele>193.96</ele>
        <time>2017-10-07T07:38:06.000Z</time>
      </trkpt>
      <trkpt lat="43.42557" lon="6.6458">
        <ele>193.8</ele>
        <time>2017-10-07T07:38:11.000Z</time>
      </trkpt>
      <trkpt lat="43.42544" lon="6.64574">
        <ele>193.49</ele>
        <time>2017-10-07T07:38:16.000Z</time>
      </trkpt>
      <trkpt lat="43.42529" lon="6.64565">
        <ele>193.3</ele>
        <time>2017-10-07T07:38:21.000Z</time>
      </trkpt>
      <trkpt lat="43.42519" lon="6.64557">
        <ele>193.27</ele>
        <time>2017-10-07T07:38:26.000Z</time>
      </trkpt>
      <trkpt lat="43.42505" lon="6.64549">
        <ele>193.27</ele>
        <time>2017-10-07T07:38:31.000Z</time>
      </trkpt>
      <trkpt lat="43.42485" lon="6.64538">
        <ele>193.31</ele>
        <time>2017-10-07T07:38:36.000Z</time>
      </trkpt>
      <trkpt lat="43.42465" lon="6.64526">
        <ele>193.05</ele>
        <time>2017-10-07T07:38:41.000Z</time>
      </trkpt>
      <trkpt lat="43.42447" lon="6.64514">
        <ele>192.53</ele>
        <time>2017-10-07T07:38:46.000Z</time>
      </trkpt>
      <trkpt lat="43.42434" lon="6.64503">
        <ele>191.93</ele>
        <time>2017-10-07T07:38:51.000Z</time>
      </trkpt>
      <trkpt lat="43.42411" lon="6.64503">
        <ele>192.35</ele>
        <time>2017-10-07T07:38:56.000Z</time>
      </trkpt>
      <trkpt lat="43.42389" lon="6.64504">
        <ele>193.29</ele>
        <time>2017-10-07T07:39:01.000Z</time>
      </trkpt>
      <trkpt lat="43.42369" lon="6.64504">
        <ele>194.2</ele>
        <time>2017-10-07T07:39:06.000Z</time>
      </trkpt>
      <trkpt lat="43.42349" lon="6.64496">
        <ele>194.56</ele>
        <time>2017-10-07T07:39:11.000Z</time>
      </trkpt>
      <trkpt lat="43.42334" lon="6.64489">
        <ele>194.43</ele>
        <time>2017-10-07T07:39:16.000Z</time>
      </trkpt>
      <trkpt lat="43.42315" lon="6.64487">
        <ele>194.66</ele>
        <time>2017-10-07T07:39:21.000Z</time>
      </trkpt>
      <trkpt lat="43.42292" lon="6.64483">
        <ele>194.92</ele>
        <time>2017-10-07T07:39:26.000Z</time>
      </trkpt>
      <trkpt lat="43.42273" lon="6.64473">
        <ele>194.59</ele>
        <time>2017-10-07T07:39:31.000Z</time>
      </trkpt>
      <trkpt lat="43.42258" lon="6.6446">
        <ele>193.68</ele>
        <time>2017-10-07T07:39:36.000Z</time>
      </trkpt>
      <trkpt lat="43.42244" lon="6.64433">
        <ele>191.56</ele>
        <time>2017-10-07T07:39:41.000Z</time>
      </trkpt>
      <trkpt lat="43.42228" lon="6.64408">
        <ele>188.15</ele>
        <time>2017-10-07T07:39:46.000Z</time>
      </trkpt>
      <trkpt lat="43.42207" lon="6.64374">
        <ele>184.51</ele>
        <time>2017-10-07T07:39:51.000Z</time>
      </trkpt>
      <trkpt lat="43.4218" lon="6.64341">
        <ele>182.68</ele>
        <time>2017-10-07T07:39:56.000Z</time>
      </trkpt>
      <trkpt lat="43.42146" lon="6.64314">
        <ele>180.35</ele>
        <time>2017-10-07T07:40:01.000Z</time>
      </trkpt>
      <trkpt lat="43.42135" lon="6.64292">
        <ele>179.63</ele>
        <time>2017-10-07T07:40:06.000Z</time>
      </trkpt>
      <trkpt lat="43.42141" lon="6.6428">
        <ele>179.49</ele>
        <time>2017-10-07T07:40:11.000Z</time>
      </trkpt>
      <trkpt lat="43.42129" lon="6.64238">
        <ele>176.7</ele>
        <time>2017-10-07T07:40:16.000Z</time>
      </trkpt>
      <trkpt lat="43.42112" lon="6.64191">
        <ele>171.49</ele>
        <time>2017-10-07T07:40:21.000Z</time>
      </trkpt>
      <trkpt lat="43.42106" lon="6.64147">
        <ele>165.36</ele>
        <time>2017-10-07T07:40:26.000Z</time>
      </trkpt>
      <trkpt lat="43.421" lon="6.64106">
        <ele>159.94</ele>
        <time>2017-10-07T07:40:31.000Z</time>
      </trkpt>
      <trkpt lat="43.42079" lon="6.64065">
        <ele>158.81</ele>
        <time>2017-10-07T07:40:36.000Z</time>
      </trkpt>
      <trkpt lat="43.4206" lon="6.6401">
        <ele>153.19</ele>
        <time>2017-10-07T07:40:41.000Z</time>
      </trkpt>
      <trkpt lat="43.42045" lon="6.63973">
        <ele>154.11</ele>
        <time>2017-10-07T07:40:46.000Z</time>
      </trkpt>
      <trkpt lat="43.42058" lon="6.63972">
        <ele>151.26</ele>
        <time>2017-10-07T07:40:52.000Z</time>
      </trkpt>
      <trkpt lat="43.4209" lon="6.63999">
        <ele>145.71</ele>
        <time>2017-10-07T07:40:57.000Z</time>
      </trkpt>
      <trkpt lat="43.42126" lon="6.64017">
        <ele>141.12</ele>
        <time>2017-10-07T07:41:02.000Z</time>
      </trkpt>
      <trkpt lat="43.4216" lon="6.64035">
        <ele>135.45</ele>
        <time>2017-10-07T07:41:07.000Z</time>
      </trkpt>
      <trkpt lat="43.42177" lon="6.64075">
        <ele>132.85</ele>
        <time>2017-10-07T07:41:12.000Z</time>
      </trkpt>
      <trkpt lat="43.42193" lon="6.64113">
        <ele>134.36</ele>
        <time>2017-10-07T07:41:17.000Z</time>
      </trkpt>
      <trkpt lat="43.42216" lon="6.64129">
        <ele>132.07</ele>
        <time>2017-10-07T07:41:22.000Z</time>
      </trkpt>
      <trkpt lat="43.42238" lon="6.64147">
        <ele>130.77</ele>
        <time>2017-10-07T07:41:27.000Z</time>
      </trkpt>
      <trkpt lat="43.42255" lon="6.64171">
        <ele>131.72</ele>
        <time>2017-10-07T07:41:32.000Z</time>
      </trkpt>
      <trkpt lat="43.42274" lon="6.6419">
        <ele>132.38</ele>
        <time>2017-10-07T07:41:37.000Z</time>
      </trkpt>
      <trkpt lat="43.42297" lon="6.64213">
        <ele>133.46</ele>
        <time>2017-10-07T07:41:42.000Z</time>
      </trkpt>
      <trkpt lat="43.42322" lon="6.64227">
        <ele>132.43</ele>
        <time>2017-10-07T07:41:47.000Z</time>
      </trkpt>
      <trkpt lat="43.42344" lon="6.64244">
        <ele>133.27</ele>
        <time>2017-10-07T07:41:52.000Z</time>
      </trkpt>
      <trkpt lat="43.42363" lon="6.64257">
        <ele>134.72</ele>
        <time>2017-10-07T07:41:57.000Z</time>
      </trkpt>
      <trkpt lat="43.42382" lon="6.64273">
        <ele>137.37</ele>
        <time>2017-10-07T07:42:02.000Z</time>
      </trkpt>
      <trkpt lat="43.42407" lon="6.64278">
        <ele>136.51</ele>
        <time>2017-10-07T07:42:07.000Z</time>
      </trkpt>
      <trkpt lat="43.42431" lon="6.64268">
        <ele>131.48</ele>
        <time>2017-10-07T07:42:12.000Z</time>
      </trkpt>
      <trkpt lat="43.42441" lon="6.64264">
        <ele>130.13</ele>
        <time>2017-10-07T07:42:17.000Z</time>
      </trkpt>
      <trkpt lat="43.42452" lon="6.64259">
        <ele>128.11</ele>
        <time>2017-10-07T07:43:19.000Z</time>
      </trkpt>
      <trkpt lat="43.42485" lon="6.64257">
        <ele>127.05</ele>
        <time>2017-10-07T07:43:24.000Z</time>
      </trkpt>
      <trkpt lat="43.42512" lon="6.6426">
        <ele>126.09</ele>
        <time>2017-10-07T07:43:29.000Z</time>
      </trkpt>
      <trkpt lat="43.42546" lon="6.64262">
        <ele>123.69</ele>
        <time>2017-10-07T07:43:34.000Z</time>
      </trkpt>
      <trkpt lat="43.42571" lon="6.64275">
        <ele>124.23</ele>
        <time>2017-10-07T07:43:39.000Z</time>
      </trkpt>
      <trkpt lat="43.42585" lon="6.64285">
        <ele>125.05</ele>
        <time>2017-10-07T07:43:44.000Z</time>
      </trkpt>
      <trkpt lat="43.426" lon="6.64294">
        <ele>125.14</ele>
        <time>2017-10-07T07:43:49.000Z</time>
      </trkpt>
      <trkpt lat="43.42614" lon="6.64309">
        <ele>126.78</ele>
        <time>2017-10-07T07:43:54.000Z</time>
      </trkpt>
      <trkpt lat="43.42632" lon="6.64329">
        <ele>129.21</ele>
        <time>2017-10-07T07:43:59.000Z</time>
      </trkpt>
      <trkpt lat="43.42648" lon="6.64341">
        <ele>130.5</ele>
        <time>2017-10-07T07:44:04.000Z</time>
      </trkpt>
      <trkpt lat="43.42664" lon="6.64353">
        <ele>132.22</ele>
        <time>2017-10-07T07:44:09.000Z</time>
      </trkpt>
      <trkpt lat="43.42676" lon="6.6436">
        <ele>133.06</ele>
        <time>2017-10-07T07:44:14.000Z</time>
      </trkpt>
      <trkpt lat="43.4269" lon="6.64367">
        <ele>134.52</ele>
        <time>2017-10-07T07:44:19.000Z</time>
      </trkpt>
      <trkpt lat="43.42707" lon="6.64367">
        <ele>133.57</ele>
        <time>2017-10-07T07:44:24.000Z</time>
      </trkpt>
      <trkpt lat="43.42723" lon="6.64371">
        <ele>134.23</ele>
        <time>2017-10-07T07:44:29.000Z</time>
      </trkpt>
      <trkpt lat="43.42739" lon="6.64373">
        <ele>133.99</ele>
        <time>2017-10-07T07:44:34.000Z</time>
      </trkpt>
      <trkpt lat="43.42757" lon="6.64372">
        <ele>132.53</ele>
        <time>2017-10-07T07:44:39.000Z</time>
      </trkpt>
      <trkpt lat="43.42772" lon="6.64377">
        <ele>132.57</ele>
        <time>2017-10-07T07:44:44.000Z</time>
      </trkpt>
      <trkpt lat="43.42788" lon="6.64378">
        <ele>131.36</ele>
        <time>2017-10-07T07:44:49.000Z</time>
      </trkpt>
      <trkpt lat="43.42811" lon="6.64387">
        <ele>131.24</ele>
        <time>2017-10-07T07:44:54.000Z</time>
      </trkpt>
      <trkpt lat="43.42831" lon="6.64398">
        <ele>131.62</ele>
        <time>2017-10-07T07:44:59.000Z</time>
      </trkpt>
      <trkpt lat="43.42856" lon="6.64403">
        <ele>130.39</ele>
        <time>2017-10-07T07:45:04.000Z</time>
      </trkpt>
      <trkpt lat="43.42876" lon="6.64414">
        <ele>131.07</ele>
        <time>2017-10-07T07:45:09.000Z</time>
      </trkpt>
      <trkpt lat="43.42899" lon="6.64419">
        <ele>129.83</ele>
        <time>2017-10-07T07:45:14.000Z</time>
      </trkpt>
      <trkpt lat="43.42933" lon="6.64425">
        <ele>126.13</ele>
        <time>2017-10-07T07:45:19.000Z</time>
      </trkpt>
      <trkpt lat="43.42969" lon="6.64449">
        <ele>122.84</ele>
        <time>2017-10-07T07:45:24.000Z</time>
      </trkpt>
      <trkpt lat="43.42982" lon="6.64481">
        <ele>123.51</ele>
        <time>2017-10-07T07:45:29.000Z</time>
      </trkpt>
      <trkpt lat="43.43008" lon="6.64488">
        <ele>118.88</ele>
        <time>2017-10-07T07:45:34.000Z</time>
      </trkpt>
      <trkpt lat="43.43033" lon="6.64495">
        <ele>114.91</ele>
        <time>2017-10-07T07:45:39.000Z</time>
      </trkpt>
      <trkpt lat="43.4306" lon="6.64506">
        <ele>111.59</ele>
        <time>2017-10-07T07:45:44.000Z</time>
      </trkpt>
      <trkpt lat="43.43092" lon="6.64529">
        <ele>109.05</ele>
        <time>2017-10-07T07:45:49.000Z</time>
      </trkpt>
      <trkpt lat="43.43091" lon="6.64548">
        <ele>111.06</ele>
        <time>2017-10-07T07:45:54.000Z</time>
      </trkpt>
      <trkpt lat="43.43111" lon="6.64562">
        <ele>110.19</ele>
        <time>2017-10-07T07:45:59.000Z</time>
      </trkpt>
      <trkpt lat="43.43133" lon="6.64577">
        <ele>110.79</ele>
        <time>2017-10-07T07:46:04.000Z</time>
      </trkpt>
      <trkpt lat="43.4315" lon="6.64592">
        <ele>112.47</ele>
        <time>2017-10-07T07:46:09.000Z</time>
      </trkpt>
      <trkpt lat="43.43164" lon="6.64595">
        <ele>112.53</ele>
        <time>2017-10-07T07:46:14.000Z</time>
      </trkpt>
      <trkpt lat="43.43176" lon="6.64599">
        <ele>112.47</ele>
        <time>2017-10-07T07:46:19.000Z</time>
      </trkpt>
      <trkpt lat="43.43197" lon="6.64611">
        <ele>113.26</ele>
        <time>2017-10-07T07:46:24.000Z</time>
      </trkpt>
      <trkpt lat="43.43216" lon="6.64623">
        <ele>113.61</ele>
        <time>2017-10-07T07:46:29.000Z</time>
      </trkpt>
      <trkpt lat="43.43231" lon="6.6463">
        <ele>113.19</ele>
        <time>2017-10-07T07:46:34.000Z</time>
      </trkpt>
      <trkpt lat="43.43243" lon="6.64637">
        <ele>112.99</ele>
        <time>2017-10-07T07:46:39.000Z</time>
      </trkpt>
      <trkpt lat="43.4325" lon="6.64647">
        <ele>113.33</ele>
        <time>2017-10-07T07:46:44.000Z</time>
      </trkpt>
      <trkpt lat="43.43249" lon="6.64664">
        <ele>114.95</ele>
        <time>2017-10-07T07:46:49.000Z</time>
      </trkpt>
      <trkpt lat="43.43247" lon="6.64678">
        <ele>115.97</ele>
        <time>2017-10-07T07:46:54.000Z</time>
      </trkpt>
      <trkpt lat="43.43248" lon="6.64692">
        <ele>116.47</ele>
        <time>2017-10-07T07:47:00.000Z</time>
      </trkpt>
      <trkpt lat="43.43251" lon="6.64707">
        <ele>116.24</ele>
        <time>2017-10-07T07:47:38.000Z</time>
      </trkpt>
      <trkpt lat="43.43252" lon="6.64735">
        <ele>115.99</ele>
        <time>2017-10-07T07:47:43.000Z</time>
      </trkpt>
      <trkpt lat="43.43247" lon="6.64763">
        <ele>116.19</ele>
        <time>2017-10-07T07:47:48.000Z</time>
      </trkpt>
      <trkpt lat="43.4324" lon="6.64787">
        <ele>116.26</ele>
        <time>2017-10-07T07:47:53.000Z</time>
      </trkpt>
      <trkpt lat="43.43234" lon="6.64819">
        <ele>115.07</ele>
        <time>2017-10-07T07:47:58.000Z</time>
      </trkpt>
      <trkpt lat="43.43222" lon="6.64848">
        <ele>113.98</ele>
        <time>2017-10-07T07:48:03.000Z</time>
      </trkpt>
      <trkpt lat="43.43249" lon="6.64861">
        <ele>107.87</ele>
        <time>2017-10-07T07:48:08.000Z</time>
      </trkpt>
      <trkpt lat="43.43246" lon="6.64889">
        <ele>104.34</ele>
        <time>2017-10-07T07:48:13.000Z</time>
      </trkpt>
      <trkpt lat="43.43254" lon="6.64931">
        <ele>97.84</ele>
        <time>2017-10-07T07:48:18.000Z</time>
      </trkpt>
      <trkpt lat="43.43254" lon="6.64979">
        <ele>93.81</ele>
        <time>2017-10-07T07:48:23.000Z</time>
      </trkpt>
      <trkpt lat="43.43261" lon="6.65026">
        <ele>87.64</ele>
        <time>2017-10-07T07:48:28.000Z</time>
      </trkpt>
      <trkpt lat="43.43289" lon="6.65047">
        <ele>81.68</ele>
        <time>2017-10-07T07:48:33.000Z</time>
      </trkpt>
      <trkpt lat="43.43322" lon="6.65078">
        <ele>73.16</ele>
        <time>2017-10-07T07:48:38.000Z</time>
      </trkpt>
      <trkpt lat="43.43341" lon="6.65099">
        <ele>67.92</ele>
        <time>2017-10-07T07:48:43.000Z</time>
      </trkpt>
      <trkpt lat="43.43358" lon="6.65092">
        <ele>66.33</ele>
        <time>2017-10-07T07:48:48.000Z</time>
      </trkpt>
      <trkpt lat="43.43377" lon="6.65052">
        <ele>66.96</ele>
        <time>2017-10-07T07:48:53.000Z</time>
      </trkpt>
      <trkpt lat="43.43402" lon="6.65023">
        <ele>64.88</ele>
        <time>2017-10-07T07:48:58.000Z</time>
      </trkpt>
      <trkpt lat="43.4343" lon="6.65034">
        <ele>59.81</ele>
        <time>2017-10-07T07:49:03.000Z</time>
      </trkpt>
      <trkpt lat="43.43447" lon="6.65025">
        <ele>58</ele>
        <time>2017-10-07T07:49:08.000Z</time>
      </trkpt>
      <trkpt lat="43.43454" lon="6.65012">
        <ele>57.59</ele>
        <time>2017-10-07T07:50:03.000Z</time>
      </trkpt>
      <trkpt lat="43.4346" lon="6.64989">
        <ele>58.05</ele>
        <time>2017-10-07T07:50:08.000Z</time>
      </trkpt>
      <trkpt lat="43.43469" lon="6.64977">
        <ele>57.75</ele>
        <time>2017-10-07T07:50:13.000Z</time>
      </trkpt>
      <trkpt lat="43.43488" lon="6.64974">
        <ele>55.44</ele>
        <time>2017-10-07T07:50:18.000Z</time>
      </trkpt>
      <trkpt lat="43.4351" lon="6.64972">
        <ele>52.99</ele>
        <time>2017-10-07T07:50:23.000Z</time>
      </trkpt>
      <trkpt lat="43.43533" lon="6.64976">
        <ele>50.02</ele>
        <time>2017-10-07T07:50:28.000Z</time>
      </trkpt>
      <trkpt lat="43.43557" lon="6.64985">
        <ele>46.77</ele>
        <time>2017-10-07T07:50:33.000Z</time>
      </trkpt>
      <trkpt lat="43.43578" lon="6.64996">
        <ele>43.83</ele>
        <time>2017-10-07T07:50:38.000Z</time>
      </trkpt>
      <trkpt lat="43.43589" lon="6.64996">
        <ele>42.72</ele>
        <time>2017-10-07T07:50:43.000Z</time>
      </trkpt>
      <trkpt lat="43.43594" lon="6.64977">
        <ele>43.33</ele>
        <time>2017-10-07T07:50:48.000Z</time>
      </trkpt>
      <trkpt lat="43.43597" lon="6.64952">
        <ele>44.37</ele>
        <time>2017-10-07T07:50:53.000Z</time>
      </trkpt>
      <trkpt lat="43.43612" lon="6.6494">
        <ele>42.79</ele>
        <time>2017-10-07T07:50:58.000Z</time>
      </trkpt>
      <trkpt lat="43.43624" lon="6.6492">
        <ele>41.35</ele>
        <time>2017-10-07T07:51:03.000Z</time>
      </trkpt>
      <trkpt lat="43.43626" lon="6.6489">
        <ele>41.16</ele>
        <time>2017-10-07T07:51:08.000Z</time>
      </trkpt>
      <trkpt lat="43.43619" lon="6.64863">
        <ele>42.09</ele>
        <time>2017-10-07T07:51:13.000Z</time>
      </trkpt>
      <trkpt lat="43.43611" lon="6.64842">
        <ele>43.59</ele>
        <time>2017-10-07T07:51:18.000Z</time>
      </trkpt>
      <trkpt lat="43.43602" lon="6.64824">
        <ele>45.88</ele>
        <time>2017-10-07T07:51:23.000Z</time>
      </trkpt>
      <trkpt lat="43.43607" lon="6.64812">
        <ele>45.89</ele>
        <time>2017-10-07T07:51:28.000Z</time>
      </trkpt>
      <trkpt lat="43.43613" lon="6.64801">
        <ele>45.39</ele>
        <time>2017-10-07T07:51:34.000Z</time>
      </trkpt>
      <trkpt lat="43.4362" lon="6.64791">
        <ele>44.58</ele>
        <time>2017-10-07T07:51:40.000Z</time>
      </trkpt>
      <trkpt lat="43.43622" lon="6.64775">
        <ele>45.01</ele>
        <time>2017-10-07T07:51:45.000Z</time>
      </trkpt>
      <trkpt lat="43.43618" lon="6.64756">
        <ele>46.95</ele>
        <time>2017-10-07T07:51:50.000Z</time>
      </trkpt>
      <trkpt lat="43.43612" lon="6.64744">
        <ele>48.93</ele>
        <time>2017-10-07T07:51:55.000Z</time>
      </trkpt>
      <trkpt lat="43.43612" lon="6.64724">
        <ele>49.2</ele>
        <time>2017-10-07T07:52:00.000Z</time>
      </trkpt>
      <trkpt lat="43.4361" lon="6.64709">
        <ele>49.68</ele>
        <time>2017-10-07T07:52:05.000Z</time>
      </trkpt>
      <trkpt lat="43.4361" lon="6.64696">
        <ele>49.6</ele>
        <time>2017-10-07T07:52:11.000Z</time>
      </trkpt>
      <trkpt lat="43.43616" lon="6.64686">
        <ele>47.95</ele>
        <time>2017-10-07T07:52:16.000Z</time>
      </trkpt>
      <trkpt lat="43.43618" lon="6.64664">
        <ele>46.55</ele>
        <time>2017-10-07T07:52:21.000Z</time>
      </trkpt>
      <trkpt lat="43.43624" lon="6.64645">
        <ele>44.08</ele>
        <time>2017-10-07T07:52:26.000Z</time>
      </trkpt>
      <trkpt lat="43.43618" lon="6.64625">
        <ele>44.27</ele>
        <time>2017-10-07T07:52:31.000Z</time>
      </trkpt>
      <trkpt lat="43.43612" lon="6.64614">
        <ele>45.02</ele>
        <time>2017-10-07T07:52:36.000Z</time>
      </trkpt>
      <trkpt lat="43.43608" lon="6.64603">
        <ele>45.31</ele>
        <time>2017-10-07T07:52:42.000Z</time>
      </trkpt>
      <trkpt lat="43.43606" lon="6.64588">
        <ele>44.62</ele>
        <time>2017-10-07T07:52:48.000Z</time>
      </trkpt>
      <trkpt lat="43.43605" lon="6.64573">
        <ele>43.53</ele>
        <time>2017-10-07T07:52:53.000Z</time>
      </trkpt>
      <trkpt lat="43.43604" lon="6.6456">
        <ele>42.31</ele>
        <time>2017-10-07T07:52:58.000Z</time>
      </trkpt>
      <trkpt lat="43.43599" lon="6.64548">
        <ele>41.96</ele>
        <time>2017-10-07T07:53:03.000Z</time>
      </trkpt>
      <trkpt lat="43.43593" lon="6.64533">
        <ele>41.14</ele>
        <time>2017-10-07T07:53:08.000Z</time>
      </trkpt>
      <trkpt lat="43.43585" lon="6.64513">
        <ele>40.02</ele>
        <time>2017-10-07T07:53:13.000Z</time>
      </trkpt>
      <trkpt lat="43.43583" lon="6.64493">
        <ele>38.49</ele>
        <time>2017-10-07T07:53:18.000Z</time>
      </trkpt>
      <trkpt lat="43.43577" lon="6.64467">
        <ele>37.79</ele>
        <time>2017-10-07T07:53:23.000Z</time>
      </trkpt>
      <trkpt lat="43.43575" lon="6.6445">
        <ele>37.34</ele>
        <time>2017-10-07T07:53:28.000Z</time>
      </trkpt>
      <trkpt lat="43.43574" lon="6.64438">
        <ele>37.1</ele>
        <time>2017-10-07T07:53:34.000Z</time>
      </trkpt>
      <trkpt lat="43.43575" lon="6.64425">
        <ele>36.96</ele>
        <time>2017-10-07T07:53:40.000Z</time>
      </trkpt>
      <trkpt lat="43.43579" lon="6.64413">
        <ele>36.98</ele>
        <time>2017-10-07T07:53:47.000Z</time>
      </trkpt>
      <trkpt lat="43.43582" lon="6.644">
        <ele>37.25</ele>
        <time>2017-10-07T07:53:54.000Z</time>
      </trkpt>
      <trkpt lat="43.43582" lon="6.64387">
        <ele>37.67</ele>
        <time>2017-10-07T07:53:59.000Z</time>
      </trkpt>
      <trkpt lat="43.4358" lon="6.64375">
        <ele>38.19</ele>
        <time>2017-10-07T07:54:04.000Z</time>
      </trkpt>
      <trkpt lat="43.4358" lon="6.64362">
        <ele>38.84</ele>
        <time>2017-10-07T07:54:11.000Z</time>
      </trkpt>
      <trkpt lat="43.43582" lon="6.64349">
        <ele>39.39</ele>
        <time>2017-10-07T07:54:19.000Z</time>
      </trkpt>
      <trkpt lat="43.43583" lon="6.64334">
        <ele>39.96</ele>
        <time>2017-10-07T07:54:25.000Z</time>
      </trkpt>
      <trkpt lat="43.43586" lon="6.64321">
        <ele>40.33</ele>
        <time>2017-10-07T07:55:26.000Z</time>
      </trkpt>
      <trkpt lat="43.43593" lon="6.643">
        <ele>40.67</ele>
        <time>2017-10-07T07:55:31.000Z</time>
      </trkpt>
      <trkpt lat="43.43602" lon="6.64267">
        <ele>41</ele>
        <time>2017-10-07T07:55:36.000Z</time>
      </trkpt>
      <trkpt lat="43.43626" lon="6.64258">
        <ele>40</ele>
        <time>2017-10-07T07:55:41.000Z</time>
      </trkpt>
      <trkpt lat="43.43634" lon="6.64249">
        <ele>39.99</ele>
        <time>2017-10-07T07:55:46.000Z</time>
      </trkpt>
      <trkpt lat="43.43644" lon="6.64245">
        <ele>39.85</ele>
        <time>2017-10-07T07:55:51.000Z</time>
      </trkpt>
      <trkpt lat="43.43654" lon="6.64241">
        <ele>39.76</ele>
        <time>2017-10-07T07:55:57.000Z</time>
      </trkpt>
      <trkpt lat="43.43664" lon="6.64236">
        <ele>39.73</ele>
        <time>2017-10-07T07:56:02.000Z</time>
      </trkpt>
      <trkpt lat="43.43673" lon="6.64233">
        <ele>39.57</ele>
        <time>2017-10-07T07:56:07.000Z</time>
      </trkpt>
      <trkpt lat="43.43679" lon="6.64223">
        <ele>39.97</ele>
        <time>2017-10-07T07:56:12.000Z</time>
      </trkpt>
      <trkpt lat="43.43674" lon="6.64207">
        <ele>41.19</ele>
        <time>2017-10-07T07:56:17.000Z</time>
      </trkpt>
      <trkpt lat="43.43678" lon="6.64192">
        <ele>42.29</ele>
        <time>2017-10-07T07:56:24.000Z</time>
      </trkpt>
      <trkpt lat="43.43702" lon="6.64166">
        <ele>43.86</ele>
        <time>2017-10-07T07:56:28.999Z</time>
      </trkpt>
      <trkpt lat="43.43718" lon="6.64147">
        <ele>44.93</ele>
        <time>2017-10-07T07:56:33.000Z</time>
      </trkpt>
      <trkpt lat="43.43724" lon="6.64136">
        <ele>45.57</ele>
        <time>2017-10-07T07:56:38.000Z</time>
      </trkpt>
      <trkpt lat="43.43733" lon="6.64127">
        <ele>45.68</ele>
        <time>2017-10-07T07:56:43.000Z</time>
      </trkpt>
      <trkpt lat="43.43741" lon="6.64108">
        <ele>46.7</ele>
        <time>2017-10-07T07:56:48.000Z</time>
      </trkpt>
      <trkpt lat="43.43755" lon="6.64093">
        <ele>46.97</ele>
        <time>2017-10-07T07:56:53.000Z</time>
      </trkpt>
      <trkpt lat="43.4377" lon="6.64085">
        <ele>46.89</ele>
        <time>2017-10-07T07:56:58.000Z</time>
      </trkpt>
      <trkpt lat="43.43783" lon="6.64078">
        <ele>46.93</ele>
        <time>2017-10-07T07:57:03.000Z</time>
      </trkpt>
      <trkpt lat="43.43794" lon="6.64077">
        <ele>46.72</ele>
        <time>2017-10-07T07:57:08.000Z</time>
      </trkpt>
      <trkpt lat="43.43806" lon="6.64063">
        <ele>47.09</ele>
        <time>2017-10-07T07:57:13.000Z</time>
      </trkpt>
      <trkpt lat="43.43814" lon="6.64048">
        <ele>47.35</ele>
        <time>2017-10-07T07:57:18.000Z</time>
      </trkpt>
      <trkpt lat="43.43824" lon="6.64033">
        <ele>47.31</ele>
        <time>2017-10-07T07:57:23.000Z</time>
      </trkpt>
      <trkpt lat="43.43835" lon="6.64014">
        <ele>46.91</ele>
        <time>2017-10-07T07:57:28.000Z</time>
      </trkpt>
      <trkpt lat="43.43849" lon="6.63992">
        <ele>46.03</ele>
        <time>2017-10-07T07:57:33.000Z</time>
      </trkpt>
      <trkpt lat="43.43865" lon="6.63966">
        <ele>44.71</ele>
        <time>2017-10-07T07:57:38.000Z</time>
      </trkpt>
      <trkpt lat="43.43881" lon="6.63936">
        <ele>43.24</ele>
        <time>2017-10-07T07:57:43.000Z</time>
      </trkpt>
      <trkpt lat="43.439" lon="6.639">
        <ele>41.34</ele>
        <time>2017-10-07T07:57:48.000Z</time>
      </trkpt>
      <trkpt lat="43.43921" lon="6.63863">
        <ele>38.47</ele>
        <time>2017-10-07T07:57:53.000Z</time>
      </trkpt>
      <trkpt lat="43.43944" lon="6.63837">
        <ele>35.9</ele>
        <time>2017-10-07T07:57:58.000Z</time>
      </trkpt>
      <trkpt lat="43.43947" lon="6.63822">
        <ele>35.61</ele>
        <time>2017-10-07T07:58:03.000Z</time>
      </trkpt>
      <trkpt lat="43.43935" lon="6.63814">
        <ele>36.48</ele>
        <time>2017-10-07T07:58:08.000Z</time>
      </trkpt>
      <trkpt lat="43.43925" lon="6.63806">
        <ele>37.31</ele>
        <time>2017-10-07T07:58:13.000Z</time>
      </trkpt>
      <trkpt lat="43.43914" lon="6.638">
        <ele>38.2</ele>
        <time>2017-10-07T07:58:18.000Z</time>
      </trkpt>
      <trkpt lat="43.43896" lon="6.63794">
        <ele>39.5</ele>
        <time>2017-10-07T07:58:23.000Z</time>
      </trkpt>
      <trkpt lat="43.43885" lon="6.63789">
        <ele>40.35</ele>
        <time>2017-10-07T07:58:28.000Z</time>
      </trkpt>
      <trkpt lat="43.43873" lon="6.6378">
        <ele>41.48</ele>
        <time>2017-10-07T07:58:33.000Z</time>
      </trkpt>
      <trkpt lat="43.43861" lon="6.63774">
        <ele>42.74</ele>
        <time>2017-10-07T07:58:38.000Z</time>
      </trkpt>
      <trkpt lat="43.43849" lon="6.63763">
        <ele>44.46</ele>
        <time>2017-10-07T07:58:43.000Z</time>
      </trkpt>
      <trkpt lat="43.4384" lon="6.63754">
        <ele>45.88</ele>
        <time>2017-10-07T07:58:48.000Z</time>
      </trkpt>
      <trkpt lat="43.43829" lon="6.63752">
        <ele>47.47</ele>
        <time>2017-10-07T07:58:53.000Z</time>
      </trkpt>
      <trkpt lat="43.43818" lon="6.6375">
        <ele>49.01</ele>
        <time>2017-10-07T07:59:00.000Z</time>
      </trkpt>
      <trkpt lat="43.4381" lon="6.63744">
        <ele>50.76</ele>
        <time>2017-10-07T07:59:15.000Z</time>
      </trkpt>
      <trkpt lat="43.43801" lon="6.63739">
        <ele>52.48</ele>
        <time>2017-10-07T07:59:21.000Z</time>
      </trkpt>
      <trkpt lat="43.43791" lon="6.63733">
        <ele>54.49</ele>
        <time>2017-10-07T07:59:34.000Z</time>
      </trkpt>
      <trkpt lat="43.43782" lon="6.6373">
        <ele>56.27</ele>
        <time>2017-10-07T07:59:39.000Z</time>
      </trkpt>
      <trkpt lat="43.43772" lon="6.63726">
        <ele>58.02</ele>
        <time>2017-10-07T07:59:45.000Z</time>
      </trkpt>
      <trkpt lat="43.43762" lon="6.63726">
        <ele>59.58</ele>
        <time>2017-10-07T07:59:52.000Z</time>
      </trkpt>
      <trkpt lat="43.43753" lon="6.6373">
        <ele>60.61</ele>
        <time>2017-10-07T08:00:01.000Z</time>
      </trkpt>
      <trkpt lat="43.43744" lon="6.63732">
        <ele>61.87</ele>
        <time>2017-10-07T08:00:07.000Z</time>
      </trkpt>
      <trkpt lat="43.43735" lon="6.63736">
        <ele>62.95</ele>
        <time>2017-10-07T08:00:14.000Z</time>
      </trkpt>
      <trkpt lat="43.43727" lon="6.63746">
        <ele>63.79</ele>
        <time>2017-10-07T08:00:26.000Z</time>
      </trkpt>
      <trkpt lat="43.43718" lon="6.63749">
        <ele>65.2</ele>
        <time>2017-10-07T08:00:31.000Z</time>
      </trkpt>
      <trkpt lat="43.43708" lon="6.63752">
        <ele>66.79</ele>
        <time>2017-10-07T08:00:39.000Z</time>
      </trkpt>
      <trkpt lat="43.43699" lon="6.63748">
        <ele>68.33</ele>
        <time>2017-10-07T08:00:51.000Z</time>
      </trkpt>
      <trkpt lat="43.43691" lon="6.63741">
        <ele>69.65</ele>
        <time>2017-10-07T08:00:59.000Z</time>
      </trkpt>
      <trkpt lat="43.43679" lon="6.6374">
        <ele>71.43</ele>
        <time>2017-10-07T08:01:04.000Z</time>
      </trkpt>
      <trkpt lat="43.43671" lon="6.63734">
        <ele>72.64</ele>
        <time>2017-10-07T08:01:09.000Z</time>
      </trkpt>
      <trkpt lat="43.43664" lon="6.63725">
        <ele>73.75</ele>
        <time>2017-10-07T08:01:14.000Z</time>
      </trkpt>
      <trkpt lat="43.43657" lon="6.63715">
        <ele>75.04</ele>
        <time>2017-10-07T08:01:20.000Z</time>
      </trkpt>
      <trkpt lat="43.43646" lon="6.63711">
        <ele>76.55</ele>
        <time>2017-10-07T08:01:26.000Z</time>
      </trkpt>
      <trkpt lat="43.43636" lon="6.6371">
        <ele>77.9</ele>
        <time>2017-10-07T08:01:31.000Z</time>
      </trkpt>
      <trkpt lat="43.43625" lon="6.63709">
        <ele>79.33</ele>
        <time>2017-10-07T08:01:36.000Z</time>
      </trkpt>
      <trkpt lat="43.43615" lon="6.63704">
        <ele>80.47</ele>
        <time>2017-10-07T08:01:42.000Z</time>
      </trkpt>
      <trkpt lat="43.43606" lon="6.63701">
        <ele>81.32</ele>
        <time>2017-10-07T08:01:47.000Z</time>
      </trkpt>
      <trkpt lat="43.43598" lon="6.63696">
        <ele>81.98</ele>
        <time>2017-10-07T08:01:52.000Z</time>
      </trkpt>
      <trkpt lat="43.43588" lon="6.63692">
        <ele>82.38</ele>
        <time>2017-10-07T08:01:58.000Z</time>
      </trkpt>
      <trkpt lat="43.43583" lon="6.63681">
        <ele>82.94</ele>
        <time>2017-10-07T08:02:04.000Z</time>
      </trkpt>
      <trkpt lat="43.43575" lon="6.63674">
        <ele>83.06</ele>
        <time>2017-10-07T08:02:09.000Z</time>
      </trkpt>
      <trkpt lat="43.43564" lon="6.63664">
        <ele>82.96</ele>
        <time>2017-10-07T08:02:14.000Z</time>
      </trkpt>
      <trkpt lat="43.43555" lon="6.63656">
        <ele>82.88</ele>
        <time>2017-10-07T08:02:19.000Z</time>
      </trkpt>
      <trkpt lat="43.43545" lon="6.63647">
        <ele>82.7</ele>
        <time>2017-10-07T08:02:24.000Z</time>
      </trkpt>
      <trkpt lat="43.43536" lon="6.63637">
        <ele>82.65</ele>
        <time>2017-10-07T08:02:29.000Z</time>
      </trkpt>
      <trkpt lat="43.43528" lon="6.63629">
        <ele>82.74</ele>
        <time>2017-10-07T08:03:01.000Z</time>
      </trkpt>
      <trkpt lat="43.43522" lon="6.63617">
        <ele>83.6</ele>
        <time>2017-10-07T08:03:06.000Z</time>
      </trkpt>
      <trkpt lat="43.43516" lon="6.636">
        <ele>85</ele>
        <time>2017-10-07T08:03:11.000Z</time>
      </trkpt>
      <trkpt lat="43.43508" lon="6.63582">
        <ele>86.22</ele>
        <time>2017-10-07T08:03:16.000Z</time>
      </trkpt>
      <trkpt lat="43.43501" lon="6.63563">
        <ele>87.24</ele>
        <time>2017-10-07T08:03:21.000Z</time>
      </trkpt>
      <trkpt lat="43.43496" lon="6.63543">
        <ele>88.66</ele>
        <time>2017-10-07T08:03:26.000Z</time>
      </trkpt>
      <trkpt lat="43.43491" lon="6.63529">
        <ele>89.39</ele>
        <time>2017-10-07T08:03:31.000Z</time>
      </trkpt>
      <trkpt lat="43.43486" lon="6.63515">
        <ele>89.98</ele>
        <time>2017-10-07T08:03:36.000Z</time>
      </trkpt>
      <trkpt lat="43.4348" lon="6.63502">
        <ele>90.21</ele>
        <time>2017-10-07T08:03:41.000Z</time>
      </trkpt>
      <trkpt lat="43.43488" lon="6.63512">
        <ele>90.49</ele>
        <time>2017-10-07T08:03:55.000Z</time>
      </trkpt>
      <trkpt lat="43.43495" lon="6.63523">
        <ele>90.44</ele>
        <time>2017-10-07T08:04:00.000Z</time>
      </trkpt>
      <trkpt lat="43.43512" lon="6.63532">
        <ele>91.72</ele>
        <time>2017-10-07T08:04:05.000Z</time>
      </trkpt>
      <trkpt lat="43.43518" lon="6.63551">
        <ele>90.82</ele>
        <time>2017-10-07T08:04:10.000Z</time>
      </trkpt>
      <trkpt lat="43.43522" lon="6.63568">
        <ele>89.6</ele>
        <time>2017-10-07T08:04:15.000Z</time>
      </trkpt>
      <trkpt lat="43.43531" lon="6.63584">
        <ele>89.35</ele>
        <time>2017-10-07T08:04:20.000Z</time>
      </trkpt>
      <trkpt lat="43.43543" lon="6.63598">
        <ele>89.49</ele>
        <time>2017-10-07T08:04:25.000Z</time>
      </trkpt>
      <trkpt lat="43.43552" lon="6.63614">
        <ele>88.34</ele>
        <time>2017-10-07T08:04:30.000Z</time>
      </trkpt>
      <trkpt lat="43.43577" lon="6.63625">
        <ele>89.27</ele>
        <time>2017-10-07T08:04:35.000Z</time>
      </trkpt>
      <trkpt lat="43.43591" lon="6.63651">
        <ele>85.77</ele>
        <time>2017-10-07T08:04:40.000Z</time>
      </trkpt>
      <trkpt lat="43.4361" lon="6.63639">
        <ele>87.21</ele>
        <time>2017-10-07T08:04:45.000Z</time>
      </trkpt>
      <trkpt lat="43.43628" lon="6.63635">
        <ele>87.05</ele>
        <time>2017-10-07T08:04:50.000Z</time>
      </trkpt>
      <trkpt lat="43.43641" lon="6.6365">
        <ele>83.21</ele>
        <time>2017-10-07T08:04:55.000Z</time>
      </trkpt>
      <trkpt lat="43.43654" lon="6.63654">
        <ele>81.16</ele>
        <time>2017-10-07T08:05:00.000Z</time>
      </trkpt>
      <trkpt lat="43.43674" lon="6.63652">
        <ele>79.5</ele>
        <time>2017-10-07T08:05:05.000Z</time>
      </trkpt>
      <trkpt lat="43.43687" lon="6.63646">
        <ele>79.28</ele>
        <time>2017-10-07T08:05:10.000Z</time>
      </trkpt>
      <trkpt lat="43.43701" lon="6.63627">
        <ele>81.36</ele>
        <time>2017-10-07T08:05:15.000Z</time>
      </trkpt>
      <trkpt lat="43.43719" lon="6.63603">
        <ele>82.95</ele>
        <time>2017-10-07T08:05:20.000Z</time>
      </trkpt>
      <trkpt lat="43.4373" lon="6.63579">
        <ele>84.85</ele>
        <time>2017-10-07T08:05:25.000Z</time>
      </trkpt>
      <trkpt lat="43.43736" lon="6.63549">
        <ele>88.14</ele>
        <time>2017-10-07T08:05:30.000Z</time>
      </trkpt>
      <trkpt lat="43.43754" lon="6.63543">
        <ele>84.91</ele>
        <time>2017-10-07T08:05:35.000Z</time>
      </trkpt>
      <trkpt lat="43.43772" lon="6.63527">
        <ele>82.34</ele>
        <time>2017-10-07T08:05:40.000Z</time>
      </trkpt>
      <trkpt lat="43.4379" lon="6.635">
        <ele>79.84</ele>
        <time>2017-10-07T08:05:45.000Z</time>
      </trkpt>
      <trkpt lat="43.43799" lon="6.63468">
        <ele>79.18</ele>
        <time>2017-10-07T08:05:50.000Z</time>
      </trkpt>
      <trkpt lat="43.43802" lon="6.63431">
        <ele>79.61</ele>
        <time>2017-10-07T08:05:55.000Z</time>
      </trkpt>
      <trkpt lat="43.43802" lon="6.63397">
        <ele>81.42</ele>
        <time>2017-10-07T08:06:00.000Z</time>
      </trkpt>
      <trkpt lat="43.43809" lon="6.63382">
        <ele>79.76</ele>
        <time>2017-10-07T08:06:05.000Z</time>
      </trkpt>
      <trkpt lat="43.43821" lon="6.63387">
        <ele>75.98</ele>
        <time>2017-10-07T08:06:10.000Z</time>
      </trkpt>
      <trkpt lat="43.43845" lon="6.63374">
        <ele>71.12</ele>
        <time>2017-10-07T08:06:15.000Z</time>
      </trkpt>
      <trkpt lat="43.43873" lon="6.6337">
        <ele>66.27</ele>
        <time>2017-10-07T08:06:20.000Z</time>
      </trkpt>
      <trkpt lat="43.4389" lon="6.63355">
        <ele>64.73</ele>
        <time>2017-10-07T08:06:25.000Z</time>
      </trkpt>
      <trkpt lat="43.43907" lon="6.63334">
        <ele>63.58</ele>
        <time>2017-10-07T08:06:30.000Z</time>
      </trkpt>
      <trkpt lat="43.43922" lon="6.63338">
        <ele>60.83</ele>
        <time>2017-10-07T08:06:35.000Z</time>
      </trkpt>
      <trkpt lat="43.43935" lon="6.63355">
        <ele>57.46</ele>
        <time>2017-10-07T08:06:40.000Z</time>
      </trkpt>
      <trkpt lat="43.43951" lon="6.6337">
        <ele>53.77</ele>
        <time>2017-10-07T08:06:45.000Z</time>
      </trkpt>
      <trkpt lat="43.43969" lon="6.63383">
        <ele>50.23</ele>
        <time>2017-10-07T08:06:50.000Z</time>
      </trkpt>
      <trkpt lat="43.43981" lon="6.63402">
        <ele>47.51</ele>
        <time>2017-10-07T08:06:55.000Z</time>
      </trkpt>
      <trkpt lat="43.43993" lon="6.63414">
        <ele>45.74</ele>
        <time>2017-10-07T08:07:00.000Z</time>
      </trkpt>
      <trkpt lat="43.43999" lon="6.63424">
        <ele>44.79</ele>
        <time>2017-10-07T08:07:06.000Z</time>
      </trkpt>
      <trkpt lat="43.44009" lon="6.63435">
        <ele>43.71</ele>
        <time>2017-10-07T08:07:11.000Z</time>
      </trkpt>
      <trkpt lat="43.44022" lon="6.6344">
        <ele>42.99</ele>
        <time>2017-10-07T08:07:16.000Z</time>
      </trkpt>
      <trkpt lat="43.44032" lon="6.63438">
        <ele>42.81</ele>
        <time>2017-10-07T08:07:45.000Z</time>
      </trkpt>
      <trkpt lat="43.44032" lon="6.63454">
        <ele>42.21</ele>
        <time>2017-10-07T08:08:47.000Z</time>
      </trkpt>
      <trkpt lat="43.44026" lon="6.63475">
        <ele>41.51</ele>
        <time>2017-10-07T08:08:52.000Z</time>
      </trkpt>
      <trkpt lat="43.44052" lon="6.63504">
        <ele>40.03</ele>
        <time>2017-10-07T08:08:57.000Z</time>
      </trkpt>
      <trkpt lat="43.44078" lon="6.63546">
        <ele>38.37</ele>
        <time>2017-10-07T08:09:02.000Z</time>
      </trkpt>
      <trkpt lat="43.44102" lon="6.63579">
        <ele>37.32</ele>
        <time>2017-10-07T08:09:07.000Z</time>
      </trkpt>
      <trkpt lat="43.44116" lon="6.636">
        <ele>37.06</ele>
        <time>2017-10-07T08:09:12.000Z</time>
      </trkpt>
      <trkpt lat="43.44128" lon="6.63621">
        <ele>36.9</ele>
        <time>2017-10-07T08:09:17.000Z</time>
      </trkpt>
      <trkpt lat="43.44137" lon="6.63635">
        <ele>36.89</ele>
        <time>2017-10-07T08:09:22.000Z</time>
      </trkpt>
      <trkpt lat="43.4414" lon="6.63657">
        <ele>36.28</ele>
        <time>2017-10-07T08:09:27.000Z</time>
      </trkpt>
      <trkpt lat="43.44146" lon="6.63669">
        <ele>36.03</ele>
        <time>2017-10-07T08:09:36.000Z</time>
      </trkpt>
      <trkpt lat="43.44155" lon="6.63686">
        <ele>35.64</ele>
        <time>2017-10-07T08:09:41.000Z</time>
      </trkpt>
      <trkpt lat="43.44163" lon="6.63694">
        <ele>35.51</ele>
        <time>2017-10-07T08:09:46.000Z</time>
      </trkpt>
      <trkpt lat="43.44173" lon="6.63695">
        <ele>35.81</ele>
        <time>2017-10-07T08:09:51.000Z</time>
      </trkpt>
      <trkpt lat="43.44191" lon="6.63703">
        <ele>35.9</ele>
        <time>2017-10-07T08:09:56.000Z</time>
      </trkpt>
      <trkpt lat="43.44207" lon="6.63708">
        <ele>36.03</ele>
        <time>2017-10-07T08:10:01.000Z</time>
      </trkpt>
      <trkpt lat="43.44226" lon="6.63712">
        <ele>36.22</ele>
        <time>2017-10-07T08:10:06.000Z</time>
      </trkpt>
      <trkpt lat="43.44237" lon="6.63721">
        <ele>35.52</ele>
        <time>2017-10-07T08:10:11.000Z</time>
      </trkpt>
      <trkpt lat="43.4425" lon="6.63729">
        <ele>34.93</ele>
        <time>2017-10-07T08:10:16.000Z</time>
      </trkpt>
      <trkpt lat="43.44264" lon="6.63729">
        <ele>35.04</ele>
        <time>2017-10-07T08:10:21.000Z</time>
      </trkpt>
      <trkpt lat="43.44273" lon="6.63734">
        <ele>34.74</ele>
        <time>2017-10-07T08:10:27.000Z</time>
      </trkpt>
      <trkpt lat="43.44264" lon="6.63728">
        <ele>35.14</ele>
        <time>2017-10-07T08:11:06.000Z</time>
      </trkpt>
      <trkpt lat="43.44255" lon="6.63723">
        <ele>35.5</ele>
        <time>2017-10-07T08:11:21.000Z</time>
      </trkpt>
      <trkpt lat="43.44264" lon="6.63726">
        <ele>35.27</ele>
        <time>2017-10-07T08:13:35.000Z</time>
      </trkpt>
      <trkpt lat="43.44255" lon="6.63727">
        <ele>35.16</ele>
        <time>2017-10-07T08:14:16.000Z</time>
      </trkpt>
      <trkpt lat="43.44245" lon="6.63716">
        <ele>36.08</ele>
        <time>2017-10-07T08:14:21.000Z</time>
      </trkpt>
      <trkpt lat="43.44241" lon="6.63702">
        <ele>37.2</ele>
        <time>2017-10-07T08:14:26.000Z</time>
      </trkpt>
      <trkpt lat="43.44232" lon="6.63693">
        <ele>37.77</ele>
        <time>2017-10-07T08:14:31.000Z</time>
      </trkpt>
      <trkpt lat="43.44218" lon="6.63692">
        <ele>37.55</ele>
        <time>2017-10-07T08:14:36.000Z</time>
      </trkpt>
      <trkpt lat="43.442" lon="6.63691">
        <ele>37.05</ele>
        <time>2017-10-07T08:14:41.000Z</time>
      </trkpt>
      <trkpt lat="43.44184" lon="6.63694">
        <ele>36.23</ele>
        <time>2017-10-07T08:14:46.000Z</time>
      </trkpt>
      <trkpt lat="43.44172" lon="6.63698">
        <ele>35.61</ele>
        <time>2017-10-07T08:14:51.000Z</time>
      </trkpt>
      <trkpt lat="43.44159" lon="6.63697">
        <ele>35.18</ele>
        <time>2017-10-07T08:14:56.000Z</time>
      </trkpt>
      <trkpt lat="43.44152" lon="6.63683">
        <ele>35.63</ele>
        <time>2017-10-07T08:15:01.000Z</time>
      </trkpt>
      <trkpt lat="43.44142" lon="6.6367">
        <ele>35.82</ele>
        <time>2017-10-07T08:15:06.000Z</time>
      </trkpt>
      <trkpt lat="43.4414" lon="6.63653">
        <ele>36.45</ele>
        <time>2017-10-07T08:15:11.000Z</time>
      </trkpt>
      <trkpt lat="43.44136" lon="6.63638">
        <ele>36.75</ele>
        <time>2017-10-07T08:15:16.000Z</time>
      </trkpt>
      <trkpt lat="43.44126" lon="6.63619">
        <ele>36.86</ele>
        <time>2017-10-07T08:15:21.000Z</time>
      </trkpt>
      <trkpt lat="43.44113" lon="6.636">
        <ele>36.94</ele>
        <time>2017-10-07T08:15:26.000Z</time>
      </trkpt>
      <trkpt lat="43.44099" lon="6.63586">
        <ele>37.01</ele>
        <time>2017-10-07T08:15:31.000Z</time>
      </trkpt>
      <trkpt lat="43.44087" lon="6.63569">
        <ele>37.48</ele>
        <time>2017-10-07T08:15:36.000Z</time>
      </trkpt>
      <trkpt lat="43.44078" lon="6.63548">
        <ele>38.32</ele>
        <time>2017-10-07T08:15:41.000Z</time>
      </trkpt>
      <trkpt lat="43.44068" lon="6.63531">
        <ele>38.99</ele>
        <time>2017-10-07T08:15:46.000Z</time>
      </trkpt>
      <trkpt lat="43.44059" lon="6.6352">
        <ele>39.46</ele>
        <time>2017-10-07T08:15:51.000Z</time>
      </trkpt>
      <trkpt lat="43.4405" lon="6.63504">
        <ele>40.06</ele>
        <time>2017-10-07T08:15:56.000Z</time>
      </trkpt>
      <trkpt lat="43.4404" lon="6.63487">
        <ele>40.76</ele>
        <time>2017-10-07T08:16:01.000Z</time>
      </trkpt>
      <trkpt lat="43.4403" lon="6.6347">
        <ele>41.62</ele>
        <time>2017-10-07T08:16:06.000Z</time>
      </trkpt>
      <trkpt lat="43.44021" lon="6.63456">
        <ele>42.39</ele>
        <time>2017-10-07T08:16:11.000Z</time>
      </trkpt>
      <trkpt lat="43.44015" lon="6.63441">
        <ele>43.16</ele>
        <time>2017-10-07T08:16:16.000Z</time>
      </trkpt>
      <trkpt lat="43.44008" lon="6.63427">
        <ele>44.05</ele>
        <time>2017-10-07T08:16:21.000Z</time>
      </trkpt>
      <trkpt lat="43.44002" lon="6.63415">
        <ele>44.89</ele>
        <time>2017-10-07T08:16:26.000Z</time>
      </trkpt>
      <trkpt lat="43.43998" lon="6.63402">
        <ele>45.81</ele>
        <time>2017-10-07T08:16:31.000Z</time>
      </trkpt>
      <trkpt lat="43.43994" lon="6.63385">
        <ele>46.99</ele>
        <time>2017-10-07T08:16:36.000Z</time>
      </trkpt>
      <trkpt lat="43.43992" lon="6.63367">
        <ele>48.13</ele>
        <time>2017-10-07T08:16:41.000Z</time>
      </trkpt>
      <trkpt lat="43.43991" lon="6.63353">
        <ele>49.01</ele>
        <time>2017-10-07T08:16:46.000Z</time>
      </trkpt>
      <trkpt lat="43.43991" lon="6.63337">
        <ele>49.88</ele>
        <time>2017-10-07T08:16:51.000Z</time>
      </trkpt>
      <trkpt lat="43.43989" lon="6.63322">
        <ele>51.03</ele>
        <time>2017-10-07T08:16:56.000Z</time>
      </trkpt>
      <trkpt lat="43.43984" lon="6.63309">
        <ele>52.42</ele>
        <time>2017-10-07T08:17:01.000Z</time>
      </trkpt>
      <trkpt lat="43.43977" lon="6.63297">
        <ele>53.98</ele>
        <time>2017-10-07T08:17:06.000Z</time>
      </trkpt>
      <trkpt lat="43.43972" lon="6.63284">
        <ele>55.4</ele>
        <time>2017-10-07T08:17:11.000Z</time>
      </trkpt>
      <trkpt lat="43.43965" lon="6.63274">
        <ele>56.99</ele>
        <time>2017-10-07T08:17:16.000Z</time>
      </trkpt>
      <trkpt lat="43.43958" lon="6.63265">
        <ele>58.73</ele>
        <time>2017-10-07T08:17:21.000Z</time>
      </trkpt>
      <trkpt lat="43.43951" lon="6.63256">
        <ele>60.48</ele>
        <time>2017-10-07T08:17:26.000Z</time>
      </trkpt>
      <trkpt lat="43.43945" lon="6.63244">
        <ele>62.07</ele>
        <time>2017-10-07T08:17:32.000Z</time>
      </trkpt>
      <trkpt lat="43.43939" lon="6.63232">
        <ele>63.67</ele>
        <time>2017-10-07T08:17:38.000Z</time>
      </trkpt>
      <trkpt lat="43.43935" lon="6.63219">
        <ele>64.85</ele>
        <time>2017-10-07T08:17:43.000Z</time>
      </trkpt>
      <trkpt lat="43.43932" lon="6.63206">
        <ele>65.77</ele>
        <time>2017-10-07T08:17:48.000Z</time>
      </trkpt>
      <trkpt lat="43.43929" lon="6.63192">
        <ele>66.74</ele>
        <time>2017-10-07T08:17:53.000Z</time>
      </trkpt>
      <trkpt lat="43.43926" lon="6.63178">
        <ele>67.79</ele>
        <time>2017-10-07T08:17:58.000Z</time>
      </trkpt>
      <trkpt lat="43.4392" lon="6.63167">
        <ele>69.5</ele>
        <time>2017-10-07T08:18:03.000Z</time>
      </trkpt>
      <trkpt lat="43.43911" lon="6.63155">
        <ele>72.08</ele>
        <time>2017-10-07T08:18:08.000Z</time>
      </trkpt>
      <trkpt lat="43.43903" lon="6.63144">
        <ele>74.72</ele>
        <time>2017-10-07T08:18:13.000Z</time>
      </trkpt>
      <trkpt lat="43.43897" lon="6.63134">
        <ele>76.76</ele>
        <time>2017-10-07T08:18:18.000Z</time>
      </trkpt>
      <trkpt lat="43.43899" lon="6.63121">
        <ele>77.69</ele>
        <time>2017-10-07T08:18:24.000Z</time>
      </trkpt>
      <trkpt lat="43.43909" lon="6.63126">
        <ele>75.68</ele>
        <time>2017-10-07T08:18:30.000Z</time>
      </trkpt>
      <trkpt lat="43.4392" lon="6.6313">
        <ele>73.66</ele>
        <time>2017-10-07T08:18:35.000Z</time>
      </trkpt>
      <trkpt lat="43.4393" lon="6.63136">
        <ele>71.9</ele>
        <time>2017-10-07T08:18:40.000Z</time>
      </trkpt>
      <trkpt lat="43.43939" lon="6.6314">
        <ele>70.75</ele>
        <time>2017-10-07T08:18:46.000Z</time>
      </trkpt>
      <trkpt lat="43.4394" lon="6.63126">
        <ele>72.88</ele>
        <time>2017-10-07T08:18:51.000Z</time>
      </trkpt>
      <trkpt lat="43.43932" lon="6.63114">
        <ele>75.01</ele>
        <time>2017-10-07T08:18:56.000Z</time>
      </trkpt>
      <trkpt lat="43.43926" lon="6.63103">
        <ele>76.88</ele>
        <time>2017-10-07T08:19:01.000Z</time>
      </trkpt>
      <trkpt lat="43.43918" lon="6.63091">
        <ele>78.97</ele>
        <time>2017-10-07T08:19:06.000Z</time>
      </trkpt>
      <trkpt lat="43.43909" lon="6.63082">
        <ele>80.85</ele>
        <time>2017-10-07T08:19:11.000Z</time>
      </trkpt>
      <trkpt lat="43.43899" lon="6.63075">
        <ele>82.43</ele>
        <time>2017-10-07T08:19:16.000Z</time>
      </trkpt>
      <trkpt lat="43.43889" lon="6.63068">
        <ele>84.02</ele>
        <time>2017-10-07T08:19:21.000Z</time>
      </trkpt>
      <trkpt lat="43.43879" lon="6.63059">
        <ele>85.81</ele>
        <time>2017-10-07T08:19:26.000Z</time>
      </trkpt>
      <trkpt lat="43.43869" lon="6.63053">
        <ele>87.49</ele>
        <time>2017-10-07T08:19:31.000Z</time>
      </trkpt>
      <trkpt lat="43.43858" lon="6.63047">
        <ele>89.42</ele>
        <time>2017-10-07T08:19:36.000Z</time>
      </trkpt>
      <trkpt lat="43.43849" lon="6.63041">
        <ele>91.44</ele>
        <time>2017-10-07T08:19:41.000Z</time>
      </trkpt>
      <trkpt lat="43.43841" lon="6.63036">
        <ele>93.39</ele>
        <time>2017-10-07T08:19:46.000Z</time>
      </trkpt>
      <trkpt lat="43.43831" lon="6.63034">
        <ele>95.29</ele>
        <time>2017-10-07T08:19:51.000Z</time>
      </trkpt>
      <trkpt lat="43.4382" lon="6.63041">
        <ele>96.41</ele>
        <time>2017-10-07T08:19:56.000Z</time>
      </trkpt>
      <trkpt lat="43.43816" lon="6.63061">
        <ele>95.52</ele>
        <time>2017-10-07T08:20:01.000Z</time>
      </trkpt>
      <trkpt lat="43.43815" lon="6.63081">
        <ele>94.69</ele>
        <time>2017-10-07T08:20:06.000Z</time>
      </trkpt>
      <trkpt lat="43.43816" lon="6.63101">
        <ele>94.8</ele>
        <time>2017-10-07T08:20:11.000Z</time>
      </trkpt>
      <trkpt lat="43.43819" lon="6.63119">
        <ele>95.37</ele>
        <time>2017-10-07T08:20:16.000Z</time>
      </trkpt>
      <trkpt lat="43.43824" lon="6.63138">
        <ele>95.81</ele>
        <time>2017-10-07T08:20:21.000Z</time>
      </trkpt>
      <trkpt lat="43.43825" lon="6.63156">
        <ele>96.71</ele>
        <time>2017-10-07T08:20:26.000Z</time>
      </trkpt>
      <trkpt lat="43.43822" lon="6.63171">
        <ele>97.66</ele>
        <time>2017-10-07T08:20:31.000Z</time>
      </trkpt>
      <trkpt lat="43.43824" lon="6.63187">
        <ele>96.56</ele>
        <time>2017-10-07T08:20:36.000Z</time>
      </trkpt>
      <trkpt lat="43.43821" lon="6.63203">
        <ele>96.51</ele>
        <time>2017-10-07T08:20:41.000Z</time>
      </trkpt>
      <trkpt lat="43.43816" lon="6.63191">
        <ele>98.97</ele>
        <time>2017-10-07T08:20:49.000Z</time>
      </trkpt>
      <trkpt lat="43.43815" lon="6.63177">
        <ele>99.94</ele>
        <time>2017-10-07T08:20:56.000Z</time>
      </trkpt>
      <trkpt lat="43.43811" lon="6.63166">
        <ele>101.74</ele>
        <time>2017-10-07T08:21:01.000Z</time>
      </trkpt>
      <trkpt lat="43.43805" lon="6.63155">
        <ele>103.55</ele>
        <time>2017-10-07T08:21:07.000Z</time>
      </trkpt>
      <trkpt lat="43.438" lon="6.63142">
        <ele>104.36</ele>
        <time>2017-10-07T08:21:12.000Z</time>
      </trkpt>
      <trkpt lat="43.43796" lon="6.6313">
        <ele>104.75</ele>
        <time>2017-10-07T08:21:17.000Z</time>
      </trkpt>
      <trkpt lat="43.4379" lon="6.63118">
        <ele>105.57</ele>
        <time>2017-10-07T08:21:22.000Z</time>
      </trkpt>
      <trkpt lat="43.43784" lon="6.63107">
        <ele>106.38</ele>
        <time>2017-10-07T08:21:27.000Z</time>
      </trkpt>
      <trkpt lat="43.43782" lon="6.63094">
        <ele>106.05</ele>
        <time>2017-10-07T08:21:34.000Z</time>
      </trkpt>
      <trkpt lat="43.43778" lon="6.6308">
        <ele>106.74</ele>
        <time>2017-10-07T08:21:40.000Z</time>
      </trkpt>
      <trkpt lat="43.43773" lon="6.63065">
        <ele>107.75</ele>
        <time>2017-10-07T08:21:45.000Z</time>
      </trkpt>
      <trkpt lat="43.43769" lon="6.63053">
        <ele>108.58</ele>
        <time>2017-10-07T08:21:50.000Z</time>
      </trkpt>
      <trkpt lat="43.43765" lon="6.63037">
        <ele>109.3</ele>
        <time>2017-10-07T08:21:55.000Z</time>
      </trkpt>
      <trkpt lat="43.4376" lon="6.63024">
        <ele>110.04</ele>
        <time>2017-10-07T08:22:00.000Z</time>
      </trkpt>
      <trkpt lat="43.43757" lon="6.63012">
        <ele>110.4</ele>
        <time>2017-10-07T08:22:08.000Z</time>
      </trkpt>
      <trkpt lat="43.4375" lon="6.63004">
        <ele>110.98</ele>
        <time>2017-10-07T08:26:21.000Z</time>
      </trkpt>
      <trkpt lat="43.43748" lon="6.62991">
        <ele>111.23</ele>
        <time>2017-10-07T08:26:47.000Z</time>
      </trkpt>
      <trkpt lat="43.43741" lon="6.62982">
        <ele>111.41</ele>
        <time>2017-10-07T08:26:52.000Z</time>
      </trkpt>
      <trkpt lat="43.43732" lon="6.62972">
        <ele>110.98</ele>
        <time>2017-10-07T08:26:57.000Z</time>
      </trkpt>
      <trkpt lat="43.43725" lon="6.62958">
        <ele>110.14</ele>
        <time>2017-10-07T08:27:02.000Z</time>
      </trkpt>
      <trkpt lat="43.43718" lon="6.62943">
        <ele>108.63</ele>
        <time>2017-10-07T08:27:07.000Z</time>
      </trkpt>
      <trkpt lat="43.43714" lon="6.62928">
        <ele>107.31</ele>
        <time>2017-10-07T08:27:12.000Z</time>
      </trkpt>
      <trkpt lat="43.43714" lon="6.62915">
        <ele>107.01</ele>
        <time>2017-10-07T08:27:18.000Z</time>
      </trkpt>
      <trkpt lat="43.43705" lon="6.62901">
        <ele>103.33</ele>
        <time>2017-10-07T08:27:23.000Z</time>
      </trkpt>
      <trkpt lat="43.43695" lon="6.62882">
        <ele>99.34</ele>
        <time>2017-10-07T08:27:28.000Z</time>
      </trkpt>
      <trkpt lat="43.43687" lon="6.6286">
        <ele>95.53</ele>
        <time>2017-10-07T08:27:33.000Z</time>
      </trkpt>
      <trkpt lat="43.4368" lon="6.62839">
        <ele>92.45</ele>
        <time>2017-10-07T08:27:38.000Z</time>
      </trkpt>
      <trkpt lat="43.4367" lon="6.62827">
        <ele>88.84</ele>
        <time>2017-10-07T08:27:43.000Z</time>
      </trkpt>
      <trkpt lat="43.43659" lon="6.62814">
        <ele>85.19</ele>
        <time>2017-10-07T08:27:48.000Z</time>
      </trkpt>
      <trkpt lat="43.43659" lon="6.62797">
        <ele>85.29</ele>
        <time>2017-10-07T08:27:53.000Z</time>
      </trkpt>
      <trkpt lat="43.43659" lon="6.62784">
        <ele>85.33</ele>
        <time>2017-10-07T08:27:59.000Z</time>
      </trkpt>
      <trkpt lat="43.43651" lon="6.62771">
        <ele>83.1</ele>
        <time>2017-10-07T08:28:04.000Z</time>
      </trkpt>
      <trkpt lat="43.43642" lon="6.6276">
        <ele>80.66</ele>
        <time>2017-10-07T08:28:09.000Z</time>
      </trkpt>
      <trkpt lat="43.43635" lon="6.6275">
        <ele>78.6</ele>
        <time>2017-10-07T08:28:15.000Z</time>
      </trkpt>
      <trkpt lat="43.4363" lon="6.62737">
        <ele>76.67</ele>
        <time>2017-10-07T08:28:20.000Z</time>
      </trkpt>
      <trkpt lat="43.43624" lon="6.62719">
        <ele>73.76</ele>
        <time>2017-10-07T08:28:25.000Z</time>
      </trkpt>
      <trkpt lat="43.43623" lon="6.62703">
        <ele>72.17</ele>
        <time>2017-10-07T08:28:30.000Z</time>
      </trkpt>
      <trkpt lat="43.43628" lon="6.62691">
        <ele>72.26</ele>
        <time>2017-10-07T08:28:35.000Z</time>
      </trkpt>
      <trkpt lat="43.43634" lon="6.6268">
        <ele>72.8</ele>
        <time>2017-10-07T08:28:41.000Z</time>
      </trkpt>
      <trkpt lat="43.43639" lon="6.62668">
        <ele>72.91</ele>
        <time>2017-10-07T08:28:47.000Z</time>
      </trkpt>
      <trkpt lat="43.43633" lon="6.62654">
        <ele>69.18</ele>
        <time>2017-10-07T08:28:52.000Z</time>
      </trkpt>
      <trkpt lat="43.43626" lon="6.62641">
        <ele>64.7</ele>
        <time>2017-10-07T08:28:57.000Z</time>
      </trkpt>
      <trkpt lat="43.43618" lon="6.62629">
        <ele>59.56</ele>
        <time>2017-10-07T08:29:02.000Z</time>
      </trkpt>
      <trkpt lat="43.43612" lon="6.62618">
        <ele>55.79</ele>
        <time>2017-10-07T08:29:07.000Z</time>
      </trkpt>
      <trkpt lat="43.43608" lon="6.62605">
        <ele>52.01</ele>
        <time>2017-10-07T08:29:12.000Z</time>
      </trkpt>
      <trkpt lat="43.43606" lon="6.62592">
        <ele>49.35</ele>
        <time>2017-10-07T08:29:18.000Z</time>
      </trkpt>
      <trkpt lat="43.43607" lon="6.62574">
        <ele>46.93</ele>
        <time>2017-10-07T08:29:23.000Z</time>
      </trkpt>
      <trkpt lat="43.43608" lon="6.62561">
        <ele>45.16</ele>
        <time>2017-10-07T08:29:28.000Z</time>
      </trkpt>
      <trkpt lat="43.43615" lon="6.62551">
        <ele>45.18</ele>
        <time>2017-10-07T08:29:34.000Z</time>
      </trkpt>
      <trkpt lat="43.43623" lon="6.62532">
        <ele>43.79</ele>
        <time>2017-10-07T08:29:39.000Z</time>
      </trkpt>
      <trkpt lat="43.43628" lon="6.6252">
        <ele>42.94</ele>
        <time>2017-10-07T08:29:45.000Z</time>
      </trkpt>
      <trkpt lat="43.43633" lon="6.62505">
        <ele>41.45</ele>
        <time>2017-10-07T08:29:50.000Z</time>
      </trkpt>
      <trkpt lat="43.43641" lon="6.62496">
        <ele>41.46</ele>
        <time>2017-10-07T08:29:55.000Z</time>
      </trkpt>
      <trkpt lat="43.43644" lon="6.62481">
        <ele>39.45</ele>
        <time>2017-10-07T08:30:00.000Z</time>
      </trkpt>
      <trkpt lat="43.43651" lon="6.62471">
        <ele>38.09</ele>
        <time>2017-10-07T08:31:08.000Z</time>
      </trkpt>
      <trkpt lat="43.43658" lon="6.62453">
        <ele>35.17</ele>
        <time>2017-10-07T08:31:13.000Z</time>
      </trkpt>
      <trkpt lat="43.43659" lon="6.62433">
        <ele>32.07</ele>
        <time>2017-10-07T08:31:18.000Z</time>
      </trkpt>
      <trkpt lat="43.43662" lon="6.62415">
        <ele>30.01</ele>
        <time>2017-10-07T08:31:23.000Z</time>
      </trkpt>
      <trkpt lat="43.43664" lon="6.62397">
        <ele>29.28</ele>
        <time>2017-10-07T08:31:28.000Z</time>
      </trkpt>
      <trkpt lat="43.43665" lon="6.62384">
        <ele>29.41</ele>
        <time>2017-10-07T08:31:35.000Z</time>
      </trkpt>
      <trkpt lat="43.43667" lon="6.6237">
        <ele>29.8</ele>
        <time>2017-10-07T08:31:40.000Z</time>
      </trkpt>
      <trkpt lat="43.43671" lon="6.62357">
        <ele>30.02</ele>
        <time>2017-10-07T08:31:47.000Z</time>
      </trkpt>
      <trkpt lat="43.43678" lon="6.62348">
        <ele>29.65</ele>
        <time>2017-10-07T08:32:01.000Z</time>
      </trkpt>
      <trkpt lat="43.43686" lon="6.62341">
        <ele>29.06</ele>
        <time>2017-10-07T08:32:12.000Z</time>
      </trkpt>
      <trkpt lat="43.43697" lon="6.62339">
        <ele>28.39</ele>
        <time>2017-10-07T08:32:20.000Z</time>
      </trkpt>
      <trkpt lat="43.43711" lon="6.62339">
        <ele>27.84</ele>
        <time>2017-10-07T08:32:25.000Z</time>
      </trkpt>
      <trkpt lat="43.43728" lon="6.62329">
        <ele>26.65</ele>
        <time>2017-10-07T08:32:30.000Z</time>
      </trkpt>
      <trkpt lat="43.43746" lon="6.62316">
        <ele>25.23</ele>
        <time>2017-10-07T08:32:35.000Z</time>
      </trkpt>
      <trkpt lat="43.43756" lon="6.62296">
        <ele>23.9</ele>
        <time>2017-10-07T08:32:40.000Z</time>
      </trkpt>
      <trkpt lat="43.43752" lon="6.62282">
        <ele>23.65</ele>
        <time>2017-10-07T08:33:34.000Z</time>
      </trkpt>
      <trkpt lat="43.43746" lon="6.62273">
        <ele>23.9</ele>
        <time>2017-10-07T08:33:39.000Z</time>
      </trkpt>
      <trkpt lat="43.43736" lon="6.62264">
        <ele>24.57</ele>
        <time>2017-10-07T08:33:44.000Z</time>
      </trkpt>
      <trkpt lat="43.43725" lon="6.62258">
        <ele>25.36</ele>
        <time>2017-10-07T08:33:49.000Z</time>
      </trkpt>
      <trkpt lat="43.43714" lon="6.62253">
        <ele>26.31</ele>
        <time>2017-10-07T08:33:54.000Z</time>
      </trkpt>
      <trkpt lat="43.43702" lon="6.62245">
        <ele>27.4</ele>
        <time>2017-10-07T08:33:59.000Z</time>
      </trkpt>
      <trkpt lat="43.4369" lon="6.62239">
        <ele>28.3</ele>
        <time>2017-10-07T08:34:04.000Z</time>
      </trkpt>
      <trkpt lat="43.43677" lon="6.62231">
        <ele>29.1</ele>
        <time>2017-10-07T08:34:09.000Z</time>
      </trkpt>
      <trkpt lat="43.43662" lon="6.62225">
        <ele>29.51</ele>
        <time>2017-10-07T08:34:14.000Z</time>
      </trkpt>
      <trkpt lat="43.43645" lon="6.62226">
        <ele>29.67</ele>
        <time>2017-10-07T08:34:19.000Z</time>
      </trkpt>
      <trkpt lat="43.4363" lon="6.62229">
        <ele>29.86</ele>
        <time>2017-10-07T08:34:24.000Z</time>
      </trkpt>
      <trkpt lat="43.43616" lon="6.6223">
        <ele>30.11</ele>
        <time>2017-10-07T08:34:29.000Z</time>
      </trkpt>
      <trkpt lat="43.43603" lon="6.62234">
        <ele>30.49</ele>
        <time>2017-10-07T08:34:34.000Z</time>
      </trkpt>
      <trkpt lat="43.4359" lon="6.62241">
        <ele>31.16</ele>
        <time>2017-10-07T08:34:39.000Z</time>
      </trkpt>
      <trkpt lat="43.43576" lon="6.62247">
        <ele>31.95</ele>
        <time>2017-10-07T08:34:44.000Z</time>
      </trkpt>
      <trkpt lat="43.4356" lon="6.62255">
        <ele>32.9</ele>
        <time>2017-10-07T08:34:49.000Z</time>
      </trkpt>
      <trkpt lat="43.43546" lon="6.62264">
        <ele>33.89</ele>
        <time>2017-10-07T08:34:54.000Z</time>
      </trkpt>
      <trkpt lat="43.43533" lon="6.62276">
        <ele>35.39</ele>
        <time>2017-10-07T08:34:59.000Z</time>
      </trkpt>
      <trkpt lat="43.43519" lon="6.62288">
        <ele>36.67</ele>
        <time>2017-10-07T08:35:04.000Z</time>
      </trkpt>
      <trkpt lat="43.43504" lon="6.62296">
        <ele>37.2</ele>
        <time>2017-10-07T08:35:09.000Z</time>
      </trkpt>
      <trkpt lat="43.43486" lon="6.62298">
        <ele>36.68</ele>
        <time>2017-10-07T08:35:14.000Z</time>
      </trkpt>
      <trkpt lat="43.43472" lon="6.62301">
        <ele>36.15</ele>
        <time>2017-10-07T08:35:19.000Z</time>
      </trkpt>
      <trkpt lat="43.43458" lon="6.62306">
        <ele>35.81</ele>
        <time>2017-10-07T08:35:24.000Z</time>
      </trkpt>
      <trkpt lat="43.43446" lon="6.62312">
        <ele>35.78</ele>
        <time>2017-10-07T08:35:29.000Z</time>
      </trkpt>
      <trkpt lat="43.43434" lon="6.62321">
        <ele>36.17</ele>
        <time>2017-10-07T08:35:34.000Z</time>
      </trkpt>
      <trkpt lat="43.43423" lon="6.6234">
        <ele>37.87</ele>
        <time>2017-10-07T08:35:39.000Z</time>
      </trkpt>
      <trkpt lat="43.43415" lon="6.62361">
        <ele>40.62</ele>
        <time>2017-10-07T08:35:44.000Z</time>
      </trkpt>
      <trkpt lat="43.43412" lon="6.62348">
        <ele>38.74</ele>
        <time>2017-10-07T08:35:52.000Z</time>
      </trkpt>
      <trkpt lat="43.43412" lon="6.62333">
        <ele>37.01</ele>
        <time>2017-10-07T08:35:57.000Z</time>
      </trkpt>
      <trkpt lat="43.43409" lon="6.6232">
        <ele>35.73</ele>
        <time>2017-10-07T08:36:02.000Z</time>
      </trkpt>
      <trkpt lat="43.4339" lon="6.62311">
        <ele>35.85</ele>
        <time>2017-10-07T08:36:07.000Z</time>
      </trkpt>
      <trkpt lat="43.43374" lon="6.62304">
        <ele>36.44</ele>
        <time>2017-10-07T08:36:12.000Z</time>
      </trkpt>
      <trkpt lat="43.43363" lon="6.62294">
        <ele>36.33</ele>
        <time>2017-10-07T08:36:17.000Z</time>
      </trkpt>
      <trkpt lat="43.43349" lon="6.6228">
        <ele>35.71</ele>
        <time>2017-10-07T08:36:22.000Z</time>
      </trkpt>
      <trkpt lat="43.43333" lon="6.62275">
        <ele>36.22</ele>
        <time>2017-10-07T08:36:27.000Z</time>
      </trkpt>
      <trkpt lat="43.43318" lon="6.62284">
        <ele>38.1</ele>
        <time>2017-10-07T08:36:32.000Z</time>
      </trkpt>
      <trkpt lat="43.43307" lon="6.62276">
        <ele>37.56</ele>
        <time>2017-10-07T08:36:37.000Z</time>
      </trkpt>
      <trkpt lat="43.43302" lon="6.62257">
        <ele>35.82</ele>
        <time>2017-10-07T08:36:42.000Z</time>
      </trkpt>
      <trkpt lat="43.43291" lon="6.62255">
        <ele>36.28</ele>
        <time>2017-10-07T08:36:47.000Z</time>
      </trkpt>
      <trkpt lat="43.4328" lon="6.62265">
        <ele>37.68</ele>
        <time>2017-10-07T08:36:52.000Z</time>
      </trkpt>
      <trkpt lat="43.43267" lon="6.62275">
        <ele>39.68</ele>
        <time>2017-10-07T08:36:57.000Z</time>
      </trkpt>
      <trkpt lat="43.43258" lon="6.62264">
        <ele>39.2</ele>
        <time>2017-10-07T08:37:02.000Z</time>
      </trkpt>
      <trkpt lat="43.43241" lon="6.62254">
        <ele>40.11</ele>
        <time>2017-10-07T08:37:07.000Z</time>
      </trkpt>
      <trkpt lat="43.43223" lon="6.62252">
        <ele>42.18</ele>
        <time>2017-10-07T08:37:12.000Z</time>
      </trkpt>
      <trkpt lat="43.43211" lon="6.6225">
        <ele>43.68</ele>
        <time>2017-10-07T08:37:17.000Z</time>
      </trkpt>
      <trkpt lat="43.432" lon="6.62248">
        <ele>45.31</ele>
        <time>2017-10-07T08:37:22.000Z</time>
      </trkpt>
      <trkpt lat="43.4319" lon="6.62247">
        <ele>46.67</ele>
        <time>2017-10-07T08:37:27.000Z</time>
      </trkpt>
      <trkpt lat="43.43181" lon="6.62244">
        <ele>47.75</ele>
        <time>2017-10-07T08:37:32.000Z</time>
      </trkpt>
      <trkpt lat="43.43172" lon="6.62235">
        <ele>48.76</ele>
        <time>2017-10-07T08:37:37.000Z</time>
      </trkpt>
      <trkpt lat="43.43164" lon="6.62223">
        <ele>50.1</ele>
        <time>2017-10-07T08:37:42.000Z</time>
      </trkpt>
      <trkpt lat="43.43153" lon="6.62216">
        <ele>51.71</ele>
        <time>2017-10-07T08:37:47.000Z</time>
      </trkpt>
      <trkpt lat="43.43143" lon="6.62213">
        <ele>52.96</ele>
        <time>2017-10-07T08:37:52.000Z</time>
      </trkpt>
      <trkpt lat="43.43132" lon="6.62215">
        <ele>53.9</ele>
        <time>2017-10-07T08:37:57.000Z</time>
      </trkpt>
      <trkpt lat="43.43122" lon="6.62215">
        <ele>54.86</ele>
        <time>2017-10-07T08:38:03.000Z</time>
      </trkpt>
      <trkpt lat="43.43112" lon="6.62215">
        <ele>55.87</ele>
        <time>2017-10-07T08:38:09.000Z</time>
      </trkpt>
      <trkpt lat="43.43101" lon="6.62217">
        <ele>56.9</ele>
        <time>2017-10-07T08:38:16.000Z</time>
      </trkpt>
      <trkpt lat="43.43092" lon="6.62223">
        <ele>57.81</ele>
        <time>2017-10-07T08:38:24.000Z</time>
      </trkpt>
      <trkpt lat="43.43083" lon="6.62225">
        <ele>58.88</ele>
        <time>2017-10-07T08:38:33.000Z</time>
      </trkpt>
      <trkpt lat="43.43074" lon="6.62226">
        <ele>60.03</ele>
        <time>2017-10-07T08:38:40.000Z</time>
      </trkpt>
      <trkpt lat="43.43065" lon="6.62228">
        <ele>61.1</ele>
        <time>2017-10-07T08:38:46.000Z</time>
      </trkpt>
      <trkpt lat="43.43055" lon="6.62233">
        <ele>62.42</ele>
        <time>2017-10-07T08:38:52.000Z</time>
      </trkpt>
      <trkpt lat="43.43045" lon="6.62232">
        <ele>63.57</ele>
        <time>2017-10-07T08:38:58.000Z</time>
      </trkpt>
      <trkpt lat="43.43036" lon="6.62235">
        <ele>64.85</ele>
        <time>2017-10-07T08:39:04.000Z</time>
      </trkpt>
      <trkpt lat="43.43026" lon="6.62235">
        <ele>66.16</ele>
        <time>2017-10-07T08:39:14.000Z</time>
      </trkpt>
      <trkpt lat="43.43016" lon="6.62234">
        <ele>67.37</ele>
        <time>2017-10-07T08:39:22.000Z</time>
      </trkpt>
      <trkpt lat="43.43007" lon="6.62237">
        <ele>69.16</ele>
        <time>2017-10-07T08:39:29.999Z</time>
      </trkpt>
      <trkpt lat="43.42997" lon="6.62236">
        <ele>70.74</ele>
        <time>2017-10-07T08:39:37.000Z</time>
      </trkpt>
      <trkpt lat="43.42988" lon="6.62235">
        <ele>72.31</ele>
        <time>2017-10-07T08:39:43.000Z</time>
      </trkpt>
      <trkpt lat="43.42978" lon="6.62236">
        <ele>74.2</ele>
        <time>2017-10-07T08:39:49.000Z</time>
      </trkpt>
      <trkpt lat="43.42968" lon="6.62235">
        <ele>76.2</ele>
        <time>2017-10-07T08:39:55.000Z</time>
      </trkpt>
      <trkpt lat="43.42959" lon="6.62231">
        <ele>77.68</ele>
        <time>2017-10-07T08:40:02.000Z</time>
      </trkpt>
      <trkpt lat="43.42949" lon="6.62228">
        <ele>79.34</ele>
        <time>2017-10-07T08:40:09.000Z</time>
      </trkpt>
      <trkpt lat="43.4294" lon="6.62224">
        <ele>80.5</ele>
        <time>2017-10-07T08:40:16.000Z</time>
      </trkpt>
      <trkpt lat="43.42931" lon="6.6222">
        <ele>81.66</ele>
        <time>2017-10-07T08:40:23.000Z</time>
      </trkpt>
      <trkpt lat="43.42924" lon="6.6221">
        <ele>81.17</ele>
        <time>2017-10-07T08:40:30.000Z</time>
      </trkpt>
      <trkpt lat="43.42916" lon="6.62204">
        <ele>81.74</ele>
        <time>2017-10-07T08:40:37.000Z</time>
      </trkpt>
      <trkpt lat="43.42906" lon="6.62198">
        <ele>82.98</ele>
        <time>2017-10-07T08:40:44.000Z</time>
      </trkpt>
      <trkpt lat="43.42898" lon="6.62191">
        <ele>83.49</ele>
        <time>2017-10-07T08:40:50.000Z</time>
      </trkpt>
      <trkpt lat="43.42889" lon="6.62185">
        <ele>85.16</ele>
        <time>2017-10-07T08:40:56.000Z</time>
      </trkpt>
      <trkpt lat="43.42879" lon="6.62182">
        <ele>87.34</ele>
        <time>2017-10-07T08:41:02.000Z</time>
      </trkpt>
      <trkpt lat="43.42869" lon="6.62178">
        <ele>89.61</ele>
        <time>2017-10-07T08:41:08.000Z</time>
      </trkpt>
      <trkpt lat="43.42861" lon="6.6217">
        <ele>90.62</ele>
        <time>2017-10-07T08:41:15.000Z</time>
      </trkpt>
      <trkpt lat="43.42851" lon="6.62165">
        <ele>92.38</ele>
        <time>2017-10-07T08:41:21.000Z</time>
      </trkpt>
      <trkpt lat="43.42844" lon="6.62159">
        <ele>93.58</ele>
        <time>2017-10-07T08:41:27.000Z</time>
      </trkpt>
      <trkpt lat="43.42835" lon="6.62153">
        <ele>94.8</ele>
        <time>2017-10-07T08:41:33.000Z</time>
      </trkpt>
      <trkpt lat="43.42825" lon="6.62151">
        <ele>96.52</ele>
        <time>2017-10-07T08:41:40.000Z</time>
      </trkpt>
      <trkpt lat="43.42815" lon="6.62147">
        <ele>97.95</ele>
        <time>2017-10-07T08:41:46.000Z</time>
      </trkpt>
      <trkpt lat="43.42806" lon="6.62142">
        <ele>98.94</ele>
        <time>2017-10-07T08:41:53.000Z</time>
      </trkpt>
      <trkpt lat="43.42797" lon="6.6214">
        <ele>100.4</ele>
        <time>2017-10-07T08:42:00.000Z</time>
      </trkpt>
      <trkpt lat="43.42787" lon="6.62141">
        <ele>102.35</ele>
        <time>2017-10-07T08:42:08.000Z</time>
      </trkpt>
      <trkpt lat="43.42778" lon="6.62139">
        <ele>103.83</ele>
        <time>2017-10-07T08:42:14.000Z</time>
      </trkpt>
      <trkpt lat="43.42769" lon="6.62135">
        <ele>104.55</ele>
        <time>2017-10-07T08:42:21.000Z</time>
      </trkpt>
      <trkpt lat="43.4276" lon="6.6213">
        <ele>105.14</ele>
        <time>2017-10-07T08:42:28.000Z</time>
      </trkpt>
      <trkpt lat="43.42751" lon="6.62128">
        <ele>106.57</ele>
        <time>2017-10-07T08:42:35.000Z</time>
      </trkpt>
      <trkpt lat="43.42741" lon="6.62127">
        <ele>108.3</ele>
        <time>2017-10-07T08:42:42.000Z</time>
      </trkpt>
      <trkpt lat="43.4273" lon="6.62128">
        <ele>110.86</ele>
        <time>2017-10-07T08:42:49.000Z</time>
      </trkpt>
      <trkpt lat="43.42721" lon="6.62128">
        <ele>112.94</ele>
        <time>2017-10-07T08:42:56.000Z</time>
      </trkpt>
      <trkpt lat="43.42711" lon="6.6213">
        <ele>115.35</ele>
        <time>2017-10-07T08:43:03.000Z</time>
      </trkpt>
      <trkpt lat="43.42702" lon="6.62129">
        <ele>117.42</ele>
        <time>2017-10-07T08:43:12.000Z</time>
      </trkpt>
      <trkpt lat="43.42692" lon="6.6213">
        <ele>119.63</ele>
        <time>2017-10-07T08:43:19.000Z</time>
      </trkpt>
      <trkpt lat="43.42684" lon="6.62124">
        <ele>120.11</ele>
        <time>2017-10-07T08:43:31.000Z</time>
      </trkpt>
      <trkpt lat="43.42681" lon="6.62112">
        <ele>118.52</ele>
        <time>2017-10-07T08:43:42.000Z</time>
      </trkpt>
      <trkpt lat="43.42672" lon="6.62105">
        <ele>119.06</ele>
        <time>2017-10-07T08:43:48.000Z</time>
      </trkpt>
      <trkpt lat="43.42663" lon="6.62103">
        <ele>120.48</ele>
        <time>2017-10-07T08:43:54.000Z</time>
      </trkpt>
      <trkpt lat="43.42653" lon="6.621">
        <ele>121.79</ele>
        <time>2017-10-07T08:43:59.000Z</time>
      </trkpt>
      <trkpt lat="43.42642" lon="6.62098">
        <ele>123.49</ele>
        <time>2017-10-07T08:44:04.000Z</time>
      </trkpt>
      <trkpt lat="43.42632" lon="6.62097">
        <ele>125.03</ele>
        <time>2017-10-07T08:44:09.000Z</time>
      </trkpt>
      <trkpt lat="43.42622" lon="6.62101">
        <ele>126.98</ele>
        <time>2017-10-07T08:44:16.000Z</time>
      </trkpt>
      <trkpt lat="43.42611" lon="6.621">
        <ele>128.35</ele>
        <time>2017-10-07T08:44:21.000Z</time>
      </trkpt>
      <trkpt lat="43.42602" lon="6.62097">
        <ele>129.15</ele>
        <time>2017-10-07T08:44:26.000Z</time>
      </trkpt>
      <trkpt lat="43.42592" lon="6.62095">
        <ele>129.9</ele>
        <time>2017-10-07T08:44:31.000Z</time>
      </trkpt>
      <trkpt lat="43.42579" lon="6.62095">
        <ele>130.6</ele>
        <time>2017-10-07T08:44:36.000Z</time>
      </trkpt>
      <trkpt lat="43.42566" lon="6.62093">
        <ele>130.54</ele>
        <time>2017-10-07T08:44:41.000Z</time>
      </trkpt>
      <trkpt lat="43.42555" lon="6.62094">
        <ele>130.09</ele>
        <time>2017-10-07T08:44:46.000Z</time>
      </trkpt>
      <trkpt lat="43.42543" lon="6.62096">
        <ele>129.36</ele>
        <time>2017-10-07T08:44:52.000Z</time>
      </trkpt>
      <trkpt lat="43.42522" lon="6.62095">
        <ele>127.86</ele>
        <time>2017-10-07T08:44:57.000Z</time>
      </trkpt>
      <trkpt lat="43.42497" lon="6.62086">
        <ele>127.92</ele>
        <time>2017-10-07T08:45:02.000Z</time>
      </trkpt>
      <trkpt lat="43.42477" lon="6.62073">
        <ele>129.28</ele>
        <time>2017-10-07T08:45:07.000Z</time>
      </trkpt>
      <trkpt lat="43.42461" lon="6.62061">
        <ele>130.17</ele>
        <time>2017-10-07T08:45:12.000Z</time>
      </trkpt>
      <trkpt lat="43.42452" lon="6.62042">
        <ele>130.89</ele>
        <time>2017-10-07T08:45:17.000Z</time>
      </trkpt>
      <trkpt lat="43.42444" lon="6.62026">
        <ele>131.56</ele>
        <time>2017-10-07T08:45:22.000Z</time>
      </trkpt>
      <trkpt lat="43.4243" lon="6.62022">
        <ele>131.39</ele>
        <time>2017-10-07T08:45:27.000Z</time>
      </trkpt>
      <trkpt lat="43.42421" lon="6.62012">
        <ele>131.94</ele>
        <time>2017-10-07T08:45:33.000Z</time>
      </trkpt>
      <trkpt lat="43.4241" lon="6.62004">
        <ele>132.97</ele>
        <time>2017-10-07T08:45:38.000Z</time>
      </trkpt>
      <trkpt lat="43.424" lon="6.61995">
        <ele>134.61</ele>
        <time>2017-10-07T08:45:43.000Z</time>
      </trkpt>
      <trkpt lat="43.42389" lon="6.61995">
        <ele>136.01</ele>
        <time>2017-10-07T08:45:48.000Z</time>
      </trkpt>
      <trkpt lat="43.42375" lon="6.62001">
        <ele>137.28</ele>
        <time>2017-10-07T08:45:53.000Z</time>
      </trkpt>
      <trkpt lat="43.42363" lon="6.62006">
        <ele>138.58</ele>
        <time>2017-10-07T08:45:58.000Z</time>
      </trkpt>
      <trkpt lat="43.4235" lon="6.62017">
        <ele>139</ele>
        <time>2017-10-07T08:46:03.000Z</time>
      </trkpt>
      <trkpt lat="43.42338" lon="6.62023">
        <ele>139.43</ele>
        <time>2017-10-07T08:46:08.000Z</time>
      </trkpt>
      <trkpt lat="43.42325" lon="6.62029">
        <ele>139.54</ele>
        <time>2017-10-07T08:46:13.000Z</time>
      </trkpt>
      <trkpt lat="43.42314" lon="6.62031">
        <ele>139.68</ele>
        <time>2017-10-07T08:46:18.000Z</time>
      </trkpt>
      <trkpt lat="43.42302" lon="6.62036">
        <ele>139.41</ele>
        <time>2017-10-07T08:46:23.000Z</time>
      </trkpt>
      <trkpt lat="43.42286" lon="6.62038">
        <ele>139.42</ele>
        <time>2017-10-07T08:46:28.000Z</time>
      </trkpt>
      <trkpt lat="43.4227" lon="6.62038">
        <ele>139.73</ele>
        <time>2017-10-07T08:46:33.000Z</time>
      </trkpt>
      <trkpt lat="43.42255" lon="6.62035">
        <ele>140.45</ele>
        <time>2017-10-07T08:46:38.000Z</time>
      </trkpt>
      <trkpt lat="43.42243" lon="6.62033">
        <ele>141.07</ele>
        <time>2017-10-07T08:46:43.000Z</time>
      </trkpt>
      <trkpt lat="43.42232" lon="6.62032">
        <ele>141.7</ele>
        <time>2017-10-07T08:46:48.000Z</time>
      </trkpt>
      <trkpt lat="43.42221" lon="6.62029">
        <ele>142.75</ele>
        <time>2017-10-07T08:46:53.000Z</time>
      </trkpt>
      <trkpt lat="43.42211" lon="6.62025">
        <ele>143.75</ele>
        <time>2017-10-07T08:46:58.000Z</time>
      </trkpt>
      <trkpt lat="43.42202" lon="6.62021">
        <ele>144.89</ele>
        <time>2017-10-07T08:47:03.000Z</time>
      </trkpt>
      <trkpt lat="43.42192" lon="6.62016">
        <ele>146.17</ele>
        <time>2017-10-07T08:47:12.000Z</time>
      </trkpt>
      <trkpt lat="43.42183" lon="6.62008">
        <ele>147.99</ele>
        <time>2017-10-07T08:47:17.000Z</time>
      </trkpt>
      <trkpt lat="43.42173" lon="6.62003">
        <ele>149.4</ele>
        <time>2017-10-07T08:47:22.000Z</time>
      </trkpt>
      <trkpt lat="43.42163" lon="6.62">
        <ele>150.1</ele>
        <time>2017-10-07T08:47:27.000Z</time>
      </trkpt>
      <trkpt lat="43.42151" lon="6.62001">
        <ele>149.6</ele>
        <time>2017-10-07T08:47:32.000Z</time>
      </trkpt>
      <trkpt lat="43.42135" lon="6.62001">
        <ele>148.89</ele>
        <time>2017-10-07T08:47:37.000Z</time>
      </trkpt>
      <trkpt lat="43.42121" lon="6.61999">
        <ele>148.55</ele>
        <time>2017-10-07T08:47:42.000Z</time>
      </trkpt>
      <trkpt lat="43.42109" lon="6.61995">
        <ele>148.77</ele>
        <time>2017-10-07T08:47:47.000Z</time>
      </trkpt>
      <trkpt lat="43.42093" lon="6.61993">
        <ele>148.71</ele>
        <time>2017-10-07T08:47:52.000Z</time>
      </trkpt>
      <trkpt lat="43.4208" lon="6.61992">
        <ele>148.73</ele>
        <time>2017-10-07T08:47:57.000Z</time>
      </trkpt>
      <trkpt lat="43.42066" lon="6.61991">
        <ele>148.62</ele>
        <time>2017-10-07T08:48:02.000Z</time>
      </trkpt>
      <trkpt lat="43.42051" lon="6.61988">
        <ele>148.68</ele>
        <time>2017-10-07T08:48:07.000Z</time>
      </trkpt>
      <trkpt lat="43.42037" lon="6.61984">
        <ele>149.07</ele>
        <time>2017-10-07T08:48:12.000Z</time>
      </trkpt>
      <trkpt lat="43.42025" lon="6.61981">
        <ele>149.62</ele>
        <time>2017-10-07T08:48:17.000Z</time>
      </trkpt>
      <trkpt lat="43.42013" lon="6.61981">
        <ele>149.86</ele>
        <time>2017-10-07T08:48:22.000Z</time>
      </trkpt>
      <trkpt lat="43.42004" lon="6.6198">
        <ele>150.67</ele>
        <time>2017-10-07T08:48:27.000Z</time>
      </trkpt>
      <trkpt lat="43.41994" lon="6.61983">
        <ele>151.42</ele>
        <time>2017-10-07T08:48:32.000Z</time>
      </trkpt>
      <trkpt lat="43.41987" lon="6.61991">
        <ele>151.85</ele>
        <time>2017-10-07T08:48:37.000Z</time>
      </trkpt>
      <trkpt lat="43.41977" lon="6.61995">
        <ele>153.63</ele>
        <time>2017-10-07T08:48:42.000Z</time>
      </trkpt>
      <trkpt lat="43.41966" lon="6.62">
        <ele>155.86</ele>
        <time>2017-10-07T08:48:47.000Z</time>
      </trkpt>
      <trkpt lat="43.41957" lon="6.62007">
        <ele>157.77</ele>
        <time>2017-10-07T08:48:53.000Z</time>
      </trkpt>
      <trkpt lat="43.41947" lon="6.62013">
        <ele>159.83</ele>
        <time>2017-10-07T08:48:58.000Z</time>
      </trkpt>
      <trkpt lat="43.41936" lon="6.62018">
        <ele>161.85</ele>
        <time>2017-10-07T08:49:03.000Z</time>
      </trkpt>
      <trkpt lat="43.41926" lon="6.62025">
        <ele>162.86</ele>
        <time>2017-10-07T08:49:08.000Z</time>
      </trkpt>
      <trkpt lat="43.41916" lon="6.62032">
        <ele>163.66</ele>
        <time>2017-10-07T08:49:13.000Z</time>
      </trkpt>
      <trkpt lat="43.41903" lon="6.6204">
        <ele>163.91</ele>
        <time>2017-10-07T08:49:18.000Z</time>
      </trkpt>
      <trkpt lat="43.41891" lon="6.62047">
        <ele>163.97</ele>
        <time>2017-10-07T08:49:23.000Z</time>
      </trkpt>
      <trkpt lat="43.4188" lon="6.62052">
        <ele>164.26</ele>
        <time>2017-10-07T08:49:28.000Z</time>
      </trkpt>
      <trkpt lat="43.41868" lon="6.62052">
        <ele>165.19</ele>
        <time>2017-10-07T08:49:33.000Z</time>
      </trkpt>
      <trkpt lat="43.41858" lon="6.62054">
        <ele>165.65</ele>
        <time>2017-10-07T08:49:38.000Z</time>
      </trkpt>
      <trkpt lat="43.41845" lon="6.62057">
        <ele>165.87</ele>
        <time>2017-10-07T08:49:43.000Z</time>
      </trkpt>
      <trkpt lat="43.41835" lon="6.6206">
        <ele>166.06</ele>
        <time>2017-10-07T08:49:48.000Z</time>
      </trkpt>
      <trkpt lat="43.41823" lon="6.62064">
        <ele>166.09</ele>
        <time>2017-10-07T08:49:53.000Z</time>
      </trkpt>
      <trkpt lat="43.4181" lon="6.62069">
        <ele>165.91</ele>
        <time>2017-10-07T08:49:58.000Z</time>
      </trkpt>
      <trkpt lat="43.41798" lon="6.6207">
        <ele>166.22</ele>
        <time>2017-10-07T08:50:03.000Z</time>
      </trkpt>
      <trkpt lat="43.41788" lon="6.62067">
        <ele>166.87</ele>
        <time>2017-10-07T08:50:08.000Z</time>
      </trkpt>
      <trkpt lat="43.41774" lon="6.62066">
        <ele>167.5</ele>
        <time>2017-10-07T08:50:13.000Z</time>
      </trkpt>
      <trkpt lat="43.41762" lon="6.62065">
        <ele>168.22</ele>
        <time>2017-10-07T08:50:18.000Z</time>
      </trkpt>
      <trkpt lat="43.41751" lon="6.6206">
        <ele>169.31</ele>
        <time>2017-10-07T08:50:25.000Z</time>
      </trkpt>
      <trkpt lat="43.41742" lon="6.62057">
        <ele>170.4</ele>
        <time>2017-10-07T08:50:30.000Z</time>
      </trkpt>
      <trkpt lat="43.4173" lon="6.62056">
        <ele>171.62</ele>
        <time>2017-10-07T08:50:35.000Z</time>
      </trkpt>
      <trkpt lat="43.4172" lon="6.62056">
        <ele>172.56</ele>
        <time>2017-10-07T08:50:40.000Z</time>
      </trkpt>
      <trkpt lat="43.4171" lon="6.62054">
        <ele>173.77</ele>
        <time>2017-10-07T08:50:46.000Z</time>
      </trkpt>
      <trkpt lat="43.417" lon="6.62052">
        <ele>175.18</ele>
        <time>2017-10-07T08:50:51.000Z</time>
      </trkpt>
      <trkpt lat="43.41689" lon="6.62049">
        <ele>176.74</ele>
        <time>2017-10-07T08:50:56.000Z</time>
      </trkpt>
      <trkpt lat="43.41676" lon="6.62049">
        <ele>177.89</ele>
        <time>2017-10-07T08:51:01.000Z</time>
      </trkpt>
      <trkpt lat="43.41667" lon="6.62044">
        <ele>179.36</ele>
        <time>2017-10-07T08:51:06.000Z</time>
      </trkpt>
      <trkpt lat="43.41658" lon="6.62044">
        <ele>179.95</ele>
        <time>2017-10-07T08:51:11.000Z</time>
      </trkpt>
      <trkpt lat="43.41649" lon="6.6204">
        <ele>181.17</ele>
        <time>2017-10-07T08:51:17.000Z</time>
      </trkpt>
      <trkpt lat="43.41638" lon="6.62038">
        <ele>182.01</ele>
        <time>2017-10-07T08:51:24.000Z</time>
      </trkpt>
      <trkpt lat="43.41628" lon="6.62034">
        <ele>183.26</ele>
        <time>2017-10-07T08:51:30.000Z</time>
      </trkpt>
      <trkpt lat="43.41618" lon="6.62033">
        <ele>183.72</ele>
        <time>2017-10-07T08:51:37.000Z</time>
      </trkpt>
      <trkpt lat="43.41608" lon="6.6203">
        <ele>184.79</ele>
        <time>2017-10-07T08:51:43.000Z</time>
      </trkpt>
      <trkpt lat="43.41598" lon="6.62029">
        <ele>185.26</ele>
        <time>2017-10-07T08:51:49.000Z</time>
      </trkpt>
      <trkpt lat="43.41589" lon="6.62029">
        <ele>185.5</ele>
        <time>2017-10-07T08:51:55.000Z</time>
      </trkpt>
      <trkpt lat="43.41579" lon="6.62027">
        <ele>186</ele>
        <time>2017-10-07T08:52:03.000Z</time>
      </trkpt>
      <trkpt lat="43.41568" lon="6.6203">
        <ele>185.67</ele>
        <time>2017-10-07T08:52:08.000Z</time>
      </trkpt>
      <trkpt lat="43.41559" lon="6.62032">
        <ele>185.39</ele>
        <time>2017-10-07T08:52:13.000Z</time>
      </trkpt>
      <trkpt lat="43.4155" lon="6.62033">
        <ele>185.26</ele>
        <time>2017-10-07T08:52:19.000Z</time>
      </trkpt>
      <trkpt lat="43.41541" lon="6.62033">
        <ele>185.35</ele>
        <time>2017-10-07T08:52:25.000Z</time>
      </trkpt>
      <trkpt lat="43.41531" lon="6.6203">
        <ele>185.84</ele>
        <time>2017-10-07T08:52:32.000Z</time>
      </trkpt>
      <trkpt lat="43.41522" lon="6.62024">
        <ele>186.37</ele>
        <time>2017-10-07T08:52:40.000Z</time>
      </trkpt>
      <trkpt lat="43.41514" lon="6.62018">
        <ele>186.94</ele>
        <time>2017-10-07T08:52:46.000Z</time>
      </trkpt>
      <trkpt lat="43.41503" lon="6.62015">
        <ele>187.24</ele>
        <time>2017-10-07T08:52:52.000Z</time>
      </trkpt>
      <trkpt lat="43.41496" lon="6.62005">
        <ele>188.35</ele>
        <time>2017-10-07T08:52:59.000Z</time>
      </trkpt>
      <trkpt lat="43.4149" lon="6.61993">
        <ele>190.08</ele>
        <time>2017-10-07T08:53:07.000Z</time>
      </trkpt>
      <trkpt lat="43.41488" lon="6.61981">
        <ele>192.65</ele>
        <time>2017-10-07T08:53:21.000Z</time>
      </trkpt>
      <trkpt lat="43.41483" lon="6.61968">
        <ele>195.9</ele>
        <time>2017-10-07T08:53:30.000Z</time>
      </trkpt>
      <trkpt lat="43.41476" lon="6.61957">
        <ele>198.77</ele>
        <time>2017-10-07T08:53:36.000Z</time>
      </trkpt>
      <trkpt lat="43.41469" lon="6.61946">
        <ele>200.93</ele>
        <time>2017-10-07T08:53:42.000Z</time>
      </trkpt>
      <trkpt lat="43.41464" lon="6.61935">
        <ele>203.21</ele>
        <time>2017-10-07T08:53:49.000Z</time>
      </trkpt>
      <trkpt lat="43.41459" lon="6.61922">
        <ele>205.28</ele>
        <time>2017-10-07T08:53:56.000Z</time>
      </trkpt>
      <trkpt lat="43.41453" lon="6.61913">
        <ele>205.88</ele>
        <time>2017-10-07T08:54:01.000Z</time>
      </trkpt>
      <trkpt lat="43.4145" lon="6.619">
        <ele>206.89</ele>
        <time>2017-10-07T08:54:07.000Z</time>
      </trkpt>
      <trkpt lat="43.41449" lon="6.61887">
        <ele>208.08</ele>
        <time>2017-10-07T08:54:13.000Z</time>
      </trkpt>
      <trkpt lat="43.41449" lon="6.61874">
        <ele>209.26</ele>
        <time>2017-10-07T08:54:55.000Z</time>
      </trkpt>
      <trkpt lat="43.41451" lon="6.61861">
        <ele>210.8</ele>
        <time>2017-10-07T08:55:01.000Z</time>
      </trkpt>
      <trkpt lat="43.41451" lon="6.61848">
        <ele>212.14</ele>
        <time>2017-10-07T08:55:06.000Z</time>
      </trkpt>
      <trkpt lat="43.41448" lon="6.61834">
        <ele>213.08</ele>
        <time>2017-10-07T08:55:12.000Z</time>
      </trkpt>
      <trkpt lat="43.41441" lon="6.61822">
        <ele>212.89</ele>
        <time>2017-10-07T08:55:17.000Z</time>
      </trkpt>
      <trkpt lat="43.41433" lon="6.61812">
        <ele>212.47</ele>
        <time>2017-10-07T08:55:22.000Z</time>
      </trkpt>
      <trkpt lat="43.41425" lon="6.61805">
        <ele>212.15</ele>
        <time>2017-10-07T08:55:27.000Z</time>
      </trkpt>
      <trkpt lat="43.41416" lon="6.61797">
        <ele>212.17</ele>
        <time>2017-10-07T08:55:33.000Z</time>
      </trkpt>
      <trkpt lat="43.41407" lon="6.61789">
        <ele>212.75</ele>
        <time>2017-10-07T08:55:39.000Z</time>
      </trkpt>
      <trkpt lat="43.41401" lon="6.6178">
        <ele>213.53</ele>
        <time>2017-10-07T08:55:45.000Z</time>
      </trkpt>
      <trkpt lat="43.41392" lon="6.6177">
        <ele>214.06</ele>
        <time>2017-10-07T08:55:50.000Z</time>
      </trkpt>
      <trkpt lat="43.41385" lon="6.61761">
        <ele>214.23</ele>
        <time>2017-10-07T08:55:55.000Z</time>
      </trkpt>
      <trkpt lat="43.41377" lon="6.61753">
        <ele>214.21</ele>
        <time>2017-10-07T08:56:00.000Z</time>
      </trkpt>
      <trkpt lat="43.41369" lon="6.61747">
        <ele>214.17</ele>
        <time>2017-10-07T08:56:06.000Z</time>
      </trkpt>
      <trkpt lat="43.41362" lon="6.61736">
        <ele>213.97</ele>
        <time>2017-10-07T08:56:11.000Z</time>
      </trkpt>
      <trkpt lat="43.41353" lon="6.61723">
        <ele>213.73</ele>
        <time>2017-10-07T08:56:16.000Z</time>
      </trkpt>
      <trkpt lat="43.4135" lon="6.6171">
        <ele>213.56</ele>
        <time>2017-10-07T08:56:22.000Z</time>
      </trkpt>
      <trkpt lat="43.41353" lon="6.61698">
        <ele>213.67</ele>
        <time>2017-10-07T08:56:27.000Z</time>
      </trkpt>
      <trkpt lat="43.41357" lon="6.61686">
        <ele>214.23</ele>
        <time>2017-10-07T08:56:33.000Z</time>
      </trkpt>
      <trkpt lat="43.41365" lon="6.61678">
        <ele>215.21</ele>
        <time>2017-10-07T08:56:40.000Z</time>
      </trkpt>
      <trkpt lat="43.41372" lon="6.61668">
        <ele>216.72</ele>
        <time>2017-10-07T08:56:46.000Z</time>
      </trkpt>
      <trkpt lat="43.41381" lon="6.61662">
        <ele>218.14</ele>
        <time>2017-10-07T08:56:53.000Z</time>
      </trkpt>
      <trkpt lat="43.41388" lon="6.61655">
        <ele>219.73</ele>
        <time>2017-10-07T08:56:59.000Z</time>
      </trkpt>
      <trkpt lat="43.41395" lon="6.61644">
        <ele>221.57</ele>
        <time>2017-10-07T08:57:05.000Z</time>
      </trkpt>
      <trkpt lat="43.414" lon="6.61633">
        <ele>223.21</ele>
        <time>2017-10-07T08:57:11.000Z</time>
      </trkpt>
      <trkpt lat="43.41406" lon="6.61622">
        <ele>224.63</ele>
        <time>2017-10-07T08:57:18.000Z</time>
      </trkpt>
      <trkpt lat="43.41415" lon="6.61611">
        <ele>226.01</ele>
        <time>2017-10-07T08:57:23.000Z</time>
      </trkpt>
      <trkpt lat="43.41428" lon="6.616">
        <ele>227.4</ele>
        <time>2017-10-07T08:57:28.000Z</time>
      </trkpt>
      <trkpt lat="43.41437" lon="6.61595">
        <ele>228.04</ele>
        <time>2017-10-07T08:57:34.000Z</time>
      </trkpt>
      <trkpt lat="43.41446" lon="6.61593">
        <ele>228.47</ele>
        <time>2017-10-07T08:57:40.000Z</time>
      </trkpt>
      <trkpt lat="43.41457" lon="6.6159">
        <ele>228.98</ele>
        <time>2017-10-07T08:57:46.000Z</time>
      </trkpt>
      <trkpt lat="43.41465" lon="6.61582">
        <ele>229.54</ele>
        <time>2017-10-07T08:57:52.000Z</time>
      </trkpt>
      <trkpt lat="43.41471" lon="6.61572">
        <ele>230.3</ele>
        <time>2017-10-07T08:57:59.000Z</time>
      </trkpt>
      <trkpt lat="43.41478" lon="6.61562">
        <ele>231.25</ele>
        <time>2017-10-07T08:58:08.000Z</time>
      </trkpt>
      <trkpt lat="43.41485" lon="6.61555">
        <ele>232.13</ele>
        <time>2017-10-07T08:58:18.000Z</time>
      </trkpt>
      <trkpt lat="43.41491" lon="6.61545">
        <ele>233.43</ele>
        <time>2017-10-07T08:59:19.000Z</time>
      </trkpt>
      <trkpt lat="43.41498" lon="6.61536">
        <ele>234.81</ele>
        <time>2017-10-07T08:59:52.000Z</time>
      </trkpt>
      <trkpt lat="43.41503" lon="6.61525">
        <ele>236.62</ele>
        <time>2017-10-07T09:00:08.000Z</time>
      </trkpt>
      <trkpt lat="43.41507" lon="6.61514">
        <ele>238.55</ele>
        <time>2017-10-07T09:00:18.000Z</time>
      </trkpt>
      <trkpt lat="43.41511" lon="6.61502">
        <ele>240.51</ele>
        <time>2017-10-07T09:00:32.000Z</time>
      </trkpt>
      <trkpt lat="43.41517" lon="6.61492">
        <ele>242.53</ele>
        <time>2017-10-07T09:00:45.000Z</time>
      </trkpt>
      <trkpt lat="43.41527" lon="6.61488">
        <ele>244.27</ele>
        <time>2017-10-07T09:00:58.000Z</time>
      </trkpt>
      <trkpt lat="43.41533" lon="6.61478">
        <ele>246.74</ele>
        <time>2017-10-07T09:01:08.000Z</time>
      </trkpt>
      <trkpt lat="43.41538" lon="6.61467">
        <ele>249.13</ele>
        <time>2017-10-07T09:01:18.000Z</time>
      </trkpt>
      <trkpt lat="43.41541" lon="6.61455">
        <ele>251.57</ele>
        <time>2017-10-07T09:01:33.000Z</time>
      </trkpt>
      <trkpt lat="43.41545" lon="6.61442">
        <ele>253.96</ele>
        <time>2017-10-07T09:01:42.000Z</time>
      </trkpt>
      <trkpt lat="43.41549" lon="6.61431">
        <ele>255.79</ele>
        <time>2017-10-07T09:01:49.000Z</time>
      </trkpt>
      <trkpt lat="43.41553" lon="6.61419">
        <ele>257.25</ele>
        <time>2017-10-07T09:01:58.000Z</time>
      </trkpt>
      <trkpt lat="43.41556" lon="6.61407">
        <ele>258.19</ele>
        <time>2017-10-07T09:02:13.000Z</time>
      </trkpt>
      <trkpt lat="43.41565" lon="6.61401">
        <ele>258.91</ele>
        <time>2017-10-07T09:08:53.000Z</time>
      </trkpt>
      <trkpt lat="43.41575" lon="6.61399">
        <ele>259.44</ele>
        <time>2017-10-07T09:09:00.000Z</time>
      </trkpt>
      <trkpt lat="43.41585" lon="6.61397">
        <ele>259.8</ele>
        <time>2017-10-07T09:09:07.000Z</time>
      </trkpt>
      <trkpt lat="43.41594" lon="6.61394">
        <ele>260.09</ele>
        <time>2017-10-07T09:09:14.000Z</time>
      </trkpt>
      <trkpt lat="43.41604" lon="6.61392">
        <ele>260.35</ele>
        <time>2017-10-07T09:09:20.000Z</time>
      </trkpt>
      <trkpt lat="43.41614" lon="6.6139">
        <ele>260.7</ele>
        <time>2017-10-07T09:09:26.000Z</time>
      </trkpt>
      <trkpt lat="43.41624" lon="6.61387">
        <ele>260.87</ele>
        <time>2017-10-07T09:09:31.000Z</time>
      </trkpt>
      <trkpt lat="43.41633" lon="6.61387">
        <ele>261.16</ele>
        <time>2017-10-07T09:09:37.000Z</time>
      </trkpt>
      <trkpt lat="43.41641" lon="6.61394">
        <ele>262.31</ele>
        <time>2017-10-07T09:09:44.000Z</time>
      </trkpt>
      <trkpt lat="43.41646" lon="6.61405">
        <ele>263.76</ele>
        <time>2017-10-07T09:09:51.000Z</time>
      </trkpt>
      <trkpt lat="43.41651" lon="6.61418">
        <ele>264.92</ele>
        <time>2017-10-07T09:09:58.000Z</time>
      </trkpt>
      <trkpt lat="43.41656" lon="6.6143">
        <ele>265.58</ele>
        <time>2017-10-07T09:10:04.000Z</time>
      </trkpt>
      <trkpt lat="43.41662" lon="6.61438">
        <ele>265.86</ele>
        <time>2017-10-07T09:10:09.000Z</time>
      </trkpt>
      <trkpt lat="43.41671" lon="6.6145">
        <ele>265.92</ele>
        <time>2017-10-07T09:10:14.000Z</time>
      </trkpt>
      <trkpt lat="43.41681" lon="6.61459">
        <ele>265.76</ele>
        <time>2017-10-07T09:10:19.000Z</time>
      </trkpt>
      <trkpt lat="43.4169" lon="6.61467">
        <ele>265.56</ele>
        <time>2017-10-07T09:10:24.000Z</time>
      </trkpt>
      <trkpt lat="43.417" lon="6.6148">
        <ele>265.3</ele>
        <time>2017-10-07T09:10:29.000Z</time>
      </trkpt>
      <trkpt lat="43.41707" lon="6.61494">
        <ele>265.02</ele>
        <time>2017-10-07T09:10:34.000Z</time>
      </trkpt>
      <trkpt lat="43.41708" lon="6.61508">
        <ele>264.6</ele>
        <time>2017-10-07T09:10:40.000Z</time>
      </trkpt>
      <trkpt lat="43.41715" lon="6.61527">
        <ele>262.86</ele>
        <time>2017-10-07T09:10:45.000Z</time>
      </trkpt>
      <trkpt lat="43.41733" lon="6.61532">
        <ele>261.31</ele>
        <time>2017-10-07T09:10:50.000Z</time>
      </trkpt>
      <trkpt lat="43.41752" lon="6.61521">
        <ele>261.22</ele>
        <time>2017-10-07T09:10:55.000Z</time>
      </trkpt>
      <trkpt lat="43.41781" lon="6.61496">
        <ele>259.55</ele>
        <time>2017-10-07T09:11:00.000Z</time>
      </trkpt>
      <trkpt lat="43.41819" lon="6.6148">
        <ele>254.88</ele>
        <time>2017-10-07T09:11:05.000Z</time>
      </trkpt>
      <trkpt lat="43.4185" lon="6.6147">
        <ele>253.08</ele>
        <time>2017-10-07T09:11:10.000Z</time>
      </trkpt>
      <trkpt lat="43.41875" lon="6.61474">
        <ele>252.01</ele>
        <time>2017-10-07T09:11:15.000Z</time>
      </trkpt>
      <trkpt lat="43.41904" lon="6.61461">
        <ele>252.86</ele>
        <time>2017-10-07T09:11:20.000Z</time>
      </trkpt>
      <trkpt lat="43.41934" lon="6.61453">
        <ele>254.26</ele>
        <time>2017-10-07T09:11:25.000Z</time>
      </trkpt>
      <trkpt lat="43.41956" lon="6.61458">
        <ele>255.31</ele>
        <time>2017-10-07T09:11:30.000Z</time>
      </trkpt>
      <trkpt lat="43.41969" lon="6.61461">
        <ele>256.22</ele>
        <time>2017-10-07T09:11:35.000Z</time>
      </trkpt>
      <trkpt lat="43.41979" lon="6.61468">
        <ele>256.89</ele>
        <time>2017-10-07T09:11:40.000Z</time>
      </trkpt>
      <trkpt lat="43.41987" lon="6.61473">
        <ele>257.65</ele>
        <time>2017-10-07T09:11:46.000Z</time>
      </trkpt>
      <trkpt lat="43.41998" lon="6.61473">
        <ele>258.69</ele>
        <time>2017-10-07T09:11:53.000Z</time>
      </trkpt>
      <trkpt lat="43.42008" lon="6.61475">
        <ele>259.71</ele>
        <time>2017-10-07T09:12:00.000Z</time>
      </trkpt>
      <trkpt lat="43.42018" lon="6.61476">
        <ele>260.77</ele>
        <time>2017-10-07T09:12:08.000Z</time>
      </trkpt>
      <trkpt lat="43.42028" lon="6.61478">
        <ele>261.96</ele>
        <time>2017-10-07T09:12:14.000Z</time>
      </trkpt>
      <trkpt lat="43.42039" lon="6.6148">
        <ele>263.37</ele>
        <time>2017-10-07T09:12:19.000Z</time>
      </trkpt>
      <trkpt lat="43.42049" lon="6.61483">
        <ele>264.59</ele>
        <time>2017-10-07T09:12:25.000Z</time>
      </trkpt>
      <trkpt lat="43.42057" lon="6.61489">
        <ele>265.68</ele>
        <time>2017-10-07T09:12:31.000Z</time>
      </trkpt>
      <trkpt lat="43.42067" lon="6.61493">
        <ele>267</ele>
        <time>2017-10-07T09:12:36.000Z</time>
      </trkpt>
      <trkpt lat="43.42078" lon="6.61492">
        <ele>268.28</ele>
        <time>2017-10-07T09:12:42.000Z</time>
      </trkpt>
      <trkpt lat="43.42086" lon="6.61496">
        <ele>269.34</ele>
        <time>2017-10-07T09:12:47.000Z</time>
      </trkpt>
      <trkpt lat="43.42095" lon="6.61503">
        <ele>270.44</ele>
        <time>2017-10-07T09:12:53.000Z</time>
      </trkpt>
      <trkpt lat="43.42103" lon="6.6151">
        <ele>271.5</ele>
        <time>2017-10-07T09:12:58.000Z</time>
      </trkpt>
      <trkpt lat="43.42111" lon="6.61519">
        <ele>272.44</ele>
        <time>2017-10-07T09:13:04.000Z</time>
      </trkpt>
      <trkpt lat="43.42115" lon="6.6153">
        <ele>273.1</ele>
        <time>2017-10-07T09:13:10.000Z</time>
      </trkpt>
      <trkpt lat="43.42122" lon="6.61542">
        <ele>273.78</ele>
        <time>2017-10-07T09:13:15.000Z</time>
      </trkpt>
      <trkpt lat="43.42131" lon="6.61556">
        <ele>274.48</ele>
        <time>2017-10-07T09:13:20.000Z</time>
      </trkpt>
      <trkpt lat="43.42142" lon="6.61553">
        <ele>275.54</ele>
        <time>2017-10-07T09:13:25.000Z</time>
      </trkpt>
      <trkpt lat="43.42152" lon="6.61551">
        <ele>276.18</ele>
        <time>2017-10-07T09:13:30.000Z</time>
      </trkpt>
      <trkpt lat="43.42161" lon="6.61548">
        <ele>276.61</ele>
        <time>2017-10-07T09:13:35.000Z</time>
      </trkpt>
      <trkpt lat="43.42171" lon="6.61545">
        <ele>276.83</ele>
        <time>2017-10-07T09:13:40.000Z</time>
      </trkpt>
      <trkpt lat="43.42179" lon="6.61538">
        <ele>277.14</ele>
        <time>2017-10-07T09:13:45.000Z</time>
      </trkpt>
      <trkpt lat="43.42188" lon="6.61528">
        <ele>277.65</ele>
        <time>2017-10-07T09:13:50.000Z</time>
      </trkpt>
      <trkpt lat="43.42198" lon="6.61519">
        <ele>278.38</ele>
        <time>2017-10-07T09:13:55.000Z</time>
      </trkpt>
      <trkpt lat="43.42204" lon="6.61506">
        <ele>279.63</ele>
        <time>2017-10-07T09:14:00.000Z</time>
      </trkpt>
      <trkpt lat="43.42211" lon="6.61497">
        <ele>280.67</ele>
        <time>2017-10-07T09:14:06.000Z</time>
      </trkpt>
      <trkpt lat="43.42221" lon="6.61493">
        <ele>281.36</ele>
        <time>2017-10-07T09:14:13.000Z</time>
      </trkpt>
      <trkpt lat="43.42227" lon="6.61482">
        <ele>282.46</ele>
        <time>2017-10-07T09:14:18.000Z</time>
      </trkpt>
      <trkpt lat="43.42226" lon="6.61466">
        <ele>283.5</ele>
        <time>2017-10-07T09:14:23.000Z</time>
      </trkpt>
      <trkpt lat="43.42223" lon="6.61448">
        <ele>284.1</ele>
        <time>2017-10-07T09:14:28.000Z</time>
      </trkpt>
      <trkpt lat="43.4222" lon="6.61407">
        <ele>283.88</ele>
        <time>2017-10-07T09:14:33.000Z</time>
      </trkpt>
      <trkpt lat="43.42225" lon="6.6136">
        <ele>281.24</ele>
        <time>2017-10-07T09:14:38.000Z</time>
      </trkpt>
      <trkpt lat="43.42225" lon="6.61346">
        <ele>279.93</ele>
        <time>2017-10-07T09:15:23.000Z</time>
      </trkpt>
      <trkpt lat="43.42226" lon="6.61328">
        <ele>278.19</ele>
        <time>2017-10-07T09:15:28.000Z</time>
      </trkpt>
      <trkpt lat="43.4222" lon="6.61301">
        <ele>275.48</ele>
        <time>2017-10-07T09:15:33.000Z</time>
      </trkpt>
      <trkpt lat="43.42224" lon="6.61278">
        <ele>272.7</ele>
        <time>2017-10-07T09:15:38.000Z</time>
      </trkpt>
      <trkpt lat="43.42227" lon="6.61249">
        <ele>268.35</ele>
        <time>2017-10-07T09:15:43.000Z</time>
      </trkpt>
      <trkpt lat="43.42238" lon="6.61228">
        <ele>263.92</ele>
        <time>2017-10-07T09:15:48.000Z</time>
      </trkpt>
      <trkpt lat="43.42245" lon="6.61209">
        <ele>259.44</ele>
        <time>2017-10-07T09:15:53.000Z</time>
      </trkpt>
      <trkpt lat="43.42253" lon="6.61173">
        <ele>251.83</ele>
        <time>2017-10-07T09:15:58.000Z</time>
      </trkpt>
      <trkpt lat="43.42259" lon="6.61163">
        <ele>249.79</ele>
        <time>2017-10-07T09:16:21.000Z</time>
      </trkpt>
      <trkpt lat="43.42261" lon="6.61151">
        <ele>247.85</ele>
        <time>2017-10-07T09:16:26.000Z</time>
      </trkpt>
      <trkpt lat="43.42263" lon="6.61137">
        <ele>245.78</ele>
        <time>2017-10-07T09:16:31.000Z</time>
      </trkpt>
      <trkpt lat="43.42276" lon="6.61107">
        <ele>241.36</ele>
        <time>2017-10-07T09:16:36.000Z</time>
      </trkpt>
      <trkpt lat="43.42284" lon="6.61097">
        <ele>239.61</ele>
        <time>2017-10-07T09:16:42.000Z</time>
      </trkpt>
      <trkpt lat="43.42292" lon="6.61105">
        <ele>239.56</ele>
        <time>2017-10-07T09:17:16.000Z</time>
      </trkpt>
      <trkpt lat="43.42301" lon="6.61116">
        <ele>239.67</ele>
        <time>2017-10-07T09:17:21.000Z</time>
      </trkpt>
      <trkpt lat="43.42309" lon="6.61126">
        <ele>239.84</ele>
        <time>2017-10-07T09:17:26.000Z</time>
      </trkpt>
      <trkpt lat="43.4232" lon="6.61143">
        <ele>240.23</ele>
        <time>2017-10-07T09:17:31.000Z</time>
      </trkpt>
      <trkpt lat="43.42333" lon="6.61164">
        <ele>240.84</ele>
        <time>2017-10-07T09:17:36.000Z</time>
      </trkpt>
      <trkpt lat="43.42346" lon="6.61187">
        <ele>241.24</ele>
        <time>2017-10-07T09:17:41.000Z</time>
      </trkpt>
      <trkpt lat="43.42355" lon="6.61203">
        <ele>241.89</ele>
        <time>2017-10-07T09:17:46.000Z</time>
      </trkpt>
      <trkpt lat="43.4236" lon="6.61213">
        <ele>242.17</ele>
        <time>2017-10-07T09:18:00.000Z</time>
      </trkpt>
      <trkpt lat="43.42369" lon="6.6123">
        <ele>242.45</ele>
        <time>2017-10-07T09:18:05.000Z</time>
      </trkpt>
      <trkpt lat="43.4238" lon="6.61248">
        <ele>242.31</ele>
        <time>2017-10-07T09:18:10.000Z</time>
      </trkpt>
      <trkpt lat="43.42389" lon="6.61265">
        <ele>242.12</ele>
        <time>2017-10-07T09:18:15.000Z</time>
      </trkpt>
      <trkpt lat="43.42394" lon="6.61277">
        <ele>242.21</ele>
        <time>2017-10-07T09:18:21.000Z</time>
      </trkpt>
      <trkpt lat="43.42393" lon="6.61292">
        <ele>243.78</ele>
        <time>2017-10-07T09:25:47.000Z</time>
      </trkpt>
      <trkpt lat="43.4241" lon="6.61324">
        <ele>243.39</ele>
        <time>2017-10-07T09:25:52.000Z</time>
      </trkpt>
      <trkpt lat="43.42432" lon="6.61342">
        <ele>241.07</ele>
        <time>2017-10-07T09:25:57.000Z</time>
      </trkpt>
      <trkpt lat="43.42447" lon="6.61372">
        <ele>242.25</ele>
        <time>2017-10-07T09:26:02.000Z</time>
      </trkpt>
      <trkpt lat="43.42474" lon="6.6141">
        <ele>239.85</ele>
        <time>2017-10-07T09:26:07.000Z</time>
      </trkpt>
      <trkpt lat="43.42511" lon="6.61442">
        <ele>235.62</ele>
        <time>2017-10-07T09:26:12.000Z</time>
      </trkpt>
      <trkpt lat="43.42532" lon="6.61429">
        <ele>232.57</ele>
        <time>2017-10-07T09:26:17.000Z</time>
      </trkpt>
      <trkpt lat="43.42555" lon="6.61417">
        <ele>229.96</ele>
        <time>2017-10-07T09:26:22.000Z</time>
      </trkpt>
      <trkpt lat="43.42577" lon="6.61415">
        <ele>228.38</ele>
        <time>2017-10-07T09:26:27.000Z</time>
      </trkpt>
      <trkpt lat="43.42596" lon="6.61423">
        <ele>227.56</ele>
        <time>2017-10-07T09:26:32.000Z</time>
      </trkpt>
      <trkpt lat="43.42615" lon="6.61442">
        <ele>227.79</ele>
        <time>2017-10-07T09:26:37.000Z</time>
      </trkpt>
      <trkpt lat="43.42636" lon="6.61468">
        <ele>227.44</ele>
        <time>2017-10-07T09:26:42.000Z</time>
      </trkpt>
      <trkpt lat="43.42654" lon="6.61505">
        <ele>225.89</ele>
        <time>2017-10-07T09:26:47.000Z</time>
      </trkpt>
      <trkpt lat="43.42681" lon="6.61528">
        <ele>222.03</ele>
        <time>2017-10-07T09:26:52.000Z</time>
      </trkpt>
      <trkpt lat="43.42715" lon="6.61503">
        <ele>220.09</ele>
        <time>2017-10-07T09:26:57.000Z</time>
      </trkpt>
      <trkpt lat="43.4326" lon="6.62246">
        <ele>38.02</ele>
        <time>2017-10-07T09:37:34.990Z</time>
      </trkpt>
      <trkpt lat="43.4326" lon="6.62231">
        <ele>38.15</ele>
        <time>2017-10-07T09:37:39.000Z</time>
      </trkpt>
      <trkpt lat="43.43264" lon="6.62242">
        <ele>37.59</ele>
        <time>2017-10-07T09:40:59.000Z</time>
      </trkpt>
      <trkpt lat="43.4327" lon="6.62254">
        <ele>37.53</ele>
        <time>2017-10-07T09:41:13.000Z</time>
      </trkpt>
      <trkpt lat="43.43269" lon="6.62267">
        <ele>38.57</ele>
        <time>2017-10-07T09:41:21.000Z</time>
      </trkpt>
      <trkpt lat="43.43262" lon="6.62275">
        <ele>40.02</ele>
        <time>2017-10-07T09:41:26.000Z</time>
      </trkpt>
      <trkpt lat="43.43255" lon="6.62263">
        <ele>39.35</ele>
        <time>2017-10-07T09:41:33.000Z</time>
      </trkpt>
      <trkpt lat="43.43248" lon="6.62256">
        <ele>39.48</ele>
        <time>2017-10-07T09:41:38.000Z</time>
      </trkpt>
      <trkpt lat="43.43239" lon="6.62255">
        <ele>40.39</ele>
        <time>2017-10-07T09:41:43.000Z</time>
      </trkpt>
      <trkpt lat="43.43228" lon="6.62254">
        <ele>41.73</ele>
        <time>2017-10-07T09:41:48.000Z</time>
      </trkpt>
      <trkpt lat="43.43214" lon="6.62253">
        <ele>43.47</ele>
        <time>2017-10-07T09:41:53.000Z</time>
      </trkpt>
      <trkpt lat="43.43204" lon="6.62251">
        <ele>44.73</ele>
        <time>2017-10-07T09:41:58.000Z</time>
      </trkpt>
      <trkpt lat="43.43193" lon="6.62249">
        <ele>46.22</ele>
        <time>2017-10-07T09:42:03.000Z</time>
      </trkpt>
      <trkpt lat="43.43184" lon="6.62243">
        <ele>47.35</ele>
        <time>2017-10-07T09:42:09.000Z</time>
      </trkpt>
      <trkpt lat="43.43176" lon="6.62235">
        <ele>48.29</ele>
        <time>2017-10-07T09:42:14.000Z</time>
      </trkpt>
      <trkpt lat="43.43168" lon="6.62227">
        <ele>49.43</ele>
        <time>2017-10-07T09:42:19.000Z</time>
      </trkpt>
      <trkpt lat="43.43159" lon="6.62222">
        <ele>50.8</ele>
        <time>2017-10-07T09:42:25.000Z</time>
      </trkpt>
      <trkpt lat="43.43149" lon="6.6222">
        <ele>51.92</ele>
        <time>2017-10-07T09:42:30.000Z</time>
      </trkpt>
      <trkpt lat="43.43139" lon="6.62219">
        <ele>53.03</ele>
        <time>2017-10-07T09:42:35.000Z</time>
      </trkpt>
      <trkpt lat="43.43129" lon="6.62217">
        <ele>54.09</ele>
        <time>2017-10-07T09:42:40.000Z</time>
      </trkpt>
      <trkpt lat="43.43123" lon="6.62207">
        <ele>55.26</ele>
        <time>2017-10-07T09:42:46.000Z</time>
      </trkpt>
      <trkpt lat="43.43134" lon="6.62207">
        <ele>54.41</ele>
        <time>2017-10-07T09:42:53.000Z</time>
      </trkpt>
      <trkpt lat="43.43144" lon="6.62207">
        <ele>53.49</ele>
        <time>2017-10-07T09:42:59.000Z</time>
      </trkpt>
      <trkpt lat="43.43154" lon="6.62205">
        <ele>52.73</ele>
        <time>2017-10-07T09:43:05.000Z</time>
      </trkpt>
      <trkpt lat="43.43165" lon="6.62206">
        <ele>51.43</ele>
        <time>2017-10-07T09:43:11.000Z</time>
      </trkpt>
      <trkpt lat="43.43176" lon="6.62212">
        <ele>49.64</ele>
        <time>2017-10-07T09:43:16.000Z</time>
      </trkpt>
      <trkpt lat="43.43186" lon="6.62212">
        <ele>48.31</ele>
        <time>2017-10-07T09:43:21.000Z</time>
      </trkpt>
      <trkpt lat="43.432" lon="6.62214">
        <ele>46.27</ele>
        <time>2017-10-07T09:43:26.000Z</time>
      </trkpt>
      <trkpt lat="43.43213" lon="6.62211">
        <ele>44.92</ele>
        <time>2017-10-07T09:43:31.000Z</time>
      </trkpt>
      <trkpt lat="43.43224" lon="6.62202">
        <ele>44.59</ele>
        <time>2017-10-07T09:43:36.000Z</time>
      </trkpt>
      <trkpt lat="43.43232" lon="6.62188">
        <ele>45.54</ele>
        <time>2017-10-07T09:43:41.000Z</time>
      </trkpt>
      <trkpt lat="43.43238" lon="6.62168">
        <ele>47.54</ele>
        <time>2017-10-07T09:43:46.000Z</time>
      </trkpt>
      <trkpt lat="43.43241" lon="6.6215">
        <ele>49.91</ele>
        <time>2017-10-07T09:43:51.000Z</time>
      </trkpt>
      <trkpt lat="43.43243" lon="6.62135">
        <ele>52.46</ele>
        <time>2017-10-07T09:43:56.000Z</time>
      </trkpt>
      <trkpt lat="43.43245" lon="6.62123">
        <ele>54.28</ele>
        <time>2017-10-07T09:44:01.000Z</time>
      </trkpt>
      <trkpt lat="43.43249" lon="6.62111">
        <ele>55.99</ele>
        <time>2017-10-07T09:44:06.000Z</time>
      </trkpt>
      <trkpt lat="43.43252" lon="6.62098">
        <ele>57.46</ele>
        <time>2017-10-07T09:44:11.000Z</time>
      </trkpt>
      <trkpt lat="43.43256" lon="6.62085">
        <ele>59.02</ele>
        <time>2017-10-07T09:44:17.000Z</time>
      </trkpt>
      <trkpt lat="43.43258" lon="6.62072">
        <ele>60.75</ele>
        <time>2017-10-07T09:44:22.000Z</time>
      </trkpt>
      <trkpt lat="43.43259" lon="6.62057">
        <ele>64.01</ele>
        <time>2017-10-07T09:44:27.000Z</time>
      </trkpt>
      <trkpt lat="43.43263" lon="6.62042">
        <ele>65.84</ele>
        <time>2017-10-07T09:44:32.000Z</time>
      </trkpt>
      <trkpt lat="43.43269" lon="6.62032">
        <ele>66.58</ele>
        <time>2017-10-07T09:44:37.000Z</time>
      </trkpt>
      <trkpt lat="43.43275" lon="6.6202">
        <ele>66.69</ele>
        <time>2017-10-07T09:44:42.000Z</time>
      </trkpt>
      <trkpt lat="43.43281" lon="6.62008">
        <ele>66.7</ele>
        <time>2017-10-07T09:44:47.000Z</time>
      </trkpt>
      <trkpt lat="43.43287" lon="6.61995">
        <ele>66.63</ele>
        <time>2017-10-07T09:44:52.000Z</time>
      </trkpt>
      <trkpt lat="43.43292" lon="6.61983">
        <ele>66.01</ele>
        <time>2017-10-07T09:44:57.000Z</time>
      </trkpt>
      <trkpt lat="43.43295" lon="6.61966">
        <ele>65.83</ele>
        <time>2017-10-07T09:45:02.000Z</time>
      </trkpt>
      <trkpt lat="43.43296" lon="6.6195">
        <ele>66.16</ele>
        <time>2017-10-07T09:45:07.000Z</time>
      </trkpt>
      <trkpt lat="43.4329" lon="6.6194">
        <ele>67.78</ele>
        <time>2017-10-07T09:45:14.000Z</time>
      </trkpt>
      <trkpt lat="43.43285" lon="6.61929">
        <ele>69.32</ele>
        <time>2017-10-07T09:45:21.000Z</time>
      </trkpt>
      <trkpt lat="43.43278" lon="6.61919">
        <ele>71.16</ele>
        <time>2017-10-07T09:45:29.000Z</time>
      </trkpt>
      <trkpt lat="43.43273" lon="6.61909">
        <ele>72.67</ele>
        <time>2017-10-07T09:45:37.000Z</time>
      </trkpt>
      <trkpt lat="43.43267" lon="6.61898">
        <ele>74.41</ele>
        <time>2017-10-07T09:45:45.000Z</time>
      </trkpt>
      <trkpt lat="43.43262" lon="6.61888">
        <ele>75.99</ele>
        <time>2017-10-07T09:45:51.000Z</time>
      </trkpt>
      <trkpt lat="43.43256" lon="6.61877">
        <ele>77.66</ele>
        <time>2017-10-07T09:45:57.000Z</time>
      </trkpt>
      <trkpt lat="43.43258" lon="6.61863">
        <ele>77.33</ele>
        <time>2017-10-07T09:46:46.000Z</time>
      </trkpt>
      <trkpt lat="43.43262" lon="6.6185">
        <ele>76.49</ele>
        <time>2017-10-07T09:46:53.000Z</time>
      </trkpt>
      <trkpt lat="43.43267" lon="6.61833">
        <ele>75.47</ele>
        <time>2017-10-07T09:46:58.000Z</time>
      </trkpt>
      <trkpt lat="43.43266" lon="6.61815">
        <ele>76.08</ele>
        <time>2017-10-07T09:47:03.000Z</time>
      </trkpt>
      <trkpt lat="43.4326" lon="6.61799">
        <ele>78.5</ele>
        <time>2017-10-07T09:47:08.000Z</time>
      </trkpt>
      <trkpt lat="43.43255" lon="6.61787">
        <ele>80.68</ele>
        <time>2017-10-07T09:47:13.000Z</time>
      </trkpt>
      <trkpt lat="43.43254" lon="6.61772">
        <ele>81.88</ele>
        <time>2017-10-07T09:47:18.000Z</time>
      </trkpt>
      <trkpt lat="43.43252" lon="6.61758">
        <ele>82.91</ele>
        <time>2017-10-07T09:47:23.000Z</time>
      </trkpt>
      <trkpt lat="43.43253" lon="6.61742">
        <ele>83.17</ele>
        <time>2017-10-07T09:47:28.000Z</time>
      </trkpt>
      <trkpt lat="43.43252" lon="6.61726">
        <ele>83.7</ele>
        <time>2017-10-07T09:47:33.000Z</time>
      </trkpt>
      <trkpt lat="43.43252" lon="6.61712">
        <ele>84.04</ele>
        <time>2017-10-07T09:47:38.000Z</time>
      </trkpt>
      <trkpt lat="43.43252" lon="6.61697">
        <ele>84.12</ele>
        <time>2017-10-07T09:47:43.000Z</time>
      </trkpt>
      <trkpt lat="43.43251" lon="6.61684">
        <ele>84.32</ele>
        <time>2017-10-07T09:47:48.000Z</time>
      </trkpt>
      <trkpt lat="43.43249" lon="6.61671">
        <ele>84.44</ele>
        <time>2017-10-07T09:47:53.000Z</time>
      </trkpt>
      <trkpt lat="43.43247" lon="6.61659">
        <ele>84.81</ele>
        <time>2017-10-07T09:47:58.000Z</time>
      </trkpt>
      <trkpt lat="43.43243" lon="6.61647">
        <ele>85.33</ele>
        <time>2017-10-07T09:48:03.000Z</time>
      </trkpt>
      <trkpt lat="43.43237" lon="6.61635">
        <ele>86.1</ele>
        <time>2017-10-07T09:48:08.000Z</time>
      </trkpt>
      <trkpt lat="43.43233" lon="6.61622">
        <ele>86.09</ele>
        <time>2017-10-07T09:48:13.000Z</time>
      </trkpt>
      <trkpt lat="43.43228" lon="6.61609">
        <ele>86.15</ele>
        <time>2017-10-07T09:48:18.000Z</time>
      </trkpt>
      <trkpt lat="43.43222" lon="6.61596">
        <ele>86.17</ele>
        <time>2017-10-07T09:48:23.000Z</time>
      </trkpt>
      <trkpt lat="43.43218" lon="6.61584">
        <ele>85.75</ele>
        <time>2017-10-07T09:48:28.000Z</time>
      </trkpt>
      <trkpt lat="43.43211" lon="6.61572">
        <ele>85.58</ele>
        <time>2017-10-07T09:48:33.000Z</time>
      </trkpt>
      <trkpt lat="43.43201" lon="6.61561">
        <ele>86.51</ele>
        <time>2017-10-07T09:48:38.000Z</time>
      </trkpt>
      <trkpt lat="43.43191" lon="6.61554">
        <ele>88.01</ele>
        <time>2017-10-07T09:48:43.000Z</time>
      </trkpt>
      <trkpt lat="43.43181" lon="6.61549">
        <ele>89.79</ele>
        <time>2017-10-07T09:48:48.000Z</time>
      </trkpt>
      <trkpt lat="43.43168" lon="6.61546">
        <ele>92.41</ele>
        <time>2017-10-07T09:48:53.000Z</time>
      </trkpt>
      <trkpt lat="43.43156" lon="6.61544">
        <ele>94.76</ele>
        <time>2017-10-07T09:48:58.000Z</time>
      </trkpt>
      <trkpt lat="43.43146" lon="6.61543">
        <ele>96.53</ele>
        <time>2017-10-07T09:49:03.000Z</time>
      </trkpt>
      <trkpt lat="43.43135" lon="6.61542">
        <ele>98.59</ele>
        <time>2017-10-07T09:49:08.000Z</time>
      </trkpt>
      <trkpt lat="43.43125" lon="6.61538">
        <ele>99.85</ele>
        <time>2017-10-07T09:49:13.000Z</time>
      </trkpt>
      <trkpt lat="43.4312" lon="6.61525">
        <ele>98.25</ele>
        <time>2017-10-07T09:49:18.000Z</time>
      </trkpt>
      <trkpt lat="43.4312" lon="6.61513">
        <ele>96.06</ele>
        <time>2017-10-07T09:49:23.000Z</time>
      </trkpt>
      <trkpt lat="43.43116" lon="6.61498">
        <ele>94.67</ele>
        <time>2017-10-07T09:49:29.000Z</time>
      </trkpt>
      <trkpt lat="43.43106" lon="6.61491">
        <ele>95.64</ele>
        <time>2017-10-07T09:49:34.000Z</time>
      </trkpt>
      <trkpt lat="43.43095" lon="6.61486">
        <ele>97.09</ele>
        <time>2017-10-07T09:49:39.000Z</time>
      </trkpt>
      <trkpt lat="43.43085" lon="6.61482">
        <ele>98.7</ele>
        <time>2017-10-07T09:49:44.000Z</time>
      </trkpt>
      <trkpt lat="43.43073" lon="6.61481">
        <ele>101.06</ele>
        <time>2017-10-07T09:49:49.000Z</time>
      </trkpt>
      <trkpt lat="43.43061" lon="6.61486">
        <ele>104.13</ele>
        <time>2017-10-07T09:49:54.000Z</time>
      </trkpt>
      <trkpt lat="43.43053" lon="6.61478">
        <ele>104.99</ele>
        <time>2017-10-07T09:50:00.000Z</time>
      </trkpt>
      <trkpt lat="43.43056" lon="6.61465">
        <ele>103.62</ele>
        <time>2017-10-07T09:50:05.000Z</time>
      </trkpt>
      <trkpt lat="43.43055" lon="6.61453">
        <ele>103.23</ele>
        <time>2017-10-07T09:50:12.000Z</time>
      </trkpt>
      <trkpt lat="43.43053" lon="6.6144">
        <ele>103.09</ele>
        <time>2017-10-07T09:50:20.000Z</time>
      </trkpt>
      <trkpt lat="43.43047" lon="6.6143">
        <ele>104.21</ele>
        <time>2017-10-07T09:50:25.000Z</time>
      </trkpt>
      <trkpt lat="43.43039" lon="6.6142">
        <ele>105.91</ele>
        <time>2017-10-07T09:50:31.000Z</time>
      </trkpt>
      <trkpt lat="43.43032" lon="6.61411">
        <ele>107.59</ele>
        <time>2017-10-07T09:50:37.000Z</time>
      </trkpt>
      <trkpt lat="43.43027" lon="6.61398">
        <ele>108.88</ele>
        <time>2017-10-07T09:50:44.000Z</time>
      </trkpt>
      <trkpt lat="43.43025" lon="6.61386">
        <ele>109.63</ele>
        <time>2017-10-07T09:50:49.000Z</time>
      </trkpt>
      <trkpt lat="43.43022" lon="6.61372">
        <ele>110.56</ele>
        <time>2017-10-07T09:50:54.000Z</time>
      </trkpt>
      <trkpt lat="43.43021" lon="6.61359">
        <ele>111.11</ele>
        <time>2017-10-07T09:51:00.000Z</time>
      </trkpt>
      <trkpt lat="43.43019" lon="6.61345">
        <ele>111.76</ele>
        <time>2017-10-07T09:51:05.000Z</time>
      </trkpt>
      <trkpt lat="43.43016" lon="6.61331">
        <ele>112.42</ele>
        <time>2017-10-07T09:51:10.000Z</time>
      </trkpt>
      <trkpt lat="43.43009" lon="6.61318">
        <ele>113.93</ele>
        <time>2017-10-07T09:51:15.000Z</time>
      </trkpt>
      <trkpt lat="43.43006" lon="6.61307">
        <ele>114.75</ele>
        <time>2017-10-07T09:51:20.000Z</time>
      </trkpt>
      <trkpt lat="43.43003" lon="6.61294">
        <ele>115.19</ele>
        <time>2017-10-07T09:51:26.000Z</time>
      </trkpt>
      <trkpt lat="43.42999" lon="6.61281">
        <ele>115.68</ele>
        <time>2017-10-07T09:51:31.000Z</time>
      </trkpt>
      <trkpt lat="43.42995" lon="6.61269">
        <ele>116.31</ele>
        <time>2017-10-07T09:51:36.000Z</time>
      </trkpt>
      <trkpt lat="43.42991" lon="6.61256">
        <ele>116.76</ele>
        <time>2017-10-07T09:51:41.000Z</time>
      </trkpt>
      <trkpt lat="43.42985" lon="6.61246">
        <ele>117.93</ele>
        <time>2017-10-07T09:51:46.000Z</time>
      </trkpt>
      <trkpt lat="43.42979" lon="6.61234">
        <ele>118.95</ele>
        <time>2017-10-07T09:51:53.000Z</time>
      </trkpt>
      <trkpt lat="43.42974" lon="6.61223">
        <ele>119.28</ele>
        <time>2017-10-07T09:51:58.000Z</time>
      </trkpt>
      <trkpt lat="43.42969" lon="6.61209">
        <ele>119.1</ele>
        <time>2017-10-07T09:52:03.000Z</time>
      </trkpt>
      <trkpt lat="43.42962" lon="6.61195">
        <ele>119.31</ele>
        <time>2017-10-07T09:52:08.000Z</time>
      </trkpt>
      <trkpt lat="43.42951" lon="6.61189">
        <ele>121.27</ele>
        <time>2017-10-07T09:52:13.000Z</time>
      </trkpt>
      <trkpt lat="43.42941" lon="6.61184">
        <ele>123.13</ele>
        <time>2017-10-07T09:52:18.000Z</time>
      </trkpt>
      <trkpt lat="43.42931" lon="6.61178">
        <ele>124.3</ele>
        <time>2017-10-07T09:52:23.000Z</time>
      </trkpt>
      <trkpt lat="43.42923" lon="6.6117">
        <ele>124.96</ele>
        <time>2017-10-07T09:52:28.000Z</time>
      </trkpt>
      <trkpt lat="43.42917" lon="6.61161">
        <ele>124.85</ele>
        <time>2017-10-07T09:52:33.000Z</time>
      </trkpt>
      <trkpt lat="43.4291" lon="6.61151">
        <ele>124.95</ele>
        <time>2017-10-07T09:52:39.000Z</time>
      </trkpt>
      <trkpt lat="43.42901" lon="6.61143">
        <ele>125.89</ele>
        <time>2017-10-07T09:52:44.000Z</time>
      </trkpt>
      <trkpt lat="43.42892" lon="6.61134">
        <ele>126.72</ele>
        <time>2017-10-07T09:52:49.000Z</time>
      </trkpt>
      <trkpt lat="43.42882" lon="6.61128">
        <ele>128.15</ele>
        <time>2017-10-07T09:52:54.000Z</time>
      </trkpt>
      <trkpt lat="43.42873" lon="6.61123">
        <ele>129.73</ele>
        <time>2017-10-07T09:52:59.000Z</time>
      </trkpt>
      <trkpt lat="43.42864" lon="6.61115">
        <ele>130.06</ele>
        <time>2017-10-07T09:53:04.000Z</time>
      </trkpt>
      <trkpt lat="43.42853" lon="6.6111">
        <ele>131.39</ele>
        <time>2017-10-07T09:53:09.000Z</time>
      </trkpt>
      <trkpt lat="43.42843" lon="6.61104">
        <ele>131.53</ele>
        <time>2017-10-07T09:53:14.000Z</time>
      </trkpt>
      <trkpt lat="43.42835" lon="6.61092">
        <ele>129.92</ele>
        <time>2017-10-07T09:53:19.000Z</time>
      </trkpt>
      <trkpt lat="43.42825" lon="6.61083">
        <ele>128.81</ele>
        <time>2017-10-07T09:53:24.000Z</time>
      </trkpt>
      <trkpt lat="43.42812" lon="6.6108">
        <ele>128.97</ele>
        <time>2017-10-07T09:53:29.000Z</time>
      </trkpt>
      <trkpt lat="43.42799" lon="6.61081">
        <ele>129.95</ele>
        <time>2017-10-07T09:53:34.000Z</time>
      </trkpt>
      <trkpt lat="43.42787" lon="6.61083">
        <ele>130.67</ele>
        <time>2017-10-07T09:53:39.000Z</time>
      </trkpt>
      <trkpt lat="43.42776" lon="6.61086">
        <ele>131.69</ele>
        <time>2017-10-07T09:53:44.000Z</time>
      </trkpt>
      <trkpt lat="43.42767" lon="6.61091">
        <ele>133.17</ele>
        <time>2017-10-07T09:53:49.000Z</time>
      </trkpt>
      <trkpt lat="43.42757" lon="6.61097">
        <ele>134.99</ele>
        <time>2017-10-07T09:53:54.000Z</time>
      </trkpt>
      <trkpt lat="43.42747" lon="6.61104">
        <ele>137.49</ele>
        <time>2017-10-07T09:53:59.000Z</time>
      </trkpt>
      <trkpt lat="43.42738" lon="6.61116">
        <ele>141.48</ele>
        <time>2017-10-07T09:54:04.000Z</time>
      </trkpt>
      <trkpt lat="43.4273" lon="6.61129">
        <ele>145.58</ele>
        <time>2017-10-07T09:54:09.000Z</time>
      </trkpt>
      <trkpt lat="43.4272" lon="6.61138">
        <ele>148.15</ele>
        <time>2017-10-07T09:54:14.000Z</time>
      </trkpt>
      <trkpt lat="43.42709" lon="6.61139">
        <ele>148.5</ele>
        <time>2017-10-07T09:54:19.000Z</time>
      </trkpt>
      <trkpt lat="43.42696" lon="6.61137">
        <ele>148.35</ele>
        <time>2017-10-07T09:54:24.000Z</time>
      </trkpt>
      <trkpt lat="43.42688" lon="6.61129">
        <ele>146.49</ele>
        <time>2017-10-07T09:54:30.000Z</time>
      </trkpt>
      <trkpt lat="43.42681" lon="6.61117">
        <ele>143.94</ele>
        <time>2017-10-07T09:54:36.000Z</time>
      </trkpt>
      <trkpt lat="43.42668" lon="6.61112">
        <ele>144.05</ele>
        <time>2017-10-07T09:54:41.000Z</time>
      </trkpt>
      <trkpt lat="43.42654" lon="6.61109">
        <ele>144.97</ele>
        <time>2017-10-07T09:54:46.000Z</time>
      </trkpt>
      <trkpt lat="43.42639" lon="6.6111">
        <ele>147.26</ele>
        <time>2017-10-07T09:54:51.000Z</time>
      </trkpt>
      <trkpt lat="43.42625" lon="6.61106">
        <ele>148.6</ele>
        <time>2017-10-07T09:54:56.000Z</time>
      </trkpt>
      <trkpt lat="43.42615" lon="6.611">
        <ele>148.73</ele>
        <time>2017-10-07T09:55:01.000Z</time>
      </trkpt>
      <trkpt lat="43.42605" lon="6.61092">
        <ele>148.76</ele>
        <time>2017-10-07T09:55:06.000Z</time>
      </trkpt>
      <trkpt lat="43.42589" lon="6.61081">
        <ele>150.18</ele>
        <time>2017-10-07T09:55:11.000Z</time>
      </trkpt>
      <trkpt lat="43.42574" lon="6.61071">
        <ele>152.66</ele>
        <time>2017-10-07T09:55:16.000Z</time>
      </trkpt>
      <trkpt lat="43.42563" lon="6.61059">
        <ele>154.92</ele>
        <time>2017-10-07T09:55:21.000Z</time>
      </trkpt>
      <trkpt lat="43.4256" lon="6.61042">
        <ele>154.06</ele>
        <time>2017-10-07T09:55:26.000Z</time>
      </trkpt>
      <trkpt lat="43.42554" lon="6.61023">
        <ele>155.27</ele>
        <time>2017-10-07T09:55:31.000Z</time>
      </trkpt>
      <trkpt lat="43.42546" lon="6.61011">
        <ele>158.42</ele>
        <time>2017-10-07T09:55:36.000Z</time>
      </trkpt>
      <trkpt lat="43.42546" lon="6.60997">
        <ele>157.93</ele>
        <time>2017-10-07T09:55:43.000Z</time>
      </trkpt>
      <trkpt lat="43.42551" lon="6.60984">
        <ele>155.85</ele>
        <time>2017-10-07T09:55:48.000Z</time>
      </trkpt>
      <trkpt lat="43.42554" lon="6.60965">
        <ele>154.9</ele>
        <time>2017-10-07T09:55:53.000Z</time>
      </trkpt>
      <trkpt lat="43.42553" lon="6.60947">
        <ele>156.68</ele>
        <time>2017-10-07T09:55:58.000Z</time>
      </trkpt>
      <trkpt lat="43.42549" lon="6.60931">
        <ele>159.71</ele>
        <time>2017-10-07T09:56:03.000Z</time>
      </trkpt>
      <trkpt lat="43.42545" lon="6.60907">
        <ele>162.06</ele>
        <time>2017-10-07T09:56:08.000Z</time>
      </trkpt>
      <trkpt lat="43.4255" lon="6.60885">
        <ele>159.9</ele>
        <time>2017-10-07T09:56:13.000Z</time>
      </trkpt>
      <trkpt lat="43.42553" lon="6.60863">
        <ele>158.31</ele>
        <time>2017-10-07T09:56:18.000Z</time>
      </trkpt>
      <trkpt lat="43.42551" lon="6.60843">
        <ele>158.39</ele>
        <time>2017-10-07T09:56:23.000Z</time>
      </trkpt>
      <trkpt lat="43.42549" lon="6.60825">
        <ele>157.78</ele>
        <time>2017-10-07T09:56:28.000Z</time>
      </trkpt>
      <trkpt lat="43.42547" lon="6.60809">
        <ele>156.87</ele>
        <time>2017-10-07T09:56:33.000Z</time>
      </trkpt>
      <trkpt lat="43.42539" lon="6.6079">
        <ele>156.94</ele>
        <time>2017-10-07T09:56:38.000Z</time>
      </trkpt>
      <trkpt lat="43.42525" lon="6.60776">
        <ele>157.74</ele>
        <time>2017-10-07T09:56:43.000Z</time>
      </trkpt>
      <trkpt lat="43.42511" lon="6.60768">
        <ele>158.96</ele>
        <time>2017-10-07T09:56:48.000Z</time>
      </trkpt>
      <trkpt lat="43.42497" lon="6.60764">
        <ele>160.91</ele>
        <time>2017-10-07T09:56:53.000Z</time>
      </trkpt>
      <trkpt lat="43.42484" lon="6.60759">
        <ele>162.77</ele>
        <time>2017-10-07T09:56:58.000Z</time>
      </trkpt>
      <trkpt lat="43.42473" lon="6.60748">
        <ele>162.05</ele>
        <time>2017-10-07T09:57:03.000Z</time>
      </trkpt>
      <trkpt lat="43.42461" lon="6.60737">
        <ele>161.73</ele>
        <time>2017-10-07T09:57:08.000Z</time>
      </trkpt>
      <trkpt lat="43.42448" lon="6.60732">
        <ele>163.23</ele>
        <time>2017-10-07T09:57:13.000Z</time>
      </trkpt>
      <trkpt lat="43.42432" lon="6.60731">
        <ele>167.22</ele>
        <time>2017-10-07T09:57:18.000Z</time>
      </trkpt>
      <trkpt lat="43.42419" lon="6.6073">
        <ele>170.29</ele>
        <time>2017-10-07T09:57:23.000Z</time>
      </trkpt>
      <trkpt lat="43.42407" lon="6.60733">
        <ele>174.13</ele>
        <time>2017-10-07T09:57:28.000Z</time>
      </trkpt>
      <trkpt lat="43.42396" lon="6.60733">
        <ele>176.86</ele>
        <time>2017-10-07T09:57:33.000Z</time>
      </trkpt>
      <trkpt lat="43.42387" lon="6.60731">
        <ele>177.96</ele>
        <time>2017-10-07T09:57:38.000Z</time>
      </trkpt>
      <trkpt lat="43.42379" lon="6.60724">
        <ele>177.9</ele>
        <time>2017-10-07T09:57:44.000Z</time>
      </trkpt>
      <trkpt lat="43.4237" lon="6.60716">
        <ele>177.63</ele>
        <time>2017-10-07T09:57:50.000Z</time>
      </trkpt>
      <trkpt lat="43.42362" lon="6.60708">
        <ele>177.68</ele>
        <time>2017-10-07T09:57:55.000Z</time>
      </trkpt>
      <trkpt lat="43.4236" lon="6.60695">
        <ele>175.24</ele>
        <time>2017-10-07T09:58:00.000Z</time>
      </trkpt>
      <trkpt lat="43.42357" lon="6.60682">
        <ele>173.3</ele>
        <time>2017-10-07T09:58:06.000Z</time>
      </trkpt>
      <trkpt lat="43.42353" lon="6.60668">
        <ele>172.48</ele>
        <time>2017-10-07T09:58:11.000Z</time>
      </trkpt>
      <trkpt lat="43.42346" lon="6.60657">
        <ele>173.37</ele>
        <time>2017-10-07T09:58:16.000Z</time>
      </trkpt>
      <trkpt lat="43.42338" lon="6.6065">
        <ele>174.9</ele>
        <time>2017-10-07T09:58:22.000Z</time>
      </trkpt>
      <trkpt lat="43.42329" lon="6.60645">
        <ele>176.68</ele>
        <time>2017-10-07T09:58:28.000Z</time>
      </trkpt>
      <trkpt lat="43.4232" lon="6.6064">
        <ele>178.06</ele>
        <time>2017-10-07T09:58:33.000Z</time>
      </trkpt>
      <trkpt lat="43.42309" lon="6.60639">
        <ele>179.77</ele>
        <time>2017-10-07T09:58:38.000Z</time>
      </trkpt>
      <trkpt lat="43.42297" lon="6.60638">
        <ele>181.35</ele>
        <time>2017-10-07T09:58:43.000Z</time>
      </trkpt>
      <trkpt lat="43.42287" lon="6.6064">
        <ele>182.71</ele>
        <time>2017-10-07T09:58:48.000Z</time>
      </trkpt>
      <trkpt lat="43.42275" lon="6.60645">
        <ele>184.04</ele>
        <time>2017-10-07T09:58:53.000Z</time>
      </trkpt>
      <trkpt lat="43.42264" lon="6.60652">
        <ele>185.33</ele>
        <time>2017-10-07T09:58:58.000Z</time>
      </trkpt>
      <trkpt lat="43.4225" lon="6.6066">
        <ele>186.77</ele>
        <time>2017-10-07T09:59:03.000Z</time>
      </trkpt>
      <trkpt lat="43.42239" lon="6.60668">
        <ele>187.99</ele>
        <time>2017-10-07T09:59:08.000Z</time>
      </trkpt>
      <trkpt lat="43.42227" lon="6.60678">
        <ele>189.09</ele>
        <time>2017-10-07T09:59:13.000Z</time>
      </trkpt>
      <trkpt lat="43.42216" lon="6.60694">
        <ele>189.98</ele>
        <time>2017-10-07T09:59:18.000Z</time>
      </trkpt>
      <trkpt lat="43.42206" lon="6.60711">
        <ele>190.51</ele>
        <time>2017-10-07T09:59:23.000Z</time>
      </trkpt>
      <trkpt lat="43.42197" lon="6.60725">
        <ele>190.67</ele>
        <time>2017-10-07T09:59:28.000Z</time>
      </trkpt>
      <trkpt lat="43.42181" lon="6.60741">
        <ele>190.6</ele>
        <time>2017-10-07T09:59:33.000Z</time>
      </trkpt>
      <trkpt lat="43.42173" lon="6.60751">
        <ele>190.89</ele>
        <time>2017-10-07T09:59:38.000Z</time>
      </trkpt>
      <trkpt lat="43.42161" lon="6.60761">
        <ele>191.83</ele>
        <time>2017-10-07T09:59:43.000Z</time>
      </trkpt>
      <trkpt lat="43.4215" lon="6.60773">
        <ele>193.38</ele>
        <time>2017-10-07T09:59:48.000Z</time>
      </trkpt>
      <trkpt lat="43.4214" lon="6.60786">
        <ele>195.09</ele>
        <time>2017-10-07T09:59:53.000Z</time>
      </trkpt>
      <trkpt lat="43.4213" lon="6.60801">
        <ele>196.59</ele>
        <time>2017-10-07T09:59:58.000Z</time>
      </trkpt>
      <trkpt lat="43.42122" lon="6.60818">
        <ele>197.72</ele>
        <time>2017-10-07T10:00:03.000Z</time>
      </trkpt>
      <trkpt lat="43.42115" lon="6.60836">
        <ele>198.52</ele>
        <time>2017-10-07T10:00:08.000Z</time>
      </trkpt>
      <trkpt lat="43.42107" lon="6.60855">
        <ele>199.21</ele>
        <time>2017-10-07T10:00:13.000Z</time>
      </trkpt>
      <trkpt lat="43.42097" lon="6.60874">
        <ele>199.78</ele>
        <time>2017-10-07T10:00:18.000Z</time>
      </trkpt>
      <trkpt lat="43.42084" lon="6.60889">
        <ele>200.07</ele>
        <time>2017-10-07T10:00:23.000Z</time>
      </trkpt>
      <trkpt lat="43.42069" lon="6.60902">
        <ele>200.35</ele>
        <time>2017-10-07T10:00:28.000Z</time>
      </trkpt>
      <trkpt lat="43.42056" lon="6.60912">
        <ele>200.61</ele>
        <time>2017-10-07T10:00:33.000Z</time>
      </trkpt>
      <trkpt lat="43.42042" lon="6.60918">
        <ele>200.71</ele>
        <time>2017-10-07T10:00:38.000Z</time>
      </trkpt>
      <trkpt lat="43.42025" lon="6.60927">
        <ele>201.22</ele>
        <time>2017-10-07T10:00:43.000Z</time>
      </trkpt>
      <trkpt lat="43.4201" lon="6.60941">
        <ele>202.4</ele>
        <time>2017-10-07T10:00:48.000Z</time>
      </trkpt>
      <trkpt lat="43.41997" lon="6.60955">
        <ele>204.09</ele>
        <time>2017-10-07T10:00:53.000Z</time>
      </trkpt>
      <trkpt lat="43.41983" lon="6.60968">
        <ele>206.03</ele>
        <time>2017-10-07T10:00:58.000Z</time>
      </trkpt>
      <trkpt lat="43.41971" lon="6.60978">
        <ele>207.73</ele>
        <time>2017-10-07T10:01:03.000Z</time>
      </trkpt>
      <trkpt lat="43.41962" lon="6.60982">
        <ele>208.89</ele>
        <time>2017-10-07T10:01:08.000Z</time>
      </trkpt>
      <trkpt lat="43.41952" lon="6.60981">
        <ele>209.98</ele>
        <time>2017-10-07T10:01:14.000Z</time>
      </trkpt>
      <trkpt lat="43.41945" lon="6.60974">
        <ele>210.64</ele>
        <time>2017-10-07T10:01:20.000Z</time>
      </trkpt>
      <trkpt lat="43.41935" lon="6.60971">
        <ele>212.05</ele>
        <time>2017-10-07T10:01:27.000Z</time>
      </trkpt>
      <trkpt lat="43.41925" lon="6.60973">
        <ele>213.77</ele>
        <time>2017-10-07T10:01:33.000Z</time>
      </trkpt>
      <trkpt lat="43.41916" lon="6.60975">
        <ele>215.43</ele>
        <time>2017-10-07T10:01:41.000Z</time>
      </trkpt>
      <trkpt lat="43.41906" lon="6.60981">
        <ele>217.45</ele>
        <time>2017-10-07T10:01:47.000Z</time>
      </trkpt>
      <trkpt lat="43.419" lon="6.60991">
        <ele>219.03</ele>
        <time>2017-10-07T10:01:53.000Z</time>
      </trkpt>
      <trkpt lat="43.41896" lon="6.61003">
        <ele>220.19</ele>
        <time>2017-10-07T10:01:59.000Z</time>
      </trkpt>
      <trkpt lat="43.41902" lon="6.61015">
        <ele>219.35</ele>
        <time>2017-10-07T10:02:04.000Z</time>
      </trkpt>
      <trkpt lat="43.41912" lon="6.61023">
        <ele>217.93</ele>
        <time>2017-10-07T10:02:09.000Z</time>
      </trkpt>
      <trkpt lat="43.41921" lon="6.6103">
        <ele>217.06</ele>
        <time>2017-10-07T10:02:14.000Z</time>
      </trkpt>
      <trkpt lat="43.41929" lon="6.61041">
        <ele>216.69</ele>
        <time>2017-10-07T10:02:19.000Z</time>
      </trkpt>
      <trkpt lat="43.41936" lon="6.61049">
        <ele>216.41</ele>
        <time>2017-10-07T10:02:24.000Z</time>
      </trkpt>
      <trkpt lat="43.41942" lon="6.61059">
        <ele>216.52</ele>
        <time>2017-10-07T10:02:30.000Z</time>
      </trkpt>
      <trkpt lat="43.41941" lon="6.61072">
        <ele>217.53</ele>
        <time>2017-10-07T10:02:36.000Z</time>
      </trkpt>
      <trkpt lat="43.41936" lon="6.61082">
        <ele>218.75</ele>
        <time>2017-10-07T10:02:42.000Z</time>
      </trkpt>
      <trkpt lat="43.41931" lon="6.61093">
        <ele>219.79</ele>
        <time>2017-10-07T10:02:47.000Z</time>
      </trkpt>
      <trkpt lat="43.41924" lon="6.61101">
        <ele>220.72</ele>
        <time>2017-10-07T10:02:52.000Z</time>
      </trkpt>
      <trkpt lat="43.41916" lon="6.61108">
        <ele>221.52</ele>
        <time>2017-10-07T10:02:57.000Z</time>
      </trkpt>
      <trkpt lat="43.41906" lon="6.61112">
        <ele>222.55</ele>
        <time>2017-10-07T10:03:02.000Z</time>
      </trkpt>
      <trkpt lat="43.41896" lon="6.61115">
        <ele>223.56</ele>
        <time>2017-10-07T10:03:07.000Z</time>
      </trkpt>
      <trkpt lat="43.41886" lon="6.6112">
        <ele>224.66</ele>
        <time>2017-10-07T10:03:12.000Z</time>
      </trkpt>
      <trkpt lat="43.41875" lon="6.61124">
        <ele>225.89</ele>
        <time>2017-10-07T10:03:17.000Z</time>
      </trkpt>
      <trkpt lat="43.41864" lon="6.61128">
        <ele>226.92</ele>
        <time>2017-10-07T10:03:22.000Z</time>
      </trkpt>
      <trkpt lat="43.41854" lon="6.61131">
        <ele>227.93</ele>
        <time>2017-10-07T10:03:27.000Z</time>
      </trkpt>
      <trkpt lat="43.41843" lon="6.61132">
        <ele>228.99</ele>
        <time>2017-10-07T10:03:32.000Z</time>
      </trkpt>
      <trkpt lat="43.41832" lon="6.61133">
        <ele>229.9</ele>
        <time>2017-10-07T10:03:38.000Z</time>
      </trkpt>
      <trkpt lat="43.41821" lon="6.61135">
        <ele>230.59</ele>
        <time>2017-10-07T10:03:43.000Z</time>
      </trkpt>
      <trkpt lat="43.4181" lon="6.61137">
        <ele>231.31</ele>
        <time>2017-10-07T10:03:48.000Z</time>
      </trkpt>
      <trkpt lat="43.41799" lon="6.6114">
        <ele>231.78</ele>
        <time>2017-10-07T10:03:53.000Z</time>
      </trkpt>
      <trkpt lat="43.41789" lon="6.6114">
        <ele>232.62</ele>
        <time>2017-10-07T10:03:58.000Z</time>
      </trkpt>
      <trkpt lat="43.41778" lon="6.61138">
        <ele>233.62</ele>
        <time>2017-10-07T10:04:03.000Z</time>
      </trkpt>
      <trkpt lat="43.41768" lon="6.61135">
        <ele>235.06</ele>
        <time>2017-10-07T10:04:08.000Z</time>
      </trkpt>
      <trkpt lat="43.41756" lon="6.61131">
        <ele>236.66</ele>
        <time>2017-10-07T10:04:13.000Z</time>
      </trkpt>
      <trkpt lat="43.41745" lon="6.61129">
        <ele>237.64</ele>
        <time>2017-10-07T10:04:18.000Z</time>
      </trkpt>
      <trkpt lat="43.41735" lon="6.61128">
        <ele>238.21</ele>
        <time>2017-10-07T10:04:23.000Z</time>
      </trkpt>
      <trkpt lat="43.41726" lon="6.61126">
        <ele>238.9</ele>
        <time>2017-10-07T10:04:29.000Z</time>
      </trkpt>
      <trkpt lat="43.41716" lon="6.61127">
        <ele>239</ele>
        <time>2017-10-07T10:04:34.000Z</time>
      </trkpt>
      <trkpt lat="43.41705" lon="6.61125">
        <ele>239.51</ele>
        <time>2017-10-07T10:04:39.000Z</time>
      </trkpt>
      <trkpt lat="43.41697" lon="6.61121">
        <ele>240.31</ele>
        <time>2017-10-07T10:04:44.000Z</time>
      </trkpt>
      <trkpt lat="43.41688" lon="6.61116">
        <ele>241.32</ele>
        <time>2017-10-07T10:04:49.000Z</time>
      </trkpt>
      <trkpt lat="43.41681" lon="6.61107">
        <ele>243.02</ele>
        <time>2017-10-07T10:04:54.000Z</time>
      </trkpt>
      <trkpt lat="43.41677" lon="6.61095">
        <ele>245.08</ele>
        <time>2017-10-07T10:04:59.000Z</time>
      </trkpt>
      <trkpt lat="43.41672" lon="6.61081">
        <ele>247.36</ele>
        <time>2017-10-07T10:05:04.000Z</time>
      </trkpt>
      <trkpt lat="43.41666" lon="6.61071">
        <ele>248.97</ele>
        <time>2017-10-07T10:05:09.000Z</time>
      </trkpt>
      <trkpt lat="43.41657" lon="6.61068">
        <ele>249.47</ele>
        <time>2017-10-07T10:05:14.000Z</time>
      </trkpt>
      <trkpt lat="43.41648" lon="6.61063">
        <ele>250.22</ele>
        <time>2017-10-07T10:05:20.000Z</time>
      </trkpt>
      <trkpt lat="43.41639" lon="6.61056">
        <ele>251.32</ele>
        <time>2017-10-07T10:08:17.000Z</time>
      </trkpt>
      <trkpt lat="43.41631" lon="6.61049">
        <ele>252.59</ele>
        <time>2017-10-07T10:08:22.000Z</time>
      </trkpt>
      <trkpt lat="43.41622" lon="6.61042">
        <ele>253.8</ele>
        <time>2017-10-07T10:08:28.000Z</time>
      </trkpt>
      <trkpt lat="43.41614" lon="6.61035">
        <ele>255.21</ele>
        <time>2017-10-07T10:08:35.000Z</time>
      </trkpt>
      <trkpt lat="43.41609" lon="6.61024">
        <ele>257.19</ele>
        <time>2017-10-07T10:08:42.000Z</time>
      </trkpt>
      <trkpt lat="43.41605" lon="6.61012">
        <ele>259.24</ele>
        <time>2017-10-07T10:08:49.000Z</time>
      </trkpt>
      <trkpt lat="43.41595" lon="6.6101">
        <ele>259.88</ele>
        <time>2017-10-07T10:08:56.000Z</time>
      </trkpt>
      <trkpt lat="43.4159" lon="6.61022">
        <ele>258.36</ele>
        <time>2017-10-07T10:09:02.000Z</time>
      </trkpt>
      <trkpt lat="43.41583" lon="6.61033">
        <ele>256.76</ele>
        <time>2017-10-07T10:09:07.000Z</time>
      </trkpt>
      <trkpt lat="43.41574" lon="6.61041">
        <ele>255.87</ele>
        <time>2017-10-07T10:09:12.000Z</time>
      </trkpt>
      <trkpt lat="43.41564" lon="6.61043">
        <ele>256.28</ele>
        <time>2017-10-07T10:09:19.000Z</time>
      </trkpt>
      <trkpt lat="43.41553" lon="6.61041">
        <ele>257.98</ele>
        <time>2017-10-07T10:09:25.000Z</time>
      </trkpt>
      <trkpt lat="43.41543" lon="6.61037">
        <ele>260.06</ele>
        <time>2017-10-07T10:09:31.000Z</time>
      </trkpt>
      <trkpt lat="43.41534" lon="6.61032">
        <ele>262.29</ele>
        <time>2017-10-07T10:09:37.000Z</time>
      </trkpt>
      <trkpt lat="43.41523" lon="6.61028">
        <ele>264.66</ele>
        <time>2017-10-07T10:09:42.000Z</time>
      </trkpt>
      <trkpt lat="43.41514" lon="6.61021">
        <ele>267.21</ele>
        <time>2017-10-07T10:09:47.000Z</time>
      </trkpt>
      <trkpt lat="43.41504" lon="6.61018">
        <ele>268.95</ele>
        <time>2017-10-07T10:09:52.000Z</time>
      </trkpt>
      <trkpt lat="43.41493" lon="6.6102">
        <ele>269.46</ele>
        <time>2017-10-07T10:09:57.000Z</time>
      </trkpt>
      <trkpt lat="43.4148" lon="6.61023">
        <ele>269.51</ele>
        <time>2017-10-07T10:10:02.000Z</time>
      </trkpt>
      <trkpt lat="43.41468" lon="6.61024">
        <ele>269.86</ele>
        <time>2017-10-07T10:10:07.000Z</time>
      </trkpt>
      <trkpt lat="43.41456" lon="6.61022">
        <ele>270.74</ele>
        <time>2017-10-07T10:10:12.000Z</time>
      </trkpt>
      <trkpt lat="43.41445" lon="6.61019">
        <ele>271.71</ele>
        <time>2017-10-07T10:10:17.000Z</time>
      </trkpt>
      <trkpt lat="43.41435" lon="6.61016">
        <ele>272.57</ele>
        <time>2017-10-07T10:10:22.000Z</time>
      </trkpt>
      <trkpt lat="43.41424" lon="6.61012">
        <ele>273.64</ele>
        <time>2017-10-07T10:10:27.000Z</time>
      </trkpt>
      <trkpt lat="43.41411" lon="6.61008">
        <ele>274.66</ele>
        <time>2017-10-07T10:10:32.000Z</time>
      </trkpt>
      <trkpt lat="43.41399" lon="6.61005">
        <ele>274.94</ele>
        <time>2017-10-07T10:10:37.000Z</time>
      </trkpt>
      <trkpt lat="43.41388" lon="6.60999">
        <ele>275.26</ele>
        <time>2017-10-07T10:10:42.000Z</time>
      </trkpt>
      <trkpt lat="43.41377" lon="6.60994">
        <ele>275.39</ele>
        <time>2017-10-07T10:10:47.000Z</time>
      </trkpt>
      <trkpt lat="43.41364" lon="6.60985">
        <ele>275.93</ele>
        <time>2017-10-07T10:10:52.000Z</time>
      </trkpt>
      <trkpt lat="43.41353" lon="6.60976">
        <ele>276.96</ele>
        <time>2017-10-07T10:10:57.000Z</time>
      </trkpt>
      <trkpt lat="43.4134" lon="6.6097">
        <ele>277.82</ele>
        <time>2017-10-07T10:11:02.000Z</time>
      </trkpt>
      <trkpt lat="43.41329" lon="6.60963">
        <ele>279.24</ele>
        <time>2017-10-07T10:11:07.000Z</time>
      </trkpt>
      <trkpt lat="43.41318" lon="6.60955">
        <ele>281</ele>
        <time>2017-10-07T10:11:12.000Z</time>
      </trkpt>
      <trkpt lat="43.4131" lon="6.60944">
        <ele>282.77</ele>
        <time>2017-10-07T10:11:17.000Z</time>
      </trkpt>
      <trkpt lat="43.41302" lon="6.60933">
        <ele>284.04</ele>
        <time>2017-10-07T10:11:22.000Z</time>
      </trkpt>
      <trkpt lat="43.41295" lon="6.60921">
        <ele>284.98</ele>
        <time>2017-10-07T10:11:27.000Z</time>
      </trkpt>
      <trkpt lat="43.41288" lon="6.60908">
        <ele>285.92</ele>
        <time>2017-10-07T10:11:32.000Z</time>
      </trkpt>
      <trkpt lat="43.41282" lon="6.60896">
        <ele>286.86</ele>
        <time>2017-10-07T10:11:37.000Z</time>
      </trkpt>
      <trkpt lat="43.41273" lon="6.60887">
        <ele>287.51</ele>
        <time>2017-10-07T10:11:42.000Z</time>
      </trkpt>
      <trkpt lat="43.41264" lon="6.60881">
        <ele>287.84</ele>
        <time>2017-10-07T10:11:47.000Z</time>
      </trkpt>
      <trkpt lat="43.41255" lon="6.60877">
        <ele>288.25</ele>
        <time>2017-10-07T10:11:52.000Z</time>
      </trkpt>
      <trkpt lat="43.41245" lon="6.60876">
        <ele>288.63</ele>
        <time>2017-10-07T10:11:57.000Z</time>
      </trkpt>
      <trkpt lat="43.41236" lon="6.60872">
        <ele>289.67</ele>
        <time>2017-10-07T10:12:02.000Z</time>
      </trkpt>
      <trkpt lat="43.41226" lon="6.60867">
        <ele>290.98</ele>
        <time>2017-10-07T10:12:07.000Z</time>
      </trkpt>
      <trkpt lat="43.41218" lon="6.60858">
        <ele>292.3</ele>
        <time>2017-10-07T10:12:12.000Z</time>
      </trkpt>
      <trkpt lat="43.41211" lon="6.60849">
        <ele>293.56</ele>
        <time>2017-10-07T10:12:17.000Z</time>
      </trkpt>
      <trkpt lat="43.41202" lon="6.6084">
        <ele>294.8</ele>
        <time>2017-10-07T10:12:22.000Z</time>
      </trkpt>
      <trkpt lat="43.41192" lon="6.60835">
        <ele>295.92</ele>
        <time>2017-10-07T10:12:28.000Z</time>
      </trkpt>
      <trkpt lat="43.41184" lon="6.6083">
        <ele>297.15</ele>
        <time>2017-10-07T10:12:33.000Z</time>
      </trkpt>
      <trkpt lat="43.41174" lon="6.60823">
        <ele>298.75</ele>
        <time>2017-10-07T10:12:38.000Z</time>
      </trkpt>
      <trkpt lat="43.41165" lon="6.60825">
        <ele>299.88</ele>
        <time>2017-10-07T10:12:44.000Z</time>
      </trkpt>
      <trkpt lat="43.41162" lon="6.60839">
        <ele>299.61</ele>
        <time>2017-10-07T10:12:49.000Z</time>
      </trkpt>
      <trkpt lat="43.41162" lon="6.60854">
        <ele>300.02</ele>
        <time>2017-10-07T10:12:54.000Z</time>
      </trkpt>
      <trkpt lat="43.41164" lon="6.60869">
        <ele>300.92</ele>
        <time>2017-10-07T10:12:59.000Z</time>
      </trkpt>
      <trkpt lat="43.41166" lon="6.60882">
        <ele>301.84</ele>
        <time>2017-10-07T10:13:04.000Z</time>
      </trkpt>
      <trkpt lat="43.41171" lon="6.60897">
        <ele>302.9</ele>
        <time>2017-10-07T10:13:09.000Z</time>
      </trkpt>
      <trkpt lat="43.41175" lon="6.6091">
        <ele>303.35</ele>
        <time>2017-10-07T10:13:14.000Z</time>
      </trkpt>
      <trkpt lat="43.41181" lon="6.60921">
        <ele>303.14</ele>
        <time>2017-10-07T10:13:19.000Z</time>
      </trkpt>
      <trkpt lat="43.41189" lon="6.60936">
        <ele>302.94</ele>
        <time>2017-10-07T10:13:24.000Z</time>
      </trkpt>
      <trkpt lat="43.41197" lon="6.6095">
        <ele>303.09</ele>
        <time>2017-10-07T10:13:29.000Z</time>
      </trkpt>
      <trkpt lat="43.41203" lon="6.60964">
        <ele>303.56</ele>
        <time>2017-10-07T10:13:34.000Z</time>
      </trkpt>
      <trkpt lat="43.41208" lon="6.60976">
        <ele>303.8</ele>
        <time>2017-10-07T10:13:39.000Z</time>
      </trkpt>
      <trkpt lat="43.41214" lon="6.60989">
        <ele>303.84</ele>
        <time>2017-10-07T10:13:44.000Z</time>
      </trkpt>
      <trkpt lat="43.4122" lon="6.61001">
        <ele>303.43</ele>
        <time>2017-10-07T10:13:49.000Z</time>
      </trkpt>
      <trkpt lat="43.41228" lon="6.61014">
        <ele>302.29</ele>
        <time>2017-10-07T10:13:54.000Z</time>
      </trkpt>
      <trkpt lat="43.41237" lon="6.61028">
        <ele>301.56</ele>
        <time>2017-10-07T10:13:59.000Z</time>
      </trkpt>
      <trkpt lat="43.41246" lon="6.61041">
        <ele>301.15</ele>
        <time>2017-10-07T10:14:04.000Z</time>
      </trkpt>
      <trkpt lat="43.41253" lon="6.61055">
        <ele>301.14</ele>
        <time>2017-10-07T10:14:09.000Z</time>
      </trkpt>
      <trkpt lat="43.41261" lon="6.61068">
        <ele>300.75</ele>
        <time>2017-10-07T10:14:14.000Z</time>
      </trkpt>
      <trkpt lat="43.41264" lon="6.61086">
        <ele>300.61</ele>
        <time>2017-10-07T10:14:19.000Z</time>
      </trkpt>
      <trkpt lat="43.41258" lon="6.61096">
        <ele>301.16</ele>
        <time>2017-10-07T10:14:24.000Z</time>
      </trkpt>
      <trkpt lat="43.4125" lon="6.61093">
        <ele>302.55</ele>
        <time>2017-10-07T10:14:29.000Z</time>
      </trkpt>
      <trkpt lat="43.4124" lon="6.61086">
        <ele>304.07</ele>
        <time>2017-10-07T10:14:35.000Z</time>
      </trkpt>
      <trkpt lat="43.41231" lon="6.61079">
        <ele>305.35</ele>
        <time>2017-10-07T10:14:41.000Z</time>
      </trkpt>
      <trkpt lat="43.41221" lon="6.61077">
        <ele>306.35</ele>
        <time>2017-10-07T10:14:46.000Z</time>
      </trkpt>
      <trkpt lat="43.41211" lon="6.61077">
        <ele>307.07</ele>
        <time>2017-10-07T10:14:51.000Z</time>
      </trkpt>
      <trkpt lat="43.412" lon="6.61078">
        <ele>307.51</ele>
        <time>2017-10-07T10:14:56.000Z</time>
      </trkpt>
      <trkpt lat="43.41189" lon="6.61076">
        <ele>308.11</ele>
        <time>2017-10-07T10:15:01.000Z</time>
      </trkpt>
      <trkpt lat="43.41178" lon="6.61074">
        <ele>308.66</ele>
        <time>2017-10-07T10:15:06.000Z</time>
      </trkpt>
      <trkpt lat="43.41168" lon="6.61072">
        <ele>309.06</ele>
        <time>2017-10-07T10:15:11.000Z</time>
      </trkpt>
      <trkpt lat="43.41156" lon="6.61067">
        <ele>310.06</ele>
        <time>2017-10-07T10:15:16.000Z</time>
      </trkpt>
      <trkpt lat="43.41145" lon="6.61062">
        <ele>311.02</ele>
        <time>2017-10-07T10:15:21.000Z</time>
      </trkpt>
      <trkpt lat="43.41133" lon="6.61057">
        <ele>311.77</ele>
        <time>2017-10-07T10:15:26.000Z</time>
      </trkpt>
      <trkpt lat="43.41123" lon="6.61055">
        <ele>311.92</ele>
        <time>2017-10-07T10:15:31.000Z</time>
      </trkpt>
      <trkpt lat="43.41113" lon="6.61047">
        <ele>312.93</ele>
        <time>2017-10-07T10:15:36.000Z</time>
      </trkpt>
      <trkpt lat="43.41102" lon="6.61038">
        <ele>313.79</ele>
        <time>2017-10-07T10:15:41.000Z</time>
      </trkpt>
      <trkpt lat="43.41093" lon="6.61028">
        <ele>314.5</ele>
        <time>2017-10-07T10:15:46.000Z</time>
      </trkpt>
      <trkpt lat="43.41085" lon="6.61016">
        <ele>315.15</ele>
        <time>2017-10-07T10:15:51.000Z</time>
      </trkpt>
      <trkpt lat="43.4108" lon="6.61004">
        <ele>315.77</ele>
        <time>2017-10-07T10:15:56.000Z</time>
      </trkpt>
      <trkpt lat="43.41075" lon="6.60989">
        <ele>316.19</ele>
        <time>2017-10-07T10:16:01.000Z</time>
      </trkpt>
      <trkpt lat="43.41073" lon="6.60965">
        <ele>317.1</ele>
        <time>2017-10-07T10:16:06.000Z</time>
      </trkpt>
      <trkpt lat="43.41072" lon="6.60945">
        <ele>317.38</ele>
        <time>2017-10-07T10:16:11.000Z</time>
      </trkpt>
      <trkpt lat="43.41069" lon="6.60926">
        <ele>317.33</ele>
        <time>2017-10-07T10:16:16.000Z</time>
      </trkpt>
      <trkpt lat="43.41065" lon="6.60908">
        <ele>317.26</ele>
        <time>2017-10-07T10:16:21.000Z</time>
      </trkpt>
      <trkpt lat="43.41061" lon="6.60891">
        <ele>317.44</ele>
        <time>2017-10-07T10:16:26.000Z</time>
      </trkpt>
      <trkpt lat="43.41054" lon="6.60873">
        <ele>317.32</ele>
        <time>2017-10-07T10:16:31.000Z</time>
      </trkpt>
      <trkpt lat="43.41046" lon="6.60856">
        <ele>317.74</ele>
        <time>2017-10-07T10:16:36.000Z</time>
      </trkpt>
      <trkpt lat="43.41037" lon="6.60842">
        <ele>318.47</ele>
        <time>2017-10-07T10:16:41.000Z</time>
      </trkpt>
      <trkpt lat="43.4103" lon="6.60826">
        <ele>319.87</ele>
        <time>2017-10-07T10:16:46.000Z</time>
      </trkpt>
      <trkpt lat="43.4102" lon="6.60813">
        <ele>321.13</ele>
        <time>2017-10-07T10:16:51.000Z</time>
      </trkpt>
      <trkpt lat="43.4101" lon="6.60805">
        <ele>322.31</ele>
        <time>2017-10-07T10:16:56.000Z</time>
      </trkpt>
      <trkpt lat="43.40998" lon="6.60798">
        <ele>323.56</ele>
        <time>2017-10-07T10:17:01.000Z</time>
      </trkpt>
      <trkpt lat="43.40986" lon="6.60793">
        <ele>324.32</ele>
        <time>2017-10-07T10:17:06.000Z</time>
      </trkpt>
      <trkpt lat="43.40973" lon="6.60786">
        <ele>325.58</ele>
        <time>2017-10-07T10:17:11.000Z</time>
      </trkpt>
      <trkpt lat="43.40962" lon="6.60776">
        <ele>327.88</ele>
        <time>2017-10-07T10:17:16.000Z</time>
      </trkpt>
      <trkpt lat="43.40955" lon="6.60765">
        <ele>330.48</ele>
        <time>2017-10-07T10:17:21.000Z</time>
      </trkpt>
      <trkpt lat="43.40942" lon="6.60761">
        <ele>331.48</ele>
        <time>2017-10-07T10:17:26.000Z</time>
      </trkpt>
      <trkpt lat="43.40924" lon="6.6077">
        <ele>328.62</ele>
        <time>2017-10-07T10:17:31.000Z</time>
      </trkpt>
      <trkpt lat="43.40907" lon="6.60781">
        <ele>324.26</ele>
        <time>2017-10-07T10:17:36.000Z</time>
      </trkpt>
      <trkpt lat="43.40889" lon="6.60789">
        <ele>320.8</ele>
        <time>2017-10-07T10:17:41.000Z</time>
      </trkpt>
      <trkpt lat="43.4087" lon="6.60795">
        <ele>318.5</ele>
        <time>2017-10-07T10:17:46.000Z</time>
      </trkpt>
      <trkpt lat="43.4085" lon="6.60794">
        <ele>318.61</ele>
        <time>2017-10-07T10:17:51.000Z</time>
      </trkpt>
      <trkpt lat="43.40834" lon="6.60779">
        <ele>324.5</ele>
        <time>2017-10-07T10:17:56.000Z</time>
      </trkpt>
      <trkpt lat="43.40817" lon="6.60763">
        <ele>329.12</ele>
        <time>2017-10-07T10:18:01.000Z</time>
      </trkpt>
      <trkpt lat="43.40799" lon="6.60751">
        <ele>330.04</ele>
        <time>2017-10-07T10:18:06.000Z</time>
      </trkpt>
      <trkpt lat="43.40783" lon="6.60735">
        <ele>331.44</ele>
        <time>2017-10-07T10:18:11.000Z</time>
      </trkpt>
      <trkpt lat="43.40767" lon="6.60714">
        <ele>335.23</ele>
        <time>2017-10-07T10:18:16.000Z</time>
      </trkpt>
      <trkpt lat="43.40748" lon="6.60702">
        <ele>337.4</ele>
        <time>2017-10-07T10:18:21.000Z</time>
      </trkpt>
      <trkpt lat="43.4073" lon="6.60694">
        <ele>339.28</ele>
        <time>2017-10-07T10:18:26.000Z</time>
      </trkpt>
      <trkpt lat="43.40713" lon="6.60688">
        <ele>340.67</ele>
        <time>2017-10-07T10:18:31.000Z</time>
      </trkpt>
      <trkpt lat="43.40698" lon="6.60684">
        <ele>341.51</ele>
        <time>2017-10-07T10:18:36.000Z</time>
      </trkpt>
      <trkpt lat="43.40683" lon="6.60677">
        <ele>342.62</ele>
        <time>2017-10-07T10:18:41.000Z</time>
      </trkpt>
      <trkpt lat="43.40668" lon="6.6067">
        <ele>343.64</ele>
        <time>2017-10-07T10:18:46.000Z</time>
      </trkpt>
      <trkpt lat="43.40654" lon="6.60661">
        <ele>345.2</ele>
        <time>2017-10-07T10:18:51.000Z</time>
      </trkpt>
      <trkpt lat="43.4064" lon="6.60659">
        <ele>346.58</ele>
        <time>2017-10-07T10:18:56.000Z</time>
      </trkpt>
      <trkpt lat="43.40638" lon="6.60678">
        <ele>345.76</ele>
        <time>2017-10-07T10:19:01.000Z</time>
      </trkpt>
      <trkpt lat="43.40655" lon="6.60701">
        <ele>344.94</ele>
        <time>2017-10-07T10:19:06.000Z</time>
      </trkpt>
      <trkpt lat="43.40673" lon="6.60719">
        <ele>343.39</ele>
        <time>2017-10-07T10:19:11.000Z</time>
      </trkpt>
      <trkpt lat="43.40691" lon="6.60737">
        <ele>340.22</ele>
        <time>2017-10-07T10:19:16.000Z</time>
      </trkpt>
      <trkpt lat="43.40705" lon="6.60755">
        <ele>335.99</ele>
        <time>2017-10-07T10:19:21.000Z</time>
      </trkpt>
      <trkpt lat="43.40724" lon="6.60775">
        <ele>330.7</ele>
        <time>2017-10-07T10:19:26.000Z</time>
      </trkpt>
      <trkpt lat="43.40733" lon="6.60803">
        <ele>329.49</ele>
        <time>2017-10-07T10:19:31.000Z</time>
      </trkpt>
      <trkpt lat="43.40737" lon="6.60832">
        <ele>329.61</ele>
        <time>2017-10-07T10:19:36.000Z</time>
      </trkpt>
      <trkpt lat="43.40742" lon="6.60861">
        <ele>330.31</ele>
        <time>2017-10-07T10:19:41.000Z</time>
      </trkpt>
      <trkpt lat="43.40745" lon="6.60889">
        <ele>332.65</ele>
        <time>2017-10-07T10:19:46.000Z</time>
      </trkpt>
      <trkpt lat="43.4075" lon="6.60913">
        <ele>332.77</ele>
        <time>2017-10-07T10:19:51.000Z</time>
      </trkpt>
      <trkpt lat="43.40762" lon="6.60934">
        <ele>329.62</ele>
        <time>2017-10-07T10:19:56.000Z</time>
      </trkpt>
      <trkpt lat="43.40775" lon="6.60954">
        <ele>326.31</ele>
        <time>2017-10-07T10:20:01.000Z</time>
      </trkpt>
      <trkpt lat="43.40777" lon="6.60975">
        <ele>325.69</ele>
        <time>2017-10-07T10:20:06.000Z</time>
      </trkpt>
      <trkpt lat="43.40758" lon="6.60977">
        <ele>328.55</ele>
        <time>2017-10-07T10:20:11.000Z</time>
      </trkpt>
      <trkpt lat="43.40736" lon="6.60964">
        <ele>334.86</ele>
        <time>2017-10-07T10:20:16.000Z</time>
      </trkpt>
      <trkpt lat="43.40719" lon="6.60954">
        <ele>340.36</ele>
        <time>2017-10-07T10:20:21.000Z</time>
      </trkpt>
      <trkpt lat="43.40707" lon="6.60971">
        <ele>342.43</ele>
        <time>2017-10-07T10:20:26.000Z</time>
      </trkpt>
      <trkpt lat="43.40712" lon="6.60999">
        <ele>338.63</ele>
        <time>2017-10-07T10:20:31.000Z</time>
      </trkpt>
      <trkpt lat="43.40701" lon="6.61021">
        <ele>340.92</ele>
        <time>2017-10-07T10:20:36.000Z</time>
      </trkpt>
      <trkpt lat="43.40687" lon="6.61039">
        <ele>346.11</ele>
        <time>2017-10-07T10:20:41.000Z</time>
      </trkpt>
      <trkpt lat="43.40686" lon="6.61067">
        <ele>345.94</ele>
        <time>2017-10-07T10:20:46.000Z</time>
      </trkpt>
      <trkpt lat="43.40687" lon="6.61092">
        <ele>345.13</ele>
        <time>2017-10-07T10:20:51.000Z</time>
      </trkpt>
      <trkpt lat="43.40696" lon="6.61113">
        <ele>341.77</ele>
        <time>2017-10-07T10:20:56.000Z</time>
      </trkpt>
      <trkpt lat="43.40705" lon="6.61136">
        <ele>339.14</ele>
        <time>2017-10-07T10:21:01.000Z</time>
      </trkpt>
      <trkpt lat="43.40711" lon="6.61157">
        <ele>337.36</ele>
        <time>2017-10-07T10:21:06.000Z</time>
      </trkpt>
      <trkpt lat="43.40716" lon="6.61173">
        <ele>335.37</ele>
        <time>2017-10-07T10:21:11.000Z</time>
      </trkpt>
      <trkpt lat="43.40715" lon="6.61204">
        <ele>334.09</ele>
        <time>2017-10-07T10:21:16.000Z</time>
      </trkpt>
      <trkpt lat="43.40704" lon="6.61228">
        <ele>335.26</ele>
        <time>2017-10-07T10:21:21.000Z</time>
      </trkpt>
      <trkpt lat="43.40691" lon="6.6124">
        <ele>336.88</ele>
        <time>2017-10-07T10:21:26.000Z</time>
      </trkpt>
      <trkpt lat="43.40679" lon="6.61247">
        <ele>338.11</ele>
        <time>2017-10-07T10:21:31.000Z</time>
      </trkpt>
      <trkpt lat="43.40666" lon="6.61245">
        <ele>341.2</ele>
        <time>2017-10-07T10:21:36.000Z</time>
      </trkpt>
      <trkpt lat="43.40653" lon="6.61241">
        <ele>344.96</ele>
        <time>2017-10-07T10:21:41.000Z</time>
      </trkpt>
      <trkpt lat="43.4064" lon="6.61242">
        <ele>347.06</ele>
        <time>2017-10-07T10:21:46.000Z</time>
      </trkpt>
      <trkpt lat="43.40625" lon="6.6125">
        <ele>347.02</ele>
        <time>2017-10-07T10:21:51.000Z</time>
      </trkpt>
      <trkpt lat="43.4061" lon="6.6126">
        <ele>345.56</ele>
        <time>2017-10-07T10:21:56.000Z</time>
      </trkpt>
      <trkpt lat="43.40593" lon="6.61265">
        <ele>345.55</ele>
        <time>2017-10-07T10:22:01.000Z</time>
      </trkpt>
      <trkpt lat="43.40577" lon="6.61264">
        <ele>346.96</ele>
        <time>2017-10-07T10:22:06.000Z</time>
      </trkpt>
      <trkpt lat="43.40563" lon="6.61259">
        <ele>348.25</ele>
        <time>2017-10-07T10:22:11.000Z</time>
      </trkpt>
      <trkpt lat="43.40546" lon="6.6125">
        <ele>348.97</ele>
        <time>2017-10-07T10:22:16.000Z</time>
      </trkpt>
      <trkpt lat="43.40532" lon="6.6124">
        <ele>350.18</ele>
        <time>2017-10-07T10:22:21.000Z</time>
      </trkpt>
      <trkpt lat="43.40522" lon="6.61225">
        <ele>353.32</ele>
        <time>2017-10-07T10:22:26.000Z</time>
      </trkpt>
      <trkpt lat="43.4051" lon="6.6122">
        <ele>353.97</ele>
        <time>2017-10-07T10:22:31.000Z</time>
      </trkpt>
      <trkpt lat="43.40496" lon="6.61217">
        <ele>355.58</ele>
        <time>2017-10-07T10:22:36.000Z</time>
      </trkpt>
      <trkpt lat="43.40481" lon="6.61201">
        <ele>360.91</ele>
        <time>2017-10-07T10:22:41.000Z</time>
      </trkpt>
      <trkpt lat="43.40467" lon="6.61187">
        <ele>365.48</ele>
        <time>2017-10-07T10:22:46.000Z</time>
      </trkpt>
      <trkpt lat="43.40454" lon="6.61195">
        <ele>365.4</ele>
        <time>2017-10-07T10:22:51.000Z</time>
      </trkpt>
      <trkpt lat="43.40451" lon="6.6122">
        <ele>362.81</ele>
        <time>2017-10-07T10:22:56.000Z</time>
      </trkpt>
      <trkpt lat="43.40451" lon="6.61247">
        <ele>360.27</ele>
        <time>2017-10-07T10:23:01.000Z</time>
      </trkpt>
      <trkpt lat="43.40449" lon="6.61277">
        <ele>359.77</ele>
        <time>2017-10-07T10:23:06.000Z</time>
      </trkpt>
      <trkpt lat="43.40442" lon="6.613">
        <ele>362.73</ele>
        <time>2017-10-07T10:23:11.000Z</time>
      </trkpt>
      <trkpt lat="43.40438" lon="6.61317">
        <ele>364.97</ele>
        <time>2017-10-07T10:23:16.000Z</time>
      </trkpt>
      <trkpt lat="43.40442" lon="6.61335">
        <ele>364.87</ele>
        <time>2017-10-07T10:23:21.000Z</time>
      </trkpt>
      <trkpt lat="43.40456" lon="6.61356">
        <ele>362.65</ele>
        <time>2017-10-07T10:23:26.000Z</time>
      </trkpt>
      <trkpt lat="43.40468" lon="6.61372">
        <ele>361.51</ele>
        <time>2017-10-07T10:23:31.000Z</time>
      </trkpt>
      <trkpt lat="43.4048" lon="6.61391">
        <ele>361.6</ele>
        <time>2017-10-07T10:23:36.000Z</time>
      </trkpt>
      <trkpt lat="43.40493" lon="6.61408">
        <ele>362.08</ele>
        <time>2017-10-07T10:23:41.000Z</time>
      </trkpt>
      <trkpt lat="43.40506" lon="6.61426">
        <ele>362.57</ele>
        <time>2017-10-07T10:23:46.000Z</time>
      </trkpt>
      <trkpt lat="43.40516" lon="6.61445">
        <ele>364.67</ele>
        <time>2017-10-07T10:23:51.000Z</time>
      </trkpt>
      <trkpt lat="43.40527" lon="6.61466">
        <ele>367.47</ele>
        <time>2017-10-07T10:23:56.000Z</time>
      </trkpt>
      <trkpt lat="43.40542" lon="6.61482">
        <ele>366.69</ele>
        <time>2017-10-07T10:24:01.000Z</time>
      </trkpt>
      <trkpt lat="43.40556" lon="6.61496">
        <ele>366.28</ele>
        <time>2017-10-07T10:24:06.000Z</time>
      </trkpt>
      <trkpt lat="43.4057" lon="6.61511">
        <ele>366.57</ele>
        <time>2017-10-07T10:24:11.000Z</time>
      </trkpt>
      <trkpt lat="43.40586" lon="6.61521">
        <ele>366.65</ele>
        <time>2017-10-07T10:24:16.000Z</time>
      </trkpt>
      <trkpt lat="43.40604" lon="6.61525">
        <ele>364.95</ele>
        <time>2017-10-07T10:24:21.000Z</time>
      </trkpt>
      <trkpt lat="43.40622" lon="6.61532">
        <ele>365.38</ele>
        <time>2017-10-07T10:24:26.000Z</time>
      </trkpt>
      <trkpt lat="43.40639" lon="6.6154">
        <ele>367.42</ele>
        <time>2017-10-07T10:24:31.000Z</time>
      </trkpt>
      <trkpt lat="43.40657" lon="6.61542">
        <ele>366.21</ele>
        <time>2017-10-07T10:24:36.000Z</time>
      </trkpt>
      <trkpt lat="43.40676" lon="6.61545">
        <ele>365.59</ele>
        <time>2017-10-07T10:24:41.000Z</time>
      </trkpt>
      <trkpt lat="43.40693" lon="6.6155">
        <ele>365.7</ele>
        <time>2017-10-07T10:24:46.000Z</time>
      </trkpt>
      <trkpt lat="43.40708" lon="6.61556">
        <ele>366.42</ele>
        <time>2017-10-07T10:24:51.000Z</time>
      </trkpt>
      <trkpt lat="43.40725" lon="6.61566">
        <ele>367.25</ele>
        <time>2017-10-07T10:24:56.000Z</time>
      </trkpt>
      <trkpt lat="43.40742" lon="6.61579">
        <ele>367.76</ele>
        <time>2017-10-07T10:25:01.000Z</time>
      </trkpt>
      <trkpt lat="43.40758" lon="6.61592">
        <ele>366.87</ele>
        <time>2017-10-07T10:25:06.000Z</time>
      </trkpt>
      <trkpt lat="43.40771" lon="6.61606">
        <ele>365.41</ele>
        <time>2017-10-07T10:25:11.000Z</time>
      </trkpt>
      <trkpt lat="43.40785" lon="6.61622">
        <ele>363.68</ele>
        <time>2017-10-07T10:25:16.000Z</time>
      </trkpt>
      <trkpt lat="43.40793" lon="6.6164">
        <ele>362.69</ele>
        <time>2017-10-07T10:25:21.000Z</time>
      </trkpt>
      <trkpt lat="43.40782" lon="6.61655">
        <ele>364.83</ele>
        <time>2017-10-07T10:25:26.000Z</time>
      </trkpt>
      <trkpt lat="43.40767" lon="6.61663">
        <ele>367.56</ele>
        <time>2017-10-07T10:25:31.000Z</time>
      </trkpt>
      <trkpt lat="43.40752" lon="6.61671">
        <ele>370.02</ele>
        <time>2017-10-07T10:25:36.000Z</time>
      </trkpt>
      <trkpt lat="43.40738" lon="6.6168">
        <ele>371.71</ele>
        <time>2017-10-07T10:25:41.000Z</time>
      </trkpt>
      <trkpt lat="43.40722" lon="6.61692">
        <ele>373.05</ele>
        <time>2017-10-07T10:25:46.000Z</time>
      </trkpt>
      <trkpt lat="43.40706" lon="6.61702">
        <ele>374.5</ele>
        <time>2017-10-07T10:25:51.000Z</time>
      </trkpt>
      <trkpt lat="43.40689" lon="6.61715">
        <ele>375.03</ele>
        <time>2017-10-07T10:25:56.000Z</time>
      </trkpt>
      <trkpt lat="43.40672" lon="6.61723">
        <ele>377.21</ele>
        <time>2017-10-07T10:26:01.000Z</time>
      </trkpt>
      <trkpt lat="43.40657" lon="6.61724">
        <ele>380.98</ele>
        <time>2017-10-07T10:26:06.000Z</time>
      </trkpt>
      <trkpt lat="43.40641" lon="6.61732">
        <ele>382.92</ele>
        <time>2017-10-07T10:26:11.000Z</time>
      </trkpt>
      <trkpt lat="43.40622" lon="6.61742">
        <ele>385.8</ele>
        <time>2017-10-07T10:26:16.000Z</time>
      </trkpt>
      <trkpt lat="43.40603" lon="6.61757">
        <ele>388.78</ele>
        <time>2017-10-07T10:26:21.000Z</time>
      </trkpt>
      <trkpt lat="43.40589" lon="6.61775">
        <ele>390.21</ele>
        <time>2017-10-07T10:26:26.000Z</time>
      </trkpt>
      <trkpt lat="43.40579" lon="6.61791">
        <ele>390.69</ele>
        <time>2017-10-07T10:26:31.000Z</time>
      </trkpt>
      <trkpt lat="43.40569" lon="6.61808">
        <ele>391.05</ele>
        <time>2017-10-07T10:26:36.000Z</time>
      </trkpt>
      <trkpt lat="43.40558" lon="6.61824">
        <ele>391.67</ele>
        <time>2017-10-07T10:26:41.000Z</time>
      </trkpt>
      <trkpt lat="43.40547" lon="6.61843">
        <ele>391.88</ele>
        <time>2017-10-07T10:26:46.000Z</time>
      </trkpt>
      <trkpt lat="43.40538" lon="6.61864">
        <ele>389.58</ele>
        <time>2017-10-07T10:26:51.000Z</time>
      </trkpt>
      <trkpt lat="43.40526" lon="6.61889">
        <ele>386.28</ele>
        <time>2017-10-07T10:26:56.000Z</time>
      </trkpt>
      <trkpt lat="43.40508" lon="6.61906">
        <ele>388.37</ele>
        <time>2017-10-07T10:27:01.000Z</time>
      </trkpt>
      <trkpt lat="43.40485" lon="6.61912">
        <ele>395.07</ele>
        <time>2017-10-07T10:27:06.000Z</time>
      </trkpt>
      <trkpt lat="43.40463" lon="6.61927">
        <ele>399.68</ele>
        <time>2017-10-07T10:27:11.000Z</time>
      </trkpt>
      <trkpt lat="43.40456" lon="6.61966">
        <ele>395</ele>
        <time>2017-10-07T10:27:16.000Z</time>
      </trkpt>
      <trkpt lat="43.40459" lon="6.62001">
        <ele>388.52</ele>
        <time>2017-10-07T10:27:21.000Z</time>
      </trkpt>
      <trkpt lat="43.40455" lon="6.62025">
        <ele>387.3</ele>
        <time>2017-10-07T10:27:26.000Z</time>
      </trkpt>
      <trkpt lat="43.40447" lon="6.62046">
        <ele>389.44</ele>
        <time>2017-10-07T10:27:31.000Z</time>
      </trkpt>
      <trkpt lat="43.40439" lon="6.62066">
        <ele>391.18</ele>
        <time>2017-10-07T10:27:36.000Z</time>
      </trkpt>
      <trkpt lat="43.40432" lon="6.62084">
        <ele>392.99</ele>
        <time>2017-10-07T10:27:41.000Z</time>
      </trkpt>
      <trkpt lat="43.40421" lon="6.621">
        <ele>395.22</ele>
        <time>2017-10-07T10:27:46.000Z</time>
      </trkpt>
      <trkpt lat="43.40412" lon="6.62116">
        <ele>396.42</ele>
        <time>2017-10-07T10:27:51.000Z</time>
      </trkpt>
      <trkpt lat="43.40405" lon="6.62134">
        <ele>396.34</ele>
        <time>2017-10-07T10:27:56.000Z</time>
      </trkpt>
      <trkpt lat="43.40399" lon="6.62154">
        <ele>395.53</ele>
        <time>2017-10-07T10:28:01.000Z</time>
      </trkpt>
      <trkpt lat="43.40389" lon="6.62173">
        <ele>394.51</ele>
        <time>2017-10-07T10:28:06.000Z</time>
      </trkpt>
      <trkpt lat="43.40375" lon="6.62187">
        <ele>392.18</ele>
        <time>2017-10-07T10:28:11.000Z</time>
      </trkpt>
      <trkpt lat="43.40364" lon="6.62195">
        <ele>389.62</ele>
        <time>2017-10-07T10:28:16.000Z</time>
      </trkpt>
      <trkpt lat="43.4036" lon="6.62208">
        <ele>387.93</ele>
        <time>2017-10-07T10:28:25.000Z</time>
      </trkpt>
      <trkpt lat="43.40356" lon="6.62224">
        <ele>386.39</ele>
        <time>2017-10-07T10:28:30.000Z</time>
      </trkpt>
      <trkpt lat="43.40353" lon="6.62245">
        <ele>385.29</ele>
        <time>2017-10-07T10:28:35.000Z</time>
      </trkpt>
      <trkpt lat="43.40351" lon="6.62272">
        <ele>385.28</ele>
        <time>2017-10-07T10:28:40.000Z</time>
      </trkpt>
      <trkpt lat="43.40349" lon="6.62301">
        <ele>386.9</ele>
        <time>2017-10-07T10:28:45.000Z</time>
      </trkpt>
      <trkpt lat="43.40345" lon="6.62336">
        <ele>389.3</ele>
        <time>2017-10-07T10:28:50.000Z</time>
      </trkpt>
      <trkpt lat="43.40327" lon="6.62368">
        <ele>386.62</ele>
        <time>2017-10-07T10:28:55.000Z</time>
      </trkpt>
      <trkpt lat="43.40308" lon="6.62393">
        <ele>382.75</ele>
        <time>2017-10-07T10:29:00.000Z</time>
      </trkpt>
      <trkpt lat="43.40288" lon="6.62422">
        <ele>381.41</ele>
        <time>2017-10-07T10:29:05.000Z</time>
      </trkpt>
      <trkpt lat="43.40267" lon="6.62451">
        <ele>382.55</ele>
        <time>2017-10-07T10:29:10.000Z</time>
      </trkpt>
      <trkpt lat="43.40247" lon="6.62473">
        <ele>383.56</ele>
        <time>2017-10-07T10:29:15.000Z</time>
      </trkpt>
      <trkpt lat="43.40223" lon="6.62495">
        <ele>383.34</ele>
        <time>2017-10-07T10:29:20.000Z</time>
      </trkpt>
      <trkpt lat="43.40196" lon="6.62516">
        <ele>380.78</ele>
        <time>2017-10-07T10:29:25.000Z</time>
      </trkpt>
      <trkpt lat="43.40169" lon="6.62542">
        <ele>379.2</ele>
        <time>2017-10-07T10:29:30.000Z</time>
      </trkpt>
      <trkpt lat="43.40143" lon="6.62566">
        <ele>378.31</ele>
        <time>2017-10-07T10:29:35.000Z</time>
      </trkpt>
      <trkpt lat="43.4012" lon="6.62587">
        <ele>377.66</ele>
        <time>2017-10-07T10:29:40.000Z</time>
      </trkpt>
      <trkpt lat="43.40098" lon="6.62609">
        <ele>377.73</ele>
        <time>2017-10-07T10:29:45.000Z</time>
      </trkpt>
      <trkpt lat="43.40077" lon="6.62637">
        <ele>378.43</ele>
        <time>2017-10-07T10:29:50.000Z</time>
      </trkpt>
      <trkpt lat="43.40056" lon="6.62668">
        <ele>378.39</ele>
        <time>2017-10-07T10:29:55.000Z</time>
      </trkpt>
      <trkpt lat="43.40031" lon="6.62695">
        <ele>374.58</ele>
        <time>2017-10-07T10:30:00.000Z</time>
      </trkpt>
      <trkpt lat="43.40007" lon="6.62724">
        <ele>371.5</ele>
        <time>2017-10-07T10:30:05.000Z</time>
      </trkpt>
      <trkpt lat="43.39987" lon="6.62759">
        <ele>371.1</ele>
        <time>2017-10-07T10:30:10.000Z</time>
      </trkpt>
      <trkpt lat="43.3997" lon="6.62798">
        <ele>370.47</ele>
        <time>2017-10-07T10:30:15.000Z</time>
      </trkpt>
      <trkpt lat="43.39947" lon="6.62831">
        <ele>366.82</ele>
        <time>2017-10-07T10:30:20.000Z</time>
      </trkpt>
      <trkpt lat="43.39924" lon="6.62864">
        <ele>364.09</ele>
        <time>2017-10-07T10:30:25.000Z</time>
      </trkpt>
      <trkpt lat="43.39902" lon="6.62901">
        <ele>363.76</ele>
        <time>2017-10-07T10:30:30.000Z</time>
      </trkpt>
      <trkpt lat="43.39881" lon="6.62939">
        <ele>361.49</ele>
        <time>2017-10-07T10:30:35.000Z</time>
      </trkpt>
      <trkpt lat="43.39862" lon="6.62981">
        <ele>357.71</ele>
        <time>2017-10-07T10:30:40.000Z</time>
      </trkpt>
      <trkpt lat="43.39853" lon="6.63029">
        <ele>359.68</ele>
        <time>2017-10-07T10:30:45.000Z</time>
      </trkpt>
      <trkpt lat="43.39842" lon="6.63075">
        <ele>361.57</ele>
        <time>2017-10-07T10:30:50.000Z</time>
      </trkpt>
      <trkpt lat="43.39826" lon="6.63116">
        <ele>358.17</ele>
        <time>2017-10-07T10:30:55.000Z</time>
      </trkpt>
      <trkpt lat="43.39812" lon="6.63159">
        <ele>356.1</ele>
        <time>2017-10-07T10:31:00.000Z</time>
      </trkpt>
      <trkpt lat="43.39797" lon="6.63204">
        <ele>355.97</ele>
        <time>2017-10-07T10:31:05.000Z</time>
      </trkpt>
      <trkpt lat="43.39778" lon="6.63241">
        <ele>353.11</ele>
        <time>2017-10-07T10:31:10.000Z</time>
      </trkpt>
      <trkpt lat="43.39762" lon="6.6328">
        <ele>351.36</ele>
        <time>2017-10-07T10:31:15.000Z</time>
      </trkpt>
      <trkpt lat="43.39743" lon="6.63303">
        <ele>347.35</ele>
        <time>2017-10-07T10:31:20.000Z</time>
      </trkpt>
      <trkpt lat="43.39739" lon="6.63316">
        <ele>347.54</ele>
        <time>2017-10-07T10:31:26.000Z</time>
      </trkpt>
      <trkpt lat="43.39734" lon="6.63331">
        <ele>346.97</ele>
        <time>2017-10-07T10:31:31.000Z</time>
      </trkpt>
      <trkpt lat="43.39732" lon="6.63345">
        <ele>347.02</ele>
        <time>2017-10-07T10:31:36.000Z</time>
      </trkpt>
      <trkpt lat="43.3973" lon="6.63358">
        <ele>346.71</ele>
        <time>2017-10-07T10:31:41.000Z</time>
      </trkpt>
      <trkpt lat="43.39734" lon="6.63373">
        <ele>347.58</ele>
        <time>2017-10-07T10:32:18.000Z</time>
      </trkpt>
      <trkpt lat="43.39734" lon="6.63387">
        <ele>346.96</ele>
        <time>2017-10-07T10:32:23.000Z</time>
      </trkpt>
      <trkpt lat="43.39725" lon="6.63402">
        <ele>344.68</ele>
        <time>2017-10-07T10:32:45.000Z</time>
      </trkpt>
      <trkpt lat="43.39691" lon="6.63431">
        <ele>339.6</ele>
        <time>2017-10-07T10:32:50.000Z</time>
      </trkpt>
      <trkpt lat="43.39671" lon="6.63446">
        <ele>336.96</ele>
        <time>2017-10-07T10:32:55.000Z</time>
      </trkpt>
      <trkpt lat="43.39659" lon="6.63459">
        <ele>335.31</ele>
        <time>2017-10-07T10:33:00.000Z</time>
      </trkpt>
      <trkpt lat="43.39641" lon="6.63473">
        <ele>332.35</ele>
        <time>2017-10-07T10:33:05.000Z</time>
      </trkpt>
      <trkpt lat="43.39639" lon="6.63485">
        <ele>331.74</ele>
        <time>2017-10-07T10:33:25.000Z</time>
      </trkpt>
      <trkpt lat="43.39642" lon="6.63497">
        <ele>331.64</ele>
        <time>2017-10-07T10:46:17.000Z</time>
      </trkpt>
      <trkpt lat="43.39633" lon="6.63491">
        <ele>330.72</ele>
        <time>2017-10-07T10:57:43.000Z</time>
      </trkpt>
      <trkpt lat="43.39624" lon="6.63502">
        <ele>328.66</ele>
        <time>2017-10-07T10:57:48.000Z</time>
      </trkpt>
      <trkpt lat="43.39617" lon="6.63511">
        <ele>327</ele>
        <time>2017-10-07T10:57:54.000Z</time>
      </trkpt>
      <trkpt lat="43.39605" lon="6.63521">
        <ele>324.31</ele>
        <time>2017-10-07T10:58:13.000Z</time>
      </trkpt>
      <trkpt lat="43.39576" lon="6.63518">
        <ele>320.18</ele>
        <time>2017-10-07T10:58:18.000Z</time>
      </trkpt>
      <trkpt lat="43.39563" lon="6.63519">
        <ele>317.86</ele>
        <time>2017-10-07T10:58:45.000Z</time>
      </trkpt>
      <trkpt lat="43.39551" lon="6.63513">
        <ele>315.68</ele>
        <time>2017-10-07T10:58:50.000Z</time>
      </trkpt>
      <trkpt lat="43.39549" lon="6.63526">
        <ele>314.78</ele>
        <time>2017-10-07T10:59:18.000Z</time>
      </trkpt>
      <trkpt lat="43.39542" lon="6.63533">
        <ele>312.79</ele>
        <time>2017-10-07T10:59:32.000Z</time>
      </trkpt>
      <trkpt lat="43.39533" lon="6.63537">
        <ele>310.68</ele>
        <time>2017-10-07T10:59:40.000Z</time>
      </trkpt>
      <trkpt lat="43.39511" lon="6.63543">
        <ele>305.65</ele>
        <time>2017-10-07T10:59:45.000Z</time>
      </trkpt>
      <trkpt lat="43.3949" lon="6.63551">
        <ele>300.41</ele>
        <time>2017-10-07T10:59:50.000Z</time>
      </trkpt>
      <trkpt lat="43.39469" lon="6.63567">
        <ele>295.14</ele>
        <time>2017-10-07T10:59:55.000Z</time>
      </trkpt>
      <trkpt lat="43.39453" lon="6.63597">
        <ele>289.58</ele>
        <time>2017-10-07T11:00:00.000Z</time>
      </trkpt>
      <trkpt lat="43.39436" lon="6.63623">
        <ele>284.13</ele>
        <time>2017-10-07T11:00:05.000Z</time>
      </trkpt>
      <trkpt lat="43.39426" lon="6.63646">
        <ele>279.98</ele>
        <time>2017-10-07T11:00:10.000Z</time>
      </trkpt>
      <trkpt lat="43.39423" lon="6.63665">
        <ele>277.08</ele>
        <time>2017-10-07T11:00:15.000Z</time>
      </trkpt>
      <trkpt lat="43.39429" lon="6.63685">
        <ele>274.28</ele>
        <time>2017-10-07T11:00:20.000Z</time>
      </trkpt>
      <trkpt lat="43.39426" lon="6.63705">
        <ele>270.45</ele>
        <time>2017-10-07T11:00:25.000Z</time>
      </trkpt>
      <trkpt lat="43.39406" lon="6.63735">
        <ele>263.24</ele>
        <time>2017-10-07T11:00:30.000Z</time>
      </trkpt>
      <trkpt lat="43.39377" lon="6.63749">
        <ele>259.01</ele>
        <time>2017-10-07T11:00:35.000Z</time>
      </trkpt>
      <trkpt lat="43.39345" lon="6.63765">
        <ele>252.7</ele>
        <time>2017-10-07T11:00:40.000Z</time>
      </trkpt>
      <trkpt lat="43.39322" lon="6.63788">
        <ele>243.77</ele>
        <time>2017-10-07T11:00:45.000Z</time>
      </trkpt>
      <trkpt lat="43.39317" lon="6.638">
        <ele>240.08</ele>
        <time>2017-10-07T11:00:50.000Z</time>
      </trkpt>
      <trkpt lat="43.39325" lon="6.63811">
        <ele>238.88</ele>
        <time>2017-10-07T11:00:59.000Z</time>
      </trkpt>
      <trkpt lat="43.39347" lon="6.63817">
        <ele>239.6</ele>
        <time>2017-10-07T11:01:04.000Z</time>
      </trkpt>
      <trkpt lat="43.39361" lon="6.63828">
        <ele>236.68</ele>
        <time>2017-10-07T11:01:09.000Z</time>
      </trkpt>
      <trkpt lat="43.39336" lon="6.63841">
        <ele>232.09</ele>
        <time>2017-10-07T11:01:14.000Z</time>
      </trkpt>
      <trkpt lat="43.39314" lon="6.63864">
        <ele>224.2</ele>
        <time>2017-10-07T11:01:19.000Z</time>
      </trkpt>
      <trkpt lat="43.39292" lon="6.63872">
        <ele>221.41</ele>
        <time>2017-10-07T11:01:24.000Z</time>
      </trkpt>
      <trkpt lat="43.39278" lon="6.63876">
        <ele>219.99</ele>
        <time>2017-10-07T11:01:29.000Z</time>
      </trkpt>
      <trkpt lat="43.3927" lon="6.63884">
        <ele>218.55</ele>
        <time>2017-10-07T11:01:34.000Z</time>
      </trkpt>
      <trkpt lat="43.39258" lon="6.63905">
        <ele>216.04</ele>
        <time>2017-10-07T11:01:39.000Z</time>
      </trkpt>
      <trkpt lat="43.39229" lon="6.63909">
        <ele>214.32</ele>
        <time>2017-10-07T11:01:44.000Z</time>
      </trkpt>
      <trkpt lat="43.39215" lon="6.63915">
        <ele>212.97</ele>
        <time>2017-10-07T11:01:49.000Z</time>
      </trkpt>
      <trkpt lat="43.3922" lon="6.63903">
        <ele>213.41</ele>
        <time>2017-10-07T11:02:00.000Z</time>
      </trkpt>
      <trkpt lat="43.3923" lon="6.63876">
        <ele>214.63</ele>
        <time>2017-10-07T11:02:05.000Z</time>
      </trkpt>
      <trkpt lat="43.39221" lon="6.63844">
        <ele>211.5</ele>
        <time>2017-10-07T11:02:10.000Z</time>
      </trkpt>
      <trkpt lat="43.39213" lon="6.63809">
        <ele>208.85</ele>
        <time>2017-10-07T11:02:15.000Z</time>
      </trkpt>
      <trkpt lat="43.39199" lon="6.63775">
        <ele>204.13</ele>
        <time>2017-10-07T11:02:20.000Z</time>
      </trkpt>
      <trkpt lat="43.39182" lon="6.63732">
        <ele>197.79</ele>
        <time>2017-10-07T11:02:25.000Z</time>
      </trkpt>
      <trkpt lat="43.39166" lon="6.63697">
        <ele>192.98</ele>
        <time>2017-10-07T11:02:30.000Z</time>
      </trkpt>
      <trkpt lat="43.39156" lon="6.63675">
        <ele>190.49</ele>
        <time>2017-10-07T11:02:35.000Z</time>
      </trkpt>
      <trkpt lat="43.39145" lon="6.63694">
        <ele>187.84</ele>
        <time>2017-10-07T11:02:40.000Z</time>
      </trkpt>
      <trkpt lat="43.39145" lon="6.63708">
        <ele>187.6</ele>
        <time>2017-10-07T11:02:45.000Z</time>
      </trkpt>
      <trkpt lat="43.39152" lon="6.63732">
        <ele>188.83</ele>
        <time>2017-10-07T11:02:50.000Z</time>
      </trkpt>
      <trkpt lat="43.39157" lon="6.63759">
        <ele>190.52</ele>
        <time>2017-10-07T11:02:55.000Z</time>
      </trkpt>
      <trkpt lat="43.39158" lon="6.63785">
        <ele>190.86</ele>
        <time>2017-10-07T11:03:00.000Z</time>
      </trkpt>
      <trkpt lat="43.39146" lon="6.63811">
        <ele>189.37</ele>
        <time>2017-10-07T11:03:05.000Z</time>
      </trkpt>
      <trkpt lat="43.39129" lon="6.6381">
        <ele>186.75</ele>
        <time>2017-10-07T11:03:10.000Z</time>
      </trkpt>
      <trkpt lat="43.39114" lon="6.6381">
        <ele>184.97</ele>
        <time>2017-10-07T11:03:15.000Z</time>
      </trkpt>
      <trkpt lat="43.39096" lon="6.63834">
        <ele>186.32</ele>
        <time>2017-10-07T11:03:20.000Z</time>
      </trkpt>
      <trkpt lat="43.3907" lon="6.63834">
        <ele>183.77</ele>
        <time>2017-10-07T11:03:25.000Z</time>
      </trkpt>
      <trkpt lat="43.39048" lon="6.6381">
        <ele>179.21</ele>
        <time>2017-10-07T11:03:30.000Z</time>
      </trkpt>
      <trkpt lat="43.39018" lon="6.63781">
        <ele>175.31</ele>
        <time>2017-10-07T11:03:35.000Z</time>
      </trkpt>
      <trkpt lat="43.38992" lon="6.63741">
        <ele>170.54</ele>
        <time>2017-10-07T11:03:40.000Z</time>
      </trkpt>
      <trkpt lat="43.38954" lon="6.63717">
        <ele>165.42</ele>
        <time>2017-10-07T11:03:45.000Z</time>
      </trkpt>
      <trkpt lat="43.38939" lon="6.63673">
        <ele>162.61</ele>
        <time>2017-10-07T11:03:50.000Z</time>
      </trkpt>
      <trkpt lat="43.38928" lon="6.63614">
        <ele>159.83</ele>
        <time>2017-10-07T11:03:55.000Z</time>
      </trkpt>
      <trkpt lat="43.38903" lon="6.63562">
        <ele>156.12</ele>
        <time>2017-10-07T11:04:00.000Z</time>
      </trkpt>
      <trkpt lat="43.38875" lon="6.63522">
        <ele>152.93</ele>
        <time>2017-10-07T11:04:05.000Z</time>
      </trkpt>
      <trkpt lat="43.38845" lon="6.63506">
        <ele>151.76</ele>
        <time>2017-10-07T11:04:10.000Z</time>
      </trkpt>
      <trkpt lat="43.38801" lon="6.63505">
        <ele>149.31</ele>
        <time>2017-10-07T11:04:15.000Z</time>
      </trkpt>
      <trkpt lat="43.38786" lon="6.63493">
        <ele>147.32</ele>
        <time>2017-10-07T11:04:20.000Z</time>
      </trkpt>
      <trkpt lat="43.3876" lon="6.63477">
        <ele>143.27</ele>
        <time>2017-10-07T11:04:25.000Z</time>
      </trkpt>
      <trkpt lat="43.38733" lon="6.63494">
        <ele>139.55</ele>
        <time>2017-10-07T11:04:30.000Z</time>
      </trkpt>
      <trkpt lat="43.3872" lon="6.63504">
        <ele>136.55</ele>
        <time>2017-10-07T11:04:35.000Z</time>
      </trkpt>
      <trkpt lat="43.38694" lon="6.63488">
        <ele>129.96</ele>
        <time>2017-10-07T11:04:40.000Z</time>
      </trkpt>
      <trkpt lat="43.38662" lon="6.63467">
        <ele>123.74</ele>
        <time>2017-10-07T11:04:45.000Z</time>
      </trkpt>
      <trkpt lat="43.38648" lon="6.63415">
        <ele>120.77</ele>
        <time>2017-10-07T11:04:50.000Z</time>
      </trkpt>
      <trkpt lat="43.38624" lon="6.63391">
        <ele>114.04</ele>
        <time>2017-10-07T11:04:55.000Z</time>
      </trkpt>
      <trkpt lat="43.386" lon="6.63399">
        <ele>111.1</ele>
        <time>2017-10-07T11:05:00.000Z</time>
      </trkpt>
      <trkpt lat="43.38571" lon="6.63394">
        <ele>107.87</ele>
        <time>2017-10-07T11:05:05.000Z</time>
      </trkpt>
      <trkpt lat="43.3855" lon="6.63383">
        <ele>107.15</ele>
        <time>2017-10-07T11:05:10.000Z</time>
      </trkpt>
      <trkpt lat="43.38527" lon="6.63404">
        <ele>105.38</ele>
        <time>2017-10-07T11:05:15.000Z</time>
      </trkpt>
      <trkpt lat="43.38503" lon="6.63423">
        <ele>103.68</ele>
        <time>2017-10-07T11:05:20.000Z</time>
      </trkpt>
      <trkpt lat="43.38485" lon="6.63449">
        <ele>103.21</ele>
        <time>2017-10-07T11:05:25.000Z</time>
      </trkpt>
      <trkpt lat="43.38478" lon="6.63462">
        <ele>103.14</ele>
        <time>2017-10-07T11:05:35.000Z</time>
      </trkpt>
      <trkpt lat="43.38457" lon="6.63481">
        <ele>101.9</ele>
        <time>2017-10-07T11:05:40.000Z</time>
      </trkpt>
      <trkpt lat="43.38433" lon="6.63506">
        <ele>99.22</ele>
        <time>2017-10-07T11:05:45.000Z</time>
      </trkpt>
      <trkpt lat="43.38418" lon="6.63541">
        <ele>97.97</ele>
        <time>2017-10-07T11:05:50.000Z</time>
      </trkpt>
      <trkpt lat="43.38409" lon="6.63576">
        <ele>98.08</ele>
        <time>2017-10-07T11:05:55.000Z</time>
      </trkpt>
      <trkpt lat="43.38388" lon="6.63599">
        <ele>97.21</ele>
        <time>2017-10-07T11:06:00.000Z</time>
      </trkpt>
      <trkpt lat="43.38371" lon="6.63631">
        <ele>96.14</ele>
        <time>2017-10-07T11:06:05.000Z</time>
      </trkpt>
      <trkpt lat="43.38349" lon="6.63642">
        <ele>94.53</ele>
        <time>2017-10-07T11:06:10.000Z</time>
      </trkpt>
      <trkpt lat="43.38338" lon="6.63649">
        <ele>93.78</ele>
        <time>2017-10-07T11:06:15.000Z</time>
      </trkpt>
      <trkpt lat="43.38329" lon="6.63659">
        <ele>93.19</ele>
        <time>2017-10-07T11:06:20.000Z</time>
      </trkpt>
      <trkpt lat="43.38321" lon="6.63671">
        <ele>92.89</ele>
        <time>2017-10-07T11:06:25.000Z</time>
      </trkpt>
      <trkpt lat="43.38313" lon="6.6368">
        <ele>92.96</ele>
        <time>2017-10-07T11:06:30.000Z</time>
      </trkpt>
      <trkpt lat="43.38305" lon="6.63689">
        <ele>93.05</ele>
        <time>2017-10-07T11:06:35.000Z</time>
      </trkpt>
      <trkpt lat="43.38299" lon="6.63697">
        <ele>93.03</ele>
        <time>2017-10-07T11:06:40.000Z</time>
      </trkpt>
      <trkpt lat="43.38292" lon="6.63706">
        <ele>92.8</ele>
        <time>2017-10-07T11:06:46.000Z</time>
      </trkpt>
      <trkpt lat="43.38282" lon="6.63712">
        <ele>92.59</ele>
        <time>2017-10-07T11:06:52.000Z</time>
      </trkpt>
      <trkpt lat="43.38272" lon="6.63717">
        <ele>92.39</ele>
        <time>2017-10-07T11:06:57.000Z</time>
      </trkpt>
      <trkpt lat="43.38261" lon="6.63718">
        <ele>92.43</ele>
        <time>2017-10-07T11:07:02.000Z</time>
      </trkpt>
      <trkpt lat="43.38245" lon="6.63711">
        <ele>93.32</ele>
        <time>2017-10-07T11:07:07.000Z</time>
      </trkpt>
      <trkpt lat="43.38231" lon="6.63702">
        <ele>94.03</ele>
        <time>2017-10-07T11:07:12.000Z</time>
      </trkpt>
      <trkpt lat="43.38219" lon="6.63694">
        <ele>94.31</ele>
        <time>2017-10-07T11:07:17.000Z</time>
      </trkpt>
      <trkpt lat="43.38208" lon="6.63688">
        <ele>94.03</ele>
        <time>2017-10-07T11:07:22.000Z</time>
      </trkpt>
      <trkpt lat="43.38198" lon="6.63679">
        <ele>93.69</ele>
        <time>2017-10-07T11:07:27.000Z</time>
      </trkpt>
      <trkpt lat="43.38185" lon="6.63663">
        <ele>93.42</ele>
        <time>2017-10-07T11:07:32.000Z</time>
      </trkpt>
      <trkpt lat="43.38174" lon="6.63644">
        <ele>93.8</ele>
        <time>2017-10-07T11:07:37.000Z</time>
      </trkpt>
      <trkpt lat="43.38166" lon="6.63622">
        <ele>95.16</ele>
        <time>2017-10-07T11:07:42.000Z</time>
      </trkpt>
      <trkpt lat="43.38152" lon="6.63599">
        <ele>96.84</ele>
        <time>2017-10-07T11:07:47.000Z</time>
      </trkpt>
      <trkpt lat="43.38141" lon="6.63612">
        <ele>96.43</ele>
        <time>2017-10-07T11:07:52.000Z</time>
      </trkpt>
      <trkpt lat="43.3814" lon="6.63637">
        <ele>95.86</ele>
        <time>2017-10-07T11:07:57.000Z</time>
      </trkpt>
      <trkpt lat="43.38138" lon="6.63662">
        <ele>96.07</ele>
        <time>2017-10-07T11:08:02.000Z</time>
      </trkpt>
      <trkpt lat="43.38141" lon="6.63689">
        <ele>96.48</ele>
        <time>2017-10-07T11:08:07.000Z</time>
      </trkpt>
      <trkpt lat="43.38145" lon="6.63713">
        <ele>96.94</ele>
        <time>2017-10-07T11:08:12.000Z</time>
      </trkpt>
      <trkpt lat="43.38151" lon="6.63731">
        <ele>97.41</ele>
        <time>2017-10-07T11:08:17.000Z</time>
      </trkpt>
      <trkpt lat="43.38154" lon="6.63743">
        <ele>98.17</ele>
        <time>2017-10-07T11:08:23.000Z</time>
      </trkpt>
      <trkpt lat="43.38161" lon="6.63754">
        <ele>98.59</ele>
        <time>2017-10-07T11:08:29.000Z</time>
      </trkpt>
      <trkpt lat="43.38166" lon="6.63764">
        <ele>99.49</ele>
        <time>2017-10-07T11:08:34.000Z</time>
      </trkpt>
      <trkpt lat="43.38172" lon="6.63775">
        <ele>100.55</ele>
        <time>2017-10-07T11:08:39.000Z</time>
      </trkpt>
      <trkpt lat="43.38177" lon="6.63786">
        <ele>101.77</ele>
        <time>2017-10-07T11:08:45.000Z</time>
      </trkpt>
      <trkpt lat="43.38184" lon="6.63797">
        <ele>103.04</ele>
        <time>2017-10-07T11:08:51.000Z</time>
      </trkpt>
      <trkpt lat="43.3819" lon="6.63808">
        <ele>104.09</ele>
        <time>2017-10-07T11:08:57.000Z</time>
      </trkpt>
      <trkpt lat="43.38196" lon="6.63818">
        <ele>104.76</ele>
        <time>2017-10-07T11:09:02.000Z</time>
      </trkpt>
      <trkpt lat="43.38202" lon="6.63827">
        <ele>104.85</ele>
        <time>2017-10-07T11:09:07.000Z</time>
      </trkpt>
      <trkpt lat="43.38209" lon="6.63838">
        <ele>105.3</ele>
        <time>2017-10-07T11:09:13.000Z</time>
      </trkpt>
      <trkpt lat="43.38216" lon="6.63851">
        <ele>106.25</ele>
        <time>2017-10-07T11:09:18.000Z</time>
      </trkpt>
      <trkpt lat="43.3823" lon="6.63867">
        <ele>106.12</ele>
        <time>2017-10-07T11:09:23.000Z</time>
      </trkpt>
      <trkpt lat="43.38248" lon="6.63888">
        <ele>106.34</ele>
        <time>2017-10-07T11:09:28.000Z</time>
      </trkpt>
      <trkpt lat="43.38269" lon="6.63904">
        <ele>103.68</ele>
        <time>2017-10-07T11:09:33.000Z</time>
      </trkpt>
      <trkpt lat="43.38286" lon="6.6392">
        <ele>99.81</ele>
        <time>2017-10-07T11:09:38.000Z</time>
      </trkpt>
      <trkpt lat="43.38297" lon="6.63946">
        <ele>98.36</ele>
        <time>2017-10-07T11:09:43.000Z</time>
      </trkpt>
      <trkpt lat="43.38301" lon="6.63976">
        <ele>98.29</ele>
        <time>2017-10-07T11:09:48.000Z</time>
      </trkpt>
      <trkpt lat="43.38304" lon="6.64008">
        <ele>97.23</ele>
        <time>2017-10-07T11:09:53.000Z</time>
      </trkpt>
      <trkpt lat="43.38302" lon="6.64041">
        <ele>95.31</ele>
        <time>2017-10-07T11:09:58.000Z</time>
      </trkpt>
      <trkpt lat="43.38285" lon="6.6407">
        <ele>96.88</ele>
        <time>2017-10-07T11:10:03.000Z</time>
      </trkpt>
      <trkpt lat="43.38256" lon="6.64101">
        <ele>101.41</ele>
        <time>2017-10-07T11:10:08.000Z</time>
      </trkpt>
      <trkpt lat="43.38231" lon="6.64122">
        <ele>105.86</ele>
        <time>2017-10-07T11:10:13.000Z</time>
      </trkpt>
      <trkpt lat="43.38219" lon="6.64147">
        <ele>107</ele>
        <time>2017-10-07T11:10:18.000Z</time>
      </trkpt>
      <trkpt lat="43.38232" lon="6.64169">
        <ele>103.65</ele>
        <time>2017-10-07T11:10:23.000Z</time>
      </trkpt>
      <trkpt lat="43.38243" lon="6.64178">
        <ele>101.84</ele>
        <time>2017-10-07T11:10:28.000Z</time>
      </trkpt>
      <trkpt lat="43.38251" lon="6.64187">
        <ele>101.05</ele>
        <time>2017-10-07T11:10:33.000Z</time>
      </trkpt>
      <trkpt lat="43.38259" lon="6.64196">
        <ele>100.78</ele>
        <time>2017-10-07T11:10:38.000Z</time>
      </trkpt>
      <trkpt lat="43.38265" lon="6.6421">
        <ele>101.24</ele>
        <time>2017-10-07T11:10:43.000Z</time>
      </trkpt>
      <trkpt lat="43.38265" lon="6.64227">
        <ele>102.23</ele>
        <time>2017-10-07T11:10:48.000Z</time>
      </trkpt>
      <trkpt lat="43.38252" lon="6.64249">
        <ele>102.98</ele>
        <time>2017-10-07T11:10:53.000Z</time>
      </trkpt>
      <trkpt lat="43.38228" lon="6.64285">
        <ele>101.86</ele>
        <time>2017-10-07T11:10:58.000Z</time>
      </trkpt>
      <trkpt lat="43.38209" lon="6.64329">
        <ele>97.74</ele>
        <time>2017-10-07T11:11:03.000Z</time>
      </trkpt>
      <trkpt lat="43.38171" lon="6.64359">
        <ele>92.05</ele>
        <time>2017-10-07T11:11:08.000Z</time>
      </trkpt>
      <trkpt lat="43.38141" lon="6.64407">
        <ele>87.68</ele>
        <time>2017-10-07T11:11:13.000Z</time>
      </trkpt>
      <trkpt lat="43.38113" lon="6.64449">
        <ele>83.97</ele>
        <time>2017-10-07T11:11:18.000Z</time>
      </trkpt>
      <trkpt lat="43.38078" lon="6.64423">
        <ele>85.26</ele>
        <time>2017-10-07T11:11:23.000Z</time>
      </trkpt>
      <trkpt lat="43.38041" lon="6.64436">
        <ele>85.12</ele>
        <time>2017-10-07T11:11:28.000Z</time>
      </trkpt>
      <trkpt lat="43.38007" lon="6.64454">
        <ele>85.18</ele>
        <time>2017-10-07T11:11:33.000Z</time>
      </trkpt>
      <trkpt lat="43.37967" lon="6.64445">
        <ele>85.44</ele>
        <time>2017-10-07T11:11:38.000Z</time>
      </trkpt>
      <trkpt lat="43.37941" lon="6.6444">
        <ele>84.85</ele>
        <time>2017-10-07T11:11:43.000Z</time>
      </trkpt>
      <trkpt lat="43.37918" lon="6.64446">
        <ele>84.86</ele>
        <time>2017-10-07T11:11:48.000Z</time>
      </trkpt>
      <trkpt lat="43.37895" lon="6.64448">
        <ele>85.47</ele>
        <time>2017-10-07T11:11:53.000Z</time>
      </trkpt>
      <trkpt lat="43.37871" lon="6.64451">
        <ele>86.34</ele>
        <time>2017-10-07T11:11:58.000Z</time>
      </trkpt>
      <trkpt lat="43.37854" lon="6.64465">
        <ele>86.91</ele>
        <time>2017-10-07T11:12:03.000Z</time>
      </trkpt>
      <trkpt lat="43.37835" lon="6.64482">
        <ele>87.53</ele>
        <time>2017-10-07T11:12:08.000Z</time>
      </trkpt>
      <trkpt lat="43.37816" lon="6.64493">
        <ele>88.45</ele>
        <time>2017-10-07T11:12:13.000Z</time>
      </trkpt>
      <trkpt lat="43.37797" lon="6.64507">
        <ele>89.43</ele>
        <time>2017-10-07T11:12:18.000Z</time>
      </trkpt>
      <trkpt lat="43.37777" lon="6.64513">
        <ele>90.37</ele>
        <time>2017-10-07T11:12:23.000Z</time>
      </trkpt>
      <trkpt lat="43.37759" lon="6.64527">
        <ele>90.91</ele>
        <time>2017-10-07T11:12:28.000Z</time>
      </trkpt>
      <trkpt lat="43.37753" lon="6.64545">
        <ele>90.72</ele>
        <time>2017-10-07T11:12:33.000Z</time>
      </trkpt>
      <trkpt lat="43.37749" lon="6.64558">
        <ele>90.62</ele>
        <time>2017-10-07T11:12:38.000Z</time>
      </trkpt>
      <trkpt lat="43.37743" lon="6.64568">
        <ele>90.64</ele>
        <time>2017-10-07T11:12:43.000Z</time>
      </trkpt>
      <trkpt lat="43.37737" lon="6.64577">
        <ele>90.76</ele>
        <time>2017-10-07T11:12:48.000Z</time>
      </trkpt>
      <trkpt lat="43.37728" lon="6.64585">
        <ele>91.05</ele>
        <time>2017-10-07T11:12:53.000Z</time>
      </trkpt>
      <trkpt lat="43.37714" lon="6.64591">
        <ele>91.57</ele>
        <time>2017-10-07T11:12:58.000Z</time>
      </trkpt>
      <trkpt lat="43.37701" lon="6.64594">
        <ele>92.21</ele>
        <time>2017-10-07T11:13:03.000Z</time>
      </trkpt>
      <trkpt lat="43.37689" lon="6.64597">
        <ele>92.75</ele>
        <time>2017-10-07T11:13:08.000Z</time>
      </trkpt>
      <trkpt lat="43.37677" lon="6.64595">
        <ele>93.28</ele>
        <time>2017-10-07T11:13:13.000Z</time>
      </trkpt>
      <trkpt lat="43.37665" lon="6.6459">
        <ele>93.81</ele>
        <time>2017-10-07T11:13:18.000Z</time>
      </trkpt>
      <trkpt lat="43.37652" lon="6.64581">
        <ele>94.6</ele>
        <time>2017-10-07T11:13:23.000Z</time>
      </trkpt>
      <trkpt lat="43.37629" lon="6.64575">
        <ele>95.69</ele>
        <time>2017-10-07T11:13:28.000Z</time>
      </trkpt>
      <trkpt lat="43.376" lon="6.64581">
        <ele>96.06</ele>
        <time>2017-10-07T11:13:33.000Z</time>
      </trkpt>
      <trkpt lat="43.37572" lon="6.64594">
        <ele>96.85</ele>
        <time>2017-10-07T11:13:38.000Z</time>
      </trkpt>
      <trkpt lat="43.3755" lon="6.64613">
        <ele>97.01</ele>
        <time>2017-10-07T11:13:43.000Z</time>
      </trkpt>
      <trkpt lat="43.37529" lon="6.64632">
        <ele>97.04</ele>
        <time>2017-10-07T11:13:48.000Z</time>
      </trkpt>
      <trkpt lat="43.37509" lon="6.64647">
        <ele>97.31</ele>
        <time>2017-10-07T11:13:53.000Z</time>
      </trkpt>
      <trkpt lat="43.37491" lon="6.64661">
        <ele>98.28</ele>
        <time>2017-10-07T11:13:58.000Z</time>
      </trkpt>
      <trkpt lat="43.37476" lon="6.64673">
        <ele>99.83</ele>
        <time>2017-10-07T11:14:03.000Z</time>
      </trkpt>
      <trkpt lat="43.3746" lon="6.64684">
        <ele>101.62</ele>
        <time>2017-10-07T11:14:08.000Z</time>
      </trkpt>
      <trkpt lat="43.37443" lon="6.64697">
        <ele>102.92</ele>
        <time>2017-10-07T11:14:13.000Z</time>
      </trkpt>
      <trkpt lat="43.37426" lon="6.64707">
        <ele>103.54</ele>
        <time>2017-10-07T11:14:18.000Z</time>
      </trkpt>
      <trkpt lat="43.37409" lon="6.64722">
        <ele>103.09</ele>
        <time>2017-10-07T11:14:23.000Z</time>
      </trkpt>
      <trkpt lat="43.37394" lon="6.64738">
        <ele>102.38</ele>
        <time>2017-10-07T11:14:28.000Z</time>
      </trkpt>
      <trkpt lat="43.37376" lon="6.64754">
        <ele>102.16</ele>
        <time>2017-10-07T11:14:33.000Z</time>
      </trkpt>
      <trkpt lat="43.37356" lon="6.64765">
        <ele>102.7</ele>
        <time>2017-10-07T11:14:38.000Z</time>
      </trkpt>
      <trkpt lat="43.37333" lon="6.64763">
        <ele>103.14</ele>
        <time>2017-10-07T11:14:43.000Z</time>
      </trkpt>
      <trkpt lat="43.37312" lon="6.64764">
        <ele>104.09</ele>
        <time>2017-10-07T11:14:48.000Z</time>
      </trkpt>
      <trkpt lat="43.37286" lon="6.64767">
        <ele>105.86</ele>
        <time>2017-10-07T11:14:53.000Z</time>
      </trkpt>
      <trkpt lat="43.37269" lon="6.64753">
        <ele>105.58</ele>
        <time>2017-10-07T11:14:58.000Z</time>
      </trkpt>
      <trkpt lat="43.37257" lon="6.64733">
        <ele>104.78</ele>
        <time>2017-10-07T11:15:03.000Z</time>
      </trkpt>
      <trkpt lat="43.37244" lon="6.64711">
        <ele>104.08</ele>
        <time>2017-10-07T11:15:08.000Z</time>
      </trkpt>
      <trkpt lat="43.37229" lon="6.64691">
        <ele>104.41</ele>
        <time>2017-10-07T11:15:13.000Z</time>
      </trkpt>
      <trkpt lat="43.37207" lon="6.64697">
        <ele>105.52</ele>
        <time>2017-10-07T11:15:18.000Z</time>
      </trkpt>
      <trkpt lat="43.37186" lon="6.64702">
        <ele>106.68</ele>
        <time>2017-10-07T11:15:23.000Z</time>
      </trkpt>
      <trkpt lat="43.37167" lon="6.64709">
        <ele>107.3</ele>
        <time>2017-10-07T11:15:28.000Z</time>
      </trkpt>
      <trkpt lat="43.37148" lon="6.64717">
        <ele>107.55</ele>
        <time>2017-10-07T11:15:33.000Z</time>
      </trkpt>
      <trkpt lat="43.37129" lon="6.64724">
        <ele>107.53</ele>
        <time>2017-10-07T11:15:38.000Z</time>
      </trkpt>
      <trkpt lat="43.37108" lon="6.64735">
        <ele>106.83</ele>
        <time>2017-10-07T11:15:43.000Z</time>
      </trkpt>
      <trkpt lat="43.37088" lon="6.64752">
        <ele>105.91</ele>
        <time>2017-10-07T11:15:48.000Z</time>
      </trkpt>
      <trkpt lat="43.37067" lon="6.64763">
        <ele>106.29</ele>
        <time>2017-10-07T11:15:53.000Z</time>
      </trkpt>
      <trkpt lat="43.37045" lon="6.6477">
        <ele>107.39</ele>
        <time>2017-10-07T11:15:58.000Z</time>
      </trkpt>
      <trkpt lat="43.37024" lon="6.6477">
        <ele>108.32</ele>
        <time>2017-10-07T11:16:03.000Z</time>
      </trkpt>
      <trkpt lat="43.37003" lon="6.64764">
        <ele>108.86</ele>
        <time>2017-10-07T11:16:08.000Z</time>
      </trkpt>
      <trkpt lat="43.3698" lon="6.64757">
        <ele>109.16</ele>
        <time>2017-10-07T11:16:13.000Z</time>
      </trkpt>
      <trkpt lat="43.36959" lon="6.64754">
        <ele>109.22</ele>
        <time>2017-10-07T11:16:18.000Z</time>
      </trkpt>
      <trkpt lat="43.36938" lon="6.64757">
        <ele>109.44</ele>
        <time>2017-10-07T11:16:23.000Z</time>
      </trkpt>
      <trkpt lat="43.36922" lon="6.64763">
        <ele>110.09</ele>
        <time>2017-10-07T11:16:28.000Z</time>
      </trkpt>
      <trkpt lat="43.36907" lon="6.64772">
        <ele>111.34</ele>
        <time>2017-10-07T11:16:33.000Z</time>
      </trkpt>
      <trkpt lat="43.36895" lon="6.6478">
        <ele>112.6</ele>
        <time>2017-10-07T11:16:38.000Z</time>
      </trkpt>
      <trkpt lat="43.36882" lon="6.64795">
        <ele>113.89</ele>
        <time>2017-10-07T11:16:43.000Z</time>
      </trkpt>
      <trkpt lat="43.36873" lon="6.64819">
        <ele>114.86</ele>
        <time>2017-10-07T11:16:48.000Z</time>
      </trkpt>
      <trkpt lat="43.36871" lon="6.64839">
        <ele>116.01</ele>
        <time>2017-10-07T11:16:53.000Z</time>
      </trkpt>
      <trkpt lat="43.36862" lon="6.64855">
        <ele>117.75</ele>
        <time>2017-10-07T11:16:58.000Z</time>
      </trkpt>
      <trkpt lat="43.36843" lon="6.64859">
        <ele>118.59</ele>
        <time>2017-10-07T11:17:03.000Z</time>
      </trkpt>
      <trkpt lat="43.36825" lon="6.64863">
        <ele>119.64</ele>
        <time>2017-10-07T11:17:08.000Z</time>
      </trkpt>
      <trkpt lat="43.36808" lon="6.6487">
        <ele>121.05</ele>
        <time>2017-10-07T11:17:13.000Z</time>
      </trkpt>
      <trkpt lat="43.3679" lon="6.64872">
        <ele>121.88</ele>
        <time>2017-10-07T11:17:18.000Z</time>
      </trkpt>
      <trkpt lat="43.36769" lon="6.64871">
        <ele>122.47</ele>
        <time>2017-10-07T11:17:23.000Z</time>
      </trkpt>
      <trkpt lat="43.36749" lon="6.64872">
        <ele>122.93</ele>
        <time>2017-10-07T11:17:28.000Z</time>
      </trkpt>
      <trkpt lat="43.36729" lon="6.64876">
        <ele>123.01</ele>
        <time>2017-10-07T11:17:33.000Z</time>
      </trkpt>
      <trkpt lat="43.3671" lon="6.64883">
        <ele>122.8</ele>
        <time>2017-10-07T11:17:38.000Z</time>
      </trkpt>
      <trkpt lat="43.36693" lon="6.64892">
        <ele>122.6</ele>
        <time>2017-10-07T11:17:43.000Z</time>
      </trkpt>
      <trkpt lat="43.36674" lon="6.64899">
        <ele>122.5</ele>
        <time>2017-10-07T11:17:48.000Z</time>
      </trkpt>
      <trkpt lat="43.36656" lon="6.64908">
        <ele>122.58</ele>
        <time>2017-10-07T11:17:53.000Z</time>
      </trkpt>
      <trkpt lat="43.36638" lon="6.64918">
        <ele>122.77</ele>
        <time>2017-10-07T11:17:58.000Z</time>
      </trkpt>
      <trkpt lat="43.36617" lon="6.6493">
        <ele>122.98</ele>
        <time>2017-10-07T11:18:03.000Z</time>
      </trkpt>
      <trkpt lat="43.36598" lon="6.64946">
        <ele>123.4</ele>
        <time>2017-10-07T11:18:08.000Z</time>
      </trkpt>
      <trkpt lat="43.36581" lon="6.64961">
        <ele>124.19</ele>
        <time>2017-10-07T11:18:13.000Z</time>
      </trkpt>
      <trkpt lat="43.36571" lon="6.64976">
        <ele>125.18</ele>
        <time>2017-10-07T11:18:18.000Z</time>
      </trkpt>
      <trkpt lat="43.36566" lon="6.64993">
        <ele>126.4</ele>
        <time>2017-10-07T11:18:23.000Z</time>
      </trkpt>
      <trkpt lat="43.36566" lon="6.65015">
        <ele>127.47</ele>
        <time>2017-10-07T11:18:28.000Z</time>
      </trkpt>
      <trkpt lat="43.36567" lon="6.65038">
        <ele>128.6</ele>
        <time>2017-10-07T11:18:33.000Z</time>
      </trkpt>
      <trkpt lat="43.36568" lon="6.65062">
        <ele>129.68</ele>
        <time>2017-10-07T11:18:38.000Z</time>
      </trkpt>
      <trkpt lat="43.3657" lon="6.65088">
        <ele>130.51</ele>
        <time>2017-10-07T11:18:43.000Z</time>
      </trkpt>
      <trkpt lat="43.36575" lon="6.65111">
        <ele>130.99</ele>
        <time>2017-10-07T11:18:48.000Z</time>
      </trkpt>
      <trkpt lat="43.36581" lon="6.65133">
        <ele>131.49</ele>
        <time>2017-10-07T11:18:53.000Z</time>
      </trkpt>
      <trkpt lat="43.36584" lon="6.65156">
        <ele>131.95</ele>
        <time>2017-10-07T11:18:58.000Z</time>
      </trkpt>
      <trkpt lat="43.36587" lon="6.65179">
        <ele>132.62</ele>
        <time>2017-10-07T11:19:03.000Z</time>
      </trkpt>
      <trkpt lat="43.36589" lon="6.65201">
        <ele>133.18</ele>
        <time>2017-10-07T11:19:08.000Z</time>
      </trkpt>
      <trkpt lat="43.36588" lon="6.65221">
        <ele>133.06</ele>
        <time>2017-10-07T11:19:13.000Z</time>
      </trkpt>
      <trkpt lat="43.36585" lon="6.65245">
        <ele>133.08</ele>
        <time>2017-10-07T11:19:18.000Z</time>
      </trkpt>
      <trkpt lat="43.36582" lon="6.65269">
        <ele>133.63</ele>
        <time>2017-10-07T11:19:23.000Z</time>
      </trkpt>
      <trkpt lat="43.36584" lon="6.65295">
        <ele>135</ele>
        <time>2017-10-07T11:19:28.000Z</time>
      </trkpt>
      <trkpt lat="43.36589" lon="6.6532">
        <ele>136.71</ele>
        <time>2017-10-07T11:19:33.000Z</time>
      </trkpt>
      <trkpt lat="43.36595" lon="6.65347">
        <ele>138.25</ele>
        <time>2017-10-07T11:19:38.000Z</time>
      </trkpt>
      <trkpt lat="43.36595" lon="6.65377">
        <ele>138.88</ele>
        <time>2017-10-07T11:19:43.000Z</time>
      </trkpt>
      <trkpt lat="43.36595" lon="6.65404">
        <ele>139.62</ele>
        <time>2017-10-07T11:19:48.000Z</time>
      </trkpt>
      <trkpt lat="43.36598" lon="6.65431">
        <ele>140.98</ele>
        <time>2017-10-07T11:19:53.000Z</time>
      </trkpt>
      <trkpt lat="43.36599" lon="6.6546">
        <ele>143.13</ele>
        <time>2017-10-07T11:19:58.000Z</time>
      </trkpt>
      <trkpt lat="43.36606" lon="6.65483">
        <ele>144.46</ele>
        <time>2017-10-07T11:20:03.000Z</time>
      </trkpt>
      <trkpt lat="43.36611" lon="6.65501">
        <ele>145.01</ele>
        <time>2017-10-07T11:20:08.000Z</time>
      </trkpt>
      <trkpt lat="43.36615" lon="6.65521">
        <ele>145.23</ele>
        <time>2017-10-07T11:20:13.000Z</time>
      </trkpt>
      <trkpt lat="43.36614" lon="6.65539">
        <ele>145.48</ele>
        <time>2017-10-07T11:20:18.000Z</time>
      </trkpt>
      <trkpt lat="43.3661" lon="6.65564">
        <ele>146.04</ele>
        <time>2017-10-07T11:20:23.000Z</time>
      </trkpt>
      <trkpt lat="43.36613" lon="6.65593">
        <ele>146.04</ele>
        <time>2017-10-07T11:20:28.000Z</time>
      </trkpt>
      <trkpt lat="43.3662" lon="6.65609">
        <ele>145.6</ele>
        <time>2017-10-07T11:20:33.000Z</time>
      </trkpt>
      <trkpt lat="43.36626" lon="6.65622">
        <ele>145.49</ele>
        <time>2017-10-07T11:20:38.000Z</time>
      </trkpt>
      <trkpt lat="43.3663" lon="6.65637">
        <ele>145.86</ele>
        <time>2017-10-07T11:20:43.000Z</time>
      </trkpt>
      <trkpt lat="43.36635" lon="6.65654">
        <ele>146.61</ele>
        <time>2017-10-07T11:20:48.000Z</time>
      </trkpt>
      <trkpt lat="43.3664" lon="6.65671">
        <ele>147.59</ele>
        <time>2017-10-07T11:20:53.000Z</time>
      </trkpt>
      <trkpt lat="43.36647" lon="6.65687">
        <ele>148.64</ele>
        <time>2017-10-07T11:20:58.000Z</time>
      </trkpt>
      <trkpt lat="43.36656" lon="6.65705">
        <ele>149.66</ele>
        <time>2017-10-07T11:21:03.000Z</time>
      </trkpt>
      <trkpt lat="43.36666" lon="6.65725">
        <ele>150.58</ele>
        <time>2017-10-07T11:21:08.000Z</time>
      </trkpt>
      <trkpt lat="43.36675" lon="6.6574">
        <ele>151.54</ele>
        <time>2017-10-07T11:21:13.000Z</time>
      </trkpt>
      <trkpt lat="43.3668" lon="6.65755">
        <ele>152.17</ele>
        <time>2017-10-07T11:21:18.000Z</time>
      </trkpt>
      <trkpt lat="43.36681" lon="6.6577">
        <ele>152.33</ele>
        <time>2017-10-07T11:21:23.000Z</time>
      </trkpt>
      <trkpt lat="43.36675" lon="6.65789">
        <ele>152.1</ele>
        <time>2017-10-07T11:21:28.000Z</time>
      </trkpt>
      <trkpt lat="43.36663" lon="6.65806">
        <ele>152.73</ele>
        <time>2017-10-07T11:21:33.000Z</time>
      </trkpt>
      <trkpt lat="43.36655" lon="6.65826">
        <ele>154.62</ele>
        <time>2017-10-07T11:21:38.000Z</time>
      </trkpt>
      <trkpt lat="43.36651" lon="6.65847">
        <ele>156.79</ele>
        <time>2017-10-07T11:21:43.000Z</time>
      </trkpt>
      <trkpt lat="43.36655" lon="6.6587">
        <ele>158.28</ele>
        <time>2017-10-07T11:21:48.000Z</time>
      </trkpt>
      <trkpt lat="43.36667" lon="6.65874">
        <ele>157.52</ele>
        <time>2017-10-07T11:21:53.000Z</time>
      </trkpt>
      <trkpt lat="43.36679" lon="6.65871">
        <ele>156.7</ele>
        <time>2017-10-07T11:21:58.000Z</time>
      </trkpt>
      <trkpt lat="43.36692" lon="6.65865">
        <ele>156.27</ele>
        <time>2017-10-07T11:22:03.000Z</time>
      </trkpt>
      <trkpt lat="43.36704" lon="6.65863">
        <ele>156.77</ele>
        <time>2017-10-07T11:22:08.000Z</time>
      </trkpt>
      <trkpt lat="43.36713" lon="6.65869">
        <ele>158.02</ele>
        <time>2017-10-07T11:22:13.000Z</time>
      </trkpt>
      <trkpt lat="43.3672" lon="6.6588">
        <ele>159.52</ele>
        <time>2017-10-07T11:22:18.000Z</time>
      </trkpt>
      <trkpt lat="43.36724" lon="6.65893">
        <ele>160.92</ele>
        <time>2017-10-07T11:22:23.000Z</time>
      </trkpt>
      <trkpt lat="43.36727" lon="6.65905">
        <ele>162.28</ele>
        <time>2017-10-07T11:22:28.000Z</time>
      </trkpt>
      <trkpt lat="43.3673" lon="6.6592">
        <ele>163.8</ele>
        <time>2017-10-07T11:22:33.000Z</time>
      </trkpt>
      <trkpt lat="43.36733" lon="6.65933">
        <ele>165.33</ele>
        <time>2017-10-07T11:22:39.000Z</time>
      </trkpt>
      <trkpt lat="43.36736" lon="6.65945">
        <ele>166.78</ele>
        <time>2017-10-07T11:22:44.000Z</time>
      </trkpt>
      <trkpt lat="43.36739" lon="6.65958">
        <ele>168.45</ele>
        <time>2017-10-07T11:22:49.000Z</time>
      </trkpt>
      <trkpt lat="43.36744" lon="6.65976">
        <ele>170.64</ele>
        <time>2017-10-07T11:22:54.000Z</time>
      </trkpt>
      <trkpt lat="43.36749" lon="6.65999">
        <ele>172.92</ele>
        <time>2017-10-07T11:22:59.000Z</time>
      </trkpt>
      <trkpt lat="43.36751" lon="6.66021">
        <ele>174.73</ele>
        <time>2017-10-07T11:23:04.000Z</time>
      </trkpt>
      <trkpt lat="43.36757" lon="6.66036">
        <ele>175.6</ele>
        <time>2017-10-07T11:23:09.000Z</time>
      </trkpt>
      <trkpt lat="43.36759" lon="6.66051">
        <ele>176.44</ele>
        <time>2017-10-07T11:23:14.000Z</time>
      </trkpt>
      <trkpt lat="43.36756" lon="6.66066">
        <ele>177.62</ele>
        <time>2017-10-07T11:23:19.000Z</time>
      </trkpt>
      <trkpt lat="43.36755" lon="6.66085">
        <ele>178.54</ele>
        <time>2017-10-07T11:23:24.000Z</time>
      </trkpt>
      <trkpt lat="43.36756" lon="6.66103">
        <ele>178.77</ele>
        <time>2017-10-07T11:23:29.000Z</time>
      </trkpt>
      <trkpt lat="43.36757" lon="6.66118">
        <ele>178.67</ele>
        <time>2017-10-07T11:23:34.000Z</time>
      </trkpt>
      <trkpt lat="43.36756" lon="6.66137">
        <ele>178.6</ele>
        <time>2017-10-07T11:23:39.000Z</time>
      </trkpt>
      <trkpt lat="43.36743" lon="6.66152">
        <ele>181.07</ele>
        <time>2017-10-07T11:23:44.000Z</time>
      </trkpt>
      <trkpt lat="43.36736" lon="6.66168">
        <ele>182.49</ele>
        <time>2017-10-07T11:23:49.000Z</time>
      </trkpt>
      <trkpt lat="43.36727" lon="6.66183">
        <ele>183.98</ele>
        <time>2017-10-07T11:23:54.000Z</time>
      </trkpt>
      <trkpt lat="43.36721" lon="6.66199">
        <ele>185.11</ele>
        <time>2017-10-07T11:23:59.000Z</time>
      </trkpt>
      <trkpt lat="43.36714" lon="6.66212">
        <ele>186.09</ele>
        <time>2017-10-07T11:24:04.000Z</time>
      </trkpt>
      <trkpt lat="43.3671" lon="6.66224">
        <ele>186.65</ele>
        <time>2017-10-07T11:24:09.000Z</time>
      </trkpt>
      <trkpt lat="43.36709" lon="6.66238">
        <ele>186.99</ele>
        <time>2017-10-07T11:24:15.000Z</time>
      </trkpt>
      <trkpt lat="43.367" lon="6.66244">
        <ele>187.6</ele>
        <time>2017-10-07T11:30:24.000Z</time>
      </trkpt>
      <trkpt lat="43.36709" lon="6.66247">
        <ele>187.01</ele>
        <time>2017-10-07T11:30:39.000Z</time>
      </trkpt>
      <trkpt lat="43.36719" lon="6.66249">
        <ele>186.28</ele>
        <time>2017-10-07T11:30:48.000Z</time>
      </trkpt>
      <trkpt lat="43.36709" lon="6.66242">
        <ele>187.01</ele>
        <time>2017-10-07T11:32:47.000Z</time>
      </trkpt>
      <trkpt lat="43.36699" lon="6.66241">
        <ele>187.7</ele>
        <time>2017-10-07T11:32:55.000Z</time>
      </trkpt>
      <trkpt lat="43.36689" lon="6.66241">
        <ele>188.42</ele>
        <time>2017-10-07T11:33:02.000Z</time>
      </trkpt>
      <trkpt lat="43.36683" lon="6.6625">
        <ele>188.97</ele>
        <time>2017-10-07T11:33:07.000Z</time>
      </trkpt>
      <trkpt lat="43.36673" lon="6.66262">
        <ele>189.79</ele>
        <time>2017-10-07T11:33:12.000Z</time>
      </trkpt>
      <trkpt lat="43.36662" lon="6.66277">
        <ele>191.07</ele>
        <time>2017-10-07T11:33:17.000Z</time>
      </trkpt>
      <trkpt lat="43.36661" lon="6.66292">
        <ele>190.55</ele>
        <time>2017-10-07T11:33:22.000Z</time>
      </trkpt>
      <trkpt lat="43.36659" lon="6.66305">
        <ele>190.09</ele>
        <time>2017-10-07T11:33:27.000Z</time>
      </trkpt>
      <trkpt lat="43.36659" lon="6.66324">
        <ele>189.13</ele>
        <time>2017-10-07T11:33:32.000Z</time>
      </trkpt>
      <trkpt lat="43.36656" lon="6.66349">
        <ele>189.12</ele>
        <time>2017-10-07T11:33:37.000Z</time>
      </trkpt>
      <trkpt lat="43.36652" lon="6.66374">
        <ele>189.89</ele>
        <time>2017-10-07T11:33:42.000Z</time>
      </trkpt>
      <trkpt lat="43.36654" lon="6.66387">
        <ele>189.04</ele>
        <time>2017-10-07T11:33:47.000Z</time>
      </trkpt>
      <trkpt lat="43.3666" lon="6.66402">
        <ele>186.66</ele>
        <time>2017-10-07T11:33:52.000Z</time>
      </trkpt>
      <trkpt lat="43.36662" lon="6.66431">
        <ele>183.74</ele>
        <time>2017-10-07T11:33:57.000Z</time>
      </trkpt>
      <trkpt lat="43.36662" lon="6.66453">
        <ele>180.99</ele>
        <time>2017-10-07T11:34:02.000Z</time>
      </trkpt>
      <trkpt lat="43.36662" lon="6.66481">
        <ele>177.11</ele>
        <time>2017-10-07T11:34:07.000Z</time>
      </trkpt>
      <trkpt lat="43.36661" lon="6.66506">
        <ele>175.09</ele>
        <time>2017-10-07T11:34:12.000Z</time>
      </trkpt>
      <trkpt lat="43.3666" lon="6.66547">
        <ele>173.51</ele>
        <time>2017-10-07T11:34:17.000Z</time>
      </trkpt>
      <trkpt lat="43.36668" lon="6.66596">
        <ele>168.52</ele>
        <time>2017-10-07T11:34:22.000Z</time>
      </trkpt>
      <trkpt lat="43.36667" lon="6.66638">
        <ele>162.9</ele>
        <time>2017-10-07T11:34:27.000Z</time>
      </trkpt>
      <trkpt lat="43.36659" lon="6.66667">
        <ele>158.64</ele>
        <time>2017-10-07T11:34:32.000Z</time>
      </trkpt>
      <trkpt lat="43.36643" lon="6.66674">
        <ele>157.37</ele>
        <time>2017-10-07T11:34:37.000Z</time>
      </trkpt>
      <trkpt lat="43.36633" lon="6.66668">
        <ele>158.62</ele>
        <time>2017-10-07T11:34:42.000Z</time>
      </trkpt>
      <trkpt lat="43.36625" lon="6.66661">
        <ele>159.79</ele>
        <time>2017-10-07T11:34:48.000Z</time>
      </trkpt>
      <trkpt lat="43.36615" lon="6.66657">
        <ele>160.55</ele>
        <time>2017-10-07T11:34:56.000Z</time>
      </trkpt>
      <trkpt lat="43.366" lon="6.66645">
        <ele>163.87</ele>
        <time>2017-10-07T11:35:01.000Z</time>
      </trkpt>
      <trkpt lat="43.36585" lon="6.66628">
        <ele>169.26</ele>
        <time>2017-10-07T11:35:06.000Z</time>
      </trkpt>
      <trkpt lat="43.36573" lon="6.66607">
        <ele>176.02</ele>
        <time>2017-10-07T11:35:11.000Z</time>
      </trkpt>
      <trkpt lat="43.36558" lon="6.6659">
        <ele>179.9</ele>
        <time>2017-10-07T11:35:16.000Z</time>
      </trkpt>
      <trkpt lat="43.36539" lon="6.66571">
        <ele>181.64</ele>
        <time>2017-10-07T11:35:21.000Z</time>
      </trkpt>
      <trkpt lat="43.36522" lon="6.66552">
        <ele>183.38</ele>
        <time>2017-10-07T11:35:26.000Z</time>
      </trkpt>
      <trkpt lat="43.36506" lon="6.66553">
        <ele>182.26</ele>
        <time>2017-10-07T11:35:31.000Z</time>
      </trkpt>
      <trkpt lat="43.3651" lon="6.6658">
        <ele>177.36</ele>
        <time>2017-10-07T11:35:36.000Z</time>
      </trkpt>
      <trkpt lat="43.36509" lon="6.66614">
        <ele>173.03</ele>
        <time>2017-10-07T11:35:41.000Z</time>
      </trkpt>
      <trkpt lat="43.36501" lon="6.66649">
        <ele>172.78</ele>
        <time>2017-10-07T11:35:46.000Z</time>
      </trkpt>
      <trkpt lat="43.36504" lon="6.66672">
        <ele>171.8</ele>
        <time>2017-10-07T11:35:51.000Z</time>
      </trkpt>
      <trkpt lat="43.3651" lon="6.66688">
        <ele>170.67</ele>
        <time>2017-10-07T11:35:56.000Z</time>
      </trkpt>
      <trkpt lat="43.36512" lon="6.66701">
        <ele>170.9</ele>
        <time>2017-10-07T11:36:01.000Z</time>
      </trkpt>
      <trkpt lat="43.36513" lon="6.66714">
        <ele>171.45</ele>
        <time>2017-10-07T11:36:06.000Z</time>
      </trkpt>
      <trkpt lat="43.36512" lon="6.66728">
        <ele>173.16</ele>
        <time>2017-10-07T11:36:11.000Z</time>
      </trkpt>
      <trkpt lat="43.36512" lon="6.66742">
        <ele>174.8</ele>
        <time>2017-10-07T11:36:16.000Z</time>
      </trkpt>
      <trkpt lat="43.36512" lon="6.66755">
        <ele>176.47</ele>
        <time>2017-10-07T11:36:21.000Z</time>
      </trkpt>
      <trkpt lat="43.36515" lon="6.6677">
        <ele>177.46</ele>
        <time>2017-10-07T11:36:26.000Z</time>
      </trkpt>
      <trkpt lat="43.36521" lon="6.66784">
        <ele>177.84</ele>
        <time>2017-10-07T11:36:31.000Z</time>
      </trkpt>
      <trkpt lat="43.36526" lon="6.66798">
        <ele>177.99</ele>
        <time>2017-10-07T11:36:36.000Z</time>
      </trkpt>
      <trkpt lat="43.3653" lon="6.66811">
        <ele>178.75</ele>
        <time>2017-10-07T11:36:41.000Z</time>
      </trkpt>
      <trkpt lat="43.36536" lon="6.66825">
        <ele>178.89</ele>
        <time>2017-10-07T11:36:46.000Z</time>
      </trkpt>
      <trkpt lat="43.3654" lon="6.66839">
        <ele>178.61</ele>
        <time>2017-10-07T11:36:51.000Z</time>
      </trkpt>
      <trkpt lat="43.36544" lon="6.66852">
        <ele>179.16</ele>
        <time>2017-10-07T11:36:56.000Z</time>
      </trkpt>
      <trkpt lat="43.36548" lon="6.66865">
        <ele>179.62</ele>
        <time>2017-10-07T11:37:01.000Z</time>
      </trkpt>
      <trkpt lat="43.36551" lon="6.6688">
        <ele>180.77</ele>
        <time>2017-10-07T11:37:06.000Z</time>
      </trkpt>
      <trkpt lat="43.36554" lon="6.66894">
        <ele>181.52</ele>
        <time>2017-10-07T11:37:11.000Z</time>
      </trkpt>
      <trkpt lat="43.3656" lon="6.66907">
        <ele>180.63</ele>
        <time>2017-10-07T11:37:16.000Z</time>
      </trkpt>
      <trkpt lat="43.36566" lon="6.6692">
        <ele>178.23</ele>
        <time>2017-10-07T11:37:21.000Z</time>
      </trkpt>
      <trkpt lat="43.36571" lon="6.66934">
        <ele>175.77</ele>
        <time>2017-10-07T11:37:26.000Z</time>
      </trkpt>
      <trkpt lat="43.36576" lon="6.66951">
        <ele>172.89</ele>
        <time>2017-10-07T11:37:31.000Z</time>
      </trkpt>
      <trkpt lat="43.36576" lon="6.66966">
        <ele>170.99</ele>
        <time>2017-10-07T11:37:36.000Z</time>
      </trkpt>
      <trkpt lat="43.3657" lon="6.66982">
        <ele>170.31</ele>
        <time>2017-10-07T11:37:41.000Z</time>
      </trkpt>
      <trkpt lat="43.36557" lon="6.66998">
        <ele>171.12</ele>
        <time>2017-10-07T11:37:46.000Z</time>
      </trkpt>
      <trkpt lat="43.36535" lon="6.67003">
        <ele>175.44</ele>
        <time>2017-10-07T11:37:51.000Z</time>
      </trkpt>
      <trkpt lat="43.36509" lon="6.6701">
        <ele>179.54</ele>
        <time>2017-10-07T11:37:56.000Z</time>
      </trkpt>
      <trkpt lat="43.36485" lon="6.67025">
        <ele>179.88</ele>
        <time>2017-10-07T11:38:01.000Z</time>
      </trkpt>
      <trkpt lat="43.36469" lon="6.67044">
        <ele>177.7</ele>
        <time>2017-10-07T11:38:06.000Z</time>
      </trkpt>
      <trkpt lat="43.36454" lon="6.67062">
        <ele>176.64</ele>
        <time>2017-10-07T11:38:11.000Z</time>
      </trkpt>
      <trkpt lat="43.36446" lon="6.67085">
        <ele>174.37</ele>
        <time>2017-10-07T11:38:16.000Z</time>
      </trkpt>
      <trkpt lat="43.3644" lon="6.67107">
        <ele>173.23</ele>
        <time>2017-10-07T11:38:21.000Z</time>
      </trkpt>
      <trkpt lat="43.36441" lon="6.67127">
        <ele>171.92</ele>
        <time>2017-10-07T11:38:26.000Z</time>
      </trkpt>
      <trkpt lat="43.36444" lon="6.67139">
        <ele>170.9</ele>
        <time>2017-10-07T11:38:31.000Z</time>
      </trkpt>
      <trkpt lat="43.36451" lon="6.67148">
        <ele>169.64</ele>
        <time>2017-10-07T11:38:40.000Z</time>
      </trkpt>
      <trkpt lat="43.36451" lon="6.67161">
        <ele>168.95</ele>
        <time>2017-10-07T11:38:54.000Z</time>
      </trkpt>
      <trkpt lat="43.36447" lon="6.67149">
        <ele>170.06</ele>
        <time>2017-10-07T11:39:40.000Z</time>
      </trkpt>
      <trkpt lat="43.36438" lon="6.67164">
        <ele>169.99</ele>
        <time>2017-10-07T11:39:45.000Z</time>
      </trkpt>
      <trkpt lat="43.36436" lon="6.67193">
        <ele>167.06</ele>
        <time>2017-10-07T11:39:50.000Z</time>
      </trkpt>
      <trkpt lat="43.36445" lon="6.67193">
        <ele>166.19</ele>
        <time>2017-10-07T11:40:05.000Z</time>
      </trkpt>
      <trkpt lat="43.36455" lon="6.67195">
        <ele>164.72</ele>
        <time>2017-10-07T11:40:14.000Z</time>
      </trkpt>
      <trkpt lat="43.36461" lon="6.67205">
        <ele>162.49</ele>
        <time>2017-10-07T11:40:20.000Z</time>
      </trkpt>
      <trkpt lat="43.3647" lon="6.67199">
        <ele>162.11</ele>
        <time>2017-10-07T11:40:34.000Z</time>
      </trkpt>
      <trkpt lat="43.36481" lon="6.67196">
        <ele>160.67</ele>
        <time>2017-10-07T11:40:40.000Z</time>
      </trkpt>
      <trkpt lat="43.36488" lon="6.67187">
        <ele>160.34</ele>
        <time>2017-10-07T11:41:01.000Z</time>
      </trkpt>
      <trkpt lat="43.3649" lon="6.67175">
        <ele>161.48</ele>
        <time>2017-10-07T11:41:17.000Z</time>
      </trkpt>
      <trkpt lat="43.36488" lon="6.67162">
        <ele>162.96</ele>
        <time>2017-10-07T11:41:30.000Z</time>
      </trkpt>
      <trkpt lat="43.36484" lon="6.67151">
        <ele>164.13</ele>
        <time>2017-10-07T11:41:41.000Z</time>
      </trkpt>
      <trkpt lat="43.36478" lon="6.67141">
        <ele>165.29</ele>
        <time>2017-10-07T11:41:51.000Z</time>
      </trkpt>
      <trkpt lat="43.36482" lon="6.67129">
        <ele>164.45</ele>
        <time>2017-10-07T11:42:05.000Z</time>
      </trkpt>
      <trkpt lat="43.36489" lon="6.67119">
        <ele>162.87</ele>
        <time>2017-10-07T11:42:14.000Z</time>
      </trkpt>
      <trkpt lat="43.36494" lon="6.67097">
        <ele>162.01</ele>
        <time>2017-10-07T11:42:19.000Z</time>
      </trkpt>
      <trkpt lat="43.3651" lon="6.67091">
        <ele>158.78</ele>
        <time>2017-10-07T11:42:24.000Z</time>
      </trkpt>
      <trkpt lat="43.36513" lon="6.6711">
        <ele>156.89</ele>
        <time>2017-10-07T11:42:29.000Z</time>
      </trkpt>
      <trkpt lat="43.36522" lon="6.67127">
        <ele>154.46</ele>
        <time>2017-10-07T11:42:34.000Z</time>
      </trkpt>
      <trkpt lat="43.36525" lon="6.67114">
        <ele>153.59</ele>
        <time>2017-10-07T11:42:40.000Z</time>
      </trkpt>
      <trkpt lat="43.36534" lon="6.67104">
        <ele>151.34</ele>
        <time>2017-10-07T11:42:45.000Z</time>
      </trkpt>
      <trkpt lat="43.36542" lon="6.6712">
        <ele>148.18</ele>
        <time>2017-10-07T11:42:50.000Z</time>
      </trkpt>
      <trkpt lat="43.36538" lon="6.67108">
        <ele>149.83</ele>
        <time>2017-10-07T11:43:31.000Z</time>
      </trkpt>
      <trkpt lat="43.36537" lon="6.67096">
        <ele>151.24</ele>
        <time>2017-10-07T11:46:11.000Z</time>
      </trkpt>
      <trkpt lat="43.36545" lon="6.67091">
        <ele>149.4</ele>
        <time>2017-10-07T11:46:36.000Z</time>
      </trkpt>
      <trkpt lat="43.36552" lon="6.671">
        <ele>146.57</ele>
        <time>2017-10-07T11:46:45.000Z</time>
      </trkpt>
      <trkpt lat="43.36558" lon="6.6711">
        <ele>144.1</ele>
        <time>2017-10-07T11:46:51.000Z</time>
      </trkpt>
      <trkpt lat="43.36565" lon="6.67118">
        <ele>141.27</ele>
        <time>2017-10-07T11:47:08.000Z</time>
      </trkpt>
      <trkpt lat="43.36574" lon="6.67117">
        <ele>138.86</ele>
        <time>2017-10-07T11:47:14.000Z</time>
      </trkpt>
      <trkpt lat="43.36584" lon="6.6712">
        <ele>136.04</ele>
        <time>2017-10-07T11:47:20.000Z</time>
      </trkpt>
      <trkpt lat="43.36591" lon="6.67143">
        <ele>132.64</ele>
        <time>2017-10-07T11:47:25.000Z</time>
      </trkpt>
      <trkpt lat="43.36597" lon="6.67155">
        <ele>130.3</ele>
        <time>2017-10-07T11:47:36.000Z</time>
      </trkpt>
      <trkpt lat="43.36612" lon="6.67174">
        <ele>125.32</ele>
        <time>2017-10-07T11:47:41.000Z</time>
      </trkpt>
      <trkpt lat="43.36625" lon="6.67196">
        <ele>121.14</ele>
        <time>2017-10-07T11:47:46.000Z</time>
      </trkpt>
      <trkpt lat="43.36632" lon="6.67215">
        <ele>118.81</ele>
        <time>2017-10-07T11:47:51.000Z</time>
      </trkpt>
      <trkpt lat="43.36644" lon="6.67227">
        <ele>115.29</ele>
        <time>2017-10-07T11:47:56.000Z</time>
      </trkpt>
      <trkpt lat="43.36655" lon="6.67229">
        <ele>112.97</ele>
        <time>2017-10-07T11:48:01.000Z</time>
      </trkpt>
      <trkpt lat="43.36664" lon="6.6723">
        <ele>111.1</ele>
        <time>2017-10-07T11:48:17.000Z</time>
      </trkpt>
      <trkpt lat="43.3666" lon="6.67247">
        <ele>111.25</ele>
        <time>2017-10-07T11:48:23.000Z</time>
      </trkpt>
      <trkpt lat="43.36659" lon="6.67278">
        <ele>110.8</ele>
        <time>2017-10-07T11:48:28.000Z</time>
      </trkpt>
      <trkpt lat="43.36657" lon="6.67312">
        <ele>111.62</ele>
        <time>2017-10-07T11:48:33.000Z</time>
      </trkpt>
      <trkpt lat="43.36675" lon="6.67327">
        <ele>110.41</ele>
        <time>2017-10-07T11:48:38.000Z</time>
      </trkpt>
      <trkpt lat="43.36687" lon="6.67336">
        <ele>109.82</ele>
        <time>2017-10-07T11:48:43.000Z</time>
      </trkpt>
      <trkpt lat="43.36694" lon="6.67346">
        <ele>110.02</ele>
        <time>2017-10-07T11:48:48.000Z</time>
      </trkpt>
      <trkpt lat="43.36701" lon="6.67357">
        <ele>110.53</ele>
        <time>2017-10-07T11:48:53.000Z</time>
      </trkpt>
      <trkpt lat="43.36705" lon="6.67371">
        <ele>111.84</ele>
        <time>2017-10-07T11:48:58.000Z</time>
      </trkpt>
      <trkpt lat="43.36707" lon="6.67386">
        <ele>113.87</ele>
        <time>2017-10-07T11:49:03.000Z</time>
      </trkpt>
      <trkpt lat="43.36707" lon="6.674">
        <ele>115.7</ele>
        <time>2017-10-07T11:49:08.000Z</time>
      </trkpt>
      <trkpt lat="43.36708" lon="6.67416">
        <ele>117.29</ele>
        <time>2017-10-07T11:49:15.000Z</time>
      </trkpt>
      <trkpt lat="43.36715" lon="6.67436">
        <ele>117.04</ele>
        <time>2017-10-07T11:49:20.000Z</time>
      </trkpt>
      <trkpt lat="43.36722" lon="6.67462">
        <ele>116.79</ele>
        <time>2017-10-07T11:49:25.000Z</time>
      </trkpt>
      <trkpt lat="43.36729" lon="6.67488">
        <ele>116.39</ele>
        <time>2017-10-07T11:49:30.000Z</time>
      </trkpt>
      <trkpt lat="43.3674" lon="6.6751">
        <ele>115.23</ele>
        <time>2017-10-07T11:49:35.000Z</time>
      </trkpt>
      <trkpt lat="43.36749" lon="6.67532">
        <ele>115.35</ele>
        <time>2017-10-07T11:49:40.000Z</time>
      </trkpt>
      <trkpt lat="43.36755" lon="6.67548">
        <ele>116.16</ele>
        <time>2017-10-07T11:49:45.000Z</time>
      </trkpt>
      <trkpt lat="43.36758" lon="6.6757">
        <ele>117.49</ele>
        <time>2017-10-07T11:49:50.000Z</time>
      </trkpt>
      <trkpt lat="43.36763" lon="6.67587">
        <ele>119.36</ele>
        <time>2017-10-07T11:49:55.000Z</time>
      </trkpt>
      <trkpt lat="43.3676" lon="6.676">
        <ele>120.04</ele>
        <time>2017-10-07T11:50:00.000Z</time>
      </trkpt>
      <trkpt lat="43.36758" lon="6.67612">
        <ele>120.86</ele>
        <time>2017-10-07T11:50:05.000Z</time>
      </trkpt>
      <trkpt lat="43.36758" lon="6.67626">
        <ele>122.11</ele>
        <time>2017-10-07T11:50:10.000Z</time>
      </trkpt>
      <trkpt lat="43.36753" lon="6.67638">
        <ele>122.87</ele>
        <time>2017-10-07T11:50:16.000Z</time>
      </trkpt>
      <trkpt lat="43.3675" lon="6.67651">
        <ele>124.12</ele>
        <time>2017-10-07T11:50:21.000Z</time>
      </trkpt>
      <trkpt lat="43.36749" lon="6.67664">
        <ele>125.63</ele>
        <time>2017-10-07T11:50:26.000Z</time>
      </trkpt>
      <trkpt lat="43.36748" lon="6.67677">
        <ele>127.33</ele>
        <time>2017-10-07T11:50:32.000Z</time>
      </trkpt>
      <trkpt lat="43.36745" lon="6.67691">
        <ele>129.28</ele>
        <time>2017-10-07T11:50:39.000Z</time>
      </trkpt>
      <trkpt lat="43.36747" lon="6.67705">
        <ele>131.44</ele>
        <time>2017-10-07T11:50:44.000Z</time>
      </trkpt>
      <trkpt lat="43.36747" lon="6.67717">
        <ele>133.51</ele>
        <time>2017-10-07T11:50:49.000Z</time>
      </trkpt>
      <trkpt lat="43.36748" lon="6.67731">
        <ele>135.82</ele>
        <time>2017-10-07T11:50:54.000Z</time>
      </trkpt>
      <trkpt lat="43.3675" lon="6.67743">
        <ele>137.89</ele>
        <time>2017-10-07T11:50:59.000Z</time>
      </trkpt>
      <trkpt lat="43.36753" lon="6.67757">
        <ele>140.22</ele>
        <time>2017-10-07T11:51:05.000Z</time>
      </trkpt>
      <trkpt lat="43.36755" lon="6.6777">
        <ele>142.33</ele>
        <time>2017-10-07T11:51:11.000Z</time>
      </trkpt>
      <trkpt lat="43.36757" lon="6.67782">
        <ele>144.51</ele>
        <time>2017-10-07T11:51:18.000Z</time>
      </trkpt>
      <trkpt lat="43.36758" lon="6.67796">
        <ele>146.78</ele>
        <time>2017-10-07T11:51:26.000Z</time>
      </trkpt>
      <trkpt lat="43.3676" lon="6.67808">
        <ele>148.73</ele>
        <time>2017-10-07T11:51:32.000Z</time>
      </trkpt>
      <trkpt lat="43.36764" lon="6.67822">
        <ele>150.7</ele>
        <time>2017-10-07T11:51:38.000Z</time>
      </trkpt>
      <trkpt lat="43.36766" lon="6.67834">
        <ele>152.14</ele>
        <time>2017-10-07T11:51:45.000Z</time>
      </trkpt>
      <trkpt lat="43.36766" lon="6.67847">
        <ele>153.37</ele>
        <time>2017-10-07T11:51:52.000Z</time>
      </trkpt>
      <trkpt lat="43.36763" lon="6.6786">
        <ele>154.3</ele>
        <time>2017-10-07T11:51:59.000Z</time>
      </trkpt>
      <trkpt lat="43.36761" lon="6.67873">
        <ele>155.09</ele>
        <time>2017-10-07T11:52:05.000Z</time>
      </trkpt>
      <trkpt lat="43.36762" lon="6.67887">
        <ele>155.82</ele>
        <time>2017-10-07T11:52:11.000Z</time>
      </trkpt>
      <trkpt lat="43.36764" lon="6.67901">
        <ele>156.33</ele>
        <time>2017-10-07T11:52:18.000Z</time>
      </trkpt>
      <trkpt lat="43.36766" lon="6.67914">
        <ele>156.62</ele>
        <time>2017-10-07T11:52:26.000Z</time>
      </trkpt>
      <trkpt lat="43.36768" lon="6.67927">
        <ele>156.59</ele>
        <time>2017-10-07T11:52:32.000Z</time>
      </trkpt>
      <trkpt lat="43.36766" lon="6.6794">
        <ele>156.14</ele>
        <time>2017-10-07T11:52:38.000Z</time>
      </trkpt>
      <trkpt lat="43.36762" lon="6.67952">
        <ele>155.51</ele>
        <time>2017-10-07T11:52:43.000Z</time>
      </trkpt>
      <trkpt lat="43.3676" lon="6.67964">
        <ele>154.81</ele>
        <time>2017-10-07T11:52:58.000Z</time>
      </trkpt>
      <trkpt lat="43.36762" lon="6.67982">
        <ele>153.61</ele>
        <time>2017-10-07T11:53:31.000Z</time>
      </trkpt>
      <trkpt lat="43.36749" lon="6.68014">
        <ele>152.18</ele>
        <time>2017-10-07T11:53:36.000Z</time>
      </trkpt>
      <trkpt lat="43.3672" lon="6.68021">
        <ele>157.69</ele>
        <time>2017-10-07T11:53:41.000Z</time>
      </trkpt>
      <trkpt lat="43.36738" lon="6.68062">
        <ele>150.64</ele>
        <time>2017-10-07T11:53:46.000Z</time>
      </trkpt>
      <trkpt lat="43.3677" lon="6.68103">
        <ele>142.92</ele>
        <time>2017-10-07T11:53:51.000Z</time>
      </trkpt>
      <trkpt lat="43.36796" lon="6.6815">
        <ele>136.98</ele>
        <time>2017-10-07T11:53:56.000Z</time>
      </trkpt>
      <trkpt lat="43.36835" lon="6.68181">
        <ele>133.55</ele>
        <time>2017-10-07T11:54:01.000Z</time>
      </trkpt>
      <trkpt lat="43.36869" lon="6.68181">
        <ele>136.76</ele>
        <time>2017-10-07T11:54:06.000Z</time>
      </trkpt>
      <trkpt lat="43.36888" lon="6.68176">
        <ele>139.93</ele>
        <time>2017-10-07T11:54:11.000Z</time>
      </trkpt>
      <trkpt lat="43.36898" lon="6.6817">
        <ele>141.96</ele>
        <time>2017-10-07T11:54:16.000Z</time>
      </trkpt>
      <trkpt lat="43.36906" lon="6.68163">
        <ele>143.68</ele>
        <time>2017-10-07T11:54:21.000Z</time>
      </trkpt>
      <trkpt lat="43.36912" lon="6.68154">
        <ele>145.48</ele>
        <time>2017-10-07T11:54:27.000Z</time>
      </trkpt>
      <trkpt lat="43.3692" lon="6.68147">
        <ele>147.55</ele>
        <time>2017-10-07T11:54:35.000Z</time>
      </trkpt>
      <trkpt lat="43.36928" lon="6.68141">
        <ele>149.91</ele>
        <time>2017-10-07T11:54:41.000Z</time>
      </trkpt>
      <trkpt lat="43.36936" lon="6.68134">
        <ele>152.6</ele>
        <time>2017-10-07T11:54:48.000Z</time>
      </trkpt>
      <trkpt lat="43.36945" lon="6.68131">
        <ele>155.29</ele>
        <time>2017-10-07T11:54:55.000Z</time>
      </trkpt>
      <trkpt lat="43.3695" lon="6.68143">
        <ele>155.67</ele>
        <time>2017-10-07T11:55:07.000Z</time>
      </trkpt>
      <trkpt lat="43.36946" lon="6.68155">
        <ele>154.11</ele>
        <time>2017-10-07T11:55:14.000Z</time>
      </trkpt>
      <trkpt lat="43.36942" lon="6.68168">
        <ele>152.65</ele>
        <time>2017-10-07T11:55:20.000Z</time>
      </trkpt>
      <trkpt lat="43.36945" lon="6.6818">
        <ele>153.78</ele>
        <time>2017-10-07T11:55:26.000Z</time>
      </trkpt>
      <trkpt lat="43.36947" lon="6.68194">
        <ele>155.17</ele>
        <time>2017-10-07T11:55:33.000Z</time>
      </trkpt>
      <trkpt lat="43.3695" lon="6.68206">
        <ele>157.42</ele>
        <time>2017-10-07T11:55:39.000Z</time>
      </trkpt>
      <trkpt lat="43.36954" lon="6.68218">
        <ele>159.88</ele>
        <time>2017-10-07T11:55:46.000Z</time>
      </trkpt>
      <trkpt lat="43.36958" lon="6.6823">
        <ele>162.07</ele>
        <time>2017-10-07T11:55:53.000Z</time>
      </trkpt>
      <trkpt lat="43.3696" lon="6.68243">
        <ele>164.04</ele>
        <time>2017-10-07T11:56:00.000Z</time>
      </trkpt>
      <trkpt lat="43.36958" lon="6.68256">
        <ele>164.06</ele>
        <time>2017-10-07T11:56:08.000Z</time>
      </trkpt>
      <trkpt lat="43.36956" lon="6.68268">
        <ele>164.41</ele>
        <time>2017-10-07T11:56:13.000Z</time>
      </trkpt>
      <trkpt lat="43.36951" lon="6.68279">
        <ele>164.01</ele>
        <time>2017-10-07T11:56:20.000Z</time>
      </trkpt>
      <trkpt lat="43.36944" lon="6.6829">
        <ele>163.21</ele>
        <time>2017-10-07T11:56:26.000Z</time>
      </trkpt>
      <trkpt lat="43.3693" lon="6.68305">
        <ele>161.36</ele>
        <time>2017-10-07T11:56:31.000Z</time>
      </trkpt>
      <trkpt lat="43.36916" lon="6.68327">
        <ele>159.64</ele>
        <time>2017-10-07T11:56:36.000Z</time>
      </trkpt>
      <trkpt lat="43.36919" lon="6.68359">
        <ele>159.81</ele>
        <time>2017-10-07T11:56:41.000Z</time>
      </trkpt>
      <trkpt lat="43.36939" lon="6.68382">
        <ele>160.64</ele>
        <time>2017-10-07T11:56:46.000Z</time>
      </trkpt>
      <trkpt lat="43.36956" lon="6.68392">
        <ele>160.53</ele>
        <time>2017-10-07T11:56:51.000Z</time>
      </trkpt>
      <trkpt lat="43.36966" lon="6.68391">
        <ele>161.36</ele>
        <time>2017-10-07T11:56:57.000Z</time>
      </trkpt>
      <trkpt lat="43.36975" lon="6.6839">
        <ele>162.09</ele>
        <time>2017-10-07T11:57:04.000Z</time>
      </trkpt>
      <trkpt lat="43.36985" lon="6.68385">
        <ele>163.73</ele>
        <time>2017-10-07T11:57:10.000Z</time>
      </trkpt>
      <trkpt lat="43.36993" lon="6.68379">
        <ele>165.62</ele>
        <time>2017-10-07T11:57:16.000Z</time>
      </trkpt>
      <trkpt lat="43.37002" lon="6.68376">
        <ele>167.05</ele>
        <time>2017-10-07T11:57:23.000Z</time>
      </trkpt>
      <trkpt lat="43.37012" lon="6.68373">
        <ele>168.42</ele>
        <time>2017-10-07T11:57:30.000Z</time>
      </trkpt>
      <trkpt lat="43.37022" lon="6.68373">
        <ele>169.38</ele>
        <time>2017-10-07T11:57:38.000Z</time>
      </trkpt>
      <trkpt lat="43.37032" lon="6.68373">
        <ele>170.11</ele>
        <time>2017-10-07T11:57:45.000Z</time>
      </trkpt>
      <trkpt lat="43.37042" lon="6.68373">
        <ele>170.85</ele>
        <time>2017-10-07T11:57:51.000Z</time>
      </trkpt>
      <trkpt lat="43.37052" lon="6.68372">
        <ele>171.8</ele>
        <time>2017-10-07T11:57:57.000Z</time>
      </trkpt>
      <trkpt lat="43.37061" lon="6.68369">
        <ele>173.62</ele>
        <time>2017-10-07T11:58:02.000Z</time>
      </trkpt>
      <trkpt lat="43.37069" lon="6.68364">
        <ele>175.92</ele>
        <time>2017-10-07T11:58:07.000Z</time>
      </trkpt>
      <trkpt lat="43.37077" lon="6.68357">
        <ele>178.97</ele>
        <time>2017-10-07T11:58:15.000Z</time>
      </trkpt>
      <trkpt lat="43.37086" lon="6.68354">
        <ele>181.06</ele>
        <time>2017-10-07T11:58:21.000Z</time>
      </trkpt>
      <trkpt lat="43.37095" lon="6.68347">
        <ele>184.09</ele>
        <time>2017-10-07T11:58:27.000Z</time>
      </trkpt>
      <trkpt lat="43.37105" lon="6.68343">
        <ele>186.45</ele>
        <time>2017-10-07T11:58:35.000Z</time>
      </trkpt>
      <trkpt lat="43.37115" lon="6.68342">
        <ele>188.21</ele>
        <time>2017-10-07T11:58:43.000Z</time>
      </trkpt>
      <trkpt lat="43.37124" lon="6.6834">
        <ele>189.86</ele>
        <time>2017-10-07T11:58:50.000Z</time>
      </trkpt>
      <trkpt lat="43.37133" lon="6.68343">
        <ele>190.5</ele>
        <time>2017-10-07T11:58:56.000Z</time>
      </trkpt>
      <trkpt lat="43.37142" lon="6.68345">
        <ele>191</ele>
        <time>2017-10-07T11:59:01.000Z</time>
      </trkpt>
      <trkpt lat="43.37155" lon="6.6835">
        <ele>191.12</ele>
        <time>2017-10-07T11:59:06.000Z</time>
      </trkpt>
      <trkpt lat="43.37166" lon="6.6836">
        <ele>190.02</ele>
        <time>2017-10-07T11:59:11.000Z</time>
      </trkpt>
      <trkpt lat="43.37178" lon="6.68369">
        <ele>189.22</ele>
        <time>2017-10-07T11:59:16.000Z</time>
      </trkpt>
      <trkpt lat="43.37186" lon="6.6838">
        <ele>188.16</ele>
        <time>2017-10-07T11:59:21.000Z</time>
      </trkpt>
      <trkpt lat="43.37197" lon="6.68403">
        <ele>186.61</ele>
        <time>2017-10-07T11:59:26.000Z</time>
      </trkpt>
      <trkpt lat="43.37207" lon="6.6845">
        <ele>183.66</ele>
        <time>2017-10-07T11:59:31.000Z</time>
      </trkpt>
      <trkpt lat="43.37226" lon="6.68494">
        <ele>184.61</ele>
        <time>2017-10-07T11:59:36.000Z</time>
      </trkpt>
      <trkpt lat="43.37239" lon="6.68514">
        <ele>185.68</ele>
        <time>2017-10-07T11:59:41.000Z</time>
      </trkpt>
      <trkpt lat="43.37252" lon="6.6853">
        <ele>186.07</ele>
        <time>2017-10-07T11:59:46.000Z</time>
      </trkpt>
      <trkpt lat="43.37272" lon="6.68552">
        <ele>186.04</ele>
        <time>2017-10-07T11:59:51.000Z</time>
      </trkpt>
      <trkpt lat="43.37287" lon="6.68563">
        <ele>186.55</ele>
        <time>2017-10-07T11:59:56.000Z</time>
      </trkpt>
      <trkpt lat="43.37296" lon="6.68566">
        <ele>187.36</ele>
        <time>2017-10-07T12:00:01.000Z</time>
      </trkpt>
      <trkpt lat="43.37306" lon="6.68569">
        <ele>188.37</ele>
        <time>2017-10-07T12:00:07.000Z</time>
      </trkpt>
      <trkpt lat="43.37315" lon="6.68572">
        <ele>189.57</ele>
        <time>2017-10-07T12:00:13.000Z</time>
      </trkpt>
      <trkpt lat="43.37325" lon="6.68573">
        <ele>190.9</ele>
        <time>2017-10-07T12:00:19.000Z</time>
      </trkpt>
      <trkpt lat="43.37334" lon="6.68574">
        <ele>192.31</ele>
        <time>2017-10-07T12:00:26.000Z</time>
      </trkpt>
      <trkpt lat="43.37344" lon="6.68575">
        <ele>193.91</ele>
        <time>2017-10-07T12:00:32.000Z</time>
      </trkpt>
      <trkpt lat="43.37353" lon="6.68576">
        <ele>195.49</ele>
        <time>2017-10-07T12:00:37.000Z</time>
      </trkpt>
      <trkpt lat="43.37363" lon="6.6858">
        <ele>196.96</ele>
        <time>2017-10-07T12:00:43.000Z</time>
      </trkpt>
      <trkpt lat="43.3737" lon="6.68588">
        <ele>197.58</ele>
        <time>2017-10-07T12:00:49.000Z</time>
      </trkpt>
      <trkpt lat="43.37376" lon="6.68598">
        <ele>197.79</ele>
        <time>2017-10-07T12:00:55.000Z</time>
      </trkpt>
      <trkpt lat="43.37383" lon="6.68606">
        <ele>198.23</ele>
        <time>2017-10-07T12:01:02.000Z</time>
      </trkpt>
      <trkpt lat="43.37391" lon="6.68615">
        <ele>198.84</ele>
        <time>2017-10-07T12:01:09.000Z</time>
      </trkpt>
      <trkpt lat="43.37399" lon="6.68624">
        <ele>199.07</ele>
        <time>2017-10-07T12:01:15.000Z</time>
      </trkpt>
      <trkpt lat="43.37407" lon="6.6863">
        <ele>199.68</ele>
        <time>2017-10-07T12:01:20.000Z</time>
      </trkpt>
      <trkpt lat="43.37416" lon="6.68637">
        <ele>200.29</ele>
        <time>2017-10-07T12:01:26.000Z</time>
      </trkpt>
      <trkpt lat="43.37431" lon="6.68645">
        <ele>201.63</ele>
        <time>2017-10-07T12:01:31.000Z</time>
      </trkpt>
      <trkpt lat="43.3745" lon="6.68644">
        <ele>204.84</ele>
        <time>2017-10-07T12:01:36.000Z</time>
      </trkpt>
      <trkpt lat="43.37461" lon="6.68646">
        <ele>206.21</ele>
        <time>2017-10-07T12:01:41.000Z</time>
      </trkpt>
      <trkpt lat="43.37473" lon="6.68651">
        <ele>207.31</ele>
        <time>2017-10-07T12:01:46.000Z</time>
      </trkpt>
      <trkpt lat="43.37486" lon="6.68656">
        <ele>208.45</ele>
        <time>2017-10-07T12:01:51.000Z</time>
      </trkpt>
      <trkpt lat="43.37499" lon="6.68662">
        <ele>209.44</ele>
        <time>2017-10-07T12:01:56.000Z</time>
      </trkpt>
      <trkpt lat="43.3751" lon="6.68674">
        <ele>209.51</ele>
        <time>2017-10-07T12:02:01.000Z</time>
      </trkpt>
      <trkpt lat="43.37519" lon="6.68685">
        <ele>209.28</ele>
        <time>2017-10-07T12:02:06.000Z</time>
      </trkpt>
      <trkpt lat="43.37529" lon="6.68693">
        <ele>209.34</ele>
        <time>2017-10-07T12:02:11.000Z</time>
      </trkpt>
      <trkpt lat="43.37542" lon="6.68694">
        <ele>211.44</ele>
        <time>2017-10-07T12:02:16.000Z</time>
      </trkpt>
      <trkpt lat="43.37552" lon="6.68694">
        <ele>213.41</ele>
        <time>2017-10-07T12:02:21.000Z</time>
      </trkpt>
      <trkpt lat="43.37562" lon="6.68694">
        <ele>215.23</ele>
        <time>2017-10-07T12:02:26.000Z</time>
      </trkpt>
      <trkpt lat="43.37572" lon="6.68696">
        <ele>216.69</ele>
        <time>2017-10-07T12:02:32.000Z</time>
      </trkpt>
      <trkpt lat="43.37582" lon="6.68698">
        <ele>217.95</ele>
        <time>2017-10-07T12:02:37.000Z</time>
      </trkpt>
      <trkpt lat="43.37592" lon="6.68705">
        <ele>218.48</ele>
        <time>2017-10-07T12:02:43.000Z</time>
      </trkpt>
      <trkpt lat="43.37599" lon="6.68712">
        <ele>218.69</ele>
        <time>2017-10-07T12:02:48.000Z</time>
      </trkpt>
      <trkpt lat="43.37608" lon="6.68718">
        <ele>219.52</ele>
        <time>2017-10-07T12:02:55.000Z</time>
      </trkpt>
      <trkpt lat="43.37613" lon="6.68728">
        <ele>219.2</ele>
        <time>2017-10-07T12:03:01.000Z</time>
      </trkpt>
      <trkpt lat="43.37619" lon="6.68737">
        <ele>219.53</ele>
        <time>2017-10-07T12:03:28.000Z</time>
      </trkpt>
      <trkpt lat="43.37623" lon="6.68749">
        <ele>218.97</ele>
        <time>2017-10-07T12:06:27.000Z</time>
      </trkpt>
      <trkpt lat="43.37627" lon="6.68767">
        <ele>218.19</ele>
        <time>2017-10-07T12:06:32.000Z</time>
      </trkpt>
      <trkpt lat="43.37638" lon="6.68794">
        <ele>218.1</ele>
        <time>2017-10-07T12:06:37.000Z</time>
      </trkpt>
      <trkpt lat="43.37649" lon="6.68833">
        <ele>216.65</ele>
        <time>2017-10-07T12:06:42.000Z</time>
      </trkpt>
      <trkpt lat="43.37658" lon="6.68881">
        <ele>215.15</ele>
        <time>2017-10-07T12:06:47.000Z</time>
      </trkpt>
      <trkpt lat="43.37665" lon="6.68937">
        <ele>213.03</ele>
        <time>2017-10-07T12:06:52.000Z</time>
      </trkpt>
      <trkpt lat="43.37661" lon="6.6899">
        <ele>208.47</ele>
        <time>2017-10-07T12:06:57.000Z</time>
      </trkpt>
      <trkpt lat="43.37647" lon="6.69049">
        <ele>201.64</ele>
        <time>2017-10-07T12:07:02.000Z</time>
      </trkpt>
      <trkpt lat="43.37621" lon="6.691">
        <ele>192.54</ele>
        <time>2017-10-07T12:07:07.000Z</time>
      </trkpt>
      <trkpt lat="43.37608" lon="6.69139">
        <ele>188.45</ele>
        <time>2017-10-07T12:07:12.000Z</time>
      </trkpt>
      <trkpt lat="43.37632" lon="6.69142">
        <ele>190.71</ele>
        <time>2017-10-07T12:07:17.000Z</time>
      </trkpt>
      <trkpt lat="43.37657" lon="6.6914">
        <ele>194.21</ele>
        <time>2017-10-07T12:07:22.000Z</time>
      </trkpt>
      <trkpt lat="43.37685" lon="6.69151">
        <ele>197.26</ele>
        <time>2017-10-07T12:07:27.000Z</time>
      </trkpt>
      <trkpt lat="43.3771" lon="6.6918">
        <ele>197.79</ele>
        <time>2017-10-07T12:07:32.000Z</time>
      </trkpt>
      <trkpt lat="43.37714" lon="6.69219">
        <ele>191.79</ele>
        <time>2017-10-07T12:07:37.000Z</time>
      </trkpt>
      <trkpt lat="43.37702" lon="6.69272">
        <ele>180.52</ele>
        <time>2017-10-07T12:07:42.000Z</time>
      </trkpt>
      <trkpt lat="43.37689" lon="6.69329">
        <ele>173.37</ele>
        <time>2017-10-07T12:07:47.000Z</time>
      </trkpt>
      <trkpt lat="43.37672" lon="6.69392">
        <ele>168.05</ele>
        <time>2017-10-07T12:07:52.000Z</time>
      </trkpt>
      <trkpt lat="43.37661" lon="6.69459">
        <ele>164.67</ele>
        <time>2017-10-07T12:07:57.000Z</time>
      </trkpt>
      <trkpt lat="43.37654" lon="6.69514">
        <ele>160.19</ele>
        <time>2017-10-07T12:08:02.000Z</time>
      </trkpt>
      <trkpt lat="43.37652" lon="6.69566">
        <ele>155.3</ele>
        <time>2017-10-07T12:08:07.000Z</time>
      </trkpt>
      <trkpt lat="43.37666" lon="6.69611">
        <ele>159.02</ele>
        <time>2017-10-07T12:08:12.000Z</time>
      </trkpt>
      <trkpt lat="43.37648" lon="6.69663">
        <ele>150.79</ele>
        <time>2017-10-07T12:08:17.000Z</time>
      </trkpt>
      <trkpt lat="43.37624" lon="6.69718">
        <ele>141.62</ele>
        <time>2017-10-07T12:08:22.000Z</time>
      </trkpt>
      <trkpt lat="43.37614" lon="6.69784">
        <ele>138.64</ele>
        <time>2017-10-07T12:08:27.000Z</time>
      </trkpt>
      <trkpt lat="43.37592" lon="6.69843">
        <ele>131.5</ele>
        <time>2017-10-07T12:08:32.000Z</time>
      </trkpt>
      <trkpt lat="43.37585" lon="6.69908">
        <ele>128.72</ele>
        <time>2017-10-07T12:08:37.000Z</time>
      </trkpt>
      <trkpt lat="43.37584" lon="6.69976">
        <ele>122.11</ele>
        <time>2017-10-07T12:08:42.000Z</time>
      </trkpt>
      <trkpt lat="43.37581" lon="6.69997">
        <ele>119.41</ele>
        <time>2017-10-07T12:08:47.000Z</time>
      </trkpt>
      <trkpt lat="43.3757" lon="6.69999">
        <ele>118.88</ele>
        <time>2017-10-07T12:09:20.000Z</time>
      </trkpt>
      <trkpt lat="43.37556" lon="6.69997">
        <ele>118.22</ele>
        <time>2017-10-07T12:09:25.000Z</time>
      </trkpt>
      <trkpt lat="43.3754" lon="6.6999">
        <ele>117.53</ele>
        <time>2017-10-07T12:09:30.000Z</time>
      </trkpt>
      <trkpt lat="43.37527" lon="6.69966">
        <ele>117.57</ele>
        <time>2017-10-07T12:09:35.000Z</time>
      </trkpt>
      <trkpt lat="43.37514" lon="6.69946">
        <ele>116.38</ele>
        <time>2017-10-07T12:09:40.000Z</time>
      </trkpt>
      <trkpt lat="43.3751" lon="6.69934">
        <ele>115.73</ele>
        <time>2017-10-07T12:09:45.000Z</time>
      </trkpt>
      <trkpt lat="43.37508" lon="6.69922">
        <ele>115.1</ele>
        <time>2017-10-07T12:10:02.000Z</time>
      </trkpt>
      <trkpt lat="43.37498" lon="6.69892">
        <ele>111.96</ele>
        <time>2017-10-07T12:10:07.000Z</time>
      </trkpt>
      <trkpt lat="43.3748" lon="6.69848">
        <ele>104.84</ele>
        <time>2017-10-07T12:10:12.000Z</time>
      </trkpt>
      <trkpt lat="43.37447" lon="6.69808">
        <ele>97.22</ele>
        <time>2017-10-07T12:10:17.000Z</time>
      </trkpt>
      <trkpt lat="43.37406" lon="6.69789">
        <ele>90.79</ele>
        <time>2017-10-07T12:10:22.000Z</time>
      </trkpt>
      <trkpt lat="43.37365" lon="6.69787">
        <ele>86.81</ele>
        <time>2017-10-07T12:10:27.000Z</time>
      </trkpt>
      <trkpt lat="43.37344" lon="6.69774">
        <ele>84.13</ele>
        <time>2017-10-07T12:10:32.000Z</time>
      </trkpt>
      <trkpt lat="43.37341" lon="6.69728">
        <ele>79.53</ele>
        <time>2017-10-07T12:10:37.000Z</time>
      </trkpt>
      <trkpt lat="43.37306" lon="6.69699">
        <ele>75.46</ele>
        <time>2017-10-07T12:10:42.000Z</time>
      </trkpt>
      <trkpt lat="43.37273" lon="6.69665">
        <ele>74.66</ele>
        <time>2017-10-07T12:10:47.000Z</time>
      </trkpt>
      <trkpt lat="43.37245" lon="6.6964">
        <ele>71.96</ele>
        <time>2017-10-07T12:10:52.000Z</time>
      </trkpt>
      <trkpt lat="43.37219" lon="6.69618">
        <ele>67.4</ele>
        <time>2017-10-07T12:10:57.000Z</time>
      </trkpt>
      <trkpt lat="43.37192" lon="6.69587">
        <ele>62.64</ele>
        <time>2017-10-07T12:11:02.000Z</time>
      </trkpt>
      <trkpt lat="43.37152" lon="6.6959">
        <ele>59.9</ele>
        <time>2017-10-07T12:11:07.000Z</time>
      </trkpt>
      <trkpt lat="43.37136" lon="6.69628">
        <ele>61.42</ele>
        <time>2017-10-07T12:11:12.000Z</time>
      </trkpt>
      <trkpt lat="43.37102" lon="6.69639">
        <ele>55.12</ele>
        <time>2017-10-07T12:11:17.000Z</time>
      </trkpt>
      <trkpt lat="43.37084" lon="6.69684">
        <ele>53.26</ele>
        <time>2017-10-07T12:11:22.000Z</time>
      </trkpt>
      <trkpt lat="43.37057" lon="6.69741">
        <ele>45.96</ele>
        <time>2017-10-07T12:11:27.000Z</time>
      </trkpt>
      <trkpt lat="43.37018" lon="6.69785">
        <ele>39.12</ele>
        <time>2017-10-07T12:11:32.000Z</time>
      </trkpt>
      <trkpt lat="43.36998" lon="6.69836">
        <ele>36.76</ele>
        <time>2017-10-07T12:11:37.000Z</time>
      </trkpt>
      <trkpt lat="43.36989" lon="6.69889">
        <ele>32.82</ele>
        <time>2017-10-07T12:11:42.000Z</time>
      </trkpt>
      <trkpt lat="43.36957" lon="6.69921">
        <ele>27.22</ele>
        <time>2017-10-07T12:11:47.000Z</time>
      </trkpt>
      <trkpt lat="43.36933" lon="6.69914">
        <ele>25.33</ele>
        <time>2017-10-07T12:11:52.000Z</time>
      </trkpt>
      <trkpt lat="43.36925" lon="6.69865">
        <ele>27.74</ele>
        <time>2017-10-07T12:11:57.000Z</time>
      </trkpt>
      <trkpt lat="43.36904" lon="6.69838">
        <ele>29.25</ele>
        <time>2017-10-07T12:12:02.000Z</time>
      </trkpt>
      <trkpt lat="43.36886" lon="6.6986">
        <ele>29.76</ele>
        <time>2017-10-07T12:12:07.000Z</time>
      </trkpt>
      <trkpt lat="43.36878" lon="6.6987">
        <ele>30.49</ele>
        <time>2017-10-07T12:12:12.000Z</time>
      </trkpt>
      <trkpt lat="43.36876" lon="6.69856">
        <ele>31.15</ele>
        <time>2017-10-07T12:12:17.000Z</time>
      </trkpt>
      <trkpt lat="43.36875" lon="6.69841">
        <ele>31.76</ele>
        <time>2017-10-07T12:12:23.000Z</time>
      </trkpt>
      <trkpt lat="43.36876" lon="6.69826">
        <ele>32.4</ele>
        <time>2017-10-07T12:12:27.999Z</time>
      </trkpt>
      <trkpt lat="43.36876" lon="6.69812">
        <ele>33.23</ele>
        <time>2017-10-07T12:12:34.000Z</time>
      </trkpt>
      <trkpt lat="43.36877" lon="6.69798">
        <ele>33.99</ele>
        <time>2017-10-07T12:12:39.000Z</time>
      </trkpt>
      <trkpt lat="43.36876" lon="6.69784">
        <ele>35</ele>
        <time>2017-10-07T12:12:44.000Z</time>
      </trkpt>
      <trkpt lat="43.36876" lon="6.69769">
        <ele>36.12</ele>
        <time>2017-10-07T12:12:49.000Z</time>
      </trkpt>
      <trkpt lat="43.36876" lon="6.69755">
        <ele>37.05</ele>
        <time>2017-10-07T12:12:54.000Z</time>
      </trkpt>
      <trkpt lat="43.36878" lon="6.69743">
        <ele>37.25</ele>
        <time>2017-10-07T12:12:59.000Z</time>
      </trkpt>
      <trkpt lat="43.36881" lon="6.69728">
        <ele>37.19</ele>
        <time>2017-10-07T12:13:04.000Z</time>
      </trkpt>
      <trkpt lat="43.36883" lon="6.69712">
        <ele>37.5</ele>
        <time>2017-10-07T12:13:09.000Z</time>
      </trkpt>
      <trkpt lat="43.36883" lon="6.69696">
        <ele>37.99</ele>
        <time>2017-10-07T12:13:14.000Z</time>
      </trkpt>
      <trkpt lat="43.36884" lon="6.69682">
        <ele>38.51</ele>
        <time>2017-10-07T12:13:19.000Z</time>
      </trkpt>
      <trkpt lat="43.36883" lon="6.69668">
        <ele>39.15</ele>
        <time>2017-10-07T12:13:24.000Z</time>
      </trkpt>
      <trkpt lat="43.36883" lon="6.69655">
        <ele>39.79</ele>
        <time>2017-10-07T12:13:29.000Z</time>
      </trkpt>
      <trkpt lat="43.36882" lon="6.69641">
        <ele>40.41</ele>
        <time>2017-10-07T12:13:34.000Z</time>
      </trkpt>
      <trkpt lat="43.3688" lon="6.69628">
        <ele>41.13</ele>
        <time>2017-10-07T12:13:39.000Z</time>
      </trkpt>
      <trkpt lat="43.36878" lon="6.69614">
        <ele>42</ele>
        <time>2017-10-07T12:13:44.000Z</time>
      </trkpt>
      <trkpt lat="43.36876" lon="6.696">
        <ele>42.81</ele>
        <time>2017-10-07T12:13:49.000Z</time>
      </trkpt>
      <trkpt lat="43.36873" lon="6.69587">
        <ele>43.78</ele>
        <time>2017-10-07T12:13:54.000Z</time>
      </trkpt>
      <trkpt lat="43.36869" lon="6.69575">
        <ele>44.57</ele>
        <time>2017-10-07T12:13:59.000Z</time>
      </trkpt>
      <trkpt lat="43.36865" lon="6.69562">
        <ele>45.07</ele>
        <time>2017-10-07T12:14:04.000Z</time>
      </trkpt>
      <trkpt lat="43.3686" lon="6.69549">
        <ele>45.4</ele>
        <time>2017-10-07T12:14:09.000Z</time>
      </trkpt>
      <trkpt lat="43.36856" lon="6.69535">
        <ele>45.18</ele>
        <time>2017-10-07T12:14:14.000Z</time>
      </trkpt>
      <trkpt lat="43.36851" lon="6.69524">
        <ele>45.13</ele>
        <time>2017-10-07T12:14:19.000Z</time>
      </trkpt>
      <trkpt lat="43.36848" lon="6.69511">
        <ele>44.53</ele>
        <time>2017-10-07T12:14:24.000Z</time>
      </trkpt>
      <trkpt lat="43.36846" lon="6.69495">
        <ele>43.82</ele>
        <time>2017-10-07T12:14:29.000Z</time>
      </trkpt>
      <trkpt lat="43.36841" lon="6.69481">
        <ele>43.54</ele>
        <time>2017-10-07T12:14:34.000Z</time>
      </trkpt>
      <trkpt lat="43.36835" lon="6.69469">
        <ele>43.45</ele>
        <time>2017-10-07T12:14:39.000Z</time>
      </trkpt>
      <trkpt lat="43.36823" lon="6.69462">
        <ele>44.56</ele>
        <time>2017-10-07T12:14:44.000Z</time>
      </trkpt>
      <trkpt lat="43.36812" lon="6.69462">
        <ele>46.34</ele>
        <time>2017-10-07T12:14:49.000Z</time>
      </trkpt>
      <trkpt lat="43.36802" lon="6.69459">
        <ele>47.81</ele>
        <time>2017-10-07T12:14:54.000Z</time>
      </trkpt>
      <trkpt lat="43.36793" lon="6.69457">
        <ele>49.51</ele>
        <time>2017-10-07T12:14:59.000Z</time>
      </trkpt>
      <trkpt lat="43.36782" lon="6.69452">
        <ele>50.99</ele>
        <time>2017-10-07T12:15:05.000Z</time>
      </trkpt>
      <trkpt lat="43.36774" lon="6.69447">
        <ele>51.94</ele>
        <time>2017-10-07T12:15:10.000Z</time>
      </trkpt>
      <trkpt lat="43.36769" lon="6.69435">
        <ele>51.28</ele>
        <time>2017-10-07T12:15:16.000Z</time>
      </trkpt>
      <trkpt lat="43.36765" lon="6.69423">
        <ele>50.8</ele>
        <time>2017-10-07T12:15:21.000Z</time>
      </trkpt>
      <trkpt lat="43.36757" lon="6.69413">
        <ele>51.5</ele>
        <time>2017-10-07T12:15:26.000Z</time>
      </trkpt>
      <trkpt lat="43.36749" lon="6.69405">
        <ele>52.5</ele>
        <time>2017-10-07T12:15:31.000Z</time>
      </trkpt>
      <trkpt lat="43.36739" lon="6.69399">
        <ele>53.91</ele>
        <time>2017-10-07T12:15:36.000Z</time>
      </trkpt>
      <trkpt lat="43.36732" lon="6.69392">
        <ele>55.05</ele>
        <time>2017-10-07T12:15:41.000Z</time>
      </trkpt>
      <trkpt lat="43.36723" lon="6.69386">
        <ele>56.46</ele>
        <time>2017-10-07T12:15:46.000Z</time>
      </trkpt>
      <trkpt lat="43.36713" lon="6.69382">
        <ele>58.27</ele>
        <time>2017-10-07T12:15:51.000Z</time>
      </trkpt>
      <trkpt lat="43.36704" lon="6.69378">
        <ele>59.85</ele>
        <time>2017-10-07T12:15:56.000Z</time>
      </trkpt>
      <trkpt lat="43.36694" lon="6.69375">
        <ele>61.79</ele>
        <time>2017-10-07T12:16:01.000Z</time>
      </trkpt>
      <trkpt lat="43.36686" lon="6.69369">
        <ele>62.76</ele>
        <time>2017-10-07T12:16:06.000Z</time>
      </trkpt>
      <trkpt lat="43.36683" lon="6.69355">
        <ele>61.79</ele>
        <time>2017-10-07T12:16:12.000Z</time>
      </trkpt>
      <trkpt lat="43.36682" lon="6.69342">
        <ele>60.67</ele>
        <time>2017-10-07T12:16:17.000Z</time>
      </trkpt>
      <trkpt lat="43.36678" lon="6.6933">
        <ele>60.65</ele>
        <time>2017-10-07T12:16:22.000Z</time>
      </trkpt>
      <trkpt lat="43.36673" lon="6.69318">
        <ele>61.2</ele>
        <time>2017-10-07T12:16:27.000Z</time>
      </trkpt>
      <trkpt lat="43.36666" lon="6.69308">
        <ele>62.03</ele>
        <time>2017-10-07T12:16:32.000Z</time>
      </trkpt>
      <trkpt lat="43.36661" lon="6.69295">
        <ele>62.97</ele>
        <time>2017-10-07T12:16:37.000Z</time>
      </trkpt>
      <trkpt lat="43.36655" lon="6.69284">
        <ele>64.2</ele>
        <time>2017-10-07T12:16:42.000Z</time>
      </trkpt>
      <trkpt lat="43.36649" lon="6.69273">
        <ele>65.57</ele>
        <time>2017-10-07T12:16:47.000Z</time>
      </trkpt>
      <trkpt lat="43.36644" lon="6.69261">
        <ele>66.72</ele>
        <time>2017-10-07T12:16:52.000Z</time>
      </trkpt>
      <trkpt lat="43.36638" lon="6.69251">
        <ele>68.18</ele>
        <time>2017-10-07T12:16:57.000Z</time>
      </trkpt>
      <trkpt lat="43.36632" lon="6.69239">
        <ele>69.75</ele>
        <time>2017-10-07T12:17:02.000Z</time>
      </trkpt>
      <trkpt lat="43.36627" lon="6.69226">
        <ele>71.41</ele>
        <time>2017-10-07T12:17:07.000Z</time>
      </trkpt>
      <trkpt lat="43.36625" lon="6.69211">
        <ele>72.4</ele>
        <time>2017-10-07T12:17:12.000Z</time>
      </trkpt>
      <trkpt lat="43.36623" lon="6.69196">
        <ele>73.3</ele>
        <time>2017-10-07T12:17:17.000Z</time>
      </trkpt>
      <trkpt lat="43.36622" lon="6.69181">
        <ele>74.1</ele>
        <time>2017-10-07T12:17:22.000Z</time>
      </trkpt>
      <trkpt lat="43.36621" lon="6.69165">
        <ele>74.49</ele>
        <time>2017-10-07T12:17:27.000Z</time>
      </trkpt>
      <trkpt lat="43.36618" lon="6.69152">
        <ele>74.97</ele>
        <time>2017-10-07T12:17:32.000Z</time>
      </trkpt>
      <trkpt lat="43.36614" lon="6.69139">
        <ele>75.38</ele>
        <time>2017-10-07T12:17:37.000Z</time>
      </trkpt>
      <trkpt lat="43.36609" lon="6.69125">
        <ele>75.56</ele>
        <time>2017-10-07T12:17:42.000Z</time>
      </trkpt>
      <trkpt lat="43.36602" lon="6.69113">
        <ele>75.77</ele>
        <time>2017-10-07T12:17:47.000Z</time>
      </trkpt>
      <trkpt lat="43.36593" lon="6.69102">
        <ele>76.06</ele>
        <time>2017-10-07T12:17:52.000Z</time>
      </trkpt>
      <trkpt lat="43.36584" lon="6.69094">
        <ele>76.46</ele>
        <time>2017-10-07T12:17:57.000Z</time>
      </trkpt>
      <trkpt lat="43.36574" lon="6.69088">
        <ele>77.07</ele>
        <time>2017-10-07T12:18:02.000Z</time>
      </trkpt>
      <trkpt lat="43.36565" lon="6.69081">
        <ele>77.88</ele>
        <time>2017-10-07T12:18:07.000Z</time>
      </trkpt>
      <trkpt lat="43.36555" lon="6.69076">
        <ele>78.91</ele>
        <time>2017-10-07T12:18:12.000Z</time>
      </trkpt>
      <trkpt lat="43.36545" lon="6.69071">
        <ele>80.15</ele>
        <time>2017-10-07T12:18:17.000Z</time>
      </trkpt>
      <trkpt lat="43.36534" lon="6.6907">
        <ele>81.67</ele>
        <time>2017-10-07T12:18:22.000Z</time>
      </trkpt>
      <trkpt lat="43.36524" lon="6.69072">
        <ele>83.35</ele>
        <time>2017-10-07T12:18:27.000Z</time>
      </trkpt>
      <trkpt lat="43.36514" lon="6.69076">
        <ele>85.03</ele>
        <time>2017-10-07T12:18:32.000Z</time>
      </trkpt>
      <trkpt lat="43.36505" lon="6.69077">
        <ele>86.72</ele>
        <time>2017-10-07T12:18:37.000Z</time>
      </trkpt>
      <trkpt lat="43.36494" lon="6.6908">
        <ele>88.92</ele>
        <time>2017-10-07T12:18:42.000Z</time>
      </trkpt>
      <trkpt lat="43.36483" lon="6.69083">
        <ele>91.2</ele>
        <time>2017-10-07T12:18:47.000Z</time>
      </trkpt>
      <trkpt lat="43.36473" lon="6.69085">
        <ele>93.42</ele>
        <time>2017-10-07T12:18:52.000Z</time>
      </trkpt>
      <trkpt lat="43.36462" lon="6.6909">
        <ele>96.02</ele>
        <time>2017-10-07T12:18:57.000Z</time>
      </trkpt>
      <trkpt lat="43.36453" lon="6.69087">
        <ele>97.77</ele>
        <time>2017-10-07T12:19:03.000Z</time>
      </trkpt>
      <trkpt lat="43.36452" lon="6.69074">
        <ele>97.51</ele>
        <time>2017-10-07T12:19:09.000Z</time>
      </trkpt>
      <trkpt lat="43.36446" lon="6.69062">
        <ele>98.87</ele>
        <time>2017-10-07T12:19:15.000Z</time>
      </trkpt>
      <trkpt lat="43.36442" lon="6.69049">
        <ele>100.58</ele>
        <time>2017-10-07T12:19:21.000Z</time>
      </trkpt>
      <trkpt lat="43.36446" lon="6.69036">
        <ele>100.37</ele>
        <time>2017-10-07T12:19:27.000Z</time>
      </trkpt>
      <trkpt lat="43.36453" lon="6.69026">
        <ele>99.74</ele>
        <time>2017-10-07T12:19:33.000Z</time>
      </trkpt>
      <trkpt lat="43.36455" lon="6.69012">
        <ele>100.93</ele>
        <time>2017-10-07T12:19:38.000Z</time>
      </trkpt>
      <trkpt lat="43.36456" lon="6.68996">
        <ele>103.16</ele>
        <time>2017-10-07T12:19:43.000Z</time>
      </trkpt>
      <trkpt lat="43.36457" lon="6.68983">
        <ele>105.59</ele>
        <time>2017-10-07T12:19:48.000Z</time>
      </trkpt>
      <trkpt lat="43.3646" lon="6.68971">
        <ele>107.83</ele>
        <time>2017-10-07T12:19:53.000Z</time>
      </trkpt>
      <trkpt lat="43.36468" lon="6.68964">
        <ele>108.67</ele>
        <time>2017-10-07T12:19:58.000Z</time>
      </trkpt>
      <trkpt lat="43.36477" lon="6.68964">
        <ele>107.36</ele>
        <time>2017-10-07T12:20:03.000Z</time>
      </trkpt>
      <trkpt lat="43.36486" lon="6.68967">
        <ele>105.29</ele>
        <time>2017-10-07T12:20:08.000Z</time>
      </trkpt>
      <trkpt lat="43.36496" lon="6.68971">
        <ele>102.31</ele>
        <time>2017-10-07T12:20:13.000Z</time>
      </trkpt>
      <trkpt lat="43.36507" lon="6.68973">
        <ele>99.9</ele>
        <time>2017-10-07T12:20:18.000Z</time>
      </trkpt>
      <trkpt lat="43.36518" lon="6.6897">
        <ele>99.07</ele>
        <time>2017-10-07T12:20:23.000Z</time>
      </trkpt>
      <trkpt lat="43.36527" lon="6.68964">
        <ele>99.82</ele>
        <time>2017-10-07T12:20:28.000Z</time>
      </trkpt>
      <trkpt lat="43.36536" lon="6.68958">
        <ele>100.44</ele>
        <time>2017-10-07T12:20:33.000Z</time>
      </trkpt>
      <trkpt lat="43.36544" lon="6.6895">
        <ele>101.94</ele>
        <time>2017-10-07T12:20:38.000Z</time>
      </trkpt>
      <trkpt lat="43.36553" lon="6.68942">
        <ele>103.57</ele>
        <time>2017-10-07T12:20:43.000Z</time>
      </trkpt>
      <trkpt lat="43.36561" lon="6.68934">
        <ele>105.08</ele>
        <time>2017-10-07T12:20:48.000Z</time>
      </trkpt>
      <trkpt lat="43.36568" lon="6.68925">
        <ele>106.9</ele>
        <time>2017-10-07T12:20:53.000Z</time>
      </trkpt>
      <trkpt lat="43.36572" lon="6.68913">
        <ele>109.25</ele>
        <time>2017-10-07T12:20:58.000Z</time>
      </trkpt>
      <trkpt lat="43.36576" lon="6.689">
        <ele>111.7</ele>
        <time>2017-10-07T12:21:03.000Z</time>
      </trkpt>
      <trkpt lat="43.36578" lon="6.68885">
        <ele>114.65</ele>
        <time>2017-10-07T12:21:08.000Z</time>
      </trkpt>
      <trkpt lat="43.36584" lon="6.68874">
        <ele>115.76</ele>
        <time>2017-10-07T12:21:13.000Z</time>
      </trkpt>
      <trkpt lat="43.36592" lon="6.68868">
        <ele>114.54</ele>
        <time>2017-10-07T12:21:18.000Z</time>
      </trkpt>
      <trkpt lat="43.36601" lon="6.68863">
        <ele>112.91</ele>
        <time>2017-10-07T12:21:23.000Z</time>
      </trkpt>
      <trkpt lat="43.36609" lon="6.68856">
        <ele>111.41</ele>
        <time>2017-10-07T12:21:28.000Z</time>
      </trkpt>
      <trkpt lat="43.36615" lon="6.68845">
        <ele>110.88</ele>
        <time>2017-10-07T12:21:33.000Z</time>
      </trkpt>
      <trkpt lat="43.36618" lon="6.68831">
        <ele>111.61</ele>
        <time>2017-10-07T12:21:38.000Z</time>
      </trkpt>
      <trkpt lat="43.36619" lon="6.68818">
        <ele>112.5</ele>
        <time>2017-10-07T12:21:43.000Z</time>
      </trkpt>
      <trkpt lat="43.36619" lon="6.68804">
        <ele>113.41</ele>
        <time>2017-10-07T12:21:48.000Z</time>
      </trkpt>
      <trkpt lat="43.36617" lon="6.68791">
        <ele>115.03</ele>
        <time>2017-10-07T12:21:53.000Z</time>
      </trkpt>
      <trkpt lat="43.36612" lon="6.68778">
        <ele>117.42</ele>
        <time>2017-10-07T12:21:59.000Z</time>
      </trkpt>
      <trkpt lat="43.36609" lon="6.68764">
        <ele>119.12</ele>
        <time>2017-10-07T12:22:05.000Z</time>
      </trkpt>
      <trkpt lat="43.36605" lon="6.68752">
        <ele>121.31</ele>
        <time>2017-10-07T12:22:10.000Z</time>
      </trkpt>
      <trkpt lat="43.36602" lon="6.6874">
        <ele>122.53</ele>
        <time>2017-10-07T12:22:16.000Z</time>
      </trkpt>
      <trkpt lat="43.36598" lon="6.68729">
        <ele>123.91</ele>
        <time>2017-10-07T12:22:21.000Z</time>
      </trkpt>
      <trkpt lat="43.36594" lon="6.68716">
        <ele>125.01</ele>
        <time>2017-10-07T12:22:26.000Z</time>
      </trkpt>
      <trkpt lat="43.3659" lon="6.68704">
        <ele>125.74</ele>
        <time>2017-10-07T12:22:31.000Z</time>
      </trkpt>
      <trkpt lat="43.36585" lon="6.68691">
        <ele>126.52</ele>
        <time>2017-10-07T12:22:36.000Z</time>
      </trkpt>
      <trkpt lat="43.3658" lon="6.68679">
        <ele>127.25</ele>
        <time>2017-10-07T12:22:41.000Z</time>
      </trkpt>
      <trkpt lat="43.36576" lon="6.68667">
        <ele>127.65</ele>
        <time>2017-10-07T12:22:46.000Z</time>
      </trkpt>
      <trkpt lat="43.36571" lon="6.68655">
        <ele>128.3</ele>
        <time>2017-10-07T12:22:51.000Z</time>
      </trkpt>
      <trkpt lat="43.36564" lon="6.68644">
        <ele>129.44</ele>
        <time>2017-10-07T12:22:56.000Z</time>
      </trkpt>
      <trkpt lat="43.36558" lon="6.68633">
        <ele>130.62</ele>
        <time>2017-10-07T12:23:01.000Z</time>
      </trkpt>
      <trkpt lat="43.3655" lon="6.68621">
        <ele>132.19</ele>
        <time>2017-10-07T12:23:06.000Z</time>
      </trkpt>
      <trkpt lat="43.36541" lon="6.6861">
        <ele>133.98</ele>
        <time>2017-10-07T12:23:11.000Z</time>
      </trkpt>
      <trkpt lat="43.36535" lon="6.68596">
        <ele>134.32</ele>
        <time>2017-10-07T12:23:16.000Z</time>
      </trkpt>
      <trkpt lat="43.36532" lon="6.68583">
        <ele>133.83</ele>
        <time>2017-10-07T12:23:21.000Z</time>
      </trkpt>
      <trkpt lat="43.36528" lon="6.6857">
        <ele>133.53</ele>
        <time>2017-10-07T12:23:26.000Z</time>
      </trkpt>
      <trkpt lat="43.36525" lon="6.68556">
        <ele>132.49</ele>
        <time>2017-10-07T12:23:31.000Z</time>
      </trkpt>
      <trkpt lat="43.36521" lon="6.68543">
        <ele>131.56</ele>
        <time>2017-10-07T12:23:36.000Z</time>
      </trkpt>
      <trkpt lat="43.36515" lon="6.68531">
        <ele>131.54</ele>
        <time>2017-10-07T12:23:41.000Z</time>
      </trkpt>
      <trkpt lat="43.36506" lon="6.68519">
        <ele>132.16</ele>
        <time>2017-10-07T12:23:46.000Z</time>
      </trkpt>
      <trkpt lat="43.36498" lon="6.68509">
        <ele>132.92</ele>
        <time>2017-10-07T12:23:51.000Z</time>
      </trkpt>
      <trkpt lat="43.36488" lon="6.68503">
        <ele>134.58</ele>
        <time>2017-10-07T12:23:56.000Z</time>
      </trkpt>
      <trkpt lat="43.36478" lon="6.68499">
        <ele>136.83</ele>
        <time>2017-10-07T12:24:01.000Z</time>
      </trkpt>
      <trkpt lat="43.36467" lon="6.68494">
        <ele>139</ele>
        <time>2017-10-07T12:24:06.000Z</time>
      </trkpt>
      <trkpt lat="43.36456" lon="6.68492">
        <ele>141.46</ele>
        <time>2017-10-07T12:24:11.000Z</time>
      </trkpt>
      <trkpt lat="43.36445" lon="6.68491">
        <ele>144.12</ele>
        <time>2017-10-07T12:24:16.000Z</time>
      </trkpt>
      <trkpt lat="43.36434" lon="6.68492">
        <ele>147.03</ele>
        <time>2017-10-07T12:24:21.000Z</time>
      </trkpt>
      <trkpt lat="43.36424" lon="6.68492">
        <ele>149.05</ele>
        <time>2017-10-07T12:24:26.000Z</time>
      </trkpt>
      <trkpt lat="43.36415" lon="6.68487">
        <ele>149.61</ele>
        <time>2017-10-07T12:24:31.000Z</time>
      </trkpt>
      <trkpt lat="43.36407" lon="6.68477">
        <ele>148.84</ele>
        <time>2017-10-07T12:24:36.000Z</time>
      </trkpt>
      <trkpt lat="43.36398" lon="6.68469">
        <ele>148.43</ele>
        <time>2017-10-07T12:24:41.000Z</time>
      </trkpt>
      <trkpt lat="43.36389" lon="6.68462">
        <ele>148.66</ele>
        <time>2017-10-07T12:24:46.000Z</time>
      </trkpt>
      <trkpt lat="43.36378" lon="6.68455">
        <ele>149.24</ele>
        <time>2017-10-07T12:24:51.000Z</time>
      </trkpt>
      <trkpt lat="43.36368" lon="6.68449">
        <ele>149.91</ele>
        <time>2017-10-07T12:24:56.000Z</time>
      </trkpt>
      <trkpt lat="43.36358" lon="6.68443">
        <ele>150.47</ele>
        <time>2017-10-07T12:25:01.000Z</time>
      </trkpt>
      <trkpt lat="43.36349" lon="6.68435">
        <ele>150.77</ele>
        <time>2017-10-07T12:25:06.000Z</time>
      </trkpt>
      <trkpt lat="43.36342" lon="6.68427">
        <ele>150.86</ele>
        <time>2017-10-07T12:26:50.000Z</time>
      </trkpt>
      <trkpt lat="43.36335" lon="6.68418">
        <ele>150.98</ele>
        <time>2017-10-07T12:27:07.000Z</time>
      </trkpt>
      <trkpt lat="43.36327" lon="6.68426">
        <ele>150.29</ele>
        <time>2017-10-07T12:27:17.000Z</time>
      </trkpt>
      <trkpt lat="43.36323" lon="6.68438">
        <ele>150.01</ele>
        <time>2017-10-07T12:27:23.000Z</time>
      </trkpt>
      <trkpt lat="43.36319" lon="6.68449">
        <ele>150.08</ele>
        <time>2017-10-07T12:27:30.000Z</time>
      </trkpt>
      <trkpt lat="43.36317" lon="6.68463">
        <ele>150.78</ele>
        <time>2017-10-07T12:27:37.000Z</time>
      </trkpt>
      <trkpt lat="43.36316" lon="6.68477">
        <ele>151.84</ele>
        <time>2017-10-07T12:27:43.000Z</time>
      </trkpt>
      <trkpt lat="43.36314" lon="6.68489">
        <ele>152.71</ele>
        <time>2017-10-07T12:27:49.000Z</time>
      </trkpt>
      <trkpt lat="43.36314" lon="6.68502">
        <ele>153.64</ele>
        <time>2017-10-07T12:27:55.000Z</time>
      </trkpt>
      <trkpt lat="43.36314" lon="6.68514">
        <ele>154.82</ele>
        <time>2017-10-07T12:28:02.000Z</time>
      </trkpt>
      <trkpt lat="43.36315" lon="6.68528">
        <ele>156.41</ele>
        <time>2017-10-07T12:28:09.000Z</time>
      </trkpt>
      <trkpt lat="43.36315" lon="6.68542">
        <ele>158.03</ele>
        <time>2017-10-07T12:28:15.000Z</time>
      </trkpt>
      <trkpt lat="43.36319" lon="6.68555">
        <ele>160.37</ele>
        <time>2017-10-07T12:28:21.000Z</time>
      </trkpt>
      <trkpt lat="43.36318" lon="6.68569">
        <ele>161.42</ele>
        <time>2017-10-07T12:28:28.000Z</time>
      </trkpt>
      <trkpt lat="43.36316" lon="6.68582">
        <ele>162.09</ele>
        <time>2017-10-07T12:28:36.000Z</time>
      </trkpt>
      <trkpt lat="43.36317" lon="6.68597">
        <ele>163.26</ele>
        <time>2017-10-07T12:28:42.000Z</time>
      </trkpt>
      <trkpt lat="43.3632" lon="6.6861">
        <ele>164.84</ele>
        <time>2017-10-07T12:28:47.000Z</time>
      </trkpt>
      <trkpt lat="43.36321" lon="6.68624">
        <ele>165.85</ele>
        <time>2017-10-07T12:28:52.000Z</time>
      </trkpt>
      <trkpt lat="43.36323" lon="6.68636">
        <ele>166.96</ele>
        <time>2017-10-07T12:28:59.000Z</time>
      </trkpt>
      <trkpt lat="43.36319" lon="6.68652">
        <ele>165.95</ele>
        <time>2017-10-07T12:29:04.000Z</time>
      </trkpt>
      <trkpt lat="43.36315" lon="6.68678">
        <ele>165.7</ele>
        <time>2017-10-07T12:29:09.000Z</time>
      </trkpt>
      <trkpt lat="43.36312" lon="6.68708">
        <ele>166.59</ele>
        <time>2017-10-07T12:29:14.000Z</time>
      </trkpt>
      <trkpt lat="43.36297" lon="6.68747">
        <ele>164.72</ele>
        <time>2017-10-07T12:29:19.000Z</time>
      </trkpt>
      <trkpt lat="43.3629" lon="6.68766">
        <ele>164.5</ele>
        <time>2017-10-07T12:29:24.000Z</time>
      </trkpt>
      <trkpt lat="43.36285" lon="6.68784">
        <ele>164.92</ele>
        <time>2017-10-07T12:29:29.000Z</time>
      </trkpt>
      <trkpt lat="43.36277" lon="6.688">
        <ele>164.37</ele>
        <time>2017-10-07T12:29:34.000Z</time>
      </trkpt>
      <trkpt lat="43.36269" lon="6.68812">
        <ele>163.7</ele>
        <time>2017-10-07T12:29:39.000Z</time>
      </trkpt>
      <trkpt lat="43.36264" lon="6.68825">
        <ele>163.58</ele>
        <time>2017-10-07T12:29:44.000Z</time>
      </trkpt>
      <trkpt lat="43.36262" lon="6.6885">
        <ele>163.7</ele>
        <time>2017-10-07T12:29:49.000Z</time>
      </trkpt>
      <trkpt lat="43.36257" lon="6.68889">
        <ele>161.68</ele>
        <time>2017-10-07T12:29:54.000Z</time>
      </trkpt>
      <trkpt lat="43.36253" lon="6.68905">
        <ele>160.96</ele>
        <time>2017-10-07T12:29:59.000Z</time>
      </trkpt>
      <trkpt lat="43.36257" lon="6.6892">
        <ele>161.35</ele>
        <time>2017-10-07T12:30:06.000Z</time>
      </trkpt>
      <trkpt lat="43.3626" lon="6.68934">
        <ele>161.7</ele>
        <time>2017-10-07T12:30:11.000Z</time>
      </trkpt>
      <trkpt lat="43.36262" lon="6.68949">
        <ele>162.06</ele>
        <time>2017-10-07T12:30:16.000Z</time>
      </trkpt>
      <trkpt lat="43.36265" lon="6.68969">
        <ele>162.19</ele>
        <time>2017-10-07T12:30:21.000Z</time>
      </trkpt>
      <trkpt lat="43.3627" lon="6.6899">
        <ele>161.78</ele>
        <time>2017-10-07T12:30:26.000Z</time>
      </trkpt>
      <trkpt lat="43.36273" lon="6.69008">
        <ele>161.53</ele>
        <time>2017-10-07T12:30:31.000Z</time>
      </trkpt>
      <trkpt lat="43.36272" lon="6.69024">
        <ele>162.48</ele>
        <time>2017-10-07T12:30:36.000Z</time>
      </trkpt>
      <trkpt lat="43.36264" lon="6.69029">
        <ele>165.73</ele>
        <time>2017-10-07T12:31:07.000Z</time>
      </trkpt>
      <trkpt lat="43.36259" lon="6.6904">
        <ele>168.16</ele>
        <time>2017-10-07T12:31:18.000Z</time>
      </trkpt>
      <trkpt lat="43.36258" lon="6.69052">
        <ele>169.69</ele>
        <time>2017-10-07T12:31:26.000Z</time>
      </trkpt>
      <trkpt lat="43.36253" lon="6.69064">
        <ele>172.43</ele>
        <time>2017-10-07T12:31:36.000Z</time>
      </trkpt>
      <trkpt lat="43.36248" lon="6.69074">
        <ele>175.02</ele>
        <time>2017-10-07T12:31:46.000Z</time>
      </trkpt>
      <trkpt lat="43.36244" lon="6.69089">
        <ele>177.64</ele>
        <time>2017-10-07T12:31:54.000Z</time>
      </trkpt>
      <trkpt lat="43.36239" lon="6.69102">
        <ele>180.04</ele>
        <time>2017-10-07T12:31:59.000Z</time>
      </trkpt>
      <trkpt lat="43.36236" lon="6.69115">
        <ele>181.69</ele>
        <time>2017-10-07T12:32:04.000Z</time>
      </trkpt>
      <trkpt lat="43.36234" lon="6.69128">
        <ele>183.15</ele>
        <time>2017-10-07T12:32:09.000Z</time>
      </trkpt>
      <trkpt lat="43.36235" lon="6.69142">
        <ele>183.65</ele>
        <time>2017-10-07T12:32:14.000Z</time>
      </trkpt>
      <trkpt lat="43.36236" lon="6.69156">
        <ele>183.94</ele>
        <time>2017-10-07T12:32:19.000Z</time>
      </trkpt>
      <trkpt lat="43.36238" lon="6.69169">
        <ele>184.45</ele>
        <time>2017-10-07T12:32:25.000Z</time>
      </trkpt>
      <trkpt lat="43.3624" lon="6.69183">
        <ele>184.93</ele>
        <time>2017-10-07T12:32:30.000Z</time>
      </trkpt>
      <trkpt lat="43.36243" lon="6.69198">
        <ele>185.44</ele>
        <time>2017-10-07T12:32:35.000Z</time>
      </trkpt>
      <trkpt lat="43.36244" lon="6.69211">
        <ele>186.74</ele>
        <time>2017-10-07T12:32:40.000Z</time>
      </trkpt>
      <trkpt lat="43.36244" lon="6.69226">
        <ele>188.87</ele>
        <time>2017-10-07T12:32:46.000Z</time>
      </trkpt>
      <trkpt lat="43.36243" lon="6.6924">
        <ele>191.28</ele>
        <time>2017-10-07T12:32:52.000Z</time>
      </trkpt>
      <trkpt lat="43.36244" lon="6.69254">
        <ele>193.02</ele>
        <time>2017-10-07T12:32:58.000Z</time>
      </trkpt>
      <trkpt lat="43.36249" lon="6.69266">
        <ele>193.42</ele>
        <time>2017-10-07T12:33:03.000Z</time>
      </trkpt>
      <trkpt lat="43.36255" lon="6.69275">
        <ele>192.89</ele>
        <time>2017-10-07T12:33:08.000Z</time>
      </trkpt>
      <trkpt lat="43.36263" lon="6.69284">
        <ele>192.11</ele>
        <time>2017-10-07T12:33:13.000Z</time>
      </trkpt>
      <trkpt lat="43.36272" lon="6.69294">
        <ele>191.59</ele>
        <time>2017-10-07T12:33:18.000Z</time>
      </trkpt>
      <trkpt lat="43.3628" lon="6.69305">
        <ele>191.63</ele>
        <time>2017-10-07T12:33:23.000Z</time>
      </trkpt>
      <trkpt lat="43.36287" lon="6.69315">
        <ele>191.64</ele>
        <time>2017-10-07T12:33:28.000Z</time>
      </trkpt>
      <trkpt lat="43.36293" lon="6.69327">
        <ele>192.18</ele>
        <time>2017-10-07T12:33:34.000Z</time>
      </trkpt>
      <trkpt lat="43.36299" lon="6.69339">
        <ele>192.61</ele>
        <time>2017-10-07T12:33:40.000Z</time>
      </trkpt>
      <trkpt lat="43.36305" lon="6.6935">
        <ele>192.97</ele>
        <time>2017-10-07T12:33:46.000Z</time>
      </trkpt>
      <trkpt lat="43.3631" lon="6.69362">
        <ele>193.35</ele>
        <time>2017-10-07T12:33:53.000Z</time>
      </trkpt>
      <trkpt lat="43.36318" lon="6.69372">
        <ele>192.92</ele>
        <time>2017-10-07T12:34:00.000Z</time>
      </trkpt>
      <trkpt lat="43.36322" lon="6.69385">
        <ele>193.99</ele>
        <time>2017-10-07T12:34:06.000Z</time>
      </trkpt>
      <trkpt lat="43.36325" lon="6.69397">
        <ele>194.55</ele>
        <time>2017-10-07T12:34:11.000Z</time>
      </trkpt>
      <trkpt lat="43.36328" lon="6.69411">
        <ele>195.21</ele>
        <time>2017-10-07T12:34:17.000Z</time>
      </trkpt>
      <trkpt lat="43.36329" lon="6.69425">
        <ele>195.88</ele>
        <time>2017-10-07T12:34:23.000Z</time>
      </trkpt>
      <trkpt lat="43.36328" lon="6.69437">
        <ele>196.48</ele>
        <time>2017-10-07T12:34:28.000Z</time>
      </trkpt>
      <trkpt lat="43.36326" lon="6.6945">
        <ele>196.87</ele>
        <time>2017-10-07T12:34:36.000Z</time>
      </trkpt>
      <trkpt lat="43.36322" lon="6.69462">
        <ele>197.22</ele>
        <time>2017-10-07T12:34:42.000Z</time>
      </trkpt>
      <trkpt lat="43.36318" lon="6.69474">
        <ele>197</ele>
        <time>2017-10-07T12:34:49.000Z</time>
      </trkpt>
      <trkpt lat="43.3631" lon="6.69468">
        <ele>198.84</ele>
        <time>2017-10-07T12:34:58.000Z</time>
      </trkpt>
      <trkpt lat="43.36305" lon="6.69456">
        <ele>200.7</ele>
        <time>2017-10-07T12:35:05.000Z</time>
      </trkpt>
      <trkpt lat="43.36298" lon="6.69448">
        <ele>202.45</ele>
        <time>2017-10-07T12:35:13.000Z</time>
      </trkpt>
      <trkpt lat="43.36292" lon="6.69437">
        <ele>204.16</ele>
        <time>2017-10-07T12:35:23.000Z</time>
      </trkpt>
      <trkpt lat="43.36285" lon="6.69429">
        <ele>205.77</ele>
        <time>2017-10-07T12:35:32.000Z</time>
      </trkpt>
      <trkpt lat="43.36277" lon="6.6942">
        <ele>207.35</ele>
        <time>2017-10-07T12:35:40.000Z</time>
      </trkpt>
      <trkpt lat="43.3627" lon="6.69411">
        <ele>208.64</ele>
        <time>2017-10-07T12:35:49.000Z</time>
      </trkpt>
      <trkpt lat="43.36264" lon="6.69401">
        <ele>209.61</ele>
        <time>2017-10-07T12:35:58.000Z</time>
      </trkpt>
      <trkpt lat="43.36257" lon="6.6939">
        <ele>210.24</ele>
        <time>2017-10-07T12:36:05.000Z</time>
      </trkpt>
      <trkpt lat="43.36249" lon="6.69383">
        <ele>211.24</ele>
        <time>2017-10-07T12:36:10.000Z</time>
      </trkpt>
      <trkpt lat="43.3624" lon="6.69376">
        <ele>212</ele>
        <time>2017-10-07T12:36:16.000Z</time>
      </trkpt>
      <trkpt lat="43.36231" lon="6.69372">
        <ele>212.88</ele>
        <time>2017-10-07T12:36:23.000Z</time>
      </trkpt>
      <trkpt lat="43.36223" lon="6.69367">
        <ele>213.67</ele>
        <time>2017-10-07T12:36:30.000Z</time>
      </trkpt>
      <trkpt lat="43.36214" lon="6.69361">
        <ele>214.42</ele>
        <time>2017-10-07T12:36:37.000Z</time>
      </trkpt>
      <trkpt lat="43.36207" lon="6.69352">
        <ele>215.18</ele>
        <time>2017-10-07T12:36:44.000Z</time>
      </trkpt>
      <trkpt lat="43.36201" lon="6.69342">
        <ele>215.95</ele>
        <time>2017-10-07T12:36:52.000Z</time>
      </trkpt>
      <trkpt lat="43.36195" lon="6.69333">
        <ele>217.02</ele>
        <time>2017-10-07T12:37:00.000Z</time>
      </trkpt>
      <trkpt lat="43.36188" lon="6.69323">
        <ele>218.43</ele>
        <time>2017-10-07T12:37:07.000Z</time>
      </trkpt>
      <trkpt lat="43.36179" lon="6.69317">
        <ele>220.04</ele>
        <time>2017-10-07T12:37:16.000Z</time>
      </trkpt>
      <trkpt lat="43.3617" lon="6.69312">
        <ele>221.91</ele>
        <time>2017-10-07T12:37:24.000Z</time>
      </trkpt>
      <trkpt lat="43.36162" lon="6.69305">
        <ele>223.75</ele>
        <time>2017-10-07T12:37:31.000Z</time>
      </trkpt>
      <trkpt lat="43.36153" lon="6.693">
        <ele>225.44</ele>
        <time>2017-10-07T12:37:38.000Z</time>
      </trkpt>
      <trkpt lat="43.36146" lon="6.69292">
        <ele>227.11</ele>
        <time>2017-10-07T12:37:47.000Z</time>
      </trkpt>
      <trkpt lat="43.3614" lon="6.69282">
        <ele>228.71</ele>
        <time>2017-10-07T12:37:55.000Z</time>
      </trkpt>
      <trkpt lat="43.36132" lon="6.69273">
        <ele>230.39</ele>
        <time>2017-10-07T12:38:03.000Z</time>
      </trkpt>
      <trkpt lat="43.36123" lon="6.69266">
        <ele>231.82</ele>
        <time>2017-10-07T12:38:21.000Z</time>
      </trkpt>
      <trkpt lat="43.36115" lon="6.69263">
        <ele>232.98</ele>
        <time>2017-10-07T12:38:34.000Z</time>
      </trkpt>
      <trkpt lat="43.36107" lon="6.69256">
        <ele>233.83</ele>
        <time>2017-10-07T12:38:48.000Z</time>
      </trkpt>
      <trkpt lat="43.36099" lon="6.69247">
        <ele>234.23</ele>
        <time>2017-10-07T12:38:57.000Z</time>
      </trkpt>
      <trkpt lat="43.3609" lon="6.69249">
        <ele>234.79</ele>
        <time>2017-10-07T12:39:05.000Z</time>
      </trkpt>
      <trkpt lat="43.36079" lon="6.69251">
        <ele>235.05</ele>
        <time>2017-10-07T12:39:29.000Z</time>
      </trkpt>
      <trkpt lat="43.3606" lon="6.69259">
        <ele>234.19</ele>
        <time>2017-10-07T12:39:34.000Z</time>
      </trkpt>
      <trkpt lat="43.36042" lon="6.69274">
        <ele>232.39</ele>
        <time>2017-10-07T12:39:39.000Z</time>
      </trkpt>
      <trkpt lat="43.36015" lon="6.69285">
        <ele>229.54</ele>
        <time>2017-10-07T12:39:44.000Z</time>
      </trkpt>
      <trkpt lat="43.35989" lon="6.69287">
        <ele>227.38</ele>
        <time>2017-10-07T12:39:49.000Z</time>
      </trkpt>
      <trkpt lat="43.3597" lon="6.69289">
        <ele>225.73</ele>
        <time>2017-10-07T12:39:54.000Z</time>
      </trkpt>
      <trkpt lat="43.35941" lon="6.69298">
        <ele>222.93</ele>
        <time>2017-10-07T12:39:59.000Z</time>
      </trkpt>
      <trkpt lat="43.35909" lon="6.69312">
        <ele>219.26</ele>
        <time>2017-10-07T12:40:04.000Z</time>
      </trkpt>
      <trkpt lat="43.35879" lon="6.6933">
        <ele>216.08</ele>
        <time>2017-10-07T12:40:09.000Z</time>
      </trkpt>
      <trkpt lat="43.35848" lon="6.69352">
        <ele>212.64</ele>
        <time>2017-10-07T12:40:14.000Z</time>
      </trkpt>
      <trkpt lat="43.35824" lon="6.69391">
        <ele>206.26</ele>
        <time>2017-10-07T12:40:19.000Z</time>
      </trkpt>
      <trkpt lat="43.35809" lon="6.6944">
        <ele>200.25</ele>
        <time>2017-10-07T12:40:24.000Z</time>
      </trkpt>
      <trkpt lat="43.35796" lon="6.6948">
        <ele>198.15</ele>
        <time>2017-10-07T12:40:29.000Z</time>
      </trkpt>
      <trkpt lat="43.35796" lon="6.69493">
        <ele>197.66</ele>
        <time>2017-10-07T12:40:36.000Z</time>
      </trkpt>
      <trkpt lat="43.35797" lon="6.69507">
        <ele>196.74</ele>
        <time>2017-10-07T12:40:44.000Z</time>
      </trkpt>
      <trkpt lat="43.35796" lon="6.69528">
        <ele>195.47</ele>
        <time>2017-10-07T12:40:49.000Z</time>
      </trkpt>
      <trkpt lat="43.35796" lon="6.69551">
        <ele>193.22</ele>
        <time>2017-10-07T12:40:54.000Z</time>
      </trkpt>
      <trkpt lat="43.35783" lon="6.69584">
        <ele>194.37</ele>
        <time>2017-10-07T12:40:59.000Z</time>
      </trkpt>
      <trkpt lat="43.35767" lon="6.69627">
        <ele>195.74</ele>
        <time>2017-10-07T12:41:04.000Z</time>
      </trkpt>
      <trkpt lat="43.35759" lon="6.6968">
        <ele>191.16</ele>
        <time>2017-10-07T12:41:09.000Z</time>
      </trkpt>
      <trkpt lat="43.35758" lon="6.69714">
        <ele>185.41</ele>
        <time>2017-10-07T12:41:14.000Z</time>
      </trkpt>
      <trkpt lat="43.35741" lon="6.69727">
        <ele>187.55</ele>
        <time>2017-10-07T12:41:19.000Z</time>
      </trkpt>
      <trkpt lat="43.35714" lon="6.69717">
        <ele>196.3</ele>
        <time>2017-10-07T12:41:24.000Z</time>
      </trkpt>
      <trkpt lat="43.35692" lon="6.69734">
        <ele>197.44</ele>
        <time>2017-10-07T12:41:29.000Z</time>
      </trkpt>
      <trkpt lat="43.35679" lon="6.6975">
        <ele>196.47</ele>
        <time>2017-10-07T12:41:34.000Z</time>
      </trkpt>
      <trkpt lat="43.35666" lon="6.69772">
        <ele>193.72</ele>
        <time>2017-10-07T12:41:39.000Z</time>
      </trkpt>
      <trkpt lat="43.35655" lon="6.69799">
        <ele>189.35</ele>
        <time>2017-10-07T12:41:44.000Z</time>
      </trkpt>
      <trkpt lat="43.35644" lon="6.6983">
        <ele>185.14</ele>
        <time>2017-10-07T12:41:49.000Z</time>
      </trkpt>
      <trkpt lat="43.3563" lon="6.69869">
        <ele>182.12</ele>
        <time>2017-10-07T12:41:54.000Z</time>
      </trkpt>
      <trkpt lat="43.35608" lon="6.69909">
        <ele>180.49</ele>
        <time>2017-10-07T12:41:59.000Z</time>
      </trkpt>
      <trkpt lat="43.35593" lon="6.69946">
        <ele>177.95</ele>
        <time>2017-10-07T12:42:04.000Z</time>
      </trkpt>
      <trkpt lat="43.35584" lon="6.69995">
        <ele>175.12</ele>
        <time>2017-10-07T12:42:09.000Z</time>
      </trkpt>
      <trkpt lat="43.35572" lon="6.70037">
        <ele>175.22</ele>
        <time>2017-10-07T12:42:14.000Z</time>
      </trkpt>
      <trkpt lat="43.35566" lon="6.70067">
        <ele>176.95</ele>
        <time>2017-10-07T12:42:19.000Z</time>
      </trkpt>
      <trkpt lat="43.35579" lon="6.70098">
        <ele>178.36</ele>
        <time>2017-10-07T12:42:24.000Z</time>
      </trkpt>
      <trkpt lat="43.35593" lon="6.70126">
        <ele>178.16</ele>
        <time>2017-10-07T12:42:29.000Z</time>
      </trkpt>
      <trkpt lat="43.35606" lon="6.70159">
        <ele>177.46</ele>
        <time>2017-10-07T12:42:34.000Z</time>
      </trkpt>
      <trkpt lat="43.35619" lon="6.70196">
        <ele>176.29</ele>
        <time>2017-10-07T12:42:39.000Z</time>
      </trkpt>
      <trkpt lat="43.35633" lon="6.70237">
        <ele>174.71</ele>
        <time>2017-10-07T12:42:44.000Z</time>
      </trkpt>
      <trkpt lat="43.35651" lon="6.70288">
        <ele>172.22</ele>
        <time>2017-10-07T12:42:49.000Z</time>
      </trkpt>
      <trkpt lat="43.35674" lon="6.70329">
        <ele>168.88</ele>
        <time>2017-10-07T12:42:54.000Z</time>
      </trkpt>
      <trkpt lat="43.35695" lon="6.70369">
        <ele>164.52</ele>
        <time>2017-10-07T12:42:59.000Z</time>
      </trkpt>
      <trkpt lat="43.35694" lon="6.70421">
        <ele>167.1</ele>
        <time>2017-10-07T12:43:04.000Z</time>
      </trkpt>
      <trkpt lat="43.35711" lon="6.70455">
        <ele>164.05</ele>
        <time>2017-10-07T12:43:09.000Z</time>
      </trkpt>
      <trkpt lat="43.35728" lon="6.70478">
        <ele>161.86</ele>
        <time>2017-10-07T12:43:14.000Z</time>
      </trkpt>
      <trkpt lat="43.35746" lon="6.70484">
        <ele>158.13</ele>
        <time>2017-10-07T12:43:19.000Z</time>
      </trkpt>
      <trkpt lat="43.3577" lon="6.70488">
        <ele>152.81</ele>
        <time>2017-10-07T12:43:24.000Z</time>
      </trkpt>
      <trkpt lat="43.35793" lon="6.70508">
        <ele>148.83</ele>
        <time>2017-10-07T12:43:29.000Z</time>
      </trkpt>
      <trkpt lat="43.3581" lon="6.70525">
        <ele>145.37</ele>
        <time>2017-10-07T12:43:34.000Z</time>
      </trkpt>
      <trkpt lat="43.35835" lon="6.70548">
        <ele>140.44</ele>
        <time>2017-10-07T12:43:39.000Z</time>
      </trkpt>
      <trkpt lat="43.35856" lon="6.7057">
        <ele>136.11</ele>
        <time>2017-10-07T12:43:44.000Z</time>
      </trkpt>
      <trkpt lat="43.35881" lon="6.70574">
        <ele>130.94</ele>
        <time>2017-10-07T12:43:49.000Z</time>
      </trkpt>
      <trkpt lat="43.35903" lon="6.70598">
        <ele>126.07</ele>
        <time>2017-10-07T12:43:54.000Z</time>
      </trkpt>
      <trkpt lat="43.35932" lon="6.70601">
        <ele>121.09</ele>
        <time>2017-10-07T12:43:59.000Z</time>
      </trkpt>
      <trkpt lat="43.35956" lon="6.7059">
        <ele>117.57</ele>
        <time>2017-10-07T12:44:04.000Z</time>
      </trkpt>
      <trkpt lat="43.35962" lon="6.70579">
        <ele>116.46</ele>
        <time>2017-10-07T12:44:11.000Z</time>
      </trkpt>
      <trkpt lat="43.35952" lon="6.70567">
        <ele>117.38</ele>
        <time>2017-10-07T12:44:16.000Z</time>
      </trkpt>
      <trkpt lat="43.35941" lon="6.70562">
        <ele>118.94</ele>
        <time>2017-10-07T12:44:21.000Z</time>
      </trkpt>
      <trkpt lat="43.35932" lon="6.70556">
        <ele>120.22</ele>
        <time>2017-10-07T12:44:26.000Z</time>
      </trkpt>
      <trkpt lat="43.35924" lon="6.70548">
        <ele>121.13</ele>
        <time>2017-10-07T12:44:32.000Z</time>
      </trkpt>
      <trkpt lat="43.35917" lon="6.7054">
        <ele>121.95</ele>
        <time>2017-10-07T12:44:37.000Z</time>
      </trkpt>
      <trkpt lat="43.35908" lon="6.70532">
        <ele>123.19</ele>
        <time>2017-10-07T12:44:42.000Z</time>
      </trkpt>
      <trkpt lat="43.35898" lon="6.70525">
        <ele>124.73</ele>
        <time>2017-10-07T12:44:47.000Z</time>
      </trkpt>
      <trkpt lat="43.35889" lon="6.70522">
        <ele>126.6</ele>
        <time>2017-10-07T12:44:52.000Z</time>
      </trkpt>
      <trkpt lat="43.35877" lon="6.7052">
        <ele>128.92</ele>
        <time>2017-10-07T12:44:57.000Z</time>
      </trkpt>
      <trkpt lat="43.35868" lon="6.70515">
        <ele>130.53</ele>
        <time>2017-10-07T12:45:02.000Z</time>
      </trkpt>
      <trkpt lat="43.35859" lon="6.70508">
        <ele>131.87</ele>
        <time>2017-10-07T12:45:07.000Z</time>
      </trkpt>
      <trkpt lat="43.35852" lon="6.705">
        <ele>132.58</ele>
        <time>2017-10-07T12:45:12.000Z</time>
      </trkpt>
      <trkpt lat="43.35844" lon="6.70491">
        <ele>133.15</ele>
        <time>2017-10-07T12:45:19.000Z</time>
      </trkpt>
      <trkpt lat="43.35835" lon="6.70482">
        <ele>133.96</ele>
        <time>2017-10-07T12:45:25.000Z</time>
      </trkpt>
      <trkpt lat="43.35826" lon="6.70473">
        <ele>134.68</ele>
        <time>2017-10-07T12:45:30.000Z</time>
      </trkpt>
      <trkpt lat="43.35817" lon="6.70466">
        <ele>135.59</ele>
        <time>2017-10-07T12:45:35.000Z</time>
      </trkpt>
      <trkpt lat="43.35807" lon="6.70459">
        <ele>137.01</ele>
        <time>2017-10-07T12:45:40.000Z</time>
      </trkpt>
      <trkpt lat="43.35798" lon="6.70452">
        <ele>138.14</ele>
        <time>2017-10-07T12:45:45.000Z</time>
      </trkpt>
      <trkpt lat="43.35788" lon="6.70447">
        <ele>140.11</ele>
        <time>2017-10-07T12:45:50.000Z</time>
      </trkpt>
      <trkpt lat="43.35779" lon="6.70444">
        <ele>142.22</ele>
        <time>2017-10-07T12:45:55.000Z</time>
      </trkpt>
      <trkpt lat="43.3577" lon="6.7044">
        <ele>144.17</ele>
        <time>2017-10-07T12:46:00.000Z</time>
      </trkpt>
      <trkpt lat="43.35762" lon="6.7043">
        <ele>144.86</ele>
        <time>2017-10-07T12:46:06.000Z</time>
      </trkpt>
      <trkpt lat="43.35755" lon="6.70419">
        <ele>145.58</ele>
        <time>2017-10-07T12:46:11.000Z</time>
      </trkpt>
      <trkpt lat="43.35749" lon="6.70408">
        <ele>146.78</ele>
        <time>2017-10-07T12:46:17.000Z</time>
      </trkpt>
      <trkpt lat="43.35748" lon="6.70395">
        <ele>146.2</ele>
        <time>2017-10-07T12:46:23.000Z</time>
      </trkpt>
      <trkpt lat="43.35753" lon="6.70382">
        <ele>144.29</ele>
        <time>2017-10-07T12:46:29.000Z</time>
      </trkpt>
      <trkpt lat="43.35757" lon="6.7037">
        <ele>142.69</ele>
        <time>2017-10-07T12:46:34.000Z</time>
      </trkpt>
      <trkpt lat="43.35761" lon="6.70357">
        <ele>140.95</ele>
        <time>2017-10-07T12:46:39.000Z</time>
      </trkpt>
      <trkpt lat="43.35761" lon="6.70344">
        <ele>140.61</ele>
        <time>2017-10-07T12:46:44.000Z</time>
      </trkpt>
      <trkpt lat="43.35757" lon="6.70328">
        <ele>141.37</ele>
        <time>2017-10-07T12:46:49.000Z</time>
      </trkpt>
      <trkpt lat="43.35748" lon="6.70315">
        <ele>143.67</ele>
        <time>2017-10-07T12:46:54.000Z</time>
      </trkpt>
      <trkpt lat="43.35739" lon="6.70303">
        <ele>145.94</ele>
        <time>2017-10-07T12:46:59.000Z</time>
      </trkpt>
      <trkpt lat="43.35728" lon="6.70294">
        <ele>148.97</ele>
        <time>2017-10-07T12:47:04.000Z</time>
      </trkpt>
      <trkpt lat="43.35718" lon="6.70285">
        <ele>151.57</ele>
        <time>2017-10-07T12:47:09.000Z</time>
      </trkpt>
      <trkpt lat="43.3571" lon="6.70278">
        <ele>153.69</ele>
        <time>2017-10-07T12:47:14.000Z</time>
      </trkpt>
      <trkpt lat="43.35703" lon="6.70268">
        <ele>155.09</ele>
        <time>2017-10-07T12:47:19.000Z</time>
      </trkpt>
      <trkpt lat="43.35697" lon="6.70255">
        <ele>156</ele>
        <time>2017-10-07T12:47:24.000Z</time>
      </trkpt>
      <trkpt lat="43.35693" lon="6.70243">
        <ele>156.5</ele>
        <time>2017-10-07T12:47:29.000Z</time>
      </trkpt>
      <trkpt lat="43.35688" lon="6.7023">
        <ele>157.2</ele>
        <time>2017-10-07T12:47:34.000Z</time>
      </trkpt>
      <trkpt lat="43.35685" lon="6.70214">
        <ele>157.23</ele>
        <time>2017-10-07T12:47:39.000Z</time>
      </trkpt>
      <trkpt lat="43.35683" lon="6.70193">
        <ele>156.54</ele>
        <time>2017-10-07T12:47:44.000Z</time>
      </trkpt>
      <trkpt lat="43.3569" lon="6.70172">
        <ele>153.3</ele>
        <time>2017-10-07T12:47:49.000Z</time>
      </trkpt>
      <trkpt lat="43.35688" lon="6.70144">
        <ele>151.76</ele>
        <time>2017-10-07T12:47:54.000Z</time>
      </trkpt>
      <trkpt lat="43.35683" lon="6.7012">
        <ele>151.31</ele>
        <time>2017-10-07T12:47:59.000Z</time>
      </trkpt>
      <trkpt lat="43.35665" lon="6.701">
        <ele>155.05</ele>
        <time>2017-10-07T12:48:04.000Z</time>
      </trkpt>
      <trkpt lat="43.35649" lon="6.70077">
        <ele>159.44</ele>
        <time>2017-10-07T12:48:09.000Z</time>
      </trkpt>
      <trkpt lat="43.35641" lon="6.70056">
        <ele>162.39</ele>
        <time>2017-10-07T12:48:14.000Z</time>
      </trkpt>
      <trkpt lat="43.35646" lon="6.70035">
        <ele>161.63</ele>
        <time>2017-10-07T12:48:19.000Z</time>
      </trkpt>
      <trkpt lat="43.35662" lon="6.70022">
        <ele>157.58</ele>
        <time>2017-10-07T12:48:24.000Z</time>
      </trkpt>
      <trkpt lat="43.35673" lon="6.70002">
        <ele>155.73</ele>
        <time>2017-10-07T12:48:29.000Z</time>
      </trkpt>
      <trkpt lat="43.35684" lon="6.69985">
        <ele>153.86</ele>
        <time>2017-10-07T12:48:34.000Z</time>
      </trkpt>
      <trkpt lat="43.35688" lon="6.6996">
        <ele>155.69</ele>
        <time>2017-10-07T12:48:39.000Z</time>
      </trkpt>
      <trkpt lat="43.35686" lon="6.69938">
        <ele>159.96</ele>
        <time>2017-10-07T12:48:44.000Z</time>
      </trkpt>
      <trkpt lat="43.3569" lon="6.69919">
        <ele>161.56</ele>
        <time>2017-10-07T12:48:49.000Z</time>
      </trkpt>
      <trkpt lat="43.35708" lon="6.69906">
        <ele>156.61</ele>
        <time>2017-10-07T12:48:54.000Z</time>
      </trkpt>
      <trkpt lat="43.35738" lon="6.69883">
        <ele>150.84</ele>
        <time>2017-10-07T12:48:59.000Z</time>
      </trkpt>
      <trkpt lat="43.3575" lon="6.69837">
        <ele>159.15</ele>
        <time>2017-10-07T12:49:04.000Z</time>
      </trkpt>
      <trkpt lat="43.35767" lon="6.69836">
        <ele>156.23</ele>
        <time>2017-10-07T12:49:09.000Z</time>
      </trkpt>
      <trkpt lat="43.35794" lon="6.69853">
        <ele>148.44</ele>
        <time>2017-10-07T12:49:14.000Z</time>
      </trkpt>
      <trkpt lat="43.3583" lon="6.69878">
        <ele>137.25</ele>
        <time>2017-10-07T12:49:19.000Z</time>
      </trkpt>
      <trkpt lat="43.35864" lon="6.69899">
        <ele>127.34</ele>
        <time>2017-10-07T12:49:24.000Z</time>
      </trkpt>
      <trkpt lat="43.35884" lon="6.69853">
        <ele>128.51</ele>
        <time>2017-10-07T12:49:29.000Z</time>
      </trkpt>
      <trkpt lat="43.35883" lon="6.69795">
        <ele>131.46</ele>
        <time>2017-10-07T12:49:34.000Z</time>
      </trkpt>
      <trkpt lat="43.35891" lon="6.69736">
        <ele>130.32</ele>
        <time>2017-10-07T12:49:39.000Z</time>
      </trkpt>
      <trkpt lat="43.35891" lon="6.69685">
        <ele>135.21</ele>
        <time>2017-10-07T12:49:44.000Z</time>
      </trkpt>
      <trkpt lat="43.35916" lon="6.69695">
        <ele>127.04</ele>
        <time>2017-10-07T12:49:49.000Z</time>
      </trkpt>
      <trkpt lat="43.3594" lon="6.69653">
        <ele>132.11</ele>
        <time>2017-10-07T12:49:54.000Z</time>
      </trkpt>
      <trkpt lat="43.3595" lon="6.69664">
        <ele>130.84</ele>
        <time>2017-10-07T12:49:59.000Z</time>
      </trkpt>
      <trkpt lat="43.35952" lon="6.69704">
        <ele>124.61</ele>
        <time>2017-10-07T12:50:04.000Z</time>
      </trkpt>
      <trkpt lat="43.35969" lon="6.69748">
        <ele>120.57</ele>
        <time>2017-10-07T12:50:09.000Z</time>
      </trkpt>
      <trkpt lat="43.35976" lon="6.69791">
        <ele>115.53</ele>
        <time>2017-10-07T12:50:14.000Z</time>
      </trkpt>
      <trkpt lat="43.36002" lon="6.69832">
        <ele>110.51</ele>
        <time>2017-10-07T12:50:19.000Z</time>
      </trkpt>
      <trkpt lat="43.36027" lon="6.69877">
        <ele>107.6</ele>
        <time>2017-10-07T12:50:24.000Z</time>
      </trkpt>
      <trkpt lat="43.36045" lon="6.69927">
        <ele>104.06</ele>
        <time>2017-10-07T12:50:29.000Z</time>
      </trkpt>
      <trkpt lat="43.36059" lon="6.69966">
        <ele>101.47</ele>
        <time>2017-10-07T12:50:34.000Z</time>
      </trkpt>
      <trkpt lat="43.36068" lon="6.7001">
        <ele>96.65</ele>
        <time>2017-10-07T12:50:39.000Z</time>
      </trkpt>
      <trkpt lat="43.36088" lon="6.70053">
        <ele>94.64</ele>
        <time>2017-10-07T12:50:44.000Z</time>
      </trkpt>
      <trkpt lat="43.36104" lon="6.70103">
        <ele>88.94</ele>
        <time>2017-10-07T12:50:49.000Z</time>
      </trkpt>
      <trkpt lat="43.36127" lon="6.70151">
        <ele>82.02</ele>
        <time>2017-10-07T12:50:54.000Z</time>
      </trkpt>
      <trkpt lat="43.36168" lon="6.70162">
        <ele>83.22</ele>
        <time>2017-10-07T12:50:59.000Z</time>
      </trkpt>
      <trkpt lat="43.36198" lon="6.70149">
        <ele>89.88</ele>
        <time>2017-10-07T12:51:04.000Z</time>
      </trkpt>
      <trkpt lat="43.36215" lon="6.70183">
        <ele>83.31</ele>
        <time>2017-10-07T12:51:09.000Z</time>
      </trkpt>
      <trkpt lat="43.36228" lon="6.70205">
        <ele>79.57</ele>
        <time>2017-10-07T12:51:14.000Z</time>
      </trkpt>
      <trkpt lat="43.36234" lon="6.70236">
        <ele>72.98</ele>
        <time>2017-10-07T12:51:19.000Z</time>
      </trkpt>
      <trkpt lat="43.36246" lon="6.70265">
        <ele>68.85</ele>
        <time>2017-10-07T12:51:24.000Z</time>
      </trkpt>
      <trkpt lat="43.36254" lon="6.70299">
        <ele>63.84</ele>
        <time>2017-10-07T12:51:29.000Z</time>
      </trkpt>
      <trkpt lat="43.36273" lon="6.70311">
        <ele>63.3</ele>
        <time>2017-10-07T12:51:34.000Z</time>
      </trkpt>
      <trkpt lat="43.36288" lon="6.70308">
        <ele>64.76</ele>
        <time>2017-10-07T12:51:39.000Z</time>
      </trkpt>
      <trkpt lat="43.36304" lon="6.70288">
        <ele>68.3</ele>
        <time>2017-10-07T12:51:44.000Z</time>
      </trkpt>
      <trkpt lat="43.36314" lon="6.70281">
        <ele>69.8</ele>
        <time>2017-10-07T12:51:49.000Z</time>
      </trkpt>
      <trkpt lat="43.36324" lon="6.70289">
        <ele>69.15</ele>
        <time>2017-10-07T12:51:58.000Z</time>
      </trkpt>
      <trkpt lat="43.36336" lon="6.70312">
        <ele>66.88</ele>
        <time>2017-10-07T12:52:03.000Z</time>
      </trkpt>
      <trkpt lat="43.36336" lon="6.70355">
        <ele>61.52</ele>
        <time>2017-10-07T12:52:08.000Z</time>
      </trkpt>
      <trkpt lat="43.36336" lon="6.70398">
        <ele>56.54</ele>
        <time>2017-10-07T12:52:13.000Z</time>
      </trkpt>
      <trkpt lat="43.3633" lon="6.70432">
        <ele>51.81</ele>
        <time>2017-10-07T12:52:18.000Z</time>
      </trkpt>
      <trkpt lat="43.36326" lon="6.70475">
        <ele>46.12</ele>
        <time>2017-10-07T12:52:23.000Z</time>
      </trkpt>
      <trkpt lat="43.36338" lon="6.70507">
        <ele>42.03</ele>
        <time>2017-10-07T12:52:28.000Z</time>
      </trkpt>
      <trkpt lat="43.36364" lon="6.70515">
        <ele>41.65</ele>
        <time>2017-10-07T12:52:33.000Z</time>
      </trkpt>
      <trkpt lat="43.36385" lon="6.70526">
        <ele>40.22</ele>
        <time>2017-10-07T12:52:38.000Z</time>
      </trkpt>
      <trkpt lat="43.36404" lon="6.70514">
        <ele>42.83</ele>
        <time>2017-10-07T12:52:43.000Z</time>
      </trkpt>
      <trkpt lat="43.36424" lon="6.70523">
        <ele>40.45</ele>
        <time>2017-10-07T12:52:48.000Z</time>
      </trkpt>
      <trkpt lat="43.3645" lon="6.70519">
        <ele>38.5</ele>
        <time>2017-10-07T12:52:53.000Z</time>
      </trkpt>
      <trkpt lat="43.36478" lon="6.70499">
        <ele>37.66</ele>
        <time>2017-10-07T12:52:58.000Z</time>
      </trkpt>
      <trkpt lat="43.36484" lon="6.7048">
        <ele>39.24</ele>
        <time>2017-10-07T12:53:03.000Z</time>
      </trkpt>
      <trkpt lat="43.36498" lon="6.70496">
        <ele>35.6</ele>
        <time>2017-10-07T12:53:08.000Z</time>
      </trkpt>
      <trkpt lat="43.36513" lon="6.70499">
        <ele>34.34</ele>
        <time>2017-10-07T12:53:13.000Z</time>
      </trkpt>
      <trkpt lat="43.36531" lon="6.70512">
        <ele>32.05</ele>
        <time>2017-10-07T12:53:18.000Z</time>
      </trkpt>
      <trkpt lat="43.36553" lon="6.70509">
        <ele>31.89</ele>
        <time>2017-10-07T12:53:23.000Z</time>
      </trkpt>
      <trkpt lat="43.36572" lon="6.70504">
        <ele>32.02</ele>
        <time>2017-10-07T12:53:28.000Z</time>
      </trkpt>
      <trkpt lat="43.36565" lon="6.70531">
        <ele>29.56</ele>
        <time>2017-10-07T12:53:33.000Z</time>
      </trkpt>
      <trkpt lat="43.36563" lon="6.70561">
        <ele>26.86</ele>
        <time>2017-10-07T12:53:38.000Z</time>
      </trkpt>
      <trkpt lat="43.36572" lon="6.70594">
        <ele>24.28</ele>
        <time>2017-10-07T12:53:43.000Z</time>
      </trkpt>
      <trkpt lat="43.36579" lon="6.70609">
        <ele>23.3</ele>
        <time>2017-10-07T12:53:48.000Z</time>
      </trkpt>
      <trkpt lat="43.36589" lon="6.70619">
        <ele>22.7</ele>
        <time>2017-10-07T12:53:53.000Z</time>
      </trkpt>
      <trkpt lat="43.36598" lon="6.70626">
        <ele>22.47</ele>
        <time>2017-10-07T12:54:02.000Z</time>
      </trkpt>
      <trkpt lat="43.36613" lon="6.70641">
        <ele>22.35</ele>
        <time>2017-10-07T12:54:07.000Z</time>
      </trkpt>
      <trkpt lat="43.36628" lon="6.70665">
        <ele>22.2</ele>
        <time>2017-10-07T12:54:12.000Z</time>
      </trkpt>
      <trkpt lat="43.36645" lon="6.70676">
        <ele>22.63</ele>
        <time>2017-10-07T12:54:17.000Z</time>
      </trkpt>
      <trkpt lat="43.36662" lon="6.70666">
        <ele>23.1</ele>
        <time>2017-10-07T12:54:22.000Z</time>
      </trkpt>
      <trkpt lat="43.36691" lon="6.70664">
        <ele>21.66</ele>
        <time>2017-10-07T12:54:27.000Z</time>
      </trkpt>
      <trkpt lat="43.36709" lon="6.70697">
        <ele>19.65</ele>
        <time>2017-10-07T12:54:32.000Z</time>
      </trkpt>
      <trkpt lat="43.36725" lon="6.70715">
        <ele>17.89</ele>
        <time>2017-10-07T12:54:37.000Z</time>
      </trkpt>
      <trkpt lat="43.36725" lon="6.70683">
        <ele>18.12</ele>
        <time>2017-10-07T12:54:42.000Z</time>
      </trkpt>
      <trkpt lat="43.36728" lon="6.70648">
        <ele>17.75</ele>
        <time>2017-10-07T12:54:47.000Z</time>
      </trkpt>
      <trkpt lat="43.36756" lon="6.70628">
        <ele>15.02</ele>
        <time>2017-10-07T12:54:52.000Z</time>
      </trkpt>
      <trkpt lat="43.36773" lon="6.70654">
        <ele>14.04</ele>
        <time>2017-10-07T12:54:57.000Z</time>
      </trkpt>
      <trkpt lat="43.36785" lon="6.70631">
        <ele>12.99</ele>
        <time>2017-10-07T12:55:02.000Z</time>
      </trkpt>
      <trkpt lat="43.36794" lon="6.70604">
        <ele>12.67</ele>
        <time>2017-10-07T12:55:07.000Z</time>
      </trkpt>
      <trkpt lat="43.3679" lon="6.70573">
        <ele>13.24</ele>
        <time>2017-10-07T12:55:12.000Z</time>
      </trkpt>
      <trkpt lat="43.36797" lon="6.70545">
        <ele>13.57</ele>
        <time>2017-10-07T12:55:17.000Z</time>
      </trkpt>
      <trkpt lat="43.3679" lon="6.70508">
        <ele>14.93</ele>
        <time>2017-10-07T12:55:22.000Z</time>
      </trkpt>
      <trkpt lat="43.36795" lon="6.70474">
        <ele>15.29</ele>
        <time>2017-10-07T12:55:27.000Z</time>
      </trkpt>
      <trkpt lat="43.36801" lon="6.70442">
        <ele>15.29</ele>
        <time>2017-10-07T12:55:32.000Z</time>
      </trkpt>
      <trkpt lat="43.36812" lon="6.70426">
        <ele>14.47</ele>
        <time>2017-10-07T12:55:37.000Z</time>
      </trkpt>
      <trkpt lat="43.36829" lon="6.70435">
        <ele>13.62</ele>
        <time>2017-10-07T12:55:42.000Z</time>
      </trkpt>
      <trkpt lat="43.36837" lon="6.70441">
        <ele>13.94</ele>
        <time>2017-10-07T12:55:47.000Z</time>
      </trkpt>
      <trkpt lat="43.36845" lon="6.70449">
        <ele>14.67</ele>
        <time>2017-10-07T12:55:52.000Z</time>
      </trkpt>
      <trkpt lat="43.36852" lon="6.70458">
        <ele>15.72</ele>
        <time>2017-10-07T12:55:57.000Z</time>
      </trkpt>
      <trkpt lat="43.36859" lon="6.70467">
        <ele>16.98</ele>
        <time>2017-10-07T12:56:02.000Z</time>
      </trkpt>
      <trkpt lat="43.36867" lon="6.70478">
        <ele>18.36</ele>
        <time>2017-10-07T12:56:07.000Z</time>
      </trkpt>
      <trkpt lat="43.36873" lon="6.70492">
        <ele>19.62</ele>
        <time>2017-10-07T12:56:12.000Z</time>
      </trkpt>
      <trkpt lat="43.36876" lon="6.70504">
        <ele>20.35</ele>
        <time>2017-10-07T12:56:17.000Z</time>
      </trkpt>
      <trkpt lat="43.36878" lon="6.70516">
        <ele>20.78</ele>
        <time>2017-10-07T12:56:24.000Z</time>
      </trkpt>
      <trkpt lat="43.3688" lon="6.7053">
        <ele>21.32</ele>
        <time>2017-10-07T12:56:31.000Z</time>
      </trkpt>
      <trkpt lat="43.36881" lon="6.70543">
        <ele>21.58</ele>
        <time>2017-10-07T12:56:38.000Z</time>
      </trkpt>
      <trkpt lat="43.36889" lon="6.7055">
        <ele>23.32</ele>
        <time>2017-10-07T12:56:47.000Z</time>
      </trkpt>
      <trkpt lat="43.36899" lon="6.7055">
        <ele>25.5</ele>
        <time>2017-10-07T12:56:55.000Z</time>
      </trkpt>
      <trkpt lat="43.36909" lon="6.70549">
        <ele>27.69</ele>
        <time>2017-10-07T12:57:03.000Z</time>
      </trkpt>
      <trkpt lat="43.36918" lon="6.70544">
        <ele>29.68</ele>
        <time>2017-10-07T12:57:11.000Z</time>
      </trkpt>
      <trkpt lat="43.36927" lon="6.7054">
        <ele>31.76</ele>
        <time>2017-10-07T12:57:19.000Z</time>
      </trkpt>
      <trkpt lat="43.36936" lon="6.70535">
        <ele>33.76</ele>
        <time>2017-10-07T12:57:27.000Z</time>
      </trkpt>
      <trkpt lat="43.36946" lon="6.70532">
        <ele>35.97</ele>
        <time>2017-10-07T12:57:36.000Z</time>
      </trkpt>
      <trkpt lat="43.36956" lon="6.70529">
        <ele>38.2</ele>
        <time>2017-10-07T12:57:43.000Z</time>
      </trkpt>
      <trkpt lat="43.36965" lon="6.70524">
        <ele>40.19</ele>
        <time>2017-10-07T12:57:50.000Z</time>
      </trkpt>
      <trkpt lat="43.36974" lon="6.70519">
        <ele>41.96</ele>
        <time>2017-10-07T12:57:58.000Z</time>
      </trkpt>
      <trkpt lat="43.36982" lon="6.70512">
        <ele>43.34</ele>
        <time>2017-10-07T12:58:07.000Z</time>
      </trkpt>
      <trkpt lat="43.3699" lon="6.70505">
        <ele>44.93</ele>
        <time>2017-10-07T12:58:13.000Z</time>
      </trkpt>
      <trkpt lat="43.36997" lon="6.70496">
        <ele>46.13</ele>
        <time>2017-10-07T12:58:18.000Z</time>
      </trkpt>
      <trkpt lat="43.37006" lon="6.70485">
        <ele>47.7</ele>
        <time>2017-10-07T12:58:23.000Z</time>
      </trkpt>
      <trkpt lat="43.37013" lon="6.70474">
        <ele>49.19</ele>
        <time>2017-10-07T12:58:28.000Z</time>
      </trkpt>
      <trkpt lat="43.37021" lon="6.70465">
        <ele>50.93</ele>
        <time>2017-10-07T12:58:34.000Z</time>
      </trkpt>
      <trkpt lat="43.37027" lon="6.70455">
        <ele>52.13</ele>
        <time>2017-10-07T12:58:39.000Z</time>
      </trkpt>
      <trkpt lat="43.37034" lon="6.70443">
        <ele>53.4</ele>
        <time>2017-10-07T12:58:44.000Z</time>
      </trkpt>
      <trkpt lat="43.37042" lon="6.70432">
        <ele>54.85</ele>
        <time>2017-10-07T12:58:49.000Z</time>
      </trkpt>
      <trkpt lat="43.3705" lon="6.70424">
        <ele>56.01</ele>
        <time>2017-10-07T12:58:55.000Z</time>
      </trkpt>
      <trkpt lat="43.37056" lon="6.70413">
        <ele>56.7</ele>
        <time>2017-10-07T12:59:00.000Z</time>
      </trkpt>
      <trkpt lat="43.37063" lon="6.70404">
        <ele>57.26</ele>
        <time>2017-10-07T12:59:05.000Z</time>
      </trkpt>
      <trkpt lat="43.37069" lon="6.70392">
        <ele>57.55</ele>
        <time>2017-10-07T12:59:10.000Z</time>
      </trkpt>
      <trkpt lat="43.37076" lon="6.7038">
        <ele>57.86</ele>
        <time>2017-10-07T12:59:15.000Z</time>
      </trkpt>
      <trkpt lat="43.37086" lon="6.70363">
        <ele>58.51</ele>
        <time>2017-10-07T12:59:20.000Z</time>
      </trkpt>
      <trkpt lat="43.37098" lon="6.70346">
        <ele>59.29</ele>
        <time>2017-10-07T12:59:25.000Z</time>
      </trkpt>
      <trkpt lat="43.37107" lon="6.70322">
        <ele>58.76</ele>
        <time>2017-10-07T12:59:30.000Z</time>
      </trkpt>
      <trkpt lat="43.37115" lon="6.70299">
        <ele>58.38</ele>
        <time>2017-10-07T12:59:35.000Z</time>
      </trkpt>
      <trkpt lat="43.37121" lon="6.7028">
        <ele>58.19</ele>
        <time>2017-10-07T12:59:40.000Z</time>
      </trkpt>
      <trkpt lat="43.37125" lon="6.70267">
        <ele>57.96</ele>
        <time>2017-10-07T12:59:45.000Z</time>
      </trkpt>
      <trkpt lat="43.37128" lon="6.70252">
        <ele>57.41</ele>
        <time>2017-10-07T12:59:50.000Z</time>
      </trkpt>
      <trkpt lat="43.37131" lon="6.70237">
        <ele>56.96</ele>
        <time>2017-10-07T12:59:55.000Z</time>
      </trkpt>
      <trkpt lat="43.37135" lon="6.70223">
        <ele>56.5</ele>
        <time>2017-10-07T13:00:00.000Z</time>
      </trkpt>
      <trkpt lat="43.3714" lon="6.70211">
        <ele>56.34</ele>
        <time>2017-10-07T13:00:05.000Z</time>
      </trkpt>
      <trkpt lat="43.37146" lon="6.70202">
        <ele>56.8</ele>
        <time>2017-10-07T13:00:10.000Z</time>
      </trkpt>
      <trkpt lat="43.37156" lon="6.70195">
        <ele>58.23</ele>
        <time>2017-10-07T13:00:16.000Z</time>
      </trkpt>
      <trkpt lat="43.37167" lon="6.70191">
        <ele>59.89</ele>
        <time>2017-10-07T13:00:21.000Z</time>
      </trkpt>
      <trkpt lat="43.37177" lon="6.70187">
        <ele>61.4</ele>
        <time>2017-10-07T13:00:26.000Z</time>
      </trkpt>
      <trkpt lat="43.37188" lon="6.70184">
        <ele>63.19</ele>
        <time>2017-10-07T13:00:31.000Z</time>
      </trkpt>
      <trkpt lat="43.37198" lon="6.70179">
        <ele>64.61</ele>
        <time>2017-10-07T13:00:36.000Z</time>
      </trkpt>
      <trkpt lat="43.37207" lon="6.70175">
        <ele>65.92</ele>
        <time>2017-10-07T13:00:41.000Z</time>
      </trkpt>
      <trkpt lat="43.37216" lon="6.70171">
        <ele>67.19</ele>
        <time>2017-10-07T13:00:46.000Z</time>
      </trkpt>
      <trkpt lat="43.37225" lon="6.70169">
        <ele>68.66</ele>
        <time>2017-10-07T13:00:51.000Z</time>
      </trkpt>
      <trkpt lat="43.37235" lon="6.70168">
        <ele>70.23</ele>
        <time>2017-10-07T13:00:57.000Z</time>
      </trkpt>
      <trkpt lat="43.37244" lon="6.70166">
        <ele>71.83</ele>
        <time>2017-10-07T13:01:03.000Z</time>
      </trkpt>
      <trkpt lat="43.37254" lon="6.70166">
        <ele>73.64</ele>
        <time>2017-10-07T13:01:09.000Z</time>
      </trkpt>
      <trkpt lat="43.37263" lon="6.70164">
        <ele>75.18</ele>
        <time>2017-10-07T13:01:14.000Z</time>
      </trkpt>
      <trkpt lat="43.37274" lon="6.70161">
        <ele>76.88</ele>
        <time>2017-10-07T13:01:20.000Z</time>
      </trkpt>
      <trkpt lat="43.37283" lon="6.70159">
        <ele>78.35</ele>
        <time>2017-10-07T13:01:25.000Z</time>
      </trkpt>
      <trkpt lat="43.37292" lon="6.70156">
        <ele>79.89</ele>
        <time>2017-10-07T13:01:30.000Z</time>
      </trkpt>
      <trkpt lat="43.37301" lon="6.7015">
        <ele>81.17</ele>
        <time>2017-10-07T13:01:36.000Z</time>
      </trkpt>
      <trkpt lat="43.37307" lon="6.70138">
        <ele>81.34</ele>
        <time>2017-10-07T13:01:44.000Z</time>
      </trkpt>
      <trkpt lat="43.37312" lon="6.70126">
        <ele>81.61</ele>
        <time>2017-10-07T13:01:51.000Z</time>
      </trkpt>
      <trkpt lat="43.37317" lon="6.70115">
        <ele>82</ele>
        <time>2017-10-07T13:01:58.000Z</time>
      </trkpt>
      <trkpt lat="43.37322" lon="6.70104">
        <ele>82.84</ele>
        <time>2017-10-07T13:02:06.000Z</time>
      </trkpt>
      <trkpt lat="43.37328" lon="6.70094">
        <ele>83.81</ele>
        <time>2017-10-07T13:02:14.000Z</time>
      </trkpt>
      <trkpt lat="43.37335" lon="6.70084">
        <ele>85.34</ele>
        <time>2017-10-07T13:02:21.000Z</time>
      </trkpt>
      <trkpt lat="43.37341" lon="6.70074">
        <ele>86.81</ele>
        <time>2017-10-07T13:02:28.000Z</time>
      </trkpt>
      <trkpt lat="43.37346" lon="6.70062">
        <ele>87.89</ele>
        <time>2017-10-07T13:02:36.000Z</time>
      </trkpt>
      <trkpt lat="43.37354" lon="6.70054">
        <ele>89.82</ele>
        <time>2017-10-07T13:02:45.000Z</time>
      </trkpt>
      <trkpt lat="43.37358" lon="6.70044">
        <ele>91.13</ele>
        <time>2017-10-07T13:02:53.000Z</time>
      </trkpt>
      <trkpt lat="43.37362" lon="6.70032">
        <ele>92.31</ele>
        <time>2017-10-07T13:03:00.000Z</time>
      </trkpt>
      <trkpt lat="43.37366" lon="6.7002">
        <ele>93.61</ele>
        <time>2017-10-07T13:03:09.000Z</time>
      </trkpt>
      <trkpt lat="43.37374" lon="6.70011">
        <ele>95.99</ele>
        <time>2017-10-07T13:03:22.000Z</time>
      </trkpt>
      <trkpt lat="43.37383" lon="6.70015">
        <ele>98.46</ele>
        <time>2017-10-07T13:03:32.000Z</time>
      </trkpt>
      <trkpt lat="43.3739" lon="6.70026">
        <ele>99.74</ele>
        <time>2017-10-07T13:03:39.000Z</time>
      </trkpt>
      <trkpt lat="43.37397" lon="6.70036">
        <ele>100.87</ele>
        <time>2017-10-07T13:03:46.000Z</time>
      </trkpt>
      <trkpt lat="43.37406" lon="6.70039">
        <ele>102.58</ele>
        <time>2017-10-07T13:03:53.000Z</time>
      </trkpt>
      <trkpt lat="43.37414" lon="6.70045">
        <ele>103.51</ele>
        <time>2017-10-07T13:04:00.000Z</time>
      </trkpt>
      <trkpt lat="43.37422" lon="6.70038">
        <ele>105.13</ele>
        <time>2017-10-07T13:04:08.000Z</time>
      </trkpt>
      <trkpt lat="43.3743" lon="6.70029">
        <ele>106.68</ele>
        <time>2017-10-07T13:04:56.000Z</time>
      </trkpt>
      <trkpt lat="43.37438" lon="6.70021">
        <ele>108.14</ele>
        <time>2017-10-07T13:05:01.000Z</time>
      </trkpt>
      <trkpt lat="43.37445" lon="6.70011">
        <ele>109.48</ele>
        <time>2017-10-07T13:05:06.000Z</time>
      </trkpt>
      <trkpt lat="43.37453" lon="6.7">
        <ele>110.72</ele>
        <time>2017-10-07T13:05:11.000Z</time>
      </trkpt>
      <trkpt lat="43.37462" lon="6.69991">
        <ele>111.73</ele>
        <time>2017-10-07T13:05:16.000Z</time>
      </trkpt>
      <trkpt lat="43.3747" lon="6.69981">
        <ele>112.61</ele>
        <time>2017-10-07T13:05:21.000Z</time>
      </trkpt>
      <trkpt lat="43.37477" lon="6.69972">
        <ele>113.26</ele>
        <time>2017-10-07T13:05:26.000Z</time>
      </trkpt>
      <trkpt lat="43.37484" lon="6.69962">
        <ele>113.78</ele>
        <time>2017-10-07T13:05:31.000Z</time>
      </trkpt>
      <trkpt lat="43.37492" lon="6.69955">
        <ele>114.22</ele>
        <time>2017-10-07T13:05:36.000Z</time>
      </trkpt>
      <trkpt lat="43.37501" lon="6.69947">
        <ele>114.9</ele>
        <time>2017-10-07T13:05:42.000Z</time>
      </trkpt>
      <trkpt lat="43.37511" lon="6.69947">
        <ele>115.98</ele>
        <time>2017-10-07T13:05:47.000Z</time>
      </trkpt>
      <trkpt lat="43.37518" lon="6.69956">
        <ele>116.73</ele>
        <time>2017-10-07T13:05:53.000Z</time>
      </trkpt>
      <trkpt lat="43.37522" lon="6.6997">
        <ele>116.83</ele>
        <time>2017-10-07T13:05:58.000Z</time>
      </trkpt>
      <trkpt lat="43.37527" lon="6.69982">
        <ele>116.68</ele>
        <time>2017-10-07T13:06:03.000Z</time>
      </trkpt>
      <trkpt lat="43.37534" lon="6.69991">
        <ele>116.77</ele>
        <time>2017-10-07T13:06:09.000Z</time>
      </trkpt>
      <trkpt lat="43.37542" lon="6.69999">
        <ele>116.92</ele>
        <time>2017-10-07T13:06:14.000Z</time>
      </trkpt>
      <trkpt lat="43.37551" lon="6.70002">
        <ele>117.3</ele>
        <time>2017-10-07T13:06:20.000Z</time>
      </trkpt>
      <trkpt lat="43.37561" lon="6.70003">
        <ele>117.9</ele>
        <time>2017-10-07T13:06:27.000Z</time>
      </trkpt>
      <trkpt lat="43.37571" lon="6.70002">
        <ele>118.49</ele>
        <time>2017-10-07T13:06:33.000Z</time>
      </trkpt>
      <trkpt lat="43.37583" lon="6.70002">
        <ele>118.7</ele>
        <time>2017-10-07T13:06:38.000Z</time>
      </trkpt>
      <trkpt lat="43.37599" lon="6.70004">
        <ele>117.95</ele>
        <time>2017-10-07T13:06:43.000Z</time>
      </trkpt>
      <trkpt lat="43.3761" lon="6.69996">
        <ele>118.41</ele>
        <time>2017-10-07T13:06:48.000Z</time>
      </trkpt>
      <trkpt lat="43.37637" lon="6.69983">
        <ele>118.45</ele>
        <time>2017-10-07T13:06:53.000Z</time>
      </trkpt>
      <trkpt lat="43.37659" lon="6.69979">
        <ele>118.03</ele>
        <time>2017-10-07T13:06:58.000Z</time>
      </trkpt>
      <trkpt lat="43.37685" lon="6.69965">
        <ele>121.54</ele>
        <time>2017-10-07T13:07:03.000Z</time>
      </trkpt>
      <trkpt lat="43.37712" lon="6.69941">
        <ele>127.74</ele>
        <time>2017-10-07T13:07:08.000Z</time>
      </trkpt>
      <trkpt lat="43.37724" lon="6.69951">
        <ele>125.68</ele>
        <time>2017-10-07T13:07:13.000Z</time>
      </trkpt>
      <trkpt lat="43.37725" lon="6.69965">
        <ele>122.39</ele>
        <time>2017-10-07T13:07:18.000Z</time>
      </trkpt>
      <trkpt lat="43.37734" lon="6.69972">
        <ele>121.4</ele>
        <time>2017-10-07T13:07:25.000Z</time>
      </trkpt>
      <trkpt lat="43.37741" lon="6.6998">
        <ele>120.41</ele>
        <time>2017-10-07T13:07:32.000Z</time>
      </trkpt>
      <trkpt lat="43.37749" lon="6.69988">
        <ele>119.42</ele>
        <time>2017-10-07T13:07:43.000Z</time>
      </trkpt>
      <trkpt lat="43.37758" lon="6.69995">
        <ele>119.56</ele>
        <time>2017-10-07T13:07:52.000Z</time>
      </trkpt>
      <trkpt lat="43.37767" lon="6.70003">
        <ele>119.73</ele>
        <time>2017-10-07T13:07:57.000Z</time>
      </trkpt>
      <trkpt lat="43.37776" lon="6.70011">
        <ele>119.9</ele>
        <time>2017-10-07T13:08:03.000Z</time>
      </trkpt>
      <trkpt lat="43.37785" lon="6.70015">
        <ele>121.36</ele>
        <time>2017-10-07T13:08:08.000Z</time>
      </trkpt>
      <trkpt lat="43.37793" lon="6.70022">
        <ele>122.03</ele>
        <time>2017-10-07T13:08:14.000Z</time>
      </trkpt>
      <trkpt lat="43.37802" lon="6.70028">
        <ele>122.81</ele>
        <time>2017-10-07T13:08:21.000Z</time>
      </trkpt>
      <trkpt lat="43.37812" lon="6.7003">
        <ele>124.74</ele>
        <time>2017-10-07T13:08:27.000Z</time>
      </trkpt>
      <trkpt lat="43.37822" lon="6.70034">
        <ele>125.54</ele>
        <time>2017-10-07T13:08:32.000Z</time>
      </trkpt>
      <trkpt lat="43.37832" lon="6.70034">
        <ele>126.99</ele>
        <time>2017-10-07T13:08:37.000Z</time>
      </trkpt>
      <trkpt lat="43.37841" lon="6.70039">
        <ele>126.6</ele>
        <time>2017-10-07T13:08:43.000Z</time>
      </trkpt>
      <trkpt lat="43.3785" lon="6.70043">
        <ele>125.88</ele>
        <time>2017-10-07T13:08:50.000Z</time>
      </trkpt>
      <trkpt lat="43.37859" lon="6.70048">
        <ele>125.16</ele>
        <time>2017-10-07T13:08:55.000Z</time>
      </trkpt>
      <trkpt lat="43.37867" lon="6.70056">
        <ele>124.1</ele>
        <time>2017-10-07T13:09:01.000Z</time>
      </trkpt>
      <trkpt lat="43.37876" lon="6.70066">
        <ele>123.34</ele>
        <time>2017-10-07T13:09:06.000Z</time>
      </trkpt>
      <trkpt lat="43.37891" lon="6.70081">
        <ele>123.2</ele>
        <time>2017-10-07T13:09:11.000Z</time>
      </trkpt>
      <trkpt lat="43.37897" lon="6.70107">
        <ele>122.65</ele>
        <time>2017-10-07T13:09:16.000Z</time>
      </trkpt>
      <trkpt lat="43.37909" lon="6.70143">
        <ele>122.76</ele>
        <time>2017-10-07T13:09:21.000Z</time>
      </trkpt>
      <trkpt lat="43.37919" lon="6.70185">
        <ele>125.44</ele>
        <time>2017-10-07T13:09:26.000Z</time>
      </trkpt>
      <trkpt lat="43.37924" lon="6.70195">
        <ele>127.22</ele>
        <time>2017-10-07T13:09:32.000Z</time>
      </trkpt>
      <trkpt lat="43.37932" lon="6.70204">
        <ele>129.29</ele>
        <time>2017-10-07T13:09:37.000Z</time>
      </trkpt>
      <trkpt lat="43.3794" lon="6.7021">
        <ele>131.06</ele>
        <time>2017-10-07T13:09:43.000Z</time>
      </trkpt>
      <trkpt lat="43.37947" lon="6.70219">
        <ele>133.1</ele>
        <time>2017-10-07T13:09:49.000Z</time>
      </trkpt>
      <trkpt lat="43.37953" lon="6.70228">
        <ele>135.06</ele>
        <time>2017-10-07T13:10:01.000Z</time>
      </trkpt>
      <trkpt lat="43.37953" lon="6.70241">
        <ele>136.35</ele>
        <time>2017-10-07T13:10:17.000Z</time>
      </trkpt>
      <trkpt lat="43.37952" lon="6.70254">
        <ele>137.24</ele>
        <time>2017-10-07T13:10:25.000Z</time>
      </trkpt>
      <trkpt lat="43.37952" lon="6.70267">
        <ele>137.66</ele>
        <time>2017-10-07T13:10:34.000Z</time>
      </trkpt>
      <trkpt lat="43.37954" lon="6.7028">
        <ele>138.29</ele>
        <time>2017-10-07T13:10:44.000Z</time>
      </trkpt>
      <trkpt lat="43.37958" lon="6.70292">
        <ele>139.2</ele>
        <time>2017-10-07T13:10:50.000Z</time>
      </trkpt>
      <trkpt lat="43.37968" lon="6.70299">
        <ele>140.7</ele>
        <time>2017-10-07T13:10:56.000Z</time>
      </trkpt>
      <trkpt lat="43.37978" lon="6.70302">
        <ele>142.22</ele>
        <time>2017-10-07T13:11:01.000Z</time>
      </trkpt>
      <trkpt lat="43.37993" lon="6.70301">
        <ele>143.98</ele>
        <time>2017-10-07T13:11:06.000Z</time>
      </trkpt>
      <trkpt lat="43.38012" lon="6.703">
        <ele>145.52</ele>
        <time>2017-10-07T13:11:11.000Z</time>
      </trkpt>
      <trkpt lat="43.38031" lon="6.70298">
        <ele>146.17</ele>
        <time>2017-10-07T13:11:16.000Z</time>
      </trkpt>
      <trkpt lat="43.38047" lon="6.70299">
        <ele>146.24</ele>
        <time>2017-10-07T13:11:21.000Z</time>
      </trkpt>
      <trkpt lat="43.38063" lon="6.70303">
        <ele>145.91</ele>
        <time>2017-10-07T13:11:26.000Z</time>
      </trkpt>
      <trkpt lat="43.38088" lon="6.70307">
        <ele>144.72</ele>
        <time>2017-10-07T13:11:31.000Z</time>
      </trkpt>
      <trkpt lat="43.38111" lon="6.70315">
        <ele>143.03</ele>
        <time>2017-10-07T13:11:36.000Z</time>
      </trkpt>
      <trkpt lat="43.38138" lon="6.70329">
        <ele>140.78</ele>
        <time>2017-10-07T13:11:41.000Z</time>
      </trkpt>
      <trkpt lat="43.38164" lon="6.70347">
        <ele>138.9</ele>
        <time>2017-10-07T13:11:46.000Z</time>
      </trkpt>
      <trkpt lat="43.38185" lon="6.70364">
        <ele>137.54</ele>
        <time>2017-10-07T13:11:51.000Z</time>
      </trkpt>
      <trkpt lat="43.38214" lon="6.70379">
        <ele>134.57</ele>
        <time>2017-10-07T13:11:56.000Z</time>
      </trkpt>
      <trkpt lat="43.38246" lon="6.70409">
        <ele>131.27</ele>
        <time>2017-10-07T13:12:01.000Z</time>
      </trkpt>
      <trkpt lat="43.38286" lon="6.70416">
        <ele>126.92</ele>
        <time>2017-10-07T13:12:06.000Z</time>
      </trkpt>
      <trkpt lat="43.38296" lon="6.70442">
        <ele>127.55</ele>
        <time>2017-10-07T13:12:11.000Z</time>
      </trkpt>
      <trkpt lat="43.3831" lon="6.70463">
        <ele>127.53</ele>
        <time>2017-10-07T13:12:16.000Z</time>
      </trkpt>
      <trkpt lat="43.38333" lon="6.70479">
        <ele>126.39</ele>
        <time>2017-10-07T13:12:21.000Z</time>
      </trkpt>
      <trkpt lat="43.38356" lon="6.70507">
        <ele>124.66</ele>
        <time>2017-10-07T13:12:26.000Z</time>
      </trkpt>
      <trkpt lat="43.38368" lon="6.70524">
        <ele>122.72</ele>
        <time>2017-10-07T13:12:31.000Z</time>
      </trkpt>
      <trkpt lat="43.38396" lon="6.70522">
        <ele>117.69</ele>
        <time>2017-10-07T13:12:36.000Z</time>
      </trkpt>
      <trkpt lat="43.38414" lon="6.70545">
        <ele>113.43</ele>
        <time>2017-10-07T13:12:41.000Z</time>
      </trkpt>
      <trkpt lat="43.38431" lon="6.70571">
        <ele>109.41</ele>
        <time>2017-10-07T13:12:46.000Z</time>
      </trkpt>
      <trkpt lat="43.38464" lon="6.70588">
        <ele>104.07</ele>
        <time>2017-10-07T13:12:51.000Z</time>
      </trkpt>
      <trkpt lat="43.38493" lon="6.70591">
        <ele>100.25</ele>
        <time>2017-10-07T13:12:56.000Z</time>
      </trkpt>
      <trkpt lat="43.38512" lon="6.70622">
        <ele>100.04</ele>
        <time>2017-10-07T13:13:01.000Z</time>
      </trkpt>
      <trkpt lat="43.3853" lon="6.70657">
        <ele>101.4</ele>
        <time>2017-10-07T13:13:06.000Z</time>
      </trkpt>
      <trkpt lat="43.38549" lon="6.70689">
        <ele>103.38</ele>
        <time>2017-10-07T13:13:11.000Z</time>
      </trkpt>
      <trkpt lat="43.38555" lon="6.70699">
        <ele>104.15</ele>
        <time>2017-10-07T13:13:17.000Z</time>
      </trkpt>
      <trkpt lat="43.38561" lon="6.70708">
        <ele>104.93</ele>
        <time>2017-10-07T13:13:25.000Z</time>
      </trkpt>
      <trkpt lat="43.38569" lon="6.70717">
        <ele>105.64</ele>
        <time>2017-10-07T13:13:32.000Z</time>
      </trkpt>
      <trkpt lat="43.38578" lon="6.70724">
        <ele>106.22</ele>
        <time>2017-10-07T13:13:39.000Z</time>
      </trkpt>
      <trkpt lat="43.38587" lon="6.70728">
        <ele>106.52</ele>
        <time>2017-10-07T13:13:45.000Z</time>
      </trkpt>
      <trkpt lat="43.38596" lon="6.70731">
        <ele>106.63</ele>
        <time>2017-10-07T13:13:51.000Z</time>
      </trkpt>
      <trkpt lat="43.38605" lon="6.70735">
        <ele>106.66</ele>
        <time>2017-10-07T13:13:56.000Z</time>
      </trkpt>
      <trkpt lat="43.38615" lon="6.70735">
        <ele>106.21</ele>
        <time>2017-10-07T13:14:02.000Z</time>
      </trkpt>
      <trkpt lat="43.38633" lon="6.70741">
        <ele>105.76</ele>
        <time>2017-10-07T13:14:07.000Z</time>
      </trkpt>
      <trkpt lat="43.38649" lon="6.70741">
        <ele>104.87</ele>
        <time>2017-10-07T13:14:12.000Z</time>
      </trkpt>
      <trkpt lat="43.38664" lon="6.70734">
        <ele>103.66</ele>
        <time>2017-10-07T13:14:17.000Z</time>
      </trkpt>
      <trkpt lat="43.38687" lon="6.70732">
        <ele>103.35</ele>
        <time>2017-10-07T13:14:22.000Z</time>
      </trkpt>
      <trkpt lat="43.38694" lon="6.70725">
        <ele>102.49</ele>
        <time>2017-10-07T13:14:30.000Z</time>
      </trkpt>
      <trkpt lat="43.38704" lon="6.70724">
        <ele>102.48</ele>
        <time>2017-10-07T13:14:36.000Z</time>
      </trkpt>
      <trkpt lat="43.38713" lon="6.70729">
        <ele>103.18</ele>
        <time>2017-10-07T13:14:41.000Z</time>
      </trkpt>
      <trkpt lat="43.38722" lon="6.70728">
        <ele>103.13</ele>
        <time>2017-10-07T13:14:51.000Z</time>
      </trkpt>
      <trkpt lat="43.38732" lon="6.70725">
        <ele>102.76</ele>
        <time>2017-10-07T13:14:56.000Z</time>
      </trkpt>
      <trkpt lat="43.38742" lon="6.70719">
        <ele>101.81</ele>
        <time>2017-10-07T13:15:01.000Z</time>
      </trkpt>
      <trkpt lat="43.38759" lon="6.70706">
        <ele>99.39</ele>
        <time>2017-10-07T13:15:06.000Z</time>
      </trkpt>
      <trkpt lat="43.38787" lon="6.70693">
        <ele>97.27</ele>
        <time>2017-10-07T13:15:11.000Z</time>
      </trkpt>
      <trkpt lat="43.38817" lon="6.70676">
        <ele>95.62</ele>
        <time>2017-10-07T13:15:16.000Z</time>
      </trkpt>
      <trkpt lat="43.38845" lon="6.70663">
        <ele>94.88</ele>
        <time>2017-10-07T13:15:21.000Z</time>
      </trkpt>
      <trkpt lat="43.38873" lon="6.7064">
        <ele>94.88</ele>
        <time>2017-10-07T13:15:26.000Z</time>
      </trkpt>
      <trkpt lat="43.38882" lon="6.70623">
        <ele>95.21</ele>
        <time>2017-10-07T13:15:31.000Z</time>
      </trkpt>
      <trkpt lat="43.38888" lon="6.70611">
        <ele>95.5</ele>
        <time>2017-10-07T13:15:40.000Z</time>
      </trkpt>
      <trkpt lat="43.38898" lon="6.70608">
        <ele>96.15</ele>
        <time>2017-10-07T13:15:46.000Z</time>
      </trkpt>
      <trkpt lat="43.38908" lon="6.70607">
        <ele>96.45</ele>
        <time>2017-10-07T13:15:52.000Z</time>
      </trkpt>
      <trkpt lat="43.38915" lon="6.70598">
        <ele>96.38</ele>
        <time>2017-10-07T13:15:59.000Z</time>
      </trkpt>
      <trkpt lat="43.38925" lon="6.70587">
        <ele>95.66</ele>
        <time>2017-10-07T13:17:11.000Z</time>
      </trkpt>
      <trkpt lat="43.38946" lon="6.7057">
        <ele>92.23</ele>
        <time>2017-10-07T13:17:16.000Z</time>
      </trkpt>
      <trkpt lat="43.38955" lon="6.70571">
        <ele>90.64</ele>
        <time>2017-10-07T13:17:21.000Z</time>
      </trkpt>
      <trkpt lat="43.38963" lon="6.70583">
        <ele>89.6</ele>
        <time>2017-10-07T13:17:26.000Z</time>
      </trkpt>
      <trkpt lat="43.38973" lon="6.70571">
        <ele>86.86</ele>
        <time>2017-10-07T13:17:31.000Z</time>
      </trkpt>
      <trkpt lat="43.3899" lon="6.70552">
        <ele>82.13</ele>
        <time>2017-10-07T13:17:36.000Z</time>
      </trkpt>
      <trkpt lat="43.39003" lon="6.70543">
        <ele>78.64</ele>
        <time>2017-10-07T13:17:41.000Z</time>
      </trkpt>
      <trkpt lat="43.39017" lon="6.70543">
        <ele>74.78</ele>
        <time>2017-10-07T13:17:46.000Z</time>
      </trkpt>
      <trkpt lat="43.39024" lon="6.70532">
        <ele>72.05</ele>
        <time>2017-10-07T13:17:51.000Z</time>
      </trkpt>
      <trkpt lat="43.39035" lon="6.70526">
        <ele>68.18</ele>
        <time>2017-10-07T13:17:56.000Z</time>
      </trkpt>
      <trkpt lat="43.39048" lon="6.70534">
        <ele>64.56</ele>
        <time>2017-10-07T13:18:01.000Z</time>
      </trkpt>
      <trkpt lat="43.3905" lon="6.70556">
        <ele>65.11</ele>
        <time>2017-10-07T13:18:06.000Z</time>
      </trkpt>
      <trkpt lat="43.39064" lon="6.70592">
        <ele>62.83</ele>
        <time>2017-10-07T13:18:11.000Z</time>
      </trkpt>
      <trkpt lat="43.39088" lon="6.7061">
        <ele>58.34</ele>
        <time>2017-10-07T13:18:16.000Z</time>
      </trkpt>
      <trkpt lat="43.39112" lon="6.70617">
        <ele>54.91</ele>
        <time>2017-10-07T13:18:21.000Z</time>
      </trkpt>
      <trkpt lat="43.39119" lon="6.70653">
        <ele>55.71</ele>
        <time>2017-10-07T13:18:26.000Z</time>
      </trkpt>
      <trkpt lat="43.39112" lon="6.70679">
        <ele>58.05</ele>
        <time>2017-10-07T13:18:31.000Z</time>
      </trkpt>
      <trkpt lat="43.39123" lon="6.70686">
        <ele>57.23</ele>
        <time>2017-10-07T13:18:36.000Z</time>
      </trkpt>
      <trkpt lat="43.39114" lon="6.7068">
        <ele>57.91</ele>
        <time>2017-10-07T13:19:09.000Z</time>
      </trkpt>
      <trkpt lat="43.39105" lon="6.7068">
        <ele>59.16</ele>
        <time>2017-10-07T13:19:26.000Z</time>
      </trkpt>
      <trkpt lat="43.39114" lon="6.70682">
        <ele>58</ele>
        <time>2017-10-07T13:23:17.000Z</time>
      </trkpt>
      <trkpt lat="43.39123" lon="6.70681">
        <ele>56.86</ele>
        <time>2017-10-07T13:24:04.000Z</time>
      </trkpt>
      <trkpt lat="43.39139" lon="6.70672">
        <ele>54.38</ele>
        <time>2017-10-07T13:24:09.000Z</time>
      </trkpt>
      <trkpt lat="43.39161" lon="6.70675">
        <ele>52.31</ele>
        <time>2017-10-07T13:24:14.000Z</time>
      </trkpt>
      <trkpt lat="43.39183" lon="6.70679">
        <ele>50.24</ele>
        <time>2017-10-07T13:24:19.000Z</time>
      </trkpt>
      <trkpt lat="43.39205" lon="6.70688">
        <ele>49.06</ele>
        <time>2017-10-07T13:24:24.000Z</time>
      </trkpt>
      <trkpt lat="43.39214" lon="6.70691">
        <ele>48.55</ele>
        <time>2017-10-07T13:24:33.000Z</time>
      </trkpt>
      <trkpt lat="43.39224" lon="6.70695">
        <ele>48.24</ele>
        <time>2017-10-07T13:24:39.000Z</time>
      </trkpt>
      <trkpt lat="43.39234" lon="6.707">
        <ele>48.06</ele>
        <time>2017-10-07T13:24:46.000Z</time>
      </trkpt>
      <trkpt lat="43.39244" lon="6.70704">
        <ele>47.71</ele>
        <time>2017-10-07T13:24:51.000Z</time>
      </trkpt>
      <trkpt lat="43.39254" lon="6.70702">
        <ele>46.58</ele>
        <time>2017-10-07T13:24:59.000Z</time>
      </trkpt>
      <trkpt lat="43.39264" lon="6.70704">
        <ele>46.06</ele>
        <time>2017-10-07T13:25:05.000Z</time>
      </trkpt>
      <trkpt lat="43.39262" lon="6.70688">
        <ele>44.6</ele>
        <time>2017-10-07T13:25:10.000Z</time>
      </trkpt>
      <trkpt lat="43.39262" lon="6.70666">
        <ele>43.44</ele>
        <time>2017-10-07T13:25:15.000Z</time>
      </trkpt>
      <trkpt lat="43.39273" lon="6.70667">
        <ele>43.02</ele>
        <time>2017-10-07T13:25:20.000Z</time>
      </trkpt>
      <trkpt lat="43.39282" lon="6.70667">
        <ele>42.71</ele>
        <time>2017-10-07T13:25:43.000Z</time>
      </trkpt>
      <trkpt lat="43.39293" lon="6.70665">
        <ele>42.5</ele>
        <time>2017-10-07T13:25:55.000Z</time>
      </trkpt>
      <trkpt lat="43.39301" lon="6.70661">
        <ele>42.56</ele>
        <time>2017-10-07T13:26:06.000Z</time>
      </trkpt>
      <trkpt lat="43.3931" lon="6.7066">
        <ele>42.65</ele>
        <time>2017-10-07T13:26:21.000Z</time>
      </trkpt>
      <trkpt lat="43.3932" lon="6.70661">
        <ele>42.8</ele>
        <time>2017-10-07T13:26:42.000Z</time>
      </trkpt>
      <trkpt lat="43.39329" lon="6.70661">
        <ele>43.15</ele>
        <time>2017-10-07T13:26:52.000Z</time>
      </trkpt>
      <trkpt lat="43.39339" lon="6.70658">
        <ele>43.97</ele>
        <time>2017-10-07T13:26:57.000Z</time>
      </trkpt>
      <trkpt lat="43.39348" lon="6.70657">
        <ele>44.93</ele>
        <time>2017-10-07T13:27:03.000Z</time>
      </trkpt>
      <trkpt lat="43.39357" lon="6.70659">
        <ele>45.76</ele>
        <time>2017-10-07T13:27:09.000Z</time>
      </trkpt>
      <trkpt lat="43.39366" lon="6.70664">
        <ele>46.3</ele>
        <time>2017-10-07T13:27:14.000Z</time>
      </trkpt>
      <trkpt lat="43.39378" lon="6.7067">
        <ele>47.17</ele>
        <time>2017-10-07T13:27:19.000Z</time>
      </trkpt>
      <trkpt lat="43.39387" lon="6.70677">
        <ele>47.18</ele>
        <time>2017-10-07T13:27:24.000Z</time>
      </trkpt>
      <trkpt lat="43.39396" lon="6.70677">
        <ele>48.24</ele>
        <time>2017-10-07T13:27:29.000Z</time>
      </trkpt>
      <trkpt lat="43.39404" lon="6.70683">
        <ele>47.62</ele>
        <time>2017-10-07T13:27:35.000Z</time>
      </trkpt>
      <trkpt lat="43.39413" lon="6.70685">
        <ele>47.96</ele>
        <time>2017-10-07T13:27:40.000Z</time>
      </trkpt>
      <trkpt lat="43.39423" lon="6.70685">
        <ele>48.43</ele>
        <time>2017-10-07T13:27:45.000Z</time>
      </trkpt>
      <trkpt lat="43.39433" lon="6.70684">
        <ele>49.3</ele>
        <time>2017-10-07T13:27:50.000Z</time>
      </trkpt>
      <trkpt lat="43.39443" lon="6.7069">
        <ele>48.47</ele>
        <time>2017-10-07T13:27:55.000Z</time>
      </trkpt>
      <trkpt lat="43.39454" lon="6.70692">
        <ele>48.56</ele>
        <time>2017-10-07T13:28:00.000Z</time>
      </trkpt>
      <trkpt lat="43.3946" lon="6.70682">
        <ele>51.06</ele>
        <time>2017-10-07T13:28:05.000Z</time>
      </trkpt>
      <trkpt lat="43.39468" lon="6.70673">
        <ele>53.31</ele>
        <time>2017-10-07T13:28:12.000Z</time>
      </trkpt>
      <trkpt lat="43.39482" lon="6.7067">
        <ele>54.29</ele>
        <time>2017-10-07T13:28:17.000Z</time>
      </trkpt>
      <trkpt lat="43.39493" lon="6.70668">
        <ele>54.73</ele>
        <time>2017-10-07T13:28:22.000Z</time>
      </trkpt>
      <trkpt lat="43.39495" lon="6.70653">
        <ele>57.26</ele>
        <time>2017-10-07T13:28:28.000Z</time>
      </trkpt>
      <trkpt lat="43.39497" lon="6.7064">
        <ele>59.43</ele>
        <time>2017-10-07T13:28:33.000Z</time>
      </trkpt>
      <trkpt lat="43.39506" lon="6.70631">
        <ele>60.57</ele>
        <time>2017-10-07T13:28:38.000Z</time>
      </trkpt>
      <trkpt lat="43.39513" lon="6.70617">
        <ele>62.03</ele>
        <time>2017-10-07T13:28:43.000Z</time>
      </trkpt>
      <trkpt lat="43.39522" lon="6.70606">
        <ele>62.36</ele>
        <time>2017-10-07T13:28:48.000Z</time>
      </trkpt>
      <trkpt lat="43.39535" lon="6.70607">
        <ele>60.49</ele>
        <time>2017-10-07T13:28:53.000Z</time>
      </trkpt>
      <trkpt lat="43.39539" lon="6.70621">
        <ele>58.49</ele>
        <time>2017-10-07T13:28:58.000Z</time>
      </trkpt>
      <trkpt lat="43.39549" lon="6.70636">
        <ele>55.76</ele>
        <time>2017-10-07T13:29:03.000Z</time>
      </trkpt>
      <trkpt lat="43.39568" lon="6.70615">
        <ele>55.77</ele>
        <time>2017-10-07T13:29:08.000Z</time>
      </trkpt>
      <trkpt lat="43.39577" lon="6.70602">
        <ele>56.02</ele>
        <time>2017-10-07T13:29:13.000Z</time>
      </trkpt>
      <trkpt lat="43.39586" lon="6.70607">
        <ele>55.55</ele>
        <time>2017-10-07T13:29:20.000Z</time>
      </trkpt>
      <trkpt lat="43.39592" lon="6.7062">
        <ele>55.08</ele>
        <time>2017-10-07T13:29:25.000Z</time>
      </trkpt>
      <trkpt lat="43.39596" lon="6.70636">
        <ele>54.61</ele>
        <time>2017-10-07T13:29:30.000Z</time>
      </trkpt>
      <trkpt lat="43.39599" lon="6.70649">
        <ele>54.18</ele>
        <time>2017-10-07T13:29:35.000Z</time>
      </trkpt>
      <trkpt lat="43.39599" lon="6.70662">
        <ele>53.5</ele>
        <time>2017-10-07T13:29:40.000Z</time>
      </trkpt>
      <trkpt lat="43.39603" lon="6.70674">
        <ele>53.25</ele>
        <time>2017-10-07T13:29:45.000Z</time>
      </trkpt>
      <trkpt lat="43.39612" lon="6.70684">
        <ele>53.64</ele>
        <time>2017-10-07T13:29:50.000Z</time>
      </trkpt>
      <trkpt lat="43.39622" lon="6.70683">
        <ele>55.24</ele>
        <time>2017-10-07T13:29:55.000Z</time>
      </trkpt>
      <trkpt lat="43.39632" lon="6.70685">
        <ele>56.7</ele>
        <time>2017-10-07T13:30:00.000Z</time>
      </trkpt>
      <trkpt lat="43.39642" lon="6.70681">
        <ele>58.45</ele>
        <time>2017-10-07T13:30:06.000Z</time>
      </trkpt>
      <trkpt lat="43.39652" lon="6.70678">
        <ele>59.99</ele>
        <time>2017-10-07T13:30:12.000Z</time>
      </trkpt>
      <trkpt lat="43.39661" lon="6.70672">
        <ele>61.34</ele>
        <time>2017-10-07T13:30:18.000Z</time>
      </trkpt>
      <trkpt lat="43.39671" lon="6.70661">
        <ele>62.5</ele>
        <time>2017-10-07T13:30:23.000Z</time>
      </trkpt>
      <trkpt lat="43.3968" lon="6.70655">
        <ele>63.16</ele>
        <time>2017-10-07T13:30:45.000Z</time>
      </trkpt>
      <trkpt lat="43.39695" lon="6.70652">
        <ele>63.67</ele>
        <time>2017-10-07T13:30:50.000Z</time>
      </trkpt>
      <trkpt lat="43.39713" lon="6.70655">
        <ele>63.65</ele>
        <time>2017-10-07T13:30:55.000Z</time>
      </trkpt>
      <trkpt lat="43.3973" lon="6.70667">
        <ele>62.76</ele>
        <time>2017-10-07T13:31:00.000Z</time>
      </trkpt>
      <trkpt lat="43.39747" lon="6.70641">
        <ele>63.39</ele>
        <time>2017-10-07T13:31:05.000Z</time>
      </trkpt>
      <trkpt lat="43.3976" lon="6.70615">
        <ele>63.88</ele>
        <time>2017-10-07T13:31:10.000Z</time>
      </trkpt>
      <trkpt lat="43.3977" lon="6.70597">
        <ele>64.08</ele>
        <time>2017-10-07T13:31:15.000Z</time>
      </trkpt>
      <trkpt lat="43.3978" lon="6.70576">
        <ele>64.57</ele>
        <time>2017-10-07T13:31:20.000Z</time>
      </trkpt>
      <trkpt lat="43.39794" lon="6.70559">
        <ele>64.39</ele>
        <time>2017-10-07T13:31:25.000Z</time>
      </trkpt>
      <trkpt lat="43.39804" lon="6.70537">
        <ele>65.15</ele>
        <time>2017-10-07T13:31:30.000Z</time>
      </trkpt>
      <trkpt lat="43.39815" lon="6.70519">
        <ele>65.91</ele>
        <time>2017-10-07T13:31:35.000Z</time>
      </trkpt>
      <trkpt lat="43.39827" lon="6.70492">
        <ele>67.75</ele>
        <time>2017-10-07T13:31:40.000Z</time>
      </trkpt>
      <trkpt lat="43.39836" lon="6.70486">
        <ele>68.26</ele>
        <time>2017-10-07T13:31:45.000Z</time>
      </trkpt>
      <trkpt lat="43.39839" lon="6.70499">
        <ele>67.16</ele>
        <time>2017-10-07T13:31:57.000Z</time>
      </trkpt>
      <trkpt lat="43.39847" lon="6.70508">
        <ele>66.79</ele>
        <time>2017-10-07T13:32:03.000Z</time>
      </trkpt>
      <trkpt lat="43.39853" lon="6.70525">
        <ele>65.55</ele>
        <time>2017-10-07T13:32:08.000Z</time>
      </trkpt>
      <trkpt lat="43.39865" lon="6.70554">
        <ele>63.91</ele>
        <time>2017-10-07T13:32:13.000Z</time>
      </trkpt>
      <trkpt lat="43.39885" lon="6.7058">
        <ele>62.99</ele>
        <time>2017-10-07T13:32:18.000Z</time>
      </trkpt>
      <trkpt lat="43.39908" lon="6.70592">
        <ele>62.8</ele>
        <time>2017-10-07T13:32:23.000Z</time>
      </trkpt>
      <trkpt lat="43.3992" lon="6.70589">
        <ele>63.26</ele>
        <time>2017-10-07T13:32:28.000Z</time>
      </trkpt>
      <trkpt lat="43.39932" lon="6.70583">
        <ele>63.7</ele>
        <time>2017-10-07T13:32:33.000Z</time>
      </trkpt>
      <trkpt lat="43.39943" lon="6.70571">
        <ele>64.55</ele>
        <time>2017-10-07T13:32:38.000Z</time>
      </trkpt>
      <trkpt lat="43.39956" lon="6.70559">
        <ele>64.95</ele>
        <time>2017-10-07T13:32:43.000Z</time>
      </trkpt>
      <trkpt lat="43.39969" lon="6.70557">
        <ele>64.15</ele>
        <time>2017-10-07T13:32:48.000Z</time>
      </trkpt>
      <trkpt lat="43.3998" lon="6.70546">
        <ele>64.2</ele>
        <time>2017-10-07T13:32:53.000Z</time>
      </trkpt>
      <trkpt lat="43.39985" lon="6.70517">
        <ele>66.54</ele>
        <time>2017-10-07T13:32:58.000Z</time>
      </trkpt>
      <trkpt lat="43.39991" lon="6.70486">
        <ele>69.08</ele>
        <time>2017-10-07T13:33:03.000Z</time>
      </trkpt>
      <trkpt lat="43.40001" lon="6.70461">
        <ele>70.81</ele>
        <time>2017-10-07T13:33:08.000Z</time>
      </trkpt>
      <trkpt lat="43.40006" lon="6.70432">
        <ele>73.52</ele>
        <time>2017-10-07T13:33:13.000Z</time>
      </trkpt>
      <trkpt lat="43.40022" lon="6.70434">
        <ele>71.42</ele>
        <time>2017-10-07T13:33:18.000Z</time>
      </trkpt>
      <trkpt lat="43.40042" lon="6.70434">
        <ele>68.9</ele>
        <time>2017-10-07T13:33:23.000Z</time>
      </trkpt>
      <trkpt lat="43.40051" lon="6.70423">
        <ele>68.82</ele>
        <time>2017-10-07T13:33:28.000Z</time>
      </trkpt>
      <trkpt lat="43.40064" lon="6.70427">
        <ele>66.63</ele>
        <time>2017-10-07T13:33:34.000Z</time>
      </trkpt>
      <trkpt lat="43.40076" lon="6.70448">
        <ele>64.03</ele>
        <time>2017-10-07T13:33:39.000Z</time>
      </trkpt>
      <trkpt lat="43.40081" lon="6.70463">
        <ele>62.97</ele>
        <time>2017-10-07T13:33:44.000Z</time>
      </trkpt>
      <trkpt lat="43.40092" lon="6.70465">
        <ele>62.37</ele>
        <time>2017-10-07T13:33:49.000Z</time>
      </trkpt>
      <trkpt lat="43.40099" lon="6.7048">
        <ele>61.94</ele>
        <time>2017-10-07T13:33:54.000Z</time>
      </trkpt>
      <trkpt lat="43.40103" lon="6.70499">
        <ele>61.36</ele>
        <time>2017-10-07T13:33:59.000Z</time>
      </trkpt>
      <trkpt lat="43.4011" lon="6.70517">
        <ele>60.83</ele>
        <time>2017-10-07T13:34:04.000Z</time>
      </trkpt>
      <trkpt lat="43.40112" lon="6.70538">
        <ele>59.4</ele>
        <time>2017-10-07T13:34:09.000Z</time>
      </trkpt>
      <trkpt lat="43.40125" lon="6.70544">
        <ele>60.3</ele>
        <time>2017-10-07T13:34:14.000Z</time>
      </trkpt>
      <trkpt lat="43.40131" lon="6.70557">
        <ele>59.87</ele>
        <time>2017-10-07T13:34:19.000Z</time>
      </trkpt>
      <trkpt lat="43.40138" lon="6.70568">
        <ele>59.69</ele>
        <time>2017-10-07T13:34:24.000Z</time>
      </trkpt>
      <trkpt lat="43.40147" lon="6.70582">
        <ele>59.44</ele>
        <time>2017-10-07T13:34:29.000Z</time>
      </trkpt>
      <trkpt lat="43.40159" lon="6.70616">
        <ele>56.94</ele>
        <time>2017-10-07T13:34:34.000Z</time>
      </trkpt>
      <trkpt lat="43.40178" lon="6.70646">
        <ele>54.08</ele>
        <time>2017-10-07T13:34:39.000Z</time>
      </trkpt>
      <trkpt lat="43.40185" lon="6.70673">
        <ele>52.22</ele>
        <time>2017-10-07T13:34:44.000Z</time>
      </trkpt>
      <trkpt lat="43.40195" lon="6.70698">
        <ele>51.33</ele>
        <time>2017-10-07T13:34:49.000Z</time>
      </trkpt>
      <trkpt lat="43.40206" lon="6.70716">
        <ele>51.2</ele>
        <time>2017-10-07T13:34:54.000Z</time>
      </trkpt>
      <trkpt lat="43.40203" lon="6.7075">
        <ele>49.77</ele>
        <time>2017-10-07T13:34:59.000Z</time>
      </trkpt>
      <trkpt lat="43.40197" lon="6.70791">
        <ele>47.9</ele>
        <time>2017-10-07T13:35:04.000Z</time>
      </trkpt>
      <trkpt lat="43.4018" lon="6.70828">
        <ele>45.31</ele>
        <time>2017-10-07T13:35:09.000Z</time>
      </trkpt>
      <trkpt lat="43.40161" lon="6.70853">
        <ele>41.97</ele>
        <time>2017-10-07T13:35:14.000Z</time>
      </trkpt>
      <trkpt lat="43.40143" lon="6.70887">
        <ele>36.33</ele>
        <time>2017-10-07T13:35:19.000Z</time>
      </trkpt>
      <trkpt lat="43.40138" lon="6.70921">
        <ele>32.15</ele>
        <time>2017-10-07T13:35:24.000Z</time>
      </trkpt>
      <trkpt lat="43.4013" lon="6.70942">
        <ele>28.8</ele>
        <time>2017-10-07T13:35:29.000Z</time>
      </trkpt>
      <trkpt lat="43.40125" lon="6.70973">
        <ele>24.85</ele>
        <time>2017-10-07T13:35:34.000Z</time>
      </trkpt>
      <trkpt lat="43.40129" lon="6.71">
        <ele>22.28</ele>
        <time>2017-10-07T13:35:39.000Z</time>
      </trkpt>
      <trkpt lat="43.40133" lon="6.71032">
        <ele>18.79</ele>
        <time>2017-10-07T13:35:44.000Z</time>
      </trkpt>
      <trkpt lat="43.40137" lon="6.71056">
        <ele>16.05</ele>
        <time>2017-10-07T13:35:49.000Z</time>
      </trkpt>
      <trkpt lat="43.40135" lon="6.71087">
        <ele>12.84</ele>
        <time>2017-10-07T13:35:54.000Z</time>
      </trkpt>
      <trkpt lat="43.40128" lon="6.71117">
        <ele>10.03</ele>
        <time>2017-10-07T13:35:59.000Z</time>
      </trkpt>
      <trkpt lat="43.40131" lon="6.7116">
        <ele>6.67</ele>
        <time>2017-10-07T13:36:04.000Z</time>
      </trkpt>
      <trkpt lat="43.40136" lon="6.71214">
        <ele>4.62</ele>
        <time>2017-10-07T13:36:09.000Z</time>
      </trkpt>
      <trkpt lat="43.40137" lon="6.71254">
        <ele>3.6</ele>
        <time>2017-10-07T13:36:14.000Z</time>
      </trkpt>
      <trkpt lat="43.40123" lon="6.71267">
        <ele>2.88</ele>
        <time>2017-10-07T13:36:19.000Z</time>
      </trkpt>
      <trkpt lat="43.40109" lon="6.7128">
        <ele>2.1</ele>
        <time>2017-10-07T13:36:24.000Z</time>
      </trkpt>
      <trkpt lat="43.40099" lon="6.71293">
        <ele>1.37</ele>
        <time>2017-10-07T13:36:29.000Z</time>
      </trkpt>
      <trkpt lat="43.4009" lon="6.71305">
        <ele>0.77</ele>
        <time>2017-10-07T13:36:34.000Z</time>
      </trkpt>
      <trkpt lat="43.40077" lon="6.71315">
        <ele>0.5</ele>
        <time>2017-10-07T13:36:39.000Z</time>
      </trkpt>
      <trkpt lat="43.40062" lon="6.71326">
        <ele>0.58</ele>
        <time>2017-10-07T13:36:44.000Z</time>
      </trkpt>
      <trkpt lat="43.4005" lon="6.71338">
        <ele>0.87</ele>
        <time>2017-10-07T13:36:49.000Z</time>
      </trkpt>
      <trkpt lat="43.40039" lon="6.71351">
        <ele>1.17</ele>
        <time>2017-10-07T13:36:54.000Z</time>
      </trkpt>
      <trkpt lat="43.4003" lon="6.71371">
        <ele>1.22</ele>
        <time>2017-10-07T13:36:59.000Z</time>
      </trkpt>
      <trkpt lat="43.40021" lon="6.71392">
        <ele>1.05</ele>
        <time>2017-10-07T13:37:04.000Z</time>
      </trkpt>
      <trkpt lat="43.4001" lon="6.71408">
        <ele>0.89</ele>
        <time>2017-10-07T13:37:09.000Z</time>
      </trkpt>
      <trkpt lat="43.39999" lon="6.71426">
        <ele>0.92</ele>
        <time>2017-10-07T13:37:14.000Z</time>
      </trkpt>
      <trkpt lat="43.3999" lon="6.71445">
        <ele>1.14</ele>
        <time>2017-10-07T13:37:19.000Z</time>
      </trkpt>
      <trkpt lat="43.39979" lon="6.71464">
        <ele>1.64</ele>
        <time>2017-10-07T13:37:24.000Z</time>
      </trkpt>
      <trkpt lat="43.39971" lon="6.71482">
        <ele>2.23</ele>
        <time>2017-10-07T13:37:29.000Z</time>
      </trkpt>
      <trkpt lat="43.39973" lon="6.71503">
        <ele>2.51</ele>
        <time>2017-10-07T13:37:34.000Z</time>
      </trkpt>
      <trkpt lat="43.39976" lon="6.71525">
        <ele>3.09</ele>
        <time>2017-10-07T13:37:39.000Z</time>
      </trkpt>
      <trkpt lat="43.39978" lon="6.71544">
        <ele>3.72</ele>
        <time>2017-10-07T13:37:44.000Z</time>
      </trkpt>
      <trkpt lat="43.3998" lon="6.71563">
        <ele>4.3</ele>
        <time>2017-10-07T13:37:49.000Z</time>
      </trkpt>
      <trkpt lat="43.39983" lon="6.71584">
        <ele>4.66</ele>
        <time>2017-10-07T13:37:54.000Z</time>
      </trkpt>
      <trkpt lat="43.3998" lon="6.716">
        <ele>5.31</ele>
        <time>2017-10-07T13:37:59.000Z</time>
      </trkpt>
      <trkpt lat="43.39975" lon="6.71614">
        <ele>6.24</ele>
        <time>2017-10-07T13:38:04.000Z</time>
      </trkpt>
      <trkpt lat="43.39973" lon="6.71628">
        <ele>6.66</ele>
        <time>2017-10-07T13:38:59.000Z</time>
      </trkpt>
      <trkpt lat="43.39974" lon="6.7164">
        <ele>6.7</ele>
        <time>2017-10-07T13:39:20.000Z</time>
      </trkpt>
      <trkpt lat="43.39978" lon="6.71654">
        <ele>6.33</ele>
        <time>2017-10-07T13:39:56.000Z</time>
      </trkpt>
      <trkpt lat="43.39986" lon="6.7166">
        <ele>5.38</ele>
        <time>2017-10-07T13:40:09.000Z</time>
      </trkpt>
      <trkpt lat="43.39988" lon="6.71673">
        <ele>5.12</ele>
        <time>2017-10-07T13:40:42.000Z</time>
      </trkpt>
      <trkpt lat="43.39983" lon="6.71686">
        <ele>5.57</ele>
        <time>2017-10-07T13:40:47.000Z</time>
      </trkpt>
      <trkpt lat="43.39974" lon="6.71703">
        <ele>6.29</ele>
        <time>2017-10-07T13:40:52.000Z</time>
      </trkpt>
      <trkpt lat="43.39963" lon="6.71725">
        <ele>7.27</ele>
        <time>2017-10-07T13:40:57.000Z</time>
      </trkpt>
      <trkpt lat="43.39957" lon="6.71742">
        <ele>7.6</ele>
        <time>2017-10-07T13:41:02.000Z</time>
      </trkpt>
      <trkpt lat="43.3995" lon="6.71754">
        <ele>8.16</ele>
        <time>2017-10-07T13:41:07.000Z</time>
      </trkpt>
      <trkpt lat="43.39944" lon="6.71763">
        <ele>8.71</ele>
        <time>2017-10-07T13:41:12.000Z</time>
      </trkpt>
      <trkpt lat="43.39935" lon="6.71774">
        <ele>9.43</ele>
        <time>2017-10-07T13:41:17.000Z</time>
      </trkpt>
      <trkpt lat="43.39925" lon="6.71786">
        <ele>10</ele>
        <time>2017-10-07T13:41:22.000Z</time>
      </trkpt>
      <trkpt lat="43.39914" lon="6.71799">
        <ele>10.43</ele>
        <time>2017-10-07T13:41:27.000Z</time>
      </trkpt>
      <trkpt lat="43.39897" lon="6.71815">
        <ele>10.74</ele>
        <time>2017-10-07T13:41:32.000Z</time>
      </trkpt>
      <trkpt lat="43.39879" lon="6.71829">
        <ele>10.83</ele>
        <time>2017-10-07T13:41:37.000Z</time>
      </trkpt>
      <trkpt lat="43.39859" lon="6.71838">
        <ele>11.05</ele>
        <time>2017-10-07T13:41:42.000Z</time>
      </trkpt>
      <trkpt lat="43.39837" lon="6.71847">
        <ele>11.26</ele>
        <time>2017-10-07T13:41:47.000Z</time>
      </trkpt>
      <trkpt lat="43.3981" lon="6.71856">
        <ele>11.47</ele>
        <time>2017-10-07T13:41:52.000Z</time>
      </trkpt>
      <trkpt lat="43.39785" lon="6.71862">
        <ele>11.43</ele>
        <time>2017-10-07T13:41:57.000Z</time>
      </trkpt>
      <trkpt lat="43.3976" lon="6.71867">
        <ele>11.24</ele>
        <time>2017-10-07T13:42:02.000Z</time>
      </trkpt>
      <trkpt lat="43.39735" lon="6.71875">
        <ele>10.81</ele>
        <time>2017-10-07T13:42:07.000Z</time>
      </trkpt>
      <trkpt lat="43.39711" lon="6.71883">
        <ele>10.53</ele>
        <time>2017-10-07T13:42:12.000Z</time>
      </trkpt>
      <trkpt lat="43.39694" lon="6.71898">
        <ele>9.76</ele>
        <time>2017-10-07T13:42:17.000Z</time>
      </trkpt>
      <trkpt lat="43.39692" lon="6.71942">
        <ele>8.74</ele>
        <time>2017-10-07T13:42:22.000Z</time>
      </trkpt>
      <trkpt lat="43.39686" lon="6.71973">
        <ele>8.99</ele>
        <time>2017-10-07T13:42:27.000Z</time>
      </trkpt>
      <trkpt lat="43.39676" lon="6.72013">
        <ele>9.24</ele>
        <time>2017-10-07T13:42:32.000Z</time>
      </trkpt>
      <trkpt lat="43.39667" lon="6.72058">
        <ele>9.95</ele>
        <time>2017-10-07T13:42:37.000Z</time>
      </trkpt>
      <trkpt lat="43.39661" lon="6.72094">
        <ele>9.77</ele>
        <time>2017-10-07T13:42:42.000Z</time>
      </trkpt>
      <trkpt lat="43.39653" lon="6.72128">
        <ele>8.39</ele>
        <time>2017-10-07T13:42:47.000Z</time>
      </trkpt>
      <trkpt lat="43.39647" lon="6.72167">
        <ele>6.46</ele>
        <time>2017-10-07T13:42:52.000Z</time>
      </trkpt>
      <trkpt lat="43.39641" lon="6.72212">
        <ele>4.46</ele>
        <time>2017-10-07T13:42:57.000Z</time>
      </trkpt>
      <trkpt lat="43.39636" lon="6.72258">
        <ele>3.02</ele>
        <time>2017-10-07T13:43:02.000Z</time>
      </trkpt>
      <trkpt lat="43.39629" lon="6.72299">
        <ele>2.51</ele>
        <time>2017-10-07T13:43:07.000Z</time>
      </trkpt>
      <trkpt lat="43.39621" lon="6.72334">
        <ele>2.42</ele>
        <time>2017-10-07T13:43:12.000Z</time>
      </trkpt>
      <trkpt lat="43.39617" lon="6.72373">
        <ele>2.68</ele>
        <time>2017-10-07T13:43:17.000Z</time>
      </trkpt>
      <trkpt lat="43.39614" lon="6.72413">
        <ele>3.34</ele>
        <time>2017-10-07T13:43:22.000Z</time>
      </trkpt>
      <trkpt lat="43.39608" lon="6.72452">
        <ele>4.75</ele>
        <time>2017-10-07T13:43:27.000Z</time>
      </trkpt>
      <trkpt lat="43.39603" lon="6.72492">
        <ele>6.2</ele>
        <time>2017-10-07T13:43:32.000Z</time>
      </trkpt>
      <trkpt lat="43.39597" lon="6.72529">
        <ele>6.29</ele>
        <time>2017-10-07T13:43:37.000Z</time>
      </trkpt>
      <trkpt lat="43.39589" lon="6.72565">
        <ele>5.62</ele>
        <time>2017-10-07T13:43:42.000Z</time>
      </trkpt>
      <trkpt lat="43.39581" lon="6.72599">
        <ele>4.22</ele>
        <time>2017-10-07T13:43:47.000Z</time>
      </trkpt>
      <trkpt lat="43.39564" lon="6.72619">
        <ele>2.74</ele>
        <time>2017-10-07T13:43:52.000Z</time>
      </trkpt>
      <trkpt lat="43.3954" lon="6.72606">
        <ele>3.33</ele>
        <time>2017-10-07T13:43:57.000Z</time>
      </trkpt>
      <trkpt lat="43.39515" lon="6.72595">
        <ele>3.58</ele>
        <time>2017-10-07T13:44:02.000Z</time>
      </trkpt>
      <trkpt lat="43.39488" lon="6.72594">
        <ele>3.62</ele>
        <time>2017-10-07T13:44:07.000Z</time>
      </trkpt>
      <trkpt lat="43.39462" lon="6.72603">
        <ele>3.45</ele>
        <time>2017-10-07T13:44:12.000Z</time>
      </trkpt>
      <trkpt lat="43.38896" lon="6.72768">
        <ele>23.96</ele>
        <time>2017-10-07T13:48:10.082Z</time>
      </trkpt>
      <trkpt lat="43.38905" lon="6.7278">
        <ele>23.72</ele>
        <time>2017-10-07T13:48:15.000Z</time>
      </trkpt>
      <trkpt lat="43.38897" lon="6.72773">
        <ele>23.81</ele>
        <time>2017-10-07T13:48:30.000Z</time>
      </trkpt>
      <trkpt lat="43.38882" lon="6.7278">
        <ele>22.91</ele>
        <time>2017-10-07T13:48:35.000Z</time>
      </trkpt>
      <trkpt lat="43.3887" lon="6.72807">
        <ele>21</ele>
        <time>2017-10-07T13:48:40.000Z</time>
      </trkpt>
      <trkpt lat="43.3886" lon="6.72836">
        <ele>19.11</ele>
        <time>2017-10-07T13:48:45.000Z</time>
      </trkpt>
      <trkpt lat="43.38847" lon="6.72879">
        <ele>16.34</ele>
        <time>2017-10-07T13:48:50.000Z</time>
      </trkpt>
      <trkpt lat="43.38829" lon="6.7293">
        <ele>13.38</ele>
        <time>2017-10-07T13:48:55.000Z</time>
      </trkpt>
      <trkpt lat="43.38811" lon="6.72974">
        <ele>11.44</ele>
        <time>2017-10-07T13:49:00.000Z</time>
      </trkpt>
      <trkpt lat="43.38799" lon="6.73003">
        <ele>8.97</ele>
        <time>2017-10-07T13:49:05.000Z</time>
      </trkpt>
      <trkpt lat="43.38808" lon="6.72997">
        <ele>9.97</ele>
        <time>2017-10-07T13:50:18.000Z</time>
      </trkpt>
      <trkpt lat="43.38814" lon="6.72981">
        <ele>11.33</ele>
        <time>2017-10-07T13:50:23.000Z</time>
      </trkpt>
      <trkpt lat="43.38822" lon="6.72963">
        <ele>12.34</ele>
        <time>2017-10-07T13:50:28.000Z</time>
      </trkpt>
      <trkpt lat="43.3883" lon="6.72942">
        <ele>13.15</ele>
        <time>2017-10-07T13:50:33.000Z</time>
      </trkpt>
      <trkpt lat="43.38836" lon="6.72923">
        <ele>13.87</ele>
        <time>2017-10-07T13:50:38.000Z</time>
      </trkpt>
      <trkpt lat="43.38841" lon="6.72908">
        <ele>14.63</ele>
        <time>2017-10-07T13:50:43.000Z</time>
      </trkpt>
      <trkpt lat="43.38848" lon="6.72891">
        <ele>15.71</ele>
        <time>2017-10-07T13:50:48.000Z</time>
      </trkpt>
      <trkpt lat="43.38852" lon="6.72877">
        <ele>16.6</ele>
        <time>2017-10-07T13:50:53.000Z</time>
      </trkpt>
      <trkpt lat="43.38858" lon="6.72864">
        <ele>17.53</ele>
        <time>2017-10-07T13:50:58.000Z</time>
      </trkpt>
      <trkpt lat="43.38863" lon="6.72851">
        <ele>18.45</ele>
        <time>2017-10-07T13:51:03.000Z</time>
      </trkpt>
      <trkpt lat="43.38868" lon="6.72837">
        <ele>19.34</ele>
        <time>2017-10-07T13:51:08.000Z</time>
      </trkpt>
      <trkpt lat="43.38874" lon="6.72825">
        <ele>20.22</ele>
        <time>2017-10-07T13:51:13.000Z</time>
      </trkpt>
      <trkpt lat="43.3888" lon="6.72809">
        <ele>21.32</ele>
        <time>2017-10-07T13:51:18.000Z</time>
      </trkpt>
      <trkpt lat="43.38888" lon="6.72791">
        <ele>22.58</ele>
        <time>2017-10-07T13:51:23.000Z</time>
      </trkpt>
      <trkpt lat="43.38891" lon="6.72778">
        <ele>23.35</ele>
        <time>2017-10-07T13:51:29.000Z</time>
      </trkpt>
      <trkpt lat="43.389" lon="6.72783">
        <ele>23.42</ele>
        <time>2017-10-07T13:51:41.000Z</time>
      </trkpt>
      <trkpt lat="43.38913" lon="6.72798">
        <ele>22.94</ele>
        <time>2017-10-07T13:51:46.000Z</time>
      </trkpt>
      <trkpt lat="43.38929" lon="6.72809">
        <ele>22.48</ele>
        <time>2017-10-07T13:51:51.000Z</time>
      </trkpt>
      <trkpt lat="43.38943" lon="6.72816">
        <ele>22.13</ele>
        <time>2017-10-07T13:51:56.000Z</time>
      </trkpt>
      <trkpt lat="43.38963" lon="6.72826">
        <ele>21.64</ele>
        <time>2017-10-07T13:52:01.000Z</time>
      </trkpt>
      <trkpt lat="43.38985" lon="6.72842">
        <ele>20.89</ele>
        <time>2017-10-07T13:52:06.000Z</time>
      </trkpt>
      <trkpt lat="43.39001" lon="6.72855">
        <ele>20.18</ele>
        <time>2017-10-07T13:52:11.000Z</time>
      </trkpt>
      <trkpt lat="43.39017" lon="6.72864">
        <ele>19.33</ele>
        <time>2017-10-07T13:52:16.000Z</time>
      </trkpt>
      <trkpt lat="43.39028" lon="6.72872">
        <ele>18.51</ele>
        <time>2017-10-07T13:52:21.000Z</time>
      </trkpt>
      <trkpt lat="43.39042" lon="6.72876">
        <ele>17.64</ele>
        <time>2017-10-07T13:52:26.000Z</time>
      </trkpt>
      <trkpt lat="43.39053" lon="6.72888">
        <ele>16.27</ele>
        <time>2017-10-07T13:52:31.000Z</time>
      </trkpt>
      <trkpt lat="43.39061" lon="6.72894">
        <ele>15.46</ele>
        <time>2017-10-07T13:52:36.000Z</time>
      </trkpt>
      <trkpt lat="43.39079" lon="6.7291">
        <ele>13.57</ele>
        <time>2017-10-07T13:52:41.000Z</time>
      </trkpt>
      <trkpt lat="43.39092" lon="6.72918">
        <ele>12.48</ele>
        <time>2017-10-07T13:52:46.000Z</time>
      </trkpt>
      <trkpt lat="43.39107" lon="6.72927">
        <ele>11.36</ele>
        <time>2017-10-07T13:52:51.000Z</time>
      </trkpt>
      <trkpt lat="43.39124" lon="6.72936">
        <ele>10.02</ele>
        <time>2017-10-07T13:52:56.000Z</time>
      </trkpt>
      <trkpt lat="43.39148" lon="6.72954">
        <ele>7.15</ele>
        <time>2017-10-07T13:53:01.000Z</time>
      </trkpt>
      <trkpt lat="43.3916" lon="6.72958">
        <ele>5.86</ele>
        <time>2017-10-07T13:53:06.000Z</time>
      </trkpt>
      <trkpt lat="43.39168" lon="6.72967">
        <ele>4.67</ele>
        <time>2017-10-07T13:53:11.000Z</time>
      </trkpt>
      <trkpt lat="43.39178" lon="6.72964">
        <ele>4.11</ele>
        <time>2017-10-07T13:53:16.000Z</time>
      </trkpt>
      <trkpt lat="43.39184" lon="6.72949">
        <ele>4.44</ele>
        <time>2017-10-07T13:53:21.000Z</time>
      </trkpt>
      <trkpt lat="43.39193" lon="6.72938">
        <ele>4.23</ele>
        <time>2017-10-07T13:53:33.000Z</time>
      </trkpt>
      <trkpt lat="43.39206" lon="6.72923">
        <ele>3.6</ele>
        <time>2017-10-07T13:53:38.000Z</time>
      </trkpt>
      <trkpt lat="43.39216" lon="6.72926">
        <ele>2.45</ele>
        <time>2017-10-07T13:53:43.000Z</time>
      </trkpt>
      <trkpt lat="43.39216" lon="6.72907">
        <ele>3.48</ele>
        <time>2017-10-07T13:53:48.000Z</time>
      </trkpt>
      <trkpt lat="43.39227" lon="6.72908">
        <ele>2.28</ele>
        <time>2017-10-07T13:53:54.000Z</time>
      </trkpt>
      <trkpt lat="43.39237" lon="6.72896">
        <ele>2.18</ele>
        <time>2017-10-07T13:53:59.000Z</time>
      </trkpt>
      <trkpt lat="43.39246" lon="6.72878">
        <ele>3.28</ele>
        <time>2017-10-07T13:54:04.000Z</time>
      </trkpt>
      <trkpt lat="43.39256" lon="6.72861">
        <ele>4.38</ele>
        <time>2017-10-07T13:54:09.000Z</time>
      </trkpt>
      <trkpt lat="43.39268" lon="6.72845">
        <ele>4.84</ele>
        <time>2017-10-07T13:54:14.000Z</time>
      </trkpt>
      <trkpt lat="43.39278" lon="6.72832">
        <ele>4.54</ele>
        <time>2017-10-07T13:54:19.000Z</time>
      </trkpt>
      <trkpt lat="43.39284" lon="6.7282">
        <ele>4.46</ele>
        <time>2017-10-07T13:54:24.000Z</time>
      </trkpt>
      <trkpt lat="43.39286" lon="6.72806">
        <ele>4.74</ele>
        <time>2017-10-07T13:54:30.000Z</time>
      </trkpt>
      <trkpt lat="43.3929" lon="6.72795">
        <ele>4.62</ele>
        <time>2017-10-07T13:54:35.000Z</time>
      </trkpt>
      <trkpt lat="43.39298" lon="6.72787">
        <ele>4.03</ele>
        <time>2017-10-07T13:54:40.000Z</time>
      </trkpt>
      <trkpt lat="43.39303" lon="6.72776">
        <ele>3.82</ele>
        <time>2017-10-07T13:54:46.000Z</time>
      </trkpt>
      <trkpt lat="43.39313" lon="6.72776">
        <ele>2.94</ele>
        <time>2017-10-07T13:55:02.000Z</time>
      </trkpt>
      <trkpt lat="43.39324" lon="6.72781">
        <ele>1.93</ele>
        <time>2017-10-07T13:55:07.000Z</time>
      </trkpt>
      <trkpt lat="43.39339" lon="6.72787">
        <ele>0.86</ele>
        <time>2017-10-07T13:55:12.000Z</time>
      </trkpt>
      <trkpt lat="43.39354" lon="6.72791">
        <ele>0.29</ele>
        <time>2017-10-07T13:55:17.000Z</time>
      </trkpt>
      <trkpt lat="43.39366" lon="6.72788">
        <ele>0.14</ele>
        <time>2017-10-07T13:55:22.000Z</time>
      </trkpt>
      <trkpt lat="43.3938" lon="6.72785">
        <ele>0.1</ele>
        <time>2017-10-07T13:55:27.000Z</time>
      </trkpt>
      <trkpt lat="43.39397" lon="6.72788">
        <ele>0.05</ele>
        <time>2017-10-07T13:55:32.000Z</time>
      </trkpt>
      <trkpt lat="43.39416" lon="6.72795">
        <ele>3.6</ele>
        <time>2017-10-07T13:55:37.000Z</time>
      </trkpt>
      <trkpt lat="43.39439" lon="6.72803">
        <ele>-0.05</ele>
        <time>2017-10-07T13:55:42.000Z</time>
      </trkpt>
      <trkpt lat="43.39462" lon="6.72813">
        <ele>-0.02</ele>
        <time>2017-10-07T13:55:47.000Z</time>
      </trkpt>
      <trkpt lat="43.39487" lon="6.72822">
        <ele>3.2</ele>
        <time>2017-10-07T13:55:52.000Z</time>
      </trkpt>
      <trkpt lat="43.39512" lon="6.72831">
        <ele>3.4</ele>
        <time>2017-10-07T13:55:57.000Z</time>
      </trkpt>
      <trkpt lat="43.39536" lon="6.72841">
        <ele>2.8</ele>
        <time>2017-10-07T13:56:02.000Z</time>
      </trkpt>
      <trkpt lat="43.39562" lon="6.72849">
        <ele>2.5</ele>
        <time>2017-10-07T13:56:07.000Z</time>
      </trkpt>
      <trkpt lat="43.39589" lon="6.72858">
        <ele>2.8</ele>
        <time>2017-10-07T13:56:12.000Z</time>
      </trkpt>
      <trkpt lat="43.39616" lon="6.72868">
        <ele>2.7</ele>
        <time>2017-10-07T13:56:17.000Z</time>
      </trkpt>
      <trkpt lat="43.39644" lon="6.72877">
        <ele>2.2</ele>
        <time>2017-10-07T13:56:22.000Z</time>
      </trkpt>
      <trkpt lat="43.39672" lon="6.72888">
        <ele>-0.01</ele>
        <time>2017-10-07T13:56:27.000Z</time>
      </trkpt>
      <trkpt lat="43.39699" lon="6.72898">
        <ele>-0.14</ele>
        <time>2017-10-07T13:56:32.000Z</time>
      </trkpt>
      <trkpt lat="43.39726" lon="6.72907">
        <ele>-0.22</ele>
        <time>2017-10-07T13:56:37.000Z</time>
      </trkpt>
      <trkpt lat="43.39749" lon="6.72917">
        <ele>-0.02</ele>
        <time>2017-10-07T13:56:42.000Z</time>
      </trkpt>
      <trkpt lat="43.39774" lon="6.72927">
        <ele>0.7</ele>
        <time>2017-10-07T13:56:47.000Z</time>
      </trkpt>
      <trkpt lat="43.39802" lon="6.72937">
        <ele>1.68</ele>
        <time>2017-10-07T13:56:52.000Z</time>
      </trkpt>
      <trkpt lat="43.39831" lon="6.72947">
        <ele>2.05</ele>
        <time>2017-10-07T13:56:57.000Z</time>
      </trkpt>
      <trkpt lat="43.39862" lon="6.72958">
        <ele>1.5</ele>
        <time>2017-10-07T13:57:02.000Z</time>
      </trkpt>
      <trkpt lat="43.3989" lon="6.72966">
        <ele>0.89</ele>
        <time>2017-10-07T13:57:07.000Z</time>
      </trkpt>
      <trkpt lat="43.39916" lon="6.72975">
        <ele>0.53</ele>
        <time>2017-10-07T13:57:12.000Z</time>
      </trkpt>
      <trkpt lat="43.39946" lon="6.7298">
        <ele>0.47</ele>
        <time>2017-10-07T13:57:17.000Z</time>
      </trkpt>
      <trkpt lat="43.39976" lon="6.72985">
        <ele>0.4</ele>
        <time>2017-10-07T13:57:22.000Z</time>
      </trkpt>
      <trkpt lat="43.40009" lon="6.72986">
        <ele>0.37</ele>
        <time>2017-10-07T13:57:27.000Z</time>
      </trkpt>
      <trkpt lat="43.4004" lon="6.72989">
        <ele>0.14</ele>
        <time>2017-10-07T13:57:32.000Z</time>
      </trkpt>
      <trkpt lat="43.40073" lon="6.7299">
        <ele>0.01</ele>
        <time>2017-10-07T13:57:37.000Z</time>
      </trkpt>
      <trkpt lat="43.40105" lon="6.72993">
        <ele>-0.02</ele>
        <time>2017-10-07T13:57:42.000Z</time>
      </trkpt>
      <trkpt lat="43.40138" lon="6.72995">
        <ele>-0.07</ele>
        <time>2017-10-07T13:57:47.000Z</time>
      </trkpt>
      <trkpt lat="43.40171" lon="6.72994">
        <ele>0.19</ele>
        <time>2017-10-07T13:57:52.000Z</time>
      </trkpt>
      <trkpt lat="43.40205" lon="6.72995">
        <ele>0.97</ele>
        <time>2017-10-07T13:57:57.000Z</time>
      </trkpt>
      <trkpt lat="43.4024" lon="6.72992">
        <ele>1.86</ele>
        <time>2017-10-07T13:58:02.000Z</time>
      </trkpt>
      <trkpt lat="43.40273" lon="6.72984">
        <ele>2.08</ele>
        <time>2017-10-07T13:58:07.000Z</time>
      </trkpt>
      <trkpt lat="43.40304" lon="6.72974">
        <ele>1.88</ele>
        <time>2017-10-07T13:58:12.000Z</time>
      </trkpt>
      <trkpt lat="43.40335" lon="6.72962">
        <ele>1.77</ele>
        <time>2017-10-07T13:58:17.000Z</time>
      </trkpt>
      <trkpt lat="43.40364" lon="6.72945">
        <ele>2.21</ele>
        <time>2017-10-07T13:58:22.000Z</time>
      </trkpt>
      <trkpt lat="43.40395" lon="6.72927">
        <ele>3.4</ele>
        <time>2017-10-07T13:58:27.000Z</time>
      </trkpt>
      <trkpt lat="43.40422" lon="6.72907">
        <ele>4</ele>
        <time>2017-10-07T13:58:32.000Z</time>
      </trkpt>
      <trkpt lat="43.40447" lon="6.72883">
        <ele>3.48</ele>
        <time>2017-10-07T13:58:37.000Z</time>
      </trkpt>
      <trkpt lat="43.40471" lon="6.72857">
        <ele>2.62</ele>
        <time>2017-10-07T13:58:42.000Z</time>
      </trkpt>
      <trkpt lat="43.40495" lon="6.72834">
        <ele>2.01</ele>
        <time>2017-10-07T13:58:47.000Z</time>
      </trkpt>
      <trkpt lat="43.40521" lon="6.72807">
        <ele>1.49</ele>
        <time>2017-10-07T13:58:52.000Z</time>
      </trkpt>
      <trkpt lat="43.40545" lon="6.72781">
        <ele>1.39</ele>
        <time>2017-10-07T13:58:57.000Z</time>
      </trkpt>
      <trkpt lat="43.40569" lon="6.72755">
        <ele>1.79</ele>
        <time>2017-10-07T13:59:02.000Z</time>
      </trkpt>
      <trkpt lat="43.40595" lon="6.7273">
        <ele>1.92</ele>
        <time>2017-10-07T13:59:07.000Z</time>
      </trkpt>
      <trkpt lat="43.4062" lon="6.72705">
        <ele>1.84</ele>
        <time>2017-10-07T13:59:12.000Z</time>
      </trkpt>
      <trkpt lat="43.40645" lon="6.72682">
        <ele>1.94</ele>
        <time>2017-10-07T13:59:17.000Z</time>
      </trkpt>
      <trkpt lat="43.40668" lon="6.72657">
        <ele>1.86</ele>
        <time>2017-10-07T13:59:22.000Z</time>
      </trkpt>
      <trkpt lat="43.40692" lon="6.72632">
        <ele>1.51</ele>
        <time>2017-10-07T13:59:27.000Z</time>
      </trkpt>
      <trkpt lat="43.40721" lon="6.72603">
        <ele>1.59</ele>
        <time>2017-10-07T13:59:32.000Z</time>
      </trkpt>
      <trkpt lat="43.40747" lon="6.72574">
        <ele>1.81</ele>
        <time>2017-10-07T13:59:37.000Z</time>
      </trkpt>
      <trkpt lat="43.40771" lon="6.72548">
        <ele>1.47</ele>
        <time>2017-10-07T13:59:42.000Z</time>
      </trkpt>
      <trkpt lat="43.40797" lon="6.72523">
        <ele>1.4</ele>
        <time>2017-10-07T13:59:47.000Z</time>
      </trkpt>
      <trkpt lat="43.40822" lon="6.72499">
        <ele>1.77</ele>
        <time>2017-10-07T13:59:52.000Z</time>
      </trkpt>
      <trkpt lat="43.40848" lon="6.72474">
        <ele>1.97</ele>
        <time>2017-10-07T13:59:57.000Z</time>
      </trkpt>
      <trkpt lat="43.40875" lon="6.72448">
        <ele>2.2</ele>
        <time>2017-10-07T14:00:02.000Z</time>
      </trkpt>
      <trkpt lat="43.40898" lon="6.72423">
        <ele>2.67</ele>
        <time>2017-10-07T14:00:07.000Z</time>
      </trkpt>
      <trkpt lat="43.40928" lon="6.7242">
        <ele>3.11</ele>
        <time>2017-10-07T14:00:12.000Z</time>
      </trkpt>
      <trkpt lat="43.40958" lon="6.72413">
        <ele>3.09</ele>
        <time>2017-10-07T14:00:17.000Z</time>
      </trkpt>
      <trkpt lat="43.40988" lon="6.72413">
        <ele>2.95</ele>
        <time>2017-10-07T14:00:22.000Z</time>
      </trkpt>
      <trkpt lat="43.41019" lon="6.72418">
        <ele>3.04</ele>
        <time>2017-10-07T14:00:27.000Z</time>
      </trkpt>
      <trkpt lat="43.41051" lon="6.72428">
        <ele>3.2</ele>
        <time>2017-10-07T14:00:32.000Z</time>
      </trkpt>
      <trkpt lat="43.41072" lon="6.72446">
        <ele>3.2</ele>
        <time>2017-10-07T14:00:37.000Z</time>
      </trkpt>
      <trkpt lat="43.41091" lon="6.72451">
        <ele>3.1</ele>
        <time>2017-10-07T14:00:42.000Z</time>
      </trkpt>
      <trkpt lat="43.41118" lon="6.72464">
        <ele>2.96</ele>
        <time>2017-10-07T14:00:47.000Z</time>
      </trkpt>
      <trkpt lat="43.41147" lon="6.72475">
        <ele>3.11</ele>
        <time>2017-10-07T14:00:52.000Z</time>
      </trkpt>
      <trkpt lat="43.41155" lon="6.72483">
        <ele>3.37</ele>
        <time>2017-10-07T14:01:23.000Z</time>
      </trkpt>
      <trkpt lat="43.41161" lon="6.72493">
        <ele>3.72</ele>
        <time>2017-10-07T14:01:33.000Z</time>
      </trkpt>
      <trkpt lat="43.41168" lon="6.72501">
        <ele>4.04</ele>
        <time>2017-10-07T14:01:41.000Z</time>
      </trkpt>
      <trkpt lat="43.41183" lon="6.72508">
        <ele>4.49</ele>
        <time>2017-10-07T14:01:46.000Z</time>
      </trkpt>
      <trkpt lat="43.41206" lon="6.72516">
        <ele>5.13</ele>
        <time>2017-10-07T14:01:51.000Z</time>
      </trkpt>
      <trkpt lat="43.4123" lon="6.72533">
        <ele>5.63</ele>
        <time>2017-10-07T14:01:56.000Z</time>
      </trkpt>
      <trkpt lat="43.41253" lon="6.72545">
        <ele>5.62</ele>
        <time>2017-10-07T14:02:01.000Z</time>
      </trkpt>
      <trkpt lat="43.41275" lon="6.72553">
        <ele>5.39</ele>
        <time>2017-10-07T14:02:06.000Z</time>
      </trkpt>
      <trkpt lat="43.413" lon="6.7256">
        <ele>5.1</ele>
        <time>2017-10-07T14:02:11.000Z</time>
      </trkpt>
      <trkpt lat="43.41322" lon="6.72576">
        <ele>5.06</ele>
        <time>2017-10-07T14:02:16.000Z</time>
      </trkpt>
      <trkpt lat="43.41346" lon="6.72589">
        <ele>4.83</ele>
        <time>2017-10-07T14:02:21.000Z</time>
      </trkpt>
      <trkpt lat="43.41372" lon="6.72595">
        <ele>4.25</ele>
        <time>2017-10-07T14:02:26.000Z</time>
      </trkpt>
      <trkpt lat="43.41393" lon="6.72616">
        <ele>4.2</ele>
        <time>2017-10-07T14:02:31.000Z</time>
      </trkpt>
      <trkpt lat="43.41413" lon="6.72636">
        <ele>4.4</ele>
        <time>2017-10-07T14:02:36.000Z</time>
      </trkpt>
      <trkpt lat="43.41438" lon="6.72649">
        <ele>4.67</ele>
        <time>2017-10-07T14:02:41.000Z</time>
      </trkpt>
      <trkpt lat="43.41463" lon="6.72663">
        <ele>5.09</ele>
        <time>2017-10-07T14:02:46.000Z</time>
      </trkpt>
      <trkpt lat="43.41486" lon="6.72677">
        <ele>5.25</ele>
        <time>2017-10-07T14:02:51.000Z</time>
      </trkpt>
      <trkpt lat="43.41508" lon="6.72689">
        <ele>4.93</ele>
        <time>2017-10-07T14:02:56.000Z</time>
      </trkpt>
      <trkpt lat="43.41532" lon="6.72703">
        <ele>4.2</ele>
        <time>2017-10-07T14:03:01.000Z</time>
      </trkpt>
      <trkpt lat="43.41558" lon="6.72717">
        <ele>3.59</ele>
        <time>2017-10-07T14:03:06.000Z</time>
      </trkpt>
      <trkpt lat="43.41585" lon="6.72732">
        <ele>3.51</ele>
        <time>2017-10-07T14:03:11.000Z</time>
      </trkpt>
      <trkpt lat="43.41611" lon="6.72743">
        <ele>3.82</ele>
        <time>2017-10-07T14:03:16.000Z</time>
      </trkpt>
      <trkpt lat="43.41638" lon="6.72758">
        <ele>4.13</ele>
        <time>2017-10-07T14:03:21.000Z</time>
      </trkpt>
      <trkpt lat="43.41667" lon="6.72773">
        <ele>4.13</ele>
        <time>2017-10-07T14:03:26.000Z</time>
      </trkpt>
      <trkpt lat="43.41696" lon="6.72789">
        <ele>4.09</ele>
        <time>2017-10-07T14:03:31.000Z</time>
      </trkpt>
      <trkpt lat="43.4173" lon="6.72806">
        <ele>4.51</ele>
        <time>2017-10-07T14:03:36.000Z</time>
      </trkpt>
      <trkpt lat="43.4176" lon="6.72822">
        <ele>4.75</ele>
        <time>2017-10-07T14:03:41.000Z</time>
      </trkpt>
      <trkpt lat="43.4179" lon="6.7284">
        <ele>4.2</ele>
        <time>2017-10-07T14:03:46.000Z</time>
      </trkpt>
      <trkpt lat="43.41815" lon="6.72854">
        <ele>3.71</ele>
        <time>2017-10-07T14:03:51.000Z</time>
      </trkpt>
      <trkpt lat="43.41833" lon="6.7286">
        <ele>3.53</ele>
        <time>2017-10-07T14:03:56.000Z</time>
      </trkpt>
      <trkpt lat="43.41859" lon="6.72843">
        <ele>2.98</ele>
        <time>2017-10-07T14:04:01.000Z</time>
      </trkpt>
      <trkpt lat="43.41887" lon="6.72833">
        <ele>2.99</ele>
        <time>2017-10-07T14:04:06.000Z</time>
      </trkpt>
      <trkpt lat="43.41913" lon="6.72839">
        <ele>2.98</ele>
        <time>2017-10-07T14:04:11.000Z</time>
      </trkpt>
      <trkpt lat="43.41939" lon="6.7284">
        <ele>2.73</ele>
        <time>2017-10-07T14:04:16.000Z</time>
      </trkpt>
      <trkpt lat="43.41961" lon="6.72845">
        <ele>2.46</ele>
        <time>2017-10-07T14:04:21.000Z</time>
      </trkpt>
      <trkpt lat="43.41974" lon="6.72872">
        <ele>2.65</ele>
        <time>2017-10-07T14:04:26.000Z</time>
      </trkpt>
      <trkpt lat="43.41977" lon="6.72906">
        <ele>3.16</ele>
        <time>2017-10-07T14:04:31.000Z</time>
      </trkpt>
      <trkpt lat="43.41993" lon="6.72927">
        <ele>3.03</ele>
        <time>2017-10-07T14:04:36.000Z</time>
      </trkpt>
      <trkpt lat="43.4201" lon="6.72941">
        <ele>2.82</ele>
        <time>2017-10-07T14:04:41.000Z</time>
      </trkpt>
      <trkpt lat="43.42002" lon="6.72931">
        <ele>2.95</ele>
        <time>2017-10-07T14:04:47.000Z</time>
      </trkpt>
      <trkpt lat="43.41985" lon="6.72912">
        <ele>3.11</ele>
        <time>2017-10-07T14:04:52.000Z</time>
      </trkpt>
      <trkpt lat="43.41974" lon="6.72907">
        <ele>3.2</ele>
        <time>2017-10-07T14:04:57.000Z</time>
      </trkpt>
      <trkpt lat="43.41967" lon="6.7292">
        <ele>3.32</ele>
        <time>2017-10-07T14:05:02.000Z</time>
      </trkpt>
      <trkpt lat="43.41965" lon="6.72947">
        <ele>3.11</ele>
        <time>2017-10-07T14:05:07.000Z</time>
      </trkpt>
      <trkpt lat="43.41984" lon="6.72972">
        <ele>2.62</ele>
        <time>2017-10-07T14:05:12.000Z</time>
      </trkpt>
      <trkpt lat="43.4201" lon="6.72987">
        <ele>2.13</ele>
        <time>2017-10-07T14:05:17.000Z</time>
      </trkpt>
      <trkpt lat="43.42031" lon="6.73">
        <ele>1.59</ele>
        <time>2017-10-07T14:05:22.000Z</time>
      </trkpt>
      <trkpt lat="43.42055" lon="6.73015">
        <ele>0.87</ele>
        <time>2017-10-07T14:05:27.000Z</time>
      </trkpt>
      <trkpt lat="43.42081" lon="6.7303">
        <ele>0.16</ele>
        <time>2017-10-07T14:05:32.000Z</time>
      </trkpt>
      <trkpt lat="43.42106" lon="6.73046">
        <ele>-0.28</ele>
        <time>2017-10-07T14:05:37.000Z</time>
      </trkpt>
      <trkpt lat="43.42129" lon="6.73065">
        <ele>-0.43</ele>
        <time>2017-10-07T14:05:42.000Z</time>
      </trkpt>
      <trkpt lat="43.42149" lon="6.73089">
        <ele>-0.21</ele>
        <time>2017-10-07T14:05:47.000Z</time>
      </trkpt>
      <trkpt lat="43.42163" lon="6.7311">
        <ele>0.47</ele>
        <time>2017-10-07T14:05:52.000Z</time>
      </trkpt>
      <trkpt lat="43.42179" lon="6.73138">
        <ele>1.62</ele>
        <time>2017-10-07T14:05:57.000Z</time>
      </trkpt>
      <trkpt lat="43.42197" lon="6.73167">
        <ele>2.48</ele>
        <time>2017-10-07T14:06:02.000Z</time>
      </trkpt>
      <trkpt lat="43.42213" lon="6.73193">
        <ele>2.71</ele>
        <time>2017-10-07T14:06:07.000Z</time>
      </trkpt>
      <trkpt lat="43.42231" lon="6.7322">
        <ele>2.86</ele>
        <time>2017-10-07T14:06:12.000Z</time>
      </trkpt>
      <trkpt lat="43.42248" lon="6.73245">
        <ele>3</ele>
        <time>2017-10-07T14:06:17.000Z</time>
      </trkpt>
      <trkpt lat="43.42265" lon="6.73272">
        <ele>2.91</ele>
        <time>2017-10-07T14:06:22.000Z</time>
      </trkpt>
      <trkpt lat="43.42281" lon="6.73299">
        <ele>2.63</ele>
        <time>2017-10-07T14:06:27.000Z</time>
      </trkpt>
      <trkpt lat="43.42296" lon="6.73328">
        <ele>2.46</ele>
        <time>2017-10-07T14:06:32.000Z</time>
      </trkpt>
      <trkpt lat="43.42312" lon="6.73353">
        <ele>2.42</ele>
        <time>2017-10-07T14:06:37.000Z</time>
      </trkpt>
      <trkpt lat="43.42328" lon="6.73381">
        <ele>2.31</ele>
        <time>2017-10-07T14:06:42.000Z</time>
      </trkpt>
      <trkpt lat="43.42344" lon="6.73404">
        <ele>2.35</ele>
        <time>2017-10-07T14:06:47.000Z</time>
      </trkpt>
      <trkpt lat="43.42361" lon="6.73431">
        <ele>2.77</ele>
        <time>2017-10-07T14:06:52.000Z</time>
      </trkpt>
      <trkpt lat="43.42377" lon="6.7346">
        <ele>3.62</ele>
        <time>2017-10-07T14:06:57.000Z</time>
      </trkpt>
      <trkpt lat="43.42393" lon="6.7349">
        <ele>4.45</ele>
        <time>2017-10-07T14:07:02.000Z</time>
      </trkpt>
      <trkpt lat="43.42409" lon="6.73522">
        <ele>4.08</ele>
        <time>2017-10-07T14:07:07.000Z</time>
      </trkpt>
      <trkpt lat="43.42426" lon="6.73551">
        <ele>2.58</ele>
        <time>2017-10-07T14:07:12.000Z</time>
      </trkpt>
      <trkpt lat="43.42445" lon="6.73572">
        <ele>1.82</ele>
        <time>2017-10-07T14:07:17.000Z</time>
      </trkpt>
      <trkpt lat="43.42462" lon="6.7358">
        <ele>2.02</ele>
        <time>2017-10-07T14:07:22.000Z</time>
      </trkpt>
      <trkpt lat="43.42471" lon="6.73597">
        <ele>1.99</ele>
        <time>2017-10-07T14:07:27.000Z</time>
      </trkpt>
      <trkpt lat="43.42477" lon="6.73609">
        <ele>1.99</ele>
        <time>2017-10-07T14:07:32.000Z</time>
      </trkpt>
      <trkpt lat="43.42487" lon="6.73623">
        <ele>2.1</ele>
        <time>2017-10-07T14:07:37.000Z</time>
      </trkpt>
      <trkpt lat="43.42489" lon="6.73621">
        <ele>2.19</ele>
        <time>2017-10-07T14:08:48.000Z</time>
      </trkpt>
    </trkseg>
  </trk>
</gpx>